<
# Wetter Temperatur Luftdruck Luftfeuchtigkeit Sichtweite Windgeschwindigkeit Windrichtung Zeit
1 Clear 4 1013 75 10000 5.66 330 04:45 17.01.2021
2 Clear 4 1014 75 10000 5.66 320 04:27 17.01.2021
3 Clear 4 1015 81 10000 5.14 330 02:30 17.01.2021
4 Clear 5 1017 75 10000 3.09 320 00:38 17.01.2021
5 Clear 5 1017 75 10000 3.09 320 00:18 17.01.2021
6 Clear 5 1018 75 10000 2.57 320 23:48 16.01.2021
7 Clear 5 1018 81 10000 3.09 320 23:19 16.01.2021
8 Clear 5 1019 81 10000 1.54 310 22:28 16.01.2021
9 Clear 5 1019 81 10000 2.57 320 21:58 16.01.2021
10 Clear 5 1019 81 10000 3.09 330 21:24 16.01.2021
11 Clear 5 1019 81 10000 3.09 330 21:24 16.01.2021
12 Clear 5 1020 81 10000 3.09 320 20:53 16.01.2021
13 Clear 5 1020 81 10000 3.09 320 20:30 16.01.2021
14 Clear 6 1020 76 10000 2.57 310 19:55 16.01.2021
15 Clouds 6 1020 76 10000 2.06 260 19:37 16.01.2021
16 Clouds 6 1020 76 10000 2.06 260 19:18 16.01.2021
17 Clouds 6 1020 71 10000 3.09 260 18:40 16.01.2021
18 Clouds 7 1020 71 10000 3.09 260 18:20 16.01.2021
19 Clouds 7 1020 71 10000 3.09 270 17:41 16.01.2021
20 Clouds 7 1020 66 10000 3.09 250 17:21 16.01.2021
21 Clouds 8 1020 62 10000 2.57 230 16:45 16.01.2021
22 Clouds 8 1020 62 10000 2.57 230 16:25 16.01.2021
23 Clouds 9 1020 58 10000 2.06 210 15:48 16.01.2021
24 Clouds 8 1020 57 10000 2.06 190 14:59 16.01.2021
25 Clouds 8 1020 57 10000 3.09 160 14:19 16.01.2021
26 Clouds 8 1020 62 10000 2.57 120 13:48 16.01.2021
27 Clouds 8 1021 66 10000 2.57 100 13:21 16.01.2021
28 Clouds 8 1021 71 10000 2.57 310 12:39 16.01.2021
29 Clouds 8 1021 71 10000 2.57 310 12:20 16.01.2021
30 Clouds 7 1021 76 10000 4.12 320 11:46 16.01.2021
31 Clouds 7 1021 76 10000 4.12 320 11:24 16.01.2021
32 Clouds 7 1021 76 10000 4.12 320 10:46 16.01.2021
33 Clouds 7 1021 76 10000 4.12 320 10:21 16.01.2021
34 Clouds 6 1020 87 10000 4.12 310 09:33 16.01.2021
35 Clouds 6 1020 87 10000 4.12 310 08:35 16.01.2021
36 Clouds 6 1020 87 10000 4.63 310 07:48 16.01.2021
37 Clouds 6 1019 87 10000 3.6 320 06:43 16.01.2021
38 Clouds 7 1018 87 10000 4.12 320 04:39 16.01.2021
39 Clouds 7 1018 87 10000 3.6 310 02:56 16.01.2021
40 Clouds 7 1017 87 10000 2.57 320 00:50 16.01.2021
41 Clouds 8 1017 76 10000 4.63 90 00:28 16.01.2021
42 Clouds 8 1016 87 10000 1.54 0 23:58 15.01.2021
43 Clouds 8 1016 87 10000 2.57 330 23:22 15.01.2021
44 Clouds 8 1016 87 10000 2.06 340 22:25 15.01.2021
45 Clouds 8 1015 87 10000 3.6 320 21:46 15.01.2021
46 Clouds 8 1015 87 10000 3.6 320 21:21 15.01.2021
47 Clouds 8 1015 87 10000 2.57 320 20:41 15.01.2021
48 Clouds 8 1015 87 10000 4.12 330 20:22 15.01.2021
49 Clouds 8 1014 87 10000 2.57 330 19:41 15.01.2021
50 Clouds 8 1014 87 10000 3.6 330 19:23 15.01.2021
51 Clouds 9 1014 87 10000 3.6 330 18:44 15.01.2021
52 Clouds 9 1014 87 10000 3.6 330 18:44 15.01.2021
53 Clouds 9 1014 82 10000 1.54 290 18:19 15.01.2021
54 Clouds 10 1013 71 10000 3.6 220 17:52 15.01.2021
55 Clouds 10 1013 66 10000 4.63 200 17:27 15.01.2021
56 Clouds 10 1013 71 10000 5.66 200 16:58 15.01.2021
57 Clouds 10 1013 71 10000 5.14 200 16:26 15.01.2021
58 Clouds 10 1013 67 10000 4.12 200 15:56 15.01.2021
59 Clouds 11 1013 62 10000 4.12 230 15:37 15.01.2021
60 Clouds 11 1013 62 10000 4.12 230 15:18 15.01.2021
61 Clouds 11 1013 62 10000 5.14 230 14:37 15.01.2021
62 Clouds 11 1013 62 10000 5.14 230 14:18 15.01.2021
63 Clouds 11 1013 62 10000 5.66 240 13:40 15.01.2021
64 Clouds 11 1013 67 10000 5.66 230 13:19 15.01.2021
65 Clouds 11 1014 67 10000 3.09 310 12:45 15.01.2021
66 Clouds 11 1014 67 10000 3.09 310 12:22 15.01.2021
67 Clouds 9 1014 71 10000 3.6 320 11:42 15.01.2021
68 Clouds 9 1014 76 10000 5.14 320 11:18 15.01.2021
69 Clouds 8 1013 76 10000 5.14 320 10:48 15.01.2021
70 Clouds 8 1013 76 10000 4.63 330 10:21 15.01.2021
71 Clouds 7 1013 76 10000 3.6 350 09:48 15.01.2021
72 Clouds 7 1012 81 10000 4.63 340 09:29 15.01.2021
73 Clouds 7 1011 81 10000 4.63 330 08:28 15.01.2021
74 Clear 7 1011 81 10000 4.12 330 07:45 15.01.2021
75 Clear 8 1011 76 10000 4.12 330 07:23 15.01.2021
76 Clouds 7 1011 81 10000 5.14 320 06:37 15.01.2021
77 Rain 8 1011 76 10000 6.17 320 02:45 15.01.2021
78 Clouds 8 1011 81 10000 5.14 320 00:52 15.01.2021
79 Clouds 7 1010 87 10000 3.6 330 23:35 14.01.2021
80 Clouds 8 1010 87 10000 3.6 340 22:58 14.01.2021
81 Clouds 7 1010 87 10000 3.09 330 22:38 14.01.2021
82 Clouds 7 1010 87 10000 3.09 330 22:20 14.01.2021
83 Clouds 8 1010 87 10000 4.12 330 21:41 14.01.2021
84 Clouds 8 1010 87 10000 4.12 330 21:20 14.01.2021
85 Clouds 8 1010 87 10000 2.06 330 20:48 14.01.2021
86 Clouds 9 1010 81 10000 2.06 330 20:22 14.01.2021
87 Clouds 9 1010 81 10000 2.06 330 19:42 14.01.2021
88 Clouds 9 1009 82 10000 1.54 40 19:23 14.01.2021
89 Clouds 10 1009 76 10000 3.6 90 18:50 14.01.2021
90 Clouds 10 1009 76 10000 3.09 80 18:27 14.01.2021
91 Clouds 10 1008 76 10000 3.6 100 17:46 14.01.2021
92 Clouds 11 1008 76 10000 3.6 100 17:26 14.01.2021
93 Clouds 11 1008 76 10000 4.63 100 16:40 14.01.2021
94 Clouds 12 1008 71 10000 5.14 100 15:58 14.01.2021
95 Clouds 12 1008 76 10000 5.14 100 15:39 14.01.2021
96 Clouds 13 1008 76 10000 5.66 90 14:59 14.01.2021
97 Clouds 13 1008 76 10000 5.14 80 14:38 14.01.2021
98 Clouds 13 1008 76 10000 5.14 80 14:19 14.01.2021
99 Clouds 13 1008 76 10000 5.14 90 13:52 14.01.2021
100 Clouds 12 1009 76 10000 3.09 90 13:21 14.01.2021
101 Clouds 12 1009 76 10000 2.06 90 12:48 14.01.2021
102 Clouds 12 1009 71 10000 1.54 90 12:20 14.01.2021
103 Clouds 12 1010 66 10000 1.03 0 11:43 14.01.2021
104 Clouds 11 1010 66 10000 1.03 0 11:21 14.01.2021
105 Clear 10 1010 66 10000 2.06 310 10:52 14.01.2021
106 Clear 9 1010 76 10000 3.09 320 10:29 14.01.2021
107 Clear 8 1010 81 10000 4.63 320 09:48 14.01.2021
108 Clear 6 1010 87 10000 3.6 330 09:23 14.01.2021
109 Clouds 5 1011 87 10000 3.6 320 08:52 14.01.2021
110 Clouds 5 1010 87 10000 3.09 330 08:28 14.01.2021
111 Clouds 5 1010 81 10000 2.57 330 07:50 14.01.2021
112 Clear 5 1010 75 10000 2.06 350 06:59 14.01.2021
113 Clear 5 1010 75 10000 2.57 330 06:19 14.01.2021
114 Clear 5 1013 81 10000 3.09 330 01:55 14.01.2021
115 Clear 6 1014 87 10000 3.09 320 23:56 13.01.2021
116 Clear 6 1014 87 10000 3.09 330 23:24 13.01.2021
117 Clear 6 1014 87 10000 4.12 320 22:40 13.01.2021
118 Clear 6 1014 87 10000 4.12 320 22:18 13.01.2021
119 Clear 7 1015 81 10000 4.12 320 21:42 13.01.2021
120 Clear 7 1015 81 10000 4.12 320 21:19 13.01.2021
121 Clear 7 1015 87 10000 4.63 320 20:43 13.01.2021
122 Clear 7 1015 87 10000 5.14 320 20:21 13.01.2021
123 Clear 7 1015 87 10000 4.12 320 19:46 13.01.2021
124 Clear 7 1015 81 10000 3.6 320 19:23 13.01.2021
125 Clear 8 1015 76 10000 1.54 320 18:44 13.01.2021
126 Clear 8 1015 76 10000 1.4 335 18:22 13.01.2021
127 Clear 9 1014 71 10000 1.4 335 17:41 13.01.2021
128 Clear 10 1015 66 10000 1.03 0 17:18 13.01.2021
129 Clear 11 1015 66 10000 2.06 110 16:41 13.01.2021
130 Clear 11 1014 71 10000 3.09 100 16:21 13.01.2021
131 Clear 12 1014 71 10000 3.6 100 15:40 13.01.2021
132 Clear 12 1014 71 10000 2.57 120 14:59 13.01.2021
133 Clear 12 1014 66 10000 1.54 120 14:28 13.01.2021
134 Clear 12 1015 62 10000 1.03 0 13:46 13.01.2021
135 Clear 12 1015 62 10000 1.03 0 13:21 13.01.2021
136 Clear 12 1015 62 10000 1.54 0 12:46 13.01.2021
137 Clear 11 1016 54 10000 1.03 0 12:24 13.01.2021
138 Clear 11 1016 58 10000 0.63 132 11:51 13.01.2021
139 Clear 10 1015 66 10000 0.63 132 11:33 13.01.2021
140 Clear 10 1015 57 10000 2.06 320 10:49 13.01.2021
141 Clear 8 1015 65 10000 2.57 320 10:28 13.01.2021
142 Clear 6 1015 65 10000 2.57 320 09:40 13.01.2021
143 Clear 5 1014 70 10000 3.09 330 08:59 13.01.2021
144 Clear 4 1014 70 10000 3.09 330 08:41 13.01.2021
145 Clear 4 1014 70 10000 4.12 330 08:23 13.01.2021
146 Clear 4 1013 65 10000 4.12 330 07:29 13.01.2021
147 Clear 4 1013 65 10000 4.63 330 05:55 13.01.2021
148 Clear 3 1013 70 10000 4.63 330 04:18 13.01.2021
149 Clear 3 1013 70 10000 3.6 340 03:43 13.01.2021
150 Clear 4 1013 60 10000 4.12 330 03:22 13.01.2021
151 Clear 4 1013 65 10000 4.63 320 00:51 13.01.2021
152 Clear 4 1013 65 10000 4.63 320 23:44 12.01.2021
153 Clear 4 1013 70 10000 4.63 320 23:19 12.01.2021
154 Clear 4 1013 65 10000 3.09 330 22:39 12.01.2021
155 Clear 4 1013 65 10000 3.09 330 22:20 12.01.2021
156 Clear 4 1013 65 10000 3.09 330 21:44 12.01.2021
157 Clear 4 1013 65 10000 3.09 320 21:26 12.01.2021
158 Clear 4 1013 60 10000 2.57 330 20:48 12.01.2021
159 Clear 4 1013 60 10000 2.06 350 20:27 12.01.2021
160 Clear 5 1013 56 10000 3.6 330 19:47 12.01.2021
161 Clear 5 1013 56 10000 3.6 330 19:26 12.01.2021
162 Clear 5 1013 53 10000 3.09 320 18:41 12.01.2021
163 Clear 6 1013 53 10000 3.09 320 18:22 12.01.2021
164 Clear 6 1013 61 10000 1.54 110 17:39 12.01.2021
165 Clear 7 1013 61 10000 1.54 110 17:19 12.01.2021
166 Clear 8 1013 61 10000 1.54 120 16:43 12.01.2021
167 Clear 8 1013 57 10000 2.06 110 16:22 12.01.2021
168 Clear 8 1014 53 10000 1.43 165 15:29 12.01.2021
169 Clear 8 1014 53 10000 1.03 0 14:59 12.01.2021
170 Clear 9 1014 49 10000 2.06 240 14:41 12.01.2021
171 Clear 9 1014 49 10000 2.06 240 14:21 12.01.2021
172 Clear 8 1015 53 10000 3.09 300 13:50 12.01.2021
173 Clear 7 1016 49 10000 4.63 320 12:54 12.01.2021
174 Clear 6 1017 52 10000 5.14 320 12:22 12.01.2021
175 Clear 6 1017 52 10000 5.66 320 11:40 12.01.2021
176 Clear 5 1017 56 10000 6.17 330 10:52 12.01.2021
177 Clear 5 1017 56 10000 6.17 330 10:52 12.01.2021
178 Clear 4 1017 60 10000 6.17 320 10:22 12.01.2021
179 Clear 4 1017 60 10000 5.14 330 09:58 12.01.2021
180 Clear 4 1017 56 10000 5.14 330 09:28 12.01.2021
181 Clear 3 1017 60 10000 5.66 330 08:54 12.01.2021
182 Clear 3 1017 60 10000 4.63 330 08:26 12.01.2021
183 Clear 3 1017 65 10000 6.17 330 07:37 12.01.2021
184 Clear 3 1017 65 10000 4.63 330 06:49 12.01.2021
185 Clear 3 1017 60 10000 4.63 340 05:34 12.01.2021
186 Clear 3 1018 65 10000 3.09 330 03:27 12.01.2021
187 Clear 3 1018 65 10000 4.63 340 02:21 12.01.2021
188 Clear 3 1018 70 10000 4.63 340 01:31 12.01.2021
189 Clear 3 1018 70 10000 4.63 340 01:31 12.01.2021
190 Clear 3 1018 70 10000 4.63 340 01:31 12.01.2021
191 Clear 3 1018 70 10000 4.63 340 01:31 12.01.2021
192 Clear 3 1018 75 10000 5.66 330 23:58 11.01.2021
193 Clear 3 1019 75 10000 4.12 330 23:37 11.01.2021
194 Clear 3 1019 75 10000 4.12 330 23:18 11.01.2021
195 Clouds 4 1018 75 10000 3.6 330 22:45 11.01.2021
196 Clouds 4 1018 75 10000 3.6 330 22:26 11.01.2021
197 Clouds 4 1018 75 10000 3.09 340 21:43 11.01.2021
198 Clouds 4 1018 81 10000 3.6 330 21:24 11.01.2021
199 Clouds 5 1018 75 10000 3.6 320 20:49 11.01.2021
200 Clouds 5 1018 75 10000 2.57 330 20:29 11.01.2021
201 Clouds 6 1018 65 10000 2.57 360 19:57 11.01.2021
202 Clouds 6 1017 53 10000 2.57 100 19:35 11.01.2021
203 Clouds 7 1017 53 10000 2.57 120 18:46 11.01.2021
204 Clouds 7 1017 57 10000 3.09 100 18:28 11.01.2021
205 Clouds 7 1017 57 10000 3.6 110 17:57 11.01.2021
206 Clouds 7 1017 57 10000 4.63 110 17:39 11.01.2021
207 Clouds 7 1017 57 10000 4.63 110 17:20 11.01.2021
208 Clouds 7 1016 61 10000 4.63 100 16:43 11.01.2021
209 Clouds 8 1016 53 10000 4.63 90 16:24 11.01.2021
210 Clouds 8 1016 57 10000 4.12 90 15:50 11.01.2021
211 Clouds 8 1016 57 10000 0.51 0 15:31 11.01.2021
212 Clouds 8 1016 62 10000 1.03 0 14:41 11.01.2021
213 Clouds 8 1016 62 10000 1.03 0 14:41 11.01.2021
214 Clouds 8 1016 57 10000 1.85 152 14:19 11.01.2021
215 Clouds 8 1017 49 10000 3.09 320 13:44 11.01.2021
216 Clouds 8 1017 49 10000 3.09 320 13:20 11.01.2021
217 Clouds 8 1017 49 10000 4.63 320 12:41 11.01.2021
218 Clouds 8 1017 49 10000 4.63 320 12:22 11.01.2021
219 Clouds 8 1018 49 10000 5.14 330 11:44 11.01.2021
220 Clouds 6 1017 56 10000 5.14 330 10:55 11.01.2021
221 Clouds 5 1017 60 10000 4.63 330 10:32 11.01.2021
222 Clouds 4 1016 60 10000 4.63 340 09:48 11.01.2021
223 Clouds 4 1016 70 10000 5.14 330 09:25 11.01.2021
224 Clouds 3 1016 65 10000 5.14 340 08:52 11.01.2021
225 Clouds 3 1015 70 10000 4.63 340 08:32 11.01.2021
226 Clear 3 1015 70 10000 5.14 330 07:41 11.01.2021
227 Clear 3 1015 70 10000 5.14 330 07:21 11.01.2021
228 Clear 3 1015 70 10000 6.17 330 06:49 11.01.2021
229 Clear 5 1014 75 10000 2.57 350 02:30 11.01.2021
230 Rain 6 1014 70 10000 4.63 330 00:40 11.01.2021
231 Clear 5 1014 75 10000 3.6 330 23:48 10.01.2021
232 Clear 5 1014 75 10000 3.6 330 22:57 10.01.2021
233 Clear 6 1014 70 10000 4.12 330 22:38 10.01.2021
234 Clear 6 1014 70 10000 4.12 330 22:18 10.01.2021
235 Clear 6 1014 70 10000 3.6 330 21:40 10.01.2021
236 Clouds 6 1013 76 10000 1.54 320 21:18 10.01.2021
237 Clouds 6 1013 70 10000 3.09 320 20:49 10.01.2021
238 Clouds 6 1013 76 10000 3.6 320 20:27 10.01.2021
239 Clouds 6 1012 71 10000 1.54 290 19:40 10.01.2021
240 Clouds 6 1012 71 10000 1.54 290 19:22 10.01.2021
241 Clouds 6 1012 71 10000 1.54 290 19:22 10.01.2021
242 Clouds 7 1012 76 10000 2.06 310 18:45 10.01.2021
243 Clouds 6 1012 76 10000 3.6 300 18:20 10.01.2021
244 Clouds 6 1012 76 10000 3.6 300 18:20 10.01.2021
245 Clouds 7 1011 71 10000 2.57 290 17:26 10.01.2021
246 Clouds 7 1011 71 10000 2.57 290 16:51 10.01.2021
247 Clouds 7 1011 71 10000 3.09 280 16:31 10.01.2021
248 Rain 8 1011 71 10000 3.09 280 15:42 10.01.2021
249 Rain 8 1011 71 10000 2.57 270 15:24 10.01.2021
250 Clouds 7 1011 66 10000 2.06 300 14:41 10.01.2021
251 Clouds 8 1011 66 10000 2.06 300 14:23 10.01.2021
252 Clouds 7 1011 66 10000 2.57 320 13:54 10.01.2021
253 Clouds 7 1011 66 10000 2.06 320 13:36 10.01.2021
254 Rain 7 1011 66 10000 2.06 320 13:18 10.01.2021
255 Rain 7 1012 71 10000 3.09 310 12:41 10.01.2021
256 Rain 6 1012 76 10000 3.6 300 11:58 10.01.2021
257 Rain 7 1012 66 10000 3.09 320 11:21 10.01.2021
258 Rain 7 1012 66 10000 3.6 330 10:53 10.01.2021
259 Rain 6 1012 65 10000 4.63 330 10:25 10.01.2021
260 Rain 7 1012 53 10000 3.6 0 09:57 10.01.2021
261 Rain 7 1011 53 10000 6.69 100 08:50 10.01.2021
262 Rain 6 1010 61 10000 2.06 0 08:19 10.01.2021
263 Rain 6 1010 61 10000 3.6 330 07:28 10.01.2021
264 Rain 6 1010 70 10000 2.57 10 06:19 10.01.2021
265 Rain 6 1009 56 10000 4.12 320 05:35 10.01.2021
266 Clouds 6 1010 56 10000 5.14 330 02:55 10.01.2021
267 Clouds 6 1010 56 10000 5.14 330 00:48 10.01.2021
268 Clouds 6 1011 56 10000 5.14 320 23:47 09.01.2021
269 Clouds 6 1011 56 10000 5.66 330 23:28 09.01.2021
270 Clouds 6 1011 56 10000 5.66 330 22:44 09.01.2021
271 Clouds 6 1011 56 10000 5.14 330 22:18 09.01.2021
272 Rain 6 1011 56 10000 5.14 330 21:56 09.01.2021
273 Rain 6 1011 61 10000 4.63 330 21:37 09.01.2021
274 Clouds 6 1011 61 10000 4.63 330 21:18 09.01.2021
275 Clouds 6 1011 57 10000 2.57 0 20:39 09.01.2021
276 Clouds 6 1011 61 10000 3.6 320 19:45 09.01.2021
277 Rain 7 1011 57 10000 3.09 0 19:22 09.01.2021
278 Clouds 8 1010 46 10000 9.26 90 18:44 09.01.2021
279 Clouds 8 1010 43 10000 9.26 90 18:26 09.01.2021
280 Clouds 8 1010 50 10000 5.14 0 17:47 09.01.2021
281 Clouds 7 1010 53 10000 3.09 320 17:27 09.01.2021
282 Clouds 9 1010 46 10000 8.23 80 16:36 09.01.2021
283 Clouds 9 1010 50 10000 7.72 70 15:52 09.01.2021
284 Clouds 9 1010 43 10000 9.26 70 15:32 09.01.2021
285 Clouds 9 1010 46 10000 11.83 90 14:41 09.01.2021
286 Clouds 9 1010 46 10000 11.83 90 14:20 09.01.2021
287 Clouds 9 1010 50 10000 10.8 80 13:49 09.01.2021
288 Clouds 8 1011 46 10000 3.6 0 13:30 09.01.2021
289 Clouds 8 1011 46 10000 3.6 0 13:30 09.01.2021
290 Rain 7 1011 49 10000 4.63 330 12:49 09.01.2021
291 Rain 7 1012 49 10000 4.12 330 12:24 09.01.2021
292 Rain 6 1012 49 10000 4.63 330 11:56 09.01.2021
293 Rain 6 1012 49 10000 5.66 330 11:30 09.01.2021
294 Rain 5 1012 52 10000 5.14 330 10:52 09.01.2021
295 Rain 5 1012 52 10000 5.66 330 10:33 09.01.2021
296 Rain 5 1012 52 10000 5.14 330 09:53 09.01.2021
297 Rain 5 1011 52 10000 5.14 330 09:29 09.01.2021
298 Rain 5 1011 48 10000 5.14 340 08:47 09.01.2021
299 Rain 4 1011 56 10000 5.14 330 07:38 09.01.2021
300 Rain 4 1011 56 10000 5.66 330 06:40 09.01.2021
301 Clear 4 1012 56 10000 4.63 340 04:53 09.01.2021
302 Clear 4 1013 56 10000 3.6 340 03:25 09.01.2021
303 Rain 3 1013 60 10000 6.69 320 02:32 09.01.2021
304 Clouds 3 1013 60 10000 5.66 330 01:54 09.01.2021
305 Clouds 4 1013 60 10000 4.63 340 00:37 09.01.2021
306 Clouds 4 1013 60 10000 4.63 340 00:19 09.01.2021
307 Clouds 4 1013 60 10000 4.63 340 23:26 08.01.2021
308 Clouds 4 1013 60 10000 3.6 330 22:25 08.01.2021
309 Clouds 4 1013 60 10000 4.63 330 21:46 08.01.2021
310 Clouds 4 1013 60 10000 5.14 330 20:57 08.01.2021
311 Clouds 4 1013 60 10000 5.14 330 20:27 08.01.2021
312 Clouds 4 1012 60 10000 4.63 330 19:56 08.01.2021
313 Clouds 5 1012 60 10000 4.63 330 19:22 08.01.2021
314 Clouds 5 1012 56 10000 5.14 320 18:48 08.01.2021
315 Clouds 5 1012 61 10000 4.63 320 18:20 08.01.2021
316 Clouds 6 1012 61 10000 0.51 320 17:48 08.01.2021
317 Clouds 6 1012 57 10000 0.51 0 17:22 08.01.2021
318 Clouds 8 1011 50 10000 1.03 0 16:35 08.01.2021
319 Clouds 9 1011 50 10000 1.54 190 15:44 08.01.2021
320 Clouds 10 1011 46 10000 1.54 190 15:18 08.01.2021
321 Clouds 10 1011 46 10000 1.54 0 14:35 08.01.2021
322 Clouds 9 1011 46 10000 3.6 330 13:47 08.01.2021
323 Clouds 9 1011 46 10000 3.6 330 13:18 08.01.2021
324 Clouds 9 1012 46 10000 4.63 330 12:49 08.01.2021
325 Clouds 8 1012 45 10000 4.63 330 12:20 08.01.2021
326 Clouds 7 1013 49 10000 5.14 330 11:45 08.01.2021
327 Clouds 6 1013 48 10000 5.14 330 11:27 08.01.2021
328 Clouds 5 1013 48 10000 5.66 330 10:53 08.01.2021
329 Clouds 4 1012 56 10000 6.17 330 10:34 08.01.2021
330 Clouds 3 1012 56 10000 6.17 330 09:46 08.01.2021
331 Clouds 3 1011 56 10000 6.69 330 09:28 08.01.2021
332 Clouds 2 1011 64 10000 5.66 330 08:38 08.01.2021
333 Clouds 3 1011 60 10000 5.14 340 07:29 08.01.2021
334 Clear 3 1011 60 10000 5.66 330 06:21 08.01.2021
335 Clouds 4 1012 60 10000 3.6 340 00:22 08.01.2021
336 Clouds 4 1012 60 10000 3.09 350 23:41 07.01.2021
337 Clouds 4 1012 65 10000 3.09 350 22:47 07.01.2021
338 Clouds 4 1012 65 10000 3.09 350 22:26 07.01.2021
339 Clouds 4 1012 65 10000 4.12 330 21:47 07.01.2021
340 Clouds 4 1012 65 10000 3.09 340 21:27 07.01.2021
341 Clouds 4 1012 65 10000 5.14 330 20:47 07.01.2021
342 Clouds 5 1012 65 10000 5.14 330 20:29 07.01.2021
343 Clouds 5 1012 65 10000 4.63 330 19:46 07.01.2021
344 Clouds 5 1012 61 10000 5.14 330 19:23 07.01.2021
345 Clouds 5 1012 61 10000 5.14 320 18:40 07.01.2021
346 Clouds 5 1012 56 10000 4.63 320 18:19 07.01.2021
347 Clouds 6 1012 53 10000 1.54 360 17:31 07.01.2021
348 Clouds 7 1012 53 10000 3.09 70 16:55 07.01.2021
349 Clouds 7 1012 53 10000 4.12 90 16:32 07.01.2021
350 Rain 7 1012 53 10000 2.57 0 15:48 07.01.2021
351 Clouds 7 1012 53 10000 2.57 0 15:30 07.01.2021
352 Clouds 7 1012 53 10000 2.57 0 15:30 07.01.2021
353 Clouds 8 1012 46 10000 2.57 350 14:27 07.01.2021
354 Clouds 8 1012 46 10000 3.6 330 13:49 07.01.2021
355 Clouds 8 1012 49 10000 4.12 330 13:22 07.01.2021
356 Clouds 8 1013 46 10000 4.63 340 12:52 07.01.2021
357 Clouds 6 1013 56 10000 6.2 340 12:23 07.01.2021
358 Clouds 6 1013 56 10000 5.7 340 11:39 07.01.2021
359 Clouds 5 1013 56 10000 5.1 340 10:56 07.01.2021
360 Clouds 5 1013 55 10000 4.6 330 10:37 07.01.2021
361 Clouds 3 1013 64 10000 5.1 340 09:57 07.01.2021
362 Clouds 3 1013 59 10000 6.2 340 09:38 07.01.2021
363 Clouds 2 1013 64 10000 5.1 340 08:40 07.01.2021
364 Clouds 2 1013 64 10000 5.1 340 08:21 07.01.2021
365 Clouds 2 1013 69 10000 5.1 340 07:40 07.01.2021
366 Clear 2 1012 64 10000 3.6 330 05:52 07.01.2021
367 Clear 3 1012 64 10000 5.1 330 02:18 07.01.2021
368 Clear 3 1012 69 10000 4.6 340 23:58 06.01.2021
369 Clear 3 1012 69 10000 4.6 340 23:58 06.01.2021
370 Clear 3 1012 69 10000 4.1 340 23:25 06.01.2021
371 Clear 3 1012 68 10000 4.6 330 22:23 06.01.2021
372 Clear 3 1012 68 10000 4.1 330 21:41 06.01.2021
373 Clear 3 1012 67 10000 4.1 330 21:22 06.01.2021
374 Clear 3 1012 67 10000 4.1 330 21:22 06.01.2021
375 Clear 4 1011 67 10000 3.6 330 20:42 06.01.2021
376 Clear 4 1011 75 10000 3.1 340 20:22 06.01.2021
377 Clear 4 1011 75 10000 3.6 330 19:48 06.01.2021
378 Clear 4 1011 75 10000 4.1 330 19:28 06.01.2021
379 Clear 4 1010 70 10000 3.6 320 18:50 06.01.2021
380 Clear 5 1010 65 10000 1.5 280 18:31 06.01.2021
381 Clear 6 1010 65 10000 1.5 280 17:47 06.01.2021
382 Clouds 7 1010 61 10000 2.1 270 17:28 06.01.2021
383 Clouds 8 1009 61 10000 1 0 16:57 06.01.2021
384 Clouds 8 1009 61 10000 1 0 16:36 06.01.2021
385 Clouds 8 1009 61 10000 1 0 16:18 06.01.2021
386 Clouds 9 1009 61 10000 2.1 230 15:43 06.01.2021
387 Clouds 9 1009 61 10000 2.1 230 15:23 06.01.2021
388 Clouds 8 1009 61 10000 2.6 190 14:36 06.01.2021
389 Clouds 8 1009 66 10000 3.1 200 13:55 06.01.2021
390 Clouds 8 1009 61 10000 3.6 210 13:36 06.01.2021
391 Clouds 8 1009 61 10000 3.6 210 13:18 06.01.2021
392 Clouds 8 1009 61 10000 2.6 250 12:42 06.01.2021
393 Clouds 7 1010 66 10000 3.1 300 11:46 06.01.2021
394 Clouds 7 1010 68 10000 3.1 300 11:23 06.01.2021
395 Clouds 6 1009 68 10000 2.6 280 10:44 06.01.2021
396 Clouds 5 1009 65 10000 2.6 310 09:52 06.01.2021
397 Clouds 4 1009 69 10000 2.6 330 09:33 06.01.2021
398 Clouds 3 1008 74 10000 2.6 330 08:54 06.01.2021
399 Clouds 3 1008 74 10000 3.1 350 08:20 06.01.2021
400 Clear 3 1008 69 10000 4.1 330 07:53 06.01.2021
401 Clouds 3 1007 67 10000 4.1 340 06:45 06.01.2021
402 Clear 3 1007 66 10000 3.6 330 05:31 06.01.2021
403 Clouds 3 1007 80 10000 3.6 300 04:21 06.01.2021
404 Clouds 3 1007 80 10000 4.6 330 02:44 06.01.2021
405 Clouds 3 1007 80 10000 4.6 330 02:21 06.01.2021
406 Clear 3 1007 86 10000 4.1 310 00:22 06.01.2021
407 Clouds 4 1006 80 10000 4.1 320 22:59 05.01.2021
408 Clouds 4 1006 86 10000 4.6 310 22:40 05.01.2021
409 Clouds 4 1006 86 10000 4.6 310 22:20 05.01.2021
410 Clouds 4 1006 80 10000 2.6 330 21:37 05.01.2021
411 Clouds 5 1006 86 10000 3.1 320 20:41 05.01.2021
412 Clouds 5 1006 86 10000 3.1 320 20:23 05.01.2021
413 Clouds 5 1006 86 10000 3.1 330 19:41 05.01.2021
414 Clouds 5 1006 81 10000 2.1 310 19:21 05.01.2021
415 Clouds 6 1006 75 10000 2.6 230 18:42 05.01.2021
416 Clouds 6 1006 75 10000 2.6 230 18:23 05.01.2021
417 Clouds 6 1006 75 10000 3.6 260 17:49 05.01.2021
418 Clouds 6 1006 70 10000 3.6 260 17:26 05.01.2021
419 Clouds 6 1006 70 10000 3.6 260 16:52 05.01.2021
420 Clouds 7 1006 70 10000 3.6 260 16:21 05.01.2021
421 Clouds 7 1006 70 10000 3.6 260 15:50 05.01.2021
422 Clouds 7 1006 70 10000 2.1 290 14:56 05.01.2021
423 Clouds 7 1006 70 10000 4.1 280 14:26 05.01.2021
424 Clouds 7 1006 70 10000 4.6 250 13:49 05.01.2021
425 Clouds 7 1006 70 10000 1 0 13:26 05.01.2021
426 Clouds 6 1007 75 10000 3.1 300 12:49 05.01.2021
427 Clouds 6 1007 81 10000 2.1 320 12:26 05.01.2021
428 Rain 5 1008 75 10000 3.6 320 11:39 05.01.2021
429 Rain 4 1008 80 10000 3.1 320 10:56 05.01.2021
430 Rain 4 1008 80 10000 3.6 320 10:37 05.01.2021
431 Rain 4 1008 80 10000 4.6 320 09:50 05.01.2021
432 Rain 4 1008 80 10000 4.1 320 09:30 05.01.2021
433 Rain 4 1008 86 10000 2.6 340 08:28 05.01.2021
434 Rain 4 1008 86 10000 2.6 330 07:50 05.01.2021
435 Rain 4 1008 86 10000 3.1 350 04:59 05.01.2021
436 Clouds 4 1009 93 10000 3.1 320 01:31 05.01.2021
437 Rain 4 1009 81 10000 1.5 280 00:22 05.01.2021
438 Rain 4 1009 93 10000 3.6 310 23:39 04.01.2021
439 Rain 4 1009 93 10000 3.6 310 23:19 04.01.2021
440 Rain 4 1009 93 10000 2.6 320 22:42 04.01.2021
441 Clouds 4 1009 93 10000 3.1 330 21:57 04.01.2021
442 Clouds 4 1009 93 10000 2.6 330 21:38 04.01.2021
443 Clouds 4 1009 86 10000 2.6 330 20:56 04.01.2021
444 Clouds 3 1009 86 10000 2.6 310 20:34 04.01.2021
445 Clouds 4 1009 86 10000 2.6 310 19:59 04.01.2021
446 Clouds 4 1009 81 10000 3.6 280 19:38 04.01.2021
447 Clouds 4 1009 81 10000 3.6 280 19:18 04.01.2021
448 Clouds 4 1007 93 10000 1 0 18:40 04.01.2021
449 Clouds 4 1006 87 10000 5.1 270 17:47 04.01.2021
450 Clouds 4 1006 87 10000 5.1 270 17:28 04.01.2021
451 Clouds 5 1005 87 10000 4.6 70 16:57 04.01.2021
452 Clouds 5 1005 81 10000 7.2 90 16:38 04.01.2021
453 Clouds 6 1005 81 10000 7.2 90 16:20 04.01.2021
454 Clouds 6 1005 81 10000 11.3 50 15:41 04.01.2021
455 Clouds 6 1005 81 10000 11.3 50 14:54 04.01.2021
456 Clouds 6 1005 81 10000 8.7 50 13:56 04.01.2021
457 Clouds 6 1006 81 9000 10.3 60 13:35 04.01.2021
458 Rain 6 1006 75 10000 9.3 50 12:53 04.01.2021
459 Rain 6 1006 81 10000 11.8 70 12:27 04.01.2021
460 Rain 6 1006 76 9000 10.8 70 11:40 04.01.2021
461 Rain 6 1007 81 10000 5.1 20 11:18 04.01.2021
462 Rain 6 1007 75 10000 6.7 20 10:44 04.01.2021
463 Rain 6 1007 75 10000 6.2 20 10:22 04.01.2021
464 Rain 7 1006 71 10000 11.3 80 09:26 04.01.2021
465 Clouds 5 1006 75 10000 3.6 320 08:57 04.01.2021
466 Clouds 5 1006 75 10000 3.6 320 08:22 04.01.2021
467 Clouds 6 1007 71 10000 8.7 70 07:47 04.01.2021
468 Rain 5 1007 81 10000 4.1 10 05:37 04.01.2021
469 Rain 5 1007 81 10000 4.1 10 05:19 04.01.2021
470 Clouds 5 1008 87 10000 3.6 350 02:26 04.01.2021
471 Clouds 5 1008 87 10000 4.6 330 00:24 04.01.2021
472 Clouds 5 1008 93 10000 2.6 340 23:38 03.01.2021
473 Clouds 5 1008 93 10000 3.1 10 22:58 03.01.2021
474 Rain 5 1008 93 10000 3.6 340 22:39 03.01.2021
475 Rain 5 1008 93 10000 3.6 340 22:21 03.01.2021
476 Clouds 6 1009 76 10000 6.7 70 21:41 03.01.2021
477 Clouds 6 1009 76 10000 6.7 70 21:23 03.01.2021
478 Rain 6 1009 81 10000 7.2 100 20:41 03.01.2021
479 Rain 6 1009 81 10000 7.7 80 20:19 03.01.2021
480 Rain 6 1008 87 10000 3.1 350 19:46 03.01.2021
481 Rain 6 1008 87 10000 3.1 340 19:27 03.01.2021
482 Rain 6 1008 81 10000 4.6 10 18:46 03.01.2021
483 Rain 6 1008 81 10000 4.6 10 18:25 03.01.2021
484 Clouds 6 1008 81 10000 3.6 20 17:53 03.01.2021
485 Rain 6 1008 81 10000 3.6 20 17:27 03.01.2021
486 Clouds 7 1008 76 10000 4.1 10 16:56 03.01.2021
487 Clouds 7 1008 76 10000 4.6 10 16:37 03.01.2021
488 Clouds 7 1008 76 10000 4.6 10 16:18 03.01.2021
489 Clouds 8 1007 76 10000 2.1 20 15:40 03.01.2021
490 Clouds 7 1007 81 10000 1 0 14:59 03.01.2021
491 Clouds 8 1007 76 10000 3.6 20 14:40 03.01.2021
492 Clouds 8 1007 71 10000 3.6 20 13:54 03.01.2021
493 Clouds 8 1007 71 10000 5.1 60 13:25 03.01.2021
494 Clouds 8 1007 71 10000 5.7 70 12:57 03.01.2021
495 Clouds 8 1007 71 10000 6.2 110 11:44 03.01.2021
496 Clouds 7 1007 81 10000 1.5 0 11:26 03.01.2021
497 Clouds 8 1007 71 10000 4.1 90 10:57 03.01.2021
498 Clouds 7 1007 81 10000 5.1 80 10:32 03.01.2021
499 Clouds 7 1006 76 10000 8.2 140 09:45 03.01.2021
500 Clouds 8 1006 71 10000 8.7 140 09:24 03.01.2021
501 Clouds 7 1004 81 10000 7.2 50 07:59 03.01.2021
502 Rain 7 1004 81 5000 9.8 70 06:54 03.01.2021
503 Clouds 5 1004 93 10000 4.1 30 03:20 03.01.2021
504 Rain 5 1003 93 10000 3.6 330 02:23 03.01.2021
505 Rain 6 1003 87 8000 2.1 0 00:27 03.01.2021
506 Rain 6 1002 87 8000 4.1 320 23:46 02.01.2021
507 Rain 6 1002 87 8000 4.1 320 23:19 02.01.2021
508 Rain 6 1002 81 8000 4.1 50 22:47 02.01.2021
509 Rain 7 1002 81 10000 9.3 90 22:28 02.01.2021
510 Rain 7 1002 81 10000 10.8 90 21:48 02.01.2021
511 Rain 7 1002 76 10000 9.3 90 21:28 02.01.2021
512 Rain 7 1001 81 10000 2.6 0 20:45 02.01.2021
513 Rain 7 1001 81 10000 2.6 0 20:25 02.01.2021
514 Rain 6 1001 87 10000 2.6 330 19:46 02.01.2021
515 Rain 7 1001 93 10000 3.6 320 19:20 02.01.2021
516 Rain 7 1001 93 10000 3.1 10 18:47 02.01.2021
517 Rain 7 1001 93 10000 3.1 10 18:29 02.01.2021
518 Rain 7 1001 81 9000 2.6 10 17:46 02.01.2021
519 Rain 7 1001 81 9000 2.6 10 17:28 02.01.2021
520 Rain 7 1000 81 10000 3.6 30 16:43 02.01.2021
521 Rain 7 1000 81 10000 3.6 30 16:21 02.01.2021
522 Rain 7 1000 81 8000 3.1 360 15:44 02.01.2021
523 Rain 7 1000 81 8000 3.1 360 15:25 02.01.2021
524 Rain 7 1000 87 10000 3.6 20 14:39 02.01.2021
525 Rain 7 1000 87 10000 3.6 20 14:21 02.01.2021
526 Rain 6 1000 87 10000 5.7 20 13:40 02.01.2021
527 Rain 7 1000 81 10000 7.2 20 12:54 02.01.2021
528 Rain 8 1000 66 10000 9.8 40 12:32 02.01.2021
529 Rain 7 1000 75 10000 4.6 20 11:59 02.01.2021
530 Rain 7 1000 75 10000 4.1 30 11:26 02.01.2021
531 Rain 8 1000 75 10000 4.1 10 10:59 02.01.2021
532 Clouds 8 1000 75 10000 4.6 20 10:35 02.01.2021
533 Clouds 8 999 70 10000 4.1 320 09:59 02.01.2021
534 Clouds 9 999 66 10000 5.1 360 09:39 02.01.2021
535 Clouds 8 999 66 10000 5.1 360 09:19 02.01.2021
536 Rain 7 1000 75 10000 3.1 310 08:41 02.01.2021
537 Clouds 7 1000 75 10000 3.1 310 08:19 02.01.2021
538 Rain 8 999 66 10000 5.7 20 07:24 02.01.2021
539 Rain 8 1000 70 10000 8.2 10 06:57 02.01.2021
540 Rain 7 1000 70 10000 9.3 10 05:57 02.01.2021
541 Rain 6 1002 87 10000 5.7 10 01:59 02.01.2021
542 Rain 6 1004 87 10000 4.1 330 00:39 02.01.2021
543 Rain 6 1004 87 10000 3.6 330 23:59 01.01.2021
544 Rain 6 1004 87 10000 4.1 340 23:37 01.01.2021
545 Rain 6 1004 87 10000 4.1 340 23:19 01.01.2021
546 Rain 6 1004 87 10000 4.1 340 22:44 01.01.2021
547 Rain 6 1004 87 10000 4.1 330 22:21 01.01.2021
548 Rain 6 1004 87 10000 3.1 320 21:42 01.01.2021
549 Clouds 6 1004 87 10000 3.6 320 21:20 01.01.2021
550 Clouds 6 1005 87 10000 3.1 350 20:50 01.01.2021
551 Clouds 6 1004 87 10000 5.7 10 20:19 01.01.2021
552 Clouds 6 1005 87 10000 4.1 10 19:42 01.01.2021
553 Clouds 6 1005 81 10000 5.1 10 19:22 01.01.2021
554 Clouds 5 1005 87 10000 4.1 20 18:48 01.01.2021
555 Clouds 5 1005 93 10000 4.6 20 18:29 01.01.2021
556 Clouds 5 1005 93 10000 3.6 10 17:59 01.01.2021
557 Clouds 6 1004 87 9000 2.6 340 17:40 01.01.2021
558 Clouds 6 1004 87 9000 2.6 340 17:18 01.01.2021
559 Clouds 6 1004 87 9000 2.6 340 16:36 01.01.2021
560 Rain 6 1004 87 10000 3.6 360 15:45 01.01.2021
561 Rain 7 1004 76 10000 7.7 70 14:52 01.01.2021
562 Clouds 7 1004 76 10000 7.7 70 14:33 01.01.2021
563 Clouds 6 1004 81 10000 4.1 40 13:46 01.01.2021
564 Clouds 7 1005 70 10000 6.7 50 13:25 01.01.2021
565 Rain 7 1005 76 10000 5.1 50 12:43 01.01.2021
566 Rain 6 1006 81 8000 6.7 50 12:18 01.01.2021
567 Rain 6 1006 76 9000 8.7 70 11:39 01.01.2021
568 Rain 6 1006 76 9000 8.7 70 11:18 01.01.2021
569 Rain 6 1006 76 10000 10.8 70 10:43 01.01.2021
570 Rain 6 1006 81 10000 11.3 70 10:43 01.01.2021
571 Rain 6 1006 81 10000 8.2 60 09:48 01.01.2021
572 Rain 6 1006 81 10000 5.1 20 09:22 01.01.2021
573 Clouds 6 1006 93 10000 4.1 40 08:30 01.01.2021
574 Rain 6 1006 87 7000 4.6 330 04:54 01.01.2021
575 Rain 6 1007 87 10000 3.1 340 04:30 01.01.2021
576 Clouds 7 1008 70 10000 4.1 330 01:39 01.01.2021
577 Clouds 7 1008 65 10000 4.6 330 00:32 01.01.2021
578 Clouds 7 1008 65 10000 5.7 320 23:38 31.12.2020
579 Clouds 7 1008 65 10000 5.7 320 23:20 31.12.2020
580 Clouds 7 1009 65 10000 5.1 330 22:41 31.12.2020
581 Clouds 7 1009 65 10000 5.1 330 22:21 31.12.2020
582 Clouds 7 1009 71 10000 4.6 330 21:50 31.12.2020
583 Clouds 7 1009 71 10000 5.1 320 21:31 31.12.2020
584 Clouds 7 1009 71 10000 4.6 320 20:58 31.12.2020
585 Clouds 7 1009 69 10000 4.6 320 20:26 31.12.2020
586 Clouds 7 1009 69 10000 4.6 320 19:49 31.12.2020
587 Clouds 7 1009 69 10000 4.6 320 19:31 31.12.2020
588 Clouds 7 1009 67 10000 4.6 320 18:51 31.12.2020
589 Clouds 7 1008 62 10000 3.6 320 18:25 31.12.2020
590 Clouds 8 1008 66 10000 1.5 0 17:46 31.12.2020
591 Clouds 8 1008 71 10000 5.1 260 17:26 31.12.2020
592 Clouds 8 1008 71 10000 4.1 270 16:55 31.12.2020
593 Clouds 9 1008 71 10000 5.1 270 16:37 31.12.2020
594 Clouds 9 1008 71 10000 5.1 270 16:18 31.12.2020
595 Clouds 8 1008 49 10000 2.6 310 15:42 31.12.2020
596 Clouds 9 1008 49 10000 2.6 310 15:18 31.12.2020
597 Clouds 9 1009 46 10000 1.5 0 14:40 31.12.2020
598 Clouds 9 1009 44 10000 1.5 0 14:22 31.12.2020
599 Clouds 9 1009 57 10000 2.1 310 13:57 31.12.2020
600 Clouds 10 1009 39 10000 3.1 320 13:36 31.12.2020
601 Clouds 10 1009 39 10000 3.1 320 13:18 31.12.2020
602 Clouds 9 1010 42 10000 4.1 310 12:45 31.12.2020
603 Clouds 9 1010 42 10000 4.1 310 12:26 31.12.2020
604 Clear 9 1010 45 10000 5.1 330 11:46 31.12.2020
605 Clear 8 1010 45 10000 5.1 330 11:28 31.12.2020
606 Clear 8 1010 45 10000 5.1 330 11:28 31.12.2020
607 Clear 8 1010 45 10000 5.1 330 11:28 31.12.2020
608 Clear 8 1010 45 10000 5.1 330 11:28 31.12.2020
609 Clear 7 1010 48 10000 6.2 320 10:41 31.12.2020
610 Clear 6 1010 48 10000 6.2 320 10:22 31.12.2020
611 Clouds 5 1010 52 10000 6.2 330 09:47 31.12.2020
612 Clouds 4 1010 55 10000 5.1 330 09:23 31.12.2020
613 Clouds 4 1010 55 10000 5.7 330 08:46 31.12.2020
614 Clouds 4 1009 55 10000 7.2 330 08:28 31.12.2020
615 Clouds 4 1009 55 10000 6.2 330 07:54 31.12.2020
616 Clouds 4 1009 55 10000 5.7 330 07:24 31.12.2020
617 Clouds 4 1009 60 10000 6.2 330 05:30 31.12.2020
618 Clear 4 1009 56 10000 4.6 340 03:33 31.12.2020
619 Clouds 4 1008 60 10000 3.1 350 02:36 31.12.2020
620 Clouds 4 1008 60 10000 5.1 340 01:55 31.12.2020
621 Clouds 4 1008 60 10000 3.6 340 01:34 31.12.2020
622 Clouds 4 1008 65 10000 4.6 330 00:57 31.12.2020
623 Clouds 4 1008 65 10000 4.6 340 00:26 31.12.2020
624 Clouds 5 1008 65 10000 5.7 330 23:39 30.12.2020
625 Clouds 5 1008 65 10000 5.7 330 23:18 30.12.2020
626 Clouds 5 1007 57 10000 5.1 330 22:36 30.12.2020
627 Clouds 5 1007 58 10000 5.1 330 21:54 30.12.2020
628 Clouds 5 1007 58 10000 5.1 330 21:28 30.12.2020
629 Clouds 5 1007 58 10000 5.1 330 21:28 30.12.2020
630 Clouds 5 1007 58 10000 5.1 330 20:54 30.12.2020
631 Clouds 5 1006 70 10000 3.1 330 20:29 30.12.2020
632 Clouds 5 1006 70 10000 3.6 340 20:00 30.12.2020
633 Clouds 5 1005 70 10000 5.7 320 19:37 30.12.2020
634 Clouds 5 1005 70 10000 5.7 320 19:18 30.12.2020
635 Clouds 6 1005 65 10000 4.1 320 18:40 30.12.2020
636 Clouds 6 1005 65 10000 4.1 320 18:22 30.12.2020
637 Clouds 8 1004 76 10000 5.1 100 17:48 30.12.2020
638 Clouds 8 1004 71 10000 5.1 80 17:29 30.12.2020
639 Clouds 8 1003 71 10000 5.7 80 16:48 30.12.2020
640 Rain 9 1003 66 10000 6.2 80 16:20 30.12.2020
641 Clouds 10 1003 54 10000 1 0 15:42 30.12.2020
642 Clouds 10 1003 54 10000 1 0 15:24 30.12.2020
643 Clouds 11 1003 54 10000 2.1 260 14:43 30.12.2020
644 Clouds 11 1003 54 10000 2.1 260 14:22 30.12.2020
645 Clouds 10 1003 43 10000 3.6 320 13:20 30.12.2020
646 Clouds 10 1003 46 10000 4.1 330 12:27 30.12.2020
647 Clouds 9 1003 49 10000 4.6 330 11:49 30.12.2020
648 Clouds 9 1003 52 10000 4.1 330 11:24 30.12.2020
649 Clouds 8 1003 56 10000 4.6 330 10:59 30.12.2020
650 Clouds 8 1003 60 10000 3.6 340 10:39 30.12.2020
651 Clouds 8 1003 60 10000 3.6 340 10:20 30.12.2020
652 Clouds 6 1003 65 10000 4.6 330 09:47 30.12.2020
653 Clouds 5 1002 69 10000 4.6 330 09:23 30.12.2020
654 Clouds 4 1002 69 10000 4.1 340 08:24 30.12.2020
655 Clear 4 1001 69 10000 4.1 340 07:29 30.12.2020
656 Clear 4 1001 69 10000 4.6 330 06:51 30.12.2020
657 Clear 4 1001 69 10000 4.1 330 06:29 30.12.2020
658 Clear 5 1001 65 10000 3.6 340 05:42 30.12.2020
659 Clear 5 1001 65 10000 3.6 340 05:24 30.12.2020
660 Clear 5 1001 57 10000 5.1 330 03:28 30.12.2020
661 Clear 5 1000 57 10000 5.7 330 02:39 30.12.2020
662 Clear 5 1001 58 10000 4.1 300 01:56 30.12.2020
663 Clear 5 1000 75 10000 1.5 340 01:32 30.12.2020
664 Clear 6 1000 70 10000 5.7 330 00:48 30.12.2020
665 Clear 5 1000 70 10000 5.7 330 00:29 30.12.2020
666 Clear 5 1000 70 10000 4.6 310 23:54 29.12.2020
667 Clear 6 1000 75 10000 3.1 320 23:35 29.12.2020
668 Clear 6 1000 70 10000 5.1 320 22:58 29.12.2020
669 Clear 6 1000 70 10000 3.6 300 22:40 29.12.2020
670 Clear 6 1000 70 10000 3.6 300 22:20 29.12.2020
671 Clear 6 1000 70 10000 3.6 300 21:46 29.12.2020
672 Clear 6 999 75 10000 3.1 310 21:24 29.12.2020
673 Clear 6 999 70 10000 5.1 320 20:46 29.12.2020
674 Clear 6 999 70 10000 5.1 320 20:25 29.12.2020
675 Clear 6 998 75 10000 5.1 320 19:47 29.12.2020
676 Clear 7 998 75 10000 5.1 320 19:23 29.12.2020
677 Clear 7 998 70 10000 4.1 320 18:54 29.12.2020
678 Clear 8 998 70 10000 4.1 320 18:32 29.12.2020
679 Clear 9 997 71 10000 3.6 260 17:57 29.12.2020
680 Clear 9 997 66 10000 6.2 270 17:37 29.12.2020
681 Clear 9 997 66 10000 6.2 270 17:18 29.12.2020
682 Clear 10 997 62 10000 5.7 250 16:35 29.12.2020
683 Clear 11 996 66 10000 5.1 220 15:53 29.12.2020
684 Clear 12 996 66 10000 4.6 220 15:34 29.12.2020
685 Clear 12 996 66 10000 4.6 220 15:34 29.12.2020
686 Clear 11 996 71 10000 6.2 220 14:58 29.12.2020
687 Clear 11 996 71 10000 6.7 210 14:36 29.12.2020
688 Clear 11 996 71 10000 6.7 210 14:18 29.12.2020
689 Clear 11 996 71 10000 6.7 210 14:18 29.12.2020
690 Clear 11 996 58 10000 1 0 13:39 29.12.2020
691 Clear 11 996 58 10000 1 0 13:18 29.12.2020
692 Clear 10 997 61 10000 2.6 300 12:37 29.12.2020
693 Clear 10 997 61 10000 2.6 300 12:19 29.12.2020
694 Clear 10 997 61 10000 2.6 300 11:51 29.12.2020
695 Clear 10 997 57 10000 3.6 320 11:31 29.12.2020
696 Clear 9 997 65 10000 2.1 320 10:23 29.12.2020
697 Clear 8 996 65 10000 4.1 310 09:48 29.12.2020
698 Clear 7 996 65 10000 4.6 290 09:20 29.12.2020
699 Clear 6 996 70 10000 4.6 300 08:52 29.12.2020
700 Clear 5 996 75 10000 6.2 320 08:22 29.12.2020
701 Clear 5 996 75 10000 4.6 320 07:26 29.12.2020
702 Clear 5 996 75 10000 4.6 320 06:26 29.12.2020
703 Clear 5 995 75 10000 6.7 320 04:49 29.12.2020
704 Clouds 7 994 71 10000 6.2 260 00:49 29.12.2020
705 Clouds 5 993 75 10000 5.1 320 00:20 29.12.2020
706 Clouds 7 993 76 10000 7.2 260 23:34 28.12.2020
707 Clouds 7 992 71 10000 10.8 240 22:28 28.12.2020
708 Clouds 7 992 71 10000 10.8 240 22:28 28.12.2020
709 Clear 6 991 66 10000 10.8 250 21:46 28.12.2020
710 Clear 5 991 75 10000 2.1 310 21:27 28.12.2020
711 Clear 7 991 61 10000 3.6 280 20:43 28.12.2020
712 Clear 7 991 61 10000 3.6 280 20:23 28.12.2020
713 Clear 7 991 61 10000 3.1 310 19:50 28.12.2020
714 Clear 8 990 61 10000 7.7 260 19:25 28.12.2020
715 Clear 7 988 61 10000 11.3 250 18:59 28.12.2020
716 Clear 9 988 61 10000 11.3 250 18:28 28.12.2020
717 Clear 8 987 57 10000 11.8 240 17:49 28.12.2020
718 Clear 8 987 57 10000 11.8 240 17:31 28.12.2020
719 Clouds 9 987 66 10000 10.3 220 16:59 28.12.2020
720 Clouds 10 986 54 10000 9.8 240 16:29 28.12.2020
721 Clouds 9 986 66 10000 3.6 290 15:54 28.12.2020
722 Clear 10 985 62 10000 8.7 230 15:33 28.12.2020
723 Clouds 8 985 75 10000 3.6 320 14:31 28.12.2020
724 Clouds 9 985 75 10000 4.6 320 13:47 28.12.2020
725 Clouds 7 985 81 10000 3.6 310 13:20 28.12.2020
726 Clouds 7 985 81 10000 4.6 320 12:27 28.12.2020
727 Clouds 6 985 75 10000 5.1 320 11:55 28.12.2020
728 Clouds 6 985 81 10000 5.1 320 11:36 28.12.2020
729 Clouds 6 985 81 10000 5.1 320 11:18 28.12.2020
730 Rain 6 985 81 10000 5.1 330 10:29 28.12.2020
731 Rain 6 985 81 10000 5.1 330 10:29 28.12.2020
732 Clouds 6 985 81 10000 4.6 330 09:58 28.12.2020
733 Rain 6 985 81 10000 5.1 320 09:37 28.12.2020
734 Rain 6 985 81 10000 5.1 320 09:18 28.12.2020
735 Clouds 6 984 86 10000 4.1 340 06:53 28.12.2020
736 Clouds 6 986 93 10000 6.7 340 05:23 28.12.2020
737 Rain 6 989 93 6000 7.7 340 03:51 28.12.2020
738 Rain 5 993 86 10000 5.7 350 01:55 28.12.2020
739 Rain 5 998 86 10000 4.1 350 23:58 27.12.2020
740 Rain 5 999 70 10000 4.6 340 23:35 27.12.2020
741 Rain 6 999 52 10000 4.1 340 22:40 27.12.2020
742 Clouds 6 1000 52 10000 4.1 330 21:55 27.12.2020
743 Rain 6 1000 56 10000 4.6 330 21:24 27.12.2020
744 Rain 6 1002 56 10000 5.7 320 20:37 27.12.2020
745 Clouds 6 1003 65 10000 3.1 310 19:24 27.12.2020
746 Clouds 6 1004 70 10000 3.1 320 18:54 27.12.2020
747 Clouds 5 1004 56 10000 3.6 320 18:36 27.12.2020
748 Clouds 6 1004 56 10000 3.6 320 18:18 27.12.2020
749 Clouds 6 1004 48 10000 3.6 320 17:42 27.12.2020
750 Clouds 6 1004 48 10000 3.6 320 17:21 27.12.2020
751 Clouds 8 1005 45 10000 3.6 320 16:26 27.12.2020
752 Clouds 9 1006 42 10000 3.1 320 15:40 27.12.2020
753 Clouds 9 1007 42 10000 3.1 320 14:58 27.12.2020
754 Clouds 9 1007 42 10000 4.1 330 14:38 27.12.2020
755 Clouds 9 1008 42 10000 3.1 330 13:43 27.12.2020
756 Clouds 8 1009 42 10000 4.1 320 13:19 27.12.2020
757 Clouds 8 1009 39 10000 4.1 320 12:41 27.12.2020
758 Clear 8 1011 42 10000 5.7 320 11:49 27.12.2020
759 Clear 8 1011 42 10000 5.1 320 11:29 27.12.2020
760 Clear 7 1011 44 10000 6.7 320 10:51 27.12.2020
761 Clear 7 1011 44 10000 6.7 320 10:24 27.12.2020
762 Clear 6 1012 48 10000 6.7 330 09:46 27.12.2020
763 Clear 4 1012 51 10000 7.7 320 08:39 27.12.2020
764 Clear 4 1012 51 10000 7.7 320 08:18 27.12.2020
765 Clear 3 1012 51 10000 7.2 330 07:26 27.12.2020
766 Clear 3 1013 55 10000 7.2 320 05:44 27.12.2020
767 Clear 4 1014 51 10000 6.7 330 03:59 27.12.2020
768 Clear 4 1014 51 10000 6.7 330 03:19 27.12.2020
769 Clear 4 1016 55 10000 6.7 330 01:34 27.12.2020
770 Clear 5 1016 56 10000 4.6 340 00:20 27.12.2020
771 Clear 4 1017 56 10000 5.1 330 23:27 26.12.2020
772 Clear 4 1017 60 10000 5.1 330 22:57 26.12.2020
773 Clear 5 1017 60 10000 6.7 330 22:36 26.12.2020
774 Clear 5 1017 60 10000 6.7 330 22:18 26.12.2020
775 Clear 5 1017 60 10000 6.7 330 22:18 26.12.2020
776 Clear 5 1017 65 10000 5.1 330 21:43 26.12.2020
777 Clear 5 1017 65 10000 5.1 330 21:22 26.12.2020
778 Clear 5 1017 60 10000 5.1 330 20:42 26.12.2020
779 Clear 6 1017 60 10000 5.1 330 20:19 26.12.2020
780 Clear 6 1016 49 10000 5.1 330 19:27 26.12.2020
781 Clear 7 1016 65 10000 2.6 320 18:53 26.12.2020
782 Clear 7 1016 70 10000 3.6 320 18:32 26.12.2020
783 Clouds 8 1016 57 10000 3.1 270 17:44 26.12.2020
784 Clouds 8 1016 57 10000 3.1 270 17:26 26.12.2020
785 Clouds 10 1015 43 10000 3.1 250 16:37 26.12.2020
786 Clouds 11 1015 43 10000 3.1 250 15:57 26.12.2020
787 Clouds 12 1015 37 10000 2.6 250 15:20 26.12.2020
788 Clouds 12 1016 43 10000 4.1 250 14:30 26.12.2020
789 Clouds 12 1015 43 10000 3.1 250 13:56 26.12.2020
790 Clouds 12 1015 40 10000 3.1 250 13:36 26.12.2020
791 Clouds 12 1015 37 10000 2.6 310 12:53 26.12.2020
792 Clouds 11 1016 50 10000 3.1 320 12:35 26.12.2020
793 Clouds 11 1016 53 10000 3.1 330 11:59 26.12.2020
794 Clouds 10 1016 61 10000 3.6 330 11:41 26.12.2020
795 Clouds 10 1016 61 10000 3.6 330 11:20 26.12.2020
796 Clouds 8 1016 44 10000 2.6 350 10:45 26.12.2020
797 Clouds 7 1015 48 10000 4.6 340 10:24 26.12.2020
798 Clouds 6 1015 48 10000 6.7 330 09:47 26.12.2020
799 Clear 5 1014 69 10000 6.2 320 08:55 26.12.2020
800 Clear 4 1014 54 10000 6.2 320 08:19 26.12.2020
801 Clear 5 1013 55 10000 5.1 330 07:21 26.12.2020
802 Clear 4 1012 80 10000 5.7 320 05:37 26.12.2020
803 Clear 4 1011 80 10000 4.1 330 02:47 26.12.2020
804 Clear 5 1010 75 10000 3.1 320 00:39 26.12.2020
805 Clouds 5 1010 81 10000 3.6 320 23:50 25.12.2020
806 Clouds 5 1009 81 10000 2.6 330 23:29 25.12.2020
807 Clouds 5 1009 75 10000 2.6 300 22:58 25.12.2020
808 Clouds 6 1009 75 10000 2.6 300 22:26 25.12.2020
809 Rain 6 1008 81 10000 5.1 310 21:44 25.12.2020
810 Rain 6 1008 81 10000 5.1 310 21:25 25.12.2020
811 Rain 5 1008 81 10000 5.1 320 20:47 25.12.2020
812 Rain 5 1008 81 10000 6.7 320 20:27 25.12.2020
813 Rain 6 1008 75 10000 2.6 270 19:43 25.12.2020
814 Clouds 6 1007 81 10000 5.7 360 18:55 25.12.2020
815 Thunderstorm 5 1007 86 10000 5.7 320 18:35 25.12.2020
816 Rain 6 1007 81 10000 7.2 340 17:35 25.12.2020
817 Rain 6 1007 70 8000 5.7 20 16:56 25.12.2020
818 Rain 6 1006 70 10000 6.2 10 16:26 25.12.2020
819 Rain 8 1006 61 10000 9.8 360 15:55 25.12.2020
820 Rain 6 1006 70 10000 8.7 350 15:34 25.12.2020
821 Clouds 9 1006 62 10000 9.3 20 14:46 25.12.2020
822 Clouds 9 1006 62 10000 9.3 20 14:25 25.12.2020
823 Clouds 10 1006 58 10000 9.3 70 13:44 25.12.2020
824 Clouds 11 1006 58 10000 7.7 60 13:25 25.12.2020
825 Clouds 12 1006 43 10000 3.6 280 12:34 25.12.2020
826 Clouds 11 1006 54 10000 4.6 250 11:52 25.12.2020
827 Clouds 11 1006 57 10000 3.6 240 11:29 25.12.2020
828 Clouds 11 1006 50 10000 1.5 250 10:49 25.12.2020
829 Clear 10 1006 61 10000 1.5 270 10:23 25.12.2020
830 Clear 8 1006 81 10000 3.1 310 09:32 25.12.2020
831 Clear 7 1006 75 10000 4.1 310 08:47 25.12.2020
832 Clear 7 1006 75 10000 3.6 310 07:58 25.12.2020
833 Clear 7 1007 70 10000 3.6 310 06:46 25.12.2020
834 Clear 10 1009 62 10000 8.7 260 02:51 25.12.2020
835 Clear 11 1009 58 10000 7.7 280 01:41 25.12.2020
836 Clear 12 1010 58 10000 6.7 290 00:18 25.12.2020
837 Clear 11 1010 58 10000 7.7 280 23:23 24.12.2020
838 Clear 10 1010 62 10000 5.7 280 22:50 24.12.2020
839 Clear 9 1010 57 10000 6.7 270 22:21 24.12.2020
840 Clear 9 1010 62 10000 5.1 290 21:34 24.12.2020
841 Clear 9 1010 62 10000 5.7 290 20:36 24.12.2020
842 Clear 11 1010 62 10000 9.3 250 18:52 24.12.2020
843 Clear 12 1010 58 10000 9.3 260 18:19 24.12.2020
844 Clear 12 1010 62 10000 10.3 240 17:37 24.12.2020
845 Clear 13 1010 58 10000 11.3 230 16:49 24.12.2020
846 Clear 14 1010 62 10000 10.8 230 16:22 24.12.2020
847 Clear 15 1011 63 10000 9.8 230 15:42 24.12.2020
848 Clear 16 1011 63 10000 9.8 230 15:19 24.12.2020
849 Clear 15 1012 63 10000 8.7 220 14:50 24.12.2020
850 Clear 15 1012 63 10000 8.7 220 14:24 24.12.2020
851 Clear 16 1012 63 10000 8.2 240 13:48 24.12.2020
852 Clear 15 1013 72 10000 7.2 220 13:29 24.12.2020
853 Clear 15 1013 77 10000 8.7 220 12:44 24.12.2020
854 Clear 14 1014 77 10000 5.1 260 12:21 24.12.2020
855 Clear 14 1014 77 10000 5.1 260 12:21 24.12.2020
856 Clear 14 1015 82 10000 3.1 310 11:47 24.12.2020
857 Clear 13 1015 87 10000 2.6 300 11:21 24.12.2020
858 Clear 12 1015 93 10000 1.5 320 10:56 24.12.2020
859 Clouds 12 1015 93 10000 1.5 330 10:38 24.12.2020
860 Clouds 12 1015 93 10000 1 0 09:53 24.12.2020
861 Clouds 11 1015 93 10000 2.6 310 09:30 24.12.2020
862 Clouds 10 1016 100 10000 2.6 280 08:44 24.12.2020
863 Clouds 11 1016 100 10000 2.6 270 07:43 24.12.2020
864 Clouds 11 1017 93 10000 3.6 260 07:21 24.12.2020
865 Clouds 11 1017 93 10000 3.1 330 06:20 24.12.2020
866 Clouds 11 1020 93 8000 1.5 330 02:50 24.12.2020
867 Clouds 11 1021 93 7000 1 0 01:47 24.12.2020
868 Clouds 11 1021 87 10000 2.1 320 01:18 24.12.2020
869 Clouds 11 1021 93 10000 2.6 330 00:23 24.12.2020
870 Clouds 11 1022 87 10000 3.1 320 23:56 23.12.2020
871 Clouds 11 1022 87 10000 2.1 320 23:38 23.12.2020
872 Clouds 11 1022 87 10000 2.1 320 23:18 23.12.2020
873 Clouds 12 1022 87 10000 1.5 280 22:42 23.12.2020
874 Clouds 12 1022 87 10000 1.5 280 22:19 23.12.2020
875 Clouds 12 1022 87 10000 3.6 210 21:42 23.12.2020
876 Clouds 12 1022 87 10000 3.6 210 21:21 23.12.2020
877 Clouds 13 1022 82 10000 2.6 230 20:38 23.12.2020
878 Clouds 13 1022 82 10000 2.6 230 20:19 23.12.2020
879 Clouds 13 1022 87 10000 3.1 250 19:44 23.12.2020
880 Clouds 13 1022 87 10000 3.1 250 19:23 23.12.2020
881 Clouds 13 1022 87 10000 3.1 250 18:54 23.12.2020
882 Clouds 13 1023 93 10000 5.1 250 18:35 23.12.2020
883 Clouds 13 1022 87 10000 6.2 230 17:44 23.12.2020
884 Clouds 13 1022 87 10000 6.2 230 17:24 23.12.2020
885 Clouds 13 1022 87 10000 6.2 230 16:56 23.12.2020
886 Clouds 13 1022 82 10000 4.6 230 16:37 23.12.2020
887 Clouds 14 1022 82 10000 4.6 230 16:18 23.12.2020
888 Clouds 14 1023 82 10000 5.7 200 15:40 23.12.2020
889 Clouds 14 1023 82 10000 5.7 200 15:40 23.12.2020
890 Clouds 14 1023 82 10000 5.7 200 15:22 23.12.2020
891 Clouds 15 1023 77 10000 5.7 200 14:51 23.12.2020
892 Clouds 15 1023 77 10000 4.6 210 14:25 23.12.2020
893 Clouds 15 1024 77 10000 1.5 160 13:58 23.12.2020
894 Clouds 15 1024 77 10000 1.5 160 13:39 23.12.2020
895 Clouds 14 1024 77 10000 1.5 160 13:18 23.12.2020
896 Clouds 14 1024 76 10000 2.6 180 12:46 23.12.2020
897 Clouds 14 1025 76 10000 1.5 0 12:21 23.12.2020
898 Clear 12 1025 71 10000 3.6 320 11:45 23.12.2020
899 Clear 11 1025 76 10000 4.1 330 10:58 23.12.2020
900 Clear 11 1025 76 10000 3.1 330 10:40 23.12.2020
901 Clear 11 1025 76 10000 3.1 330 10:21 23.12.2020
902 Clear 9 1025 81 10000 4.6 320 09:27 23.12.2020
903 Clouds 9 1024 81 10000 4.6 320 08:42 23.12.2020
904 Clouds 9 1024 81 10000 4.6 320 08:19 23.12.2020
905 Clouds 10 1024 76 10000 4.1 330 07:27 23.12.2020
906 Clouds 10 1024 76 10000 4.1 320 06:39 23.12.2020
907 Clouds 10 1024 76 10000 4.1 330 05:26 23.12.2020
908 Clouds 10 1025 76 10000 3.1 320 04:53 23.12.2020
909 Clouds 11 1025 81 10000 3.1 320 00:34 23.12.2020
910 Clouds 11 1025 87 10000 3.1 310 23:48 22.12.2020
911 Clouds 11 1025 87 10000 3.6 310 23:28 22.12.2020
912 Clouds 11 1025 87 10000 3.6 320 22:44 22.12.2020
913 Clouds 11 1025 87 10000 3.6 320 22:25 22.12.2020
914 Clouds 11 1025 87 10000 2.1 320 21:58 22.12.2020
915 Clouds 11 1025 87 10000 2.1 320 21:38 22.12.2020
916 Clouds 11 1025 87 10000 2.1 320 21:19 22.12.2020
917 Clouds 11 1025 87 10000 2.1 320 20:48 22.12.2020
918 Clouds 12 1025 87 10000 1.5 320 20:21 22.12.2020
919 Clouds 12 1025 87 10000 1 280 19:44 22.12.2020
920 Clouds 12 1025 87 10000 1 270 19:22 22.12.2020
921 Clouds 12 1025 87 10000 1 280 18:55 22.12.2020
922 Clouds 12 1025 87 10000 1.2 60 18:30 22.12.2020
923 Clouds 12 1025 82 10000 1.24 71 17:59 22.12.2020
924 Clouds 12 1024 76 10000 1.24 71 17:36 22.12.2020
925 Clouds 12 1024 76 10000 1.23 90 17:18 22.12.2020
926 Clouds 12 1024 82 10000 1.5 120 16:42 22.12.2020
927 Clouds 12 1024 82 10000 1.5 120 16:19 22.12.2020
928 Clouds 12 1024 82 10000 2.1 120 15:43 22.12.2020
929 Clouds 13 1024 82 10000 2.1 120 15:24 22.12.2020
930 Clouds 13 1024 82 10000 2.6 110 14:45 22.12.2020
931 Clouds 13 1024 77 10000 2.1 120 14:27 22.12.2020
932 Clouds 14 1025 72 10000 1.5 130 13:53 22.12.2020
933 Clouds 14 1025 72 10000 1.5 130 13:20 22.12.2020
934 Clouds 15 1025 63 10000 1.69 115 12:59 22.12.2020
935 Clouds 14 1025 67 10000 2.1 330 12:40 22.12.2020
936 Clouds 14 1025 67 10000 2.1 330 12:19 22.12.2020
937 Clouds 13 1026 76 10000 3.1 320 11:43 22.12.2020
938 Clouds 12 1026 76 10000 3.1 320 11:23 22.12.2020
939 Clouds 11 1026 76 10000 3.6 330 10:56 22.12.2020
940 Clouds 10 1025 81 10000 3.6 340 10:28 22.12.2020
941 Clouds 10 1025 81 10000 3.1 350 09:59 22.12.2020
942 Clouds 10 1025 81 10000 5.7 330 09:40 22.12.2020
943 Clouds 10 1025 81 10000 5.7 330 09:20 22.12.2020
944 Clouds 9 1025 87 10000 5.1 330 08:43 22.12.2020
945 Clouds 9 1025 87 10000 5.1 330 08:20 22.12.2020
946 Clouds 9 1024 81 10000 5.1 330 07:47 22.12.2020
947 Clouds 9 1024 81 10000 5.1 330 06:37 22.12.2020
948 Clouds 9 1024 81 10000 4.6 330 05:39 22.12.2020
949 Clouds 10 1024 81 10000 3.6 330 02:39 22.12.2020
950 Rain 11 1024 81 10000 4.1 320 00:44 22.12.2020
951 Rain 11 1024 81 10000 3.6 320 23:52 21.12.2020
952 Rain 11 1024 81 10000 3.6 320 23:24 21.12.2020
953 Rain 11 1024 81 10000 3.6 320 22:38 21.12.2020
954 Rain 11 1024 81 10000 3.6 320 22:19 21.12.2020
955 Clouds 11 1024 81 10000 4.1 330 21:49 21.12.2020
956 Rain 11 1024 81 10000 3.6 330 21:31 21.12.2020
957 Clouds 11 1024 81 10000 3.6 320 20:50 21.12.2020
958 Clouds 11 1024 81 10000 3.1 330 20:25 21.12.2020
959 Rain 11 1024 81 10000 3.1 320 19:56 21.12.2020
960 Clouds 11 1024 81 10000 2.6 330 19:37 21.12.2020
961 Rain 11 1024 81 10000 2.6 330 19:18 21.12.2020
962 Rain 11 1024 81 10000 3.1 330 18:51 21.12.2020
963 Rain 12 1024 93 10000 1.5 280 18:32 21.12.2020
964 Clouds 12 1024 87 10000 4.6 220 17:43 21.12.2020
965 Clouds 12 1024 87 10000 4.6 220 17:24 21.12.2020
966 Clouds 12 1024 87 10000 4.6 220 16:47 21.12.2020
967 Clouds 13 1024 87 10000 4.6 210 16:26 21.12.2020
968 Clouds 13 1024 82 10000 4.1 220 15:47 21.12.2020
969 Clouds 13 1024 82 10000 3.1 210 15:29 21.12.2020
970 Clouds 13 1024 82 10000 3.1 210 14:57 21.12.2020
971 Clouds 14 1025 77 10000 2.6 180 14:21 21.12.2020
972 Clouds 14 1026 67 10000 2.1 320 13:42 21.12.2020
973 Clouds 13 1026 67 10000 2.1 320 13:24 21.12.2020
974 Clouds 13 1026 66 10000 3.1 320 12:44 21.12.2020
975 Clouds 13 1026 66 10000 3.1 320 12:44 21.12.2020
976 Clouds 13 1026 66 10000 4.6 320 12:25 21.12.2020
977 Clouds 12 1026 71 10000 4.6 330 11:56 21.12.2020
978 Clouds 12 1027 71 10000 5.1 320 11:37 21.12.2020
979 Clouds 12 1027 71 10000 5.1 320 11:19 21.12.2020
980 Clouds 10 1026 76 10000 5.7 330 10:41 21.12.2020
981 Clouds 10 1026 76 10000 5.7 330 10:22 21.12.2020
982 Clouds 9 1026 76 10000 5.1 330 09:43 21.12.2020
983 Clouds 9 1026 76 10000 5.1 330 09:24 21.12.2020
984 Clouds 9 1026 81 10000 5.1 330 08:52 21.12.2020
985 Clear 8 1025 81 10000 5.1 330 07:52 21.12.2020
986 Clear 8 1025 81 10000 6.2 330 06:43 21.12.2020
987 Clouds 9 1025 81 10000 3.1 350 04:49 21.12.2020
988 Clouds 9 1025 81 10000 3.6 340 01:26 21.12.2020
989 Clouds 10 1025 81 10000 4.1 330 00:32 21.12.2020
990 Clouds 10 1025 81 10000 2.6 340 23:36 20.12.2020
991 Clouds 10 1025 81 10000 4.1 330 22:59 20.12.2020
992 Clouds 10 1025 81 10000 4.6 320 22:41 20.12.2020
993 Clouds 10 1025 81 10000 4.6 320 22:22 20.12.2020
994 Clouds 10 1025 87 10000 4.1 320 21:40 20.12.2020
995 Clouds 10 1025 87 10000 4.1 320 21:21 20.12.2020
996 Clouds 11 1024 81 10000 4.6 340 20:51 20.12.2020
997 Clouds 10 1024 87 10000 4.1 330 20:25 20.12.2020
998 Clouds 10 1024 87 10000 3.1 320 19:49 20.12.2020
999 Clouds 10 1023 87 10000 1 360 19:31 20.12.2020
1000 Clouds 10 1023 87 10000 2.1 330 18:58 20.12.2020
1001 Clouds 10 1023 87 10000 2.1 10 18:38 20.12.2020
1002 Clouds 10 1023 87 10000 2.1 10 18:20 20.12.2020
1003 Clouds 10 1023 81 10000 3.1 40 17:44 20.12.2020
1004 Clouds 10 1023 81 10000 3.1 40 17:23 20.12.2020
1005 Rain 11 1023 81 10000 3.1 50 16:45 20.12.2020
1006 Clouds 11 1023 81 10000 4.1 30 16:27 20.12.2020
1007 Rain 11 1023 81 10000 3.6 20 15:48 20.12.2020
1008 Rain 10 1023 81 10000 4.1 20 15:25 20.12.2020
1009 Rain 10 1022 87 10000 4.1 20 14:54 20.12.2020
1010 Rain 10 1022 87 10000 4.1 20 14:33 20.12.2020
1011 Rain 10 1022 87 10000 4.1 20 13:47 20.12.2020
1012 Rain 10 1023 93 8000 2.1 20 13:28 20.12.2020
1013 Rain 10 1023 81 9000 3.1 350 12:58 20.12.2020
1014 Rain 10 1023 93 8000 2.6 20 12:39 20.12.2020
1015 Rain 10 1023 93 8000 2.6 20 12:20 20.12.2020
1016 Rain 10 1023 93 6000 1.5 40 11:43 20.12.2020
1017 Rain 11 1023 93 6000 1.5 40 11:19 20.12.2020
1018 Rain 10 1023 100 5000 1 360 10:45 20.12.2020
1019 Rain 10 1023 93 4500 1 0 10:20 20.12.2020
1020 Rain 10 1023 93 7000 2.6 330 09:46 20.12.2020
1021 Rain 10 1022 93 6000 3.1 340 09:27 20.12.2020
1022 Rain 10 1022 93 6000 3.1 340 08:58 20.12.2020
1023 Rain 10 1022 93 8000 3.1 340 08:39 20.12.2020
1024 Rain 11 1022 93 10000 2.1 340 07:25 20.12.2020
1025 Rain 10 1022 93 10000 2.6 340 05:48 20.12.2020
1026 Rain 11 1022 93 10000 2.6 340 02:20 20.12.2020
1027 Rain 11 1023 93 6000 2.6 340 00:39 20.12.2020
1028 Rain 11 1023 93 10000 2.1 360 23:22 19.12.2020
1029 Rain 11 1023 100 10000 2.1 20 22:57 19.12.2020
1030 Clouds 11 1023 93 10000 2.6 340 22:39 19.12.2020
1031 Clouds 11 1023 93 10000 2.6 340 22:19 19.12.2020
1032 Rain 10 1023 100 10000 2.6 20 21:43 19.12.2020
1033 Rain 10 1023 100 10000 2.6 20 21:25 19.12.2020
1034 Rain 11 1023 87 10000 2.1 20 20:46 19.12.2020
1035 Rain 11 1023 87 10000 4.6 70 20:23 19.12.2020
1036 Rain 11 1023 87 10000 5.1 70 19:56 19.12.2020
1037 Rain 11 1023 87 10000 4.1 90 19:38 19.12.2020
1038 Rain 11 1023 87 10000 4.1 90 19:19 19.12.2020
1039 Rain 11 1022 93 10000 2.6 60 18:32 19.12.2020
1040 Rain 11 1023 93 10000 1.5 320 17:55 19.12.2020
1041 Rain 11 1022 93 4000 4.6 50 17:30 19.12.2020
1042 Rain 11 1022 93 4000 4.6 50 16:58 19.12.2020
1043 Rain 11 1023 93 4000 2.1 70 16:38 19.12.2020
1044 Rain 11 1023 93 4000 2.1 70 16:20 19.12.2020
1045 Rain 12 1022 87 7000 2.1 60 15:49 19.12.2020
1046 Rain 11 1022 93 4000 2.1 20 15:20 19.12.2020
1047 Rain 11 1023 93 6000 2.1 40 14:37 19.12.2020
1048 Rain 12 1023 87 10000 2.1 30 13:55 19.12.2020
1049 Rain 12 1023 87 10000 2.1 30 13:36 19.12.2020
1050 Rain 12 1023 87 10000 2.1 30 13:18 19.12.2020
1051 Rain 11 1023 87 10000 2.6 30 12:41 19.12.2020
1052 Rain 11 1024 87 10000 3.1 20 12:21 19.12.2020
1053 Rain 11 1024 87 10000 1 0 11:48 19.12.2020
1054 Rain 10 1024 87 10000 2.6 330 11:19 19.12.2020
1055 Rain 11 1024 81 10000 3.1 340 10:42 19.12.2020
1056 Rain 10 1024 81 10000 3.1 340 10:19 19.12.2020
1057 Rain 10 1024 87 10000 3.6 340 09:42 19.12.2020
1058 Clouds 11 1024 81 10000 4.6 330 08:59 19.12.2020
1059 Rain 11 1023 81 10000 4.1 330 08:23 19.12.2020
1060 Rain 11 1023 76 10000 4.1 330 07:22 19.12.2020
1061 Clouds 11 1023 76 10000 5.1 330 06:51 19.12.2020
1062 Clouds 10 1023 76 10000 5.1 330 05:24 19.12.2020
1063 Clouds 11 1023 71 10000 4.1 330 03:55 19.12.2020
1064 Clouds 11 1024 71 10000 5.1 330 01:21 19.12.2020
1065 Clouds 11 1025 71 10000 4.6 330 00:36 19.12.2020
1066 Clouds 11 1025 71 10000 4.6 330 00:18 19.12.2020
1067 Clouds 10 1025 76 10000 5.1 330 23:44 18.12.2020
1068 Clouds 10 1025 76 10000 5.1 330 23:21 18.12.2020
1069 Clouds 11 1025 76 10000 5.1 330 22:43 18.12.2020
1070 Clouds 11 1025 76 10000 4.6 330 22:20 18.12.2020
1071 Clouds 10 1025 76 10000 4.6 330 21:47 18.12.2020
1072 Clouds 10 1025 76 10000 4.6 330 21:28 18.12.2020
1073 Clouds 10 1025 76 10000 3.6 330 20:40 18.12.2020
1074 Clouds 10 1025 76 10000 4.1 330 20:19 18.12.2020
1075 Clouds 10 1026 79 10000 0.45 354 19:41 18.12.2020
1076 Clouds 9 1026 76 10000 0.89 252 19:20 18.12.2020
1077 Clouds 11 1025 71 10000 3.6 320 18:40 18.12.2020
1078 Clouds 11 1025 71 10000 3.6 320 18:22 18.12.2020
1079 Clouds 12 1025 66 10000 2.1 320 17:24 18.12.2020
1080 Clouds 12 1025 71 10000 1 100 16:49 18.12.2020
1081 Clouds 13 1025 71 10000 1.5 120 16:27 18.12.2020
1082 Clouds 14 1025 72 10000 2.6 120 15:59 18.12.2020
1083 Clouds 13 1026 77 10000 1.68 116 15:41 18.12.2020
1084 Clouds 14 1025 63 10000 3.1 120 15:22 18.12.2020
1085 Clouds 15 1025 63 10000 3.1 120 14:54 18.12.2020
1086 Clouds 14 1025 63 10000 3.1 120 14:21 18.12.2020
1087 Clouds 15 1025 55 10000 2.6 330 13:50 18.12.2020
1088 Clouds 15 1025 55 10000 3.6 330 13:28 18.12.2020
1089 Clouds 14 1026 58 10000 4.1 330 12:49 18.12.2020
1090 Clouds 14 1026 58 10000 5.1 330 12:21 18.12.2020
1091 Clouds 14 1026 62 10000 4.1 330 11:23 18.12.2020
1092 Clouds 12 1026 71 10000 5.7 330 10:40 18.12.2020
1093 Clouds 12 1026 71 10000 5.7 330 10:20 18.12.2020
1094 Clouds 12 1026 66 10000 5.7 330 09:39 18.12.2020
1095 Clouds 11 1026 66 10000 5.7 330 09:21 18.12.2020
1096 Clouds 11 1026 66 10000 5.7 330 08:54 18.12.2020
1097 Clouds 11 1026 66 10000 5.7 330 08:30 18.12.2020
1098 Clouds 11 1026 71 10000 4.6 330 07:46 18.12.2020
1099 Clouds 11 1026 71 10000 4.6 330 07:18 18.12.2020
1100 Clouds 11 1026 71 10000 4.1 330 06:51 18.12.2020
1101 Clouds 11 1026 71 10000 4.6 340 05:42 18.12.2020
1102 Clouds 11 1026 71 10000 4.1 340 04:51 18.12.2020
1103 Clouds 11 1025 71 10000 2.6 350 02:31 18.12.2020
1104 Clouds 11 1026 71 10000 3.1 340 01:41 18.12.2020
1105 Clouds 11 1026 71 10000 3.6 330 00:28 18.12.2020
1106 Clouds 11 1026 71 10000 4.1 330 23:50 17.12.2020
1107 Clouds 11 1026 76 10000 3.1 330 23:19 17.12.2020
1108 Clouds 11 1026 76 10000 4.1 330 22:47 17.12.2020
1109 Clouds 11 1026 76 10000 3.6 330 22:27 17.12.2020
1110 Clouds 11 1026 81 10000 3.1 320 21:44 17.12.2020
1111 Clouds 11 1026 81 10000 3.1 320 21:20 17.12.2020
1112 Clouds 11 1026 81 10000 3.6 320 20:45 17.12.2020
1113 Clouds 11 1025 81 10000 3.1 320 20:19 17.12.2020
1114 Clouds 11 1025 76 10000 1.5 0 19:56 17.12.2020
1115 Clouds 11 1025 76 10000 1.5 0 19:38 17.12.2020
1116 Clouds 11 1025 76 10000 1.5 0 19:19 17.12.2020
1117 Clouds 12 1024 71 10000 2.6 320 18:40 17.12.2020
1118 Clouds 12 1024 71 10000 1.5 330 18:19 17.12.2020
1119 Clouds 12 1024 71 10000 1.5 330 17:45 17.12.2020
1120 Clouds 12 1024 71 10000 1.5 330 17:27 17.12.2020
1121 Clouds 12 1024 71 10000 0.5 350 16:40 17.12.2020
1122 Clouds 12 1024 71 10000 0.5 350 16:20 17.12.2020
1123 Clouds 12 1024 67 10000 1.5 320 15:45 17.12.2020
1124 Clouds 12 1024 71 10000 1.05 147 15:27 17.12.2020
1125 Clouds 12 1024 67 10000 0.5 100 14:49 17.12.2020
1126 Clouds 13 1024 62 10000 1 0 14:28 17.12.2020
1127 Clouds 13 1024 62 10000 2.1 330 13:50 17.12.2020
1128 Clouds 12 1024 66 10000 3.6 320 13:23 17.12.2020
1129 Clouds 12 1025 66 10000 2.6 330 12:43 17.12.2020
1130 Clouds 12 1025 66 10000 4.1 320 12:24 17.12.2020
1131 Clouds 11 1025 66 10000 5.1 330 11:43 17.12.2020
1132 Clouds 11 1025 66 10000 5.1 330 11:22 17.12.2020
1133 Clouds 11 1025 66 10000 4.1 330 10:49 17.12.2020
1134 Clouds 10 1024 71 10000 4.1 330 09:42 17.12.2020
1135 Clouds 10 1024 71 10000 4.1 330 09:24 17.12.2020
1136 Clouds 9 1024 71 10000 4.6 330 07:50 17.12.2020
1137 Clouds 9 1023 71 10000 5.1 320 07:31 17.12.2020
1138 Clouds 9 1023 71 10000 4.1 330 06:53 17.12.2020
1139 Clouds 10 1023 71 10000 4.6 320 06:32 17.12.2020
1140 Clouds 10 1023 76 10000 4.1 330 04:45 17.12.2020
1141 Clouds 9 1023 81 10000 4.6 330 00:33 17.12.2020
1142 Clouds 9 1023 81 10000 5.1 330 23:51 16.12.2020
1143 Clouds 10 1023 81 10000 5.1 330 23:19 16.12.2020
1144 Clouds 10 1023 81 10000 5.1 330 22:54 16.12.2020
1145 Clouds 9 1023 87 10000 3.6 330 22:34 16.12.2020
1146 Clouds 10 1023 87 10000 4.6 330 21:50 16.12.2020
1147 Clouds 10 1023 87 10000 3.6 320 21:32 16.12.2020
1148 Clouds 10 1023 87 10000 3.6 320 20:55 16.12.2020
1149 Clouds 10 1023 87 10000 3.6 320 20:37 16.12.2020
1150 Clouds 10 1023 87 10000 3.6 320 20:18 16.12.2020
1151 Clouds 11 1022 81 10000 4.6 320 19:20 16.12.2020
1152 Clouds 10 1023 88 10000 1.34 33 18:54 16.12.2020
1153 Clouds 10 1023 88 10000 1.34 27 18:29 16.12.2020
1154 Clouds 12 1021 76 10000 6.2 90 17:47 16.12.2020
1155 Clouds 12 1021 76 10000 6.2 90 17:28 16.12.2020
1156 Clouds 12 1021 76 10000 5.7 100 16:40 16.12.2020
1157 Clouds 13 1021 77 10000 5.1 90 16:21 16.12.2020
1158 Clouds 13 1021 77 10000 5.1 90 15:51 16.12.2020
1159 Clouds 13 1021 77 10000 5.7 90 15:28 16.12.2020
1160 Clouds 13 1021 82 10000 5.7 90 14:47 16.12.2020
1161 Clouds 13 1021 82 10000 5.7 90 14:28 16.12.2020
1162 Clouds 12 1021 76 10000 6.2 100 13:49 16.12.2020
1163 Clouds 12 1021 71 10000 2.1 0 13:30 16.12.2020
1164 Clouds 12 1022 71 10000 4.1 330 12:56 16.12.2020
1165 Clouds 12 1021 76 10000 3.6 320 12:35 16.12.2020
1166 Clouds 12 1021 71 10000 3.6 320 11:40 16.12.2020
1167 Clouds 11 1021 71 10000 3.6 320 11:22 16.12.2020
1168 Clouds 11 1021 71 10000 2.6 340 10:49 16.12.2020
1169 Clouds 11 1021 76 10000 3.1 330 10:26 16.12.2020
1170 Clouds 10 1021 76 10000 4.1 340 09:43 16.12.2020
1171 Clouds 10 1020 76 10000 3.1 330 08:45 16.12.2020
1172 Clouds 10 1020 76 10000 4.6 40 07:59 16.12.2020
1173 Clouds 10 1019 81 10000 5.7 10 07:39 16.12.2020
1174 Clouds 10 1019 81 10000 5.7 10 06:53 16.12.2020
1175 Rain 10 1019 87 10000 6.2 360 02:26 16.12.2020
1176 Clouds 9 1019 87 10000 4.6 330 01:27 16.12.2020
1177 Rain 10 1018 87 10000 3.1 20 23:46 15.12.2020
1178 Clouds 10 1018 76 10000 1.5 0 22:49 15.12.2020
1179 Clouds 10 1018 71 10000 1.5 30 22:25 15.12.2020
1180 Clouds 11 1019 81 10000 3.6 340 21:58 15.12.2020
1181 Clouds 11 1019 81 10000 3.6 340 21:40 15.12.2020
1182 Clouds 11 1019 81 10000 3.6 340 21:21 15.12.2020
1183 Clouds 10 1019 81 10000 3.6 340 20:44 15.12.2020
1184 Clouds 10 1019 87 10000 4.1 350 20:26 15.12.2020
1185 Clouds 10 1019 81 10000 3.1 330 19:52 15.12.2020
1186 Clouds 10 1019 81 10000 3.6 330 19:26 15.12.2020
1187 Clouds 10 1019 81 10000 3.6 330 18:39 15.12.2020
1188 Clouds 10 1019 81 10000 3.6 330 18:21 15.12.2020
1189 Clouds 10 1018 81 10000 3.6 330 17:44 15.12.2020
1190 Clouds 10 1018 81 10000 3.6 330 17:25 15.12.2020
1191 Clouds 10 1018 76 10000 3.6 330 16:46 15.12.2020
1192 Clouds 11 1018 76 10000 3.6 330 16:27 15.12.2020
1193 Clouds 11 1018 76 10000 3.1 330 15:42 15.12.2020
1194 Clouds 11 1018 76 10000 3.1 330 15:24 15.12.2020
1195 Clouds 11 1018 76 10000 3.6 330 14:43 15.12.2020
1196 Clouds 11 1018 76 10000 3.1 320 14:21 15.12.2020
1197 Clouds 11 1018 76 10000 3.6 330 13:51 15.12.2020
1198 Clouds 11 1018 76 10000 2.6 330 13:32 15.12.2020
1199 Clouds 11 1018 76 10000 3.6 340 12:47 15.12.2020
1200 Clouds 11 1018 76 10000 3.6 340 12:20 15.12.2020
1201 Clouds 10 1019 81 10000 2.6 340 11:54 15.12.2020
1202 Clouds 10 1019 81 10000 2.6 340 11:26 15.12.2020
1203 Clouds 10 1019 81 10000 3.1 340 10:53 15.12.2020
1204 Rain 9 1018 81 10000 5.1 340 10:24 15.12.2020
1205 Rain 9 1019 81 10000 5.7 330 09:50 15.12.2020
1206 Clouds 9 1019 87 10000 3.6 330 09:32 15.12.2020
1207 Rain 9 1018 87 10000 4.6 320 08:49 15.12.2020
1208 Clouds 9 1018 87 10000 4.1 330 08:26 15.12.2020
1209 Clouds 8 1018 87 10000 4.6 330 07:49 15.12.2020
1210 Rain 9 1017 87 10000 4.1 330 07:24 15.12.2020
1211 Rain 9 1017 81 10000 4.6 330 06:32 15.12.2020
1212 Clouds 10 1017 71 10000 4.1 330 03:25 15.12.2020
1213 Clouds 10 1018 71 10000 4.6 330 00:34 15.12.2020
1214 Clouds 10 1018 71 10000 4.6 320 23:26 14.12.2020
1215 Clouds 10 1018 71 10000 3.6 330 22:56 14.12.2020
1216 Clouds 10 1018 71 10000 4.6 330 22:32 14.12.2020
1217 Clouds 10 1018 76 10000 3.6 340 21:45 14.12.2020
1218 Rain 10 1018 76 10000 3.6 340 21:23 14.12.2020
1219 Rain 10 1018 71 10000 4.1 330 20:52 14.12.2020
1220 Clouds 10 1018 71 10000 4.6 320 20:30 14.12.2020
1221 Clouds 10 1018 76 10000 3.6 320 19:55 14.12.2020
1222 Rain 10 1018 76 10000 3.6 320 19:29 14.12.2020
1223 Clouds 11 1017 71 10000 3.1 60 18:51 14.12.2020
1224 Clouds 12 1017 76 10000 4.1 90 18:32 14.12.2020
1225 Clouds 11 1017 76 10000 4.1 90 17:48 14.12.2020
1226 Clouds 12 1017 76 10000 3.6 100 17:28 14.12.2020
1227 Clouds 12 1017 71 10000 3.6 90 16:52 14.12.2020
1228 Clouds 12 1017 71 10000 3.6 80 16:29 14.12.2020
1229 Clouds 13 1017 76 10000 3.6 100 15:46 14.12.2020
1230 Clouds 13 1017 76 10000 3.6 100 15:25 14.12.2020
1231 Clouds 14 1017 72 10000 3.1 100 14:44 14.12.2020
1232 Clouds 14 1017 72 10000 3.1 100 14:25 14.12.2020
1233 Clouds 13 1017 67 10000 3.6 90 13:46 14.12.2020
1234 Clouds 13 1018 54 10000 2.6 320 13:24 14.12.2020
1235 Clouds 13 1018 47 10000 3.6 330 12:53 14.12.2020
1236 Clouds 13 1018 47 10000 4.1 320 12:29 14.12.2020
1237 Clouds 12 1018 50 10000 5.7 330 11:36 14.12.2020
1238 Clouds 11 1018 53 10000 5.7 330 10:48 14.12.2020
1239 Clouds 10 1017 61 10000 6.2 330 10:27 14.12.2020
1240 Clouds 8 1017 65 10000 6.2 330 09:44 14.12.2020
1241 Clouds 7 1017 49 10000 5.1 330 08:50 14.12.2020
1242 Clouds 7 1017 65 10000 5.7 330 08:30 14.12.2020
1243 Clouds 7 1016 48 10000 7.2 330 07:52 14.12.2020
1244 Clouds 7 1016 65 10000 5.7 320 06:55 14.12.2020
1245 Clear 7 1015 65 10000 5.7 330 05:51 14.12.2020
1246 Clear 7 1015 65 10000 5.1 330 03:49 14.12.2020
1247 Clear 8 1014 65 10000 4.1 330 00:57 14.12.2020
1248 Clear 8 1014 65 10000 3.6 340 00:35 14.12.2020
1249 Clear 8 1014 65 10000 3.6 340 23:59 13.12.2020
1250 Clear 9 1014 61 10000 4.1 330 23:41 13.12.2020
1251 Clear 9 1013 66 10000 4.1 340 22:51 13.12.2020
1252 Clear 9 1013 66 10000 4.1 340 22:21 13.12.2020
1253 Clear 9 1013 65 10000 4.1 340 21:56 13.12.2020
1254 Clear 9 1013 65 10000 4.1 340 21:36 13.12.2020
1255 Clear 9 1013 66 10000 4.1 310 20:55 13.12.2020
1256 Clear 8 1012 70 10000 4.1 330 20:25 13.12.2020
1257 Clear 9 1012 70 10000 4.1 330 19:47 13.12.2020
1258 Clear 9 1012 66 10000 5.1 330 19:24 13.12.2020
1259 Clear 9 1012 70 10000 4.6 320 18:54 13.12.2020
1260 Clear 9 1012 70 10000 4.6 320 18:36 13.12.2020
1261 Clear 10 1012 70 10000 4.6 320 18:18 13.12.2020
1262 Clear 10 1012 66 10000 3.1 320 17:44 13.12.2020
1263 Clear 11 1012 76 10000 3.1 240 17:18 13.12.2020
1264 Clear 12 1011 67 10000 2.1 220 16:46 13.12.2020
1265 Clear 12 1011 67 10000 2.1 220 16:28 13.12.2020
1266 Clear 14 1011 62 10000 2.1 210 15:46 13.12.2020
1267 Clear 14 1011 62 10000 2.1 210 15:26 13.12.2020
1268 Clear 15 1010 62 10000 2.1 210 14:47 13.12.2020
1269 Clear 15 1010 62 10000 2.1 220 14:29 13.12.2020
1270 Clear 15 1010 44 10000 1.5 310 13:50 13.12.2020
1271 Clear 14 1010 47 10000 2.6 310 13:31 13.12.2020
1272 Clear 14 1010 47 10000 5.1 320 12:57 13.12.2020
1273 Clear 13 1010 47 10000 5.1 320 12:25 13.12.2020
1274 Clear 12 1010 50 10000 4.6 330 11:58 13.12.2020
1275 Clear 12 1010 53 10000 4.6 330 11:33 13.12.2020
1276 Clear 11 1010 61 10000 5.1 330 10:45 13.12.2020
1277 Clear 8 1010 61 10000 5.1 330 10:21 13.12.2020
1278 Clear 9 1009 65 10000 5.7 320 09:46 13.12.2020
1279 Clear 7 1008 70 10000 5.1 330 08:52 13.12.2020
1280 Clear 7 1008 70 10000 5.1 330 08:52 13.12.2020
1281 Clear 7 1008 70 10000 6.2 330 08:30 13.12.2020
1282 Clear 6 1008 75 10000 7.2 330 07:25 13.12.2020
1283 Clear 7 1006 75 10000 7.2 320 03:24 13.12.2020
1284 Clear 6 1005 75 10000 6.2 330 02:32 13.12.2020
1285 Clear 6 1005 81 10000 3.1 340 01:36 13.12.2020
1286 Clear 6 1005 81 10000 5.1 340 00:45 13.12.2020
1287 Clear 6 1005 81 10000 3.6 340 23:45 12.12.2020
1288 Clouds 7 1005 81 10000 4.6 340 23:26 12.12.2020
1289 Clouds 7 1004 87 10000 4.1 340 22:37 12.12.2020
1290 Clouds 7 1004 87 10000 4.6 330 21:47 12.12.2020
1291 Clouds 7 1004 81 10000 4.1 330 21:23 12.12.2020
1292 Clouds 7 1003 87 10000 4.6 320 20:48 12.12.2020
1293 Clouds 7 1003 87 10000 4.6 320 20:21 12.12.2020
1294 Clouds 7 1003 87 10000 4.6 320 19:54 12.12.2020
1295 Clouds 7 1003 87 10000 4.6 320 19:35 12.12.2020
1296 Clouds 7 1002 87 10000 2.6 330 18:59 12.12.2020
1297 Clouds 8 1002 87 10000 2.6 320 18:41 12.12.2020
1298 Clouds 8 1002 87 10000 2.6 320 18:22 12.12.2020
1299 Clouds 8 1002 87 10000 3.1 330 17:42 12.12.2020
1300 Clouds 9 1001 87 10000 3.1 310 16:54 12.12.2020
1301 Clouds 9 1000 87 10000 2.6 310 15:59 12.12.2020
1302 Clouds 9 1000 87 10000 2.6 310 15:41 12.12.2020
1303 Clouds 9 999 81 10000 0.85 188 14:55 12.12.2020
1304 Clouds 9 999 76 10000 3.6 100 14:35 12.12.2020
1305 Clouds 9 999 87 10000 4.6 80 13:47 12.12.2020
1306 Clouds 9 999 87 10000 4.6 80 13:27 12.12.2020
1307 Clouds 8 999 81 10000 4.6 320 12:43 12.12.2020
1308 Clouds 8 999 81 10000 4.1 320 11:41 12.12.2020
1309 Clouds 8 999 75 10000 4.6 330 10:52 12.12.2020
1310 Clouds 7 999 81 10000 5.1 330 09:32 12.12.2020
1311 Clouds 6 998 87 10000 3.6 330 08:52 12.12.2020
1312 Drizzle 7 1000 87 10000 2.1 340 02:46 12.12.2020
1313 Rain 6 1001 87 10000 3.1 330 23:54 11.12.2020
1314 Rain 7 1002 81 10000 3.6 330 22:24 11.12.2020
1315 Clouds 7 1002 75 10000 3.1 340 20:35 11.12.2020
1316 Clouds 8 1002 75 10000 4.6 330 17:52 11.12.2020
1317 Clouds 8 1003 61 10000 5.1 330 14:53 11.12.2020
1318 Clouds 8 1004 65 10000 5.1 330 13:58 11.12.2020
1319 Rain 8 1005 53 10000 6.2 330 12:56 11.12.2020
1320 Rain 8 1006 53 10000 5.1 330 12:18 11.12.2020
1321 Rain 8 1006 53 10000 5.7 330 11:50 11.12.2020
1322 Clouds 7 1006 60 10000 5.7 330 10:45 11.12.2020
1323 Clouds 5 1006 60 10000 5.1 330 08:46 11.12.2020
1324 Clear 5 1006 55 10000 5.1 330 05:42 11.12.2020
1325 Clear 5 1006 55 10000 4.6 330 04:52 11.12.2020
1326 Clear 6 1007 70 10000 3.6 340 01:38 11.12.2020
1327 Clear 6 1007 75 10000 3.6 350 00:21 11.12.2020
1328 Clouds 6 1006 70 10000 5.7 330 22:52 10.12.2020
1329 Clouds 6 1005 75 10000 3.1 340 21:36 10.12.2020
1330 Clouds 6 1005 75 10000 3.6 330 20:42 10.12.2020
1331 Clouds 7 1004 70 10000 3.1 330 19:43 10.12.2020
1332 Clouds 7 1004 70 10000 3.1 330 18:56 10.12.2020
1333 Clouds 8 1004 76 10000 3.1 20 17:54 10.12.2020
1334 Clouds 9 1003 57 10000 2.6 10 16:32 10.12.2020
1335 Clouds 9 1003 53 10000 3.1 320 15:27 10.12.2020
1336 Clouds 10 1002 50 10000 3.6 320 14:51 10.12.2020
1337 Clouds 10 1003 50 10000 3.6 320 14:28 10.12.2020
1338 Clouds 9 1003 70 10000 1 0 12:54 10.12.2020
1339 Clouds 9 1004 61 10000 5.7 330 11:39 10.12.2020
1340 Clouds 5 1004 60 10000 5.1 330 08:52 10.12.2020
1341 Clouds 5 1004 60 10000 5.7 340 07:51 10.12.2020
1342 Clouds 5 1003 52 10000 6.7 330 06:42 10.12.2020
1343 Clear 5 1004 70 10000 4.1 330 03:36 10.12.2020
1344 Clear 5 1004 70 10000 5.1 330 02:23 10.12.2020
1345 Clear 6 1004 75 10000 5.1 330 00:23 10.12.2020
1346 Clear 6 1004 75 10000 5.7 330 22:48 09.12.2020
1347 Clouds 7 1003 75 10000 4.6 330 20:30 09.12.2020
1348 Clouds 7 1003 75 10000 4.6 310 19:32 09.12.2020
1349 Clouds 8 1003 86 10000 0.96 113 17:44 09.12.2020
1350 Clouds 11 1001 58 10000 2.6 110 16:52 09.12.2020
1351 Clouds 11 1001 58 10000 2.6 110 16:23 09.12.2020
1352 Clouds 11 1001 58 10000 2.6 130 15:31 09.12.2020
1353 Rain 12 1000 54 10000 2.1 150 14:43 09.12.2020
1354 Clouds 12 1000 50 10000 1.5 160 14:23 09.12.2020
1355 Rain 11 1000 50 10000 3.1 320 13:19 09.12.2020
1356 Clouds 10 1000 53 10000 4.6 320 12:46 09.12.2020
1357 Clouds 10 1001 53 10000 3.6 330 11:54 09.12.2020
1358 Clouds 9 1001 61 10000 3.6 320 11:23 09.12.2020
1359 Clouds 7 1000 70 10000 5.1 330 09:39 09.12.2020
1360 Clouds 5 1000 70 10000 6.2 320 08:26 09.12.2020
1361 Clouds 5 999 75 10000 6.2 330 05:57 09.12.2020
1362 Clouds 6 1000 75 10000 6.2 330 04:46 09.12.2020
1363 Rain 6 999 70 10000 4.6 320 02:22 09.12.2020
1364 Clouds 7 998 65 10000 4.1 330 23:45 08.12.2020
1365 Clouds 7 998 65 10000 4.1 330 23:23 08.12.2020
1366 Clouds 7 998 66 10000 3.6 340 21:36 08.12.2020
1367 Clouds 7 998 75 10000 3.1 320 19:46 08.12.2020
1368 Clouds 7 998 75 10000 3.6 320 19:25 08.12.2020
1369 Clouds 8 998 70 10000 2.6 320 18:31 08.12.2020
1370 Clouds 9 997 66 10000 2.6 330 16:28 08.12.2020
1371 Rain 9 997 61 10000 2.6 320 14:35 08.12.2020
1372 Rain 9 997 57 10000 4.1 330 13:44 08.12.2020
1373 Rain 9 997 61 10000 3.6 320 12:37 08.12.2020
1374 Rain 9 997 61 10000 3.6 320 11:52 08.12.2020
1375 Rain 8 997 61 10000 4.1 330 10:54 08.12.2020
1376 Clouds 8 997 61 10000 4.1 330 10:34 08.12.2020
1377 Clouds 8 997 61 10000 3.6 340 09:35 08.12.2020
1378 Clouds 7 998 61 10000 4.1 340 07:35 08.12.2020
1379 Clouds 7 999 65 10000 5.1 330 04:42 08.12.2020
1380 Clouds 7 1001 70 10000 4.1 30 01:48 08.12.2020
1381 Clouds 8 1002 70 10000 6.2 40 00:44 08.12.2020
1382 Rain 7 1002 70 10000 6.2 10 23:18 07.12.2020
1383 Rain 8 1002 57 10000 3.1 340 22:20 07.12.2020
1384 Rain 8 1002 61 10000 5.1 360 20:57 07.12.2020
1385 Clouds 7 1002 70 10000 3.1 330 18:58 07.12.2020
1386 Clouds 8 1002 50 10000 2.6 250 17:55 07.12.2020
1387 Clouds 8 1002 48 10000 2.6 250 17:19 07.12.2020
1388 Clouds 9 1002 46 10000 6.2 240 16:28 07.12.2020
1389 Clear 10 1001 50 10000 5.7 220 15:24 07.12.2020
1390 Clear 11 1001 54 10000 5.7 230 14:31 07.12.2020
1391 Clear 11 1001 54 10000 5.7 240 13:36 07.12.2020
1392 Clear 10 1002 57 10000 3.6 270 12:28 07.12.2020
1393 Clear 9 1002 57 10000 3.6 310 11:42 07.12.2020
1394 Clear 8 1002 65 10000 3.6 320 10:32 07.12.2020
1395 Clear 6 1001 75 10000 3.6 310 09:23 07.12.2020
1396 Clear 4 999 75 10000 4.6 310 07:38 07.12.2020
1397 Clear 4 998 80 10000 4.6 310 05:27 07.12.2020
1398 Clear 5 998 61 10000 3.1 300 03:53 07.12.2020
1399 Clear 5 998 70 10000 4.1 320 00:49 07.12.2020
1400 Clear 5 997 75 10000 2.6 310 22:52 06.12.2020
1401 Clear 5 997 75 10000 3.1 320 21:45 06.12.2020
1402 Clear 5 997 70 10000 3.6 310 20:46 06.12.2020
1403 Clear 6 997 70 10000 3.6 310 20:26 06.12.2020
1404 Clear 6 997 70 10000 3.6 310 20:26 06.12.2020
1405 Clouds 7 997 65 10000 4.1 290 19:30 06.12.2020
1406 Clouds 7 996 70 10000 3.6 320 17:39 06.12.2020
1407 Clouds 10 996 62 10000 3.6 230 16:34 06.12.2020
1408 Clouds 11 996 66 10000 2.6 250 14:49 06.12.2020
1409 Clouds 11 998 62 10000 3.1 240 13:23 06.12.2020
1410 Clouds 10 998 66 10000 4.1 310 12:35 06.12.2020
1411 Clouds 9 999 70 10000 4.6 320 11:53 06.12.2020
1412 Clouds 9 999 70 10000 4.6 320 11:25 06.12.2020
1413 Clouds 7 999 75 10000 4.6 320 10:36 06.12.2020
1414 Clouds 5 999 86 10000 3.6 340 09:31 06.12.2020
1415 Clouds 4 998 80 10000 7.2 320 07:52 06.12.2020
1416 Clear 4 998 86 10000 5.1 320 05:18 06.12.2020
1417 Clouds 5 998 87 10000 4.6 320 00:46 06.12.2020
1418 Clouds 5 999 87 10000 4.6 320 00:27 06.12.2020
1419 Clouds 5 998 87 10000 5.7 330 23:58 05.12.2020
1420 Rain 6 997 87 10000 6.2 330 22:26 05.12.2020
1421 Rain 6 997 87 10000 4.6 340 21:57 05.12.2020
1422 Rain 6 997 87 10000 4.6 350 21:31 05.12.2020
1423 Rain 6 997 93 10000 5.7 340 20:59 05.12.2020
1424 Rain 6 996 87 10000 6.2 320 18:50 05.12.2020
1425 Rain 5 996 87 10000 7.2 320 17:57 05.12.2020
1426 Rain 6 996 81 10000 5.1 320 16:49 05.12.2020
1427 Rain 6 996 81 10000 6.2 320 16:28 05.12.2020
1428 Rain 6 996 75 10000 4.1 330 15:24 05.12.2020
1429 Rain 7 996 70 10000 6.7 340 13:33 05.12.2020
1430 Rain 7 997 65 10000 6.2 320 11:50 05.12.2020
1431 Rain 7 997 65 10000 3.6 350 10:41 05.12.2020
1432 Rain 7 996 70 10000 3.6 330 09:38 05.12.2020
1433 Rain 6 996 75 10000 3.1 360 07:48 05.12.2020
1434 Clear 6 996 75 10000 3.6 350 05:58 05.12.2020
1435 Clear 5 996 93 10000 4.1 320 02:18 05.12.2020
1436 Clear 7 994 87 10000 3.6 310 23:39 04.12.2020
1437 Clouds 7 993 87 10000 2.1 330 21:53 04.12.2020
1438 Clouds 8 991 87 10000 11.8 90 19:42 04.12.2020
1439 Rain 10 991 87 10000 9.3 80 18:40 04.12.2020
1440 Rain 9 991 87 10000 3.6 310 17:54 04.12.2020
1441 Rain 9 991 87 10000 3.6 310 17:19 04.12.2020
1442 Rain 9 991 93 10000 3.6 340 15:34 04.12.2020
1443 Clouds 9 992 93 10000 4.6 330 13:39 04.12.2020
1444 Clouds 9 992 93 10000 4.6 330 13:20 04.12.2020
1445 Clouds 8 992 93 10000 4.6 330 12:47 04.12.2020
1446 Rain 7 994 93 10000 3.6 350 10:39 04.12.2020
1447 Rain 7 994 87 10000 4.6 340 09:41 04.12.2020
1448 Rain 7 996 81 6000 4.6 30 06:41 04.12.2020
1449 Rain 7 997 81 10000 4.1 30 05:40 04.12.2020
1450 Rain 8 1002 66 10000 4.1 330 01:55 04.12.2020
1451 Clouds 7 1004 70 10000 3.1 330 22:52 03.12.2020
1452 Clouds 7 1003 70 10000 4.1 330 22:22 03.12.2020
1453 Rain 7 1004 81 10000 3.6 330 20:48 03.12.2020
1454 Clouds 7 1005 75 10000 3.6 320 19:27 03.12.2020
1455 Clouds 7 1005 75 10000 2.6 330 18:51 03.12.2020
1456 Clouds 8 1005 66 10000 3.1 220 17:41 03.12.2020
1457 Clouds 8 1005 66 10000 3.1 220 17:18 03.12.2020
1458 Clouds 11 1004 58 10000 3.1 190 15:52 03.12.2020
1459 Clouds 12 1004 58 10000 3.1 190 15:30 03.12.2020
1460 Clouds 12 1005 41 10000 2.1 190 14:35 03.12.2020
1461 Clouds 12 1005 43 10000 1 0 13:36 03.12.2020
1462 Clouds 12 1006 46 10000 3.6 330 12:26 03.12.2020
1463 Clouds 10 1007 48 10000 4.6 330 11:24 03.12.2020
1464 Clouds 7 1007 54 10000 6.2 330 09:33 03.12.2020
1465 Clear 5 1006 55 10000 5.1 330 06:27 03.12.2020
1466 Clear 6 1007 70 10000 4.6 330 02:45 03.12.2020
1467 Clear 6 1007 70 10000 4.1 340 00:57 03.12.2020
1468 Clear 6 1007 75 10000 5.1 330 22:47 02.12.2020
1469 Clear 6 1007 81 10000 4.1 330 22:26 02.12.2020
1470 Clear 6 1007 87 10000 4.6 320 21:25 02.12.2020
1471 Clear 6 1007 81 10000 2.6 310 20:46 02.12.2020
1472 Clear 6 1007 81 10000 2.6 310 20:28 02.12.2020
1473 Clear 7 1007 66 10000 2.1 300 18:39 02.12.2020
1474 Clear 8 1007 66 10000 1.5 250 17:47 02.12.2020
1475 Clouds 8 1007 61 10000 2.1 290 17:28 02.12.2020
1476 Clouds 10 1006 57 10000 2.6 240 15:23 02.12.2020
1477 Clouds 9 1007 57 10000 3.6 260 12:50 02.12.2020
1478 Clouds 7 1007 81 10000 2.6 330 10:32 02.12.2020
1479 Clouds 6 1007 81 10000 4.1 320 09:32 02.12.2020
1480 Rain 6 1006 87 10000 3.6 310 05:53 02.12.2020
1481 Clouds 7 1008 81 10000 3.6 300 22:54 01.12.2020
1482 Rain 7 1008 81 10000 3.6 290 22:18 01.12.2020
1483 Rain 9 1007 76 10000 6.2 90 19:36 01.12.2020
1484 Rain 9 1007 76 10000 6.2 90 18:45 01.12.2020
1485 Clouds 9 1008 81 10000 7.2 70 16:47 01.12.2020
1486 Clouds 11 1010 66 10000 2.6 30 14:34 01.12.2020
1487 Clouds 11 1012 62 10000 3.1 330 12:31 01.12.2020
1488 Clouds 10 1013 62 10000 4.6 330 11:28 01.12.2020
1489 Clouds 10 1014 66 10000 4.6 330 10:52 01.12.2020
1490 Clouds 9 1014 66 10000 4.1 330 10:26 01.12.2020
1491 Clouds 9 1016 71 10000 5.7 330 07:40 01.12.2020
1492 Clouds 9 1018 76 10000 3.6 330 02:57 01.12.2020
1493 Clouds 9 1019 81 10000 3.1 330 00:57 01.12.2020
1494 Clouds 9 1019 81 10000 2.6 330 00:29 01.12.2020
1495 Clouds 10 1020 76 10000 2.6 330 23:20 30.11.2020
1496 Clouds 11 1020 81 10000 2.6 320 22:40 30.11.2020
1497 Clouds 10 1020 76 10000 1 330 22:22 30.11.2020
1498 Clouds 12 1020 76 10000 1 320 19:46 30.11.2020
1499 Clouds 12 1020 71 10000 1 0 18:54 30.11.2020
1500 Clouds 12 1020 62 10000 2.1 200 18:21 30.11.2020
1501 Clouds 13 1020 67 10000 2.6 190 17:46 30.11.2020
1502 Clouds 13 1020 62 10000 3.1 190 16:52 30.11.2020
1503 Clouds 12 1020 67 10000 1.6 153 14:48 30.11.2020
1504 Clouds 13 1021 62 10000 2.6 320 13:55 30.11.2020
1505 Clouds 13 1021 62 10000 2.6 320 13:22 30.11.2020
1506 Clouds 12 1021 66 10000 4.1 320 12:25 30.11.2020
1507 Clouds 12 1022 62 10000 5.1 320 11:34 30.11.2020
1508 Clouds 10 1021 71 10000 5.7 330 10:24 30.11.2020
1509 Clouds 10 1020 76 10000 6.2 330 08:53 30.11.2020
1510 Clouds 10 1018 71 10000 5.7 330 01:28 30.11.2020
1511 Clouds 10 1017 76 10000 5.1 330 23:28 29.11.2020
1512 Clear 11 1016 76 10000 4.6 330 21:45 29.11.2020
1513 Clear 11 1016 76 10000 4.6 330 21:26 29.11.2020
1514 Clear 11 1016 76 10000 4.6 330 21:26 29.11.2020
1515 Clear 11 1015 71 10000 3.6 320 19:20 29.11.2020
1516 Clear 14 1015 59 10000 1 160 17:34 29.11.2020
1517 Clear 16 1014 59 10000 4.6 100 14:46 29.11.2020
1518 Clear 17 1014 48 10000 1 0 12:46 29.11.2020
1519 Clear 15 1014 54 10000 3.6 320 11:37 29.11.2020
1520 Clear 9 1012 66 10000 6.2 330 08:54 29.11.2020
1521 Clear 11 1012 66 10000 6.2 330 08:35 29.11.2020
1522 Clear 12 1010 62 10000 5.7 330 02:32 29.11.2020
1523 Clear 12 1010 71 10000 5.1 320 23:18 28.11.2020
1524 Clear 13 1010 66 10000 4.1 320 22:50 28.11.2020
1525 Clouds 15 1010 48 10000 8.7 70 20:27 28.11.2020
1526 Clouds 15 1010 63 10000 6.7 70 19:29 28.11.2020
1527 Clouds 16 1010 48 10000 7.7 60 18:58 28.11.2020
1528 Clouds 15 1010 48 10000 7.2 60 18:22 28.11.2020
1529 Clouds 15 1010 55 10000 9.3 70 16:58 28.11.2020
1530 Clouds 15 1010 63 10000 10.3 70 15:56 28.11.2020
1531 Clouds 15 1011 63 10000 10.3 70 13:58 28.11.2020
1532 Clouds 13 1013 62 10000 7.2 30 11:29 28.11.2020
1533 Clouds 14 1013 62 10000 8.2 30 09:27 28.11.2020
1534 Clouds 13 1014 71 10000 2.1 340 03:49 28.11.2020
1535 Clouds 13 1015 71 10000 3.1 340 02:22 28.11.2020
1536 Clouds 13 1016 71 10000 4.1 340 23:23 27.11.2020
1537 Clouds 12 1017 71 10000 4.1 330 22:45 27.11.2020
1538 Clouds 12 1017 76 10000 4.6 330 20:55 27.11.2020
1539 Clouds 12 1017 76 10000 4.1 330 20:28 27.11.2020
1540 Clouds 14 1017 72 10000 7.2 60 19:22 27.11.2020
1541 Clouds 14 1017 77 10000 8.2 80 16:59 27.11.2020
1542 Clouds 16 1017 67 10000 8.7 80 14:45 27.11.2020
1543 Clouds 16 1018 67 10000 8.2 80 13:21 27.11.2020
1544 Clouds 16 1019 59 10000 1.5 60 12:47 27.11.2020
1545 Clouds 15 1020 48 10000 1.5 340 11:35 27.11.2020
1546 Clouds 15 1020 51 10000 2.6 340 10:50 27.11.2020
1547 Clouds 13 1019 54 10000 3.6 340 09:53 27.11.2020
1548 Clouds 11 1020 78 10000 2.68 19 07:22 27.11.2020
1549 Clouds 10 1023 72 10000 1.79 347 22:27 26.11.2020
1550 Clouds 10 1022 81 10000 2.1 20 21:56 26.11.2020
1551 Clouds 10 1022 81 10000 4.6 320 20:52 26.11.2020
1552 Clouds 12 1022 76 10000 5.1 50 18:41 26.11.2020
1553 Clouds 12 1022 72 10000 5.1 70 17:51 26.11.2020
1554 Clouds 15 1022 63 10000 6.2 100 14:50 26.11.2020
1555 Clouds 15 1022 59 10000 4.1 80 13:41 26.11.2020
1556 Clouds 14 1023 54 10000 4.1 70 12:42 26.11.2020
1557 Clouds 13 1023 50 10000 3.6 340 11:44 26.11.2020
1558 Clouds 11 1023 57 10000 4.6 340 10:35 26.11.2020
1559 Clouds 10 1023 61 10000 4.6 340 09:48 26.11.2020
1560 Clouds 10 1023 61 10000 4.6 340 09:29 26.11.2020
1561 Clouds 9 1023 65 10000 6.2 330 08:39 26.11.2020
1562 Clouds 6 1022 65 10000 5.1 340 06:49 26.11.2020
1563 Clouds 8 1023 76 10000 5.1 330 22:59 25.11.2020
1564 Clouds 9 1023 81 10000 4.6 330 20:43 25.11.2020
1565 Clouds 9 1022 81 10000 4.1 320 19:55 25.11.2020
1566 Clouds 12 1022 62 10000 4.1 70 18:28 25.11.2020
1567 Clouds 13 1021 62 10000 4.6 90 16:44 25.11.2020
1568 Clouds 14 1022 58 10000 5.1 90 15:40 25.11.2020
1569 Clouds 14 1022 55 10000 3.6 80 13:58 25.11.2020
1570 Clouds 14 1022 47 10000 2.1 0 13:38 25.11.2020
1571 Clouds 14 1023 47 10000 3.1 330 12:26 25.11.2020
1572 Clouds 13 1023 54 10000 5.7 330 11:20 25.11.2020
1573 Clear 9 1023 65 10000 6.7 330 09:19 25.11.2020
1574 Clear 8 1023 70 10000 6.7 330 08:47 25.11.2020
1575 Clear 7 1022 70 10000 5.7 330 05:18 25.11.2020
1576 Clear 8 1023 70 10000 4.1 340 03:31 25.11.2020
1577 Clear 8 1023 75 10000 5.7 330 00:48 25.11.2020
1578 Clear 8 1023 70 10000 5.7 330 23:57 24.11.2020
1579 Clear 8 1023 70 10000 5.1 330 23:34 24.11.2020
1580 Clear 8 1024 76 10000 5.7 320 22:18 24.11.2020
1581 Clear 8 1024 76 10000 4.1 330 21:31 24.11.2020
1582 Clear 8 1024 76 10000 4.6 330 20:45 24.11.2020
1583 Clear 9 1024 71 10000 4.1 320 19:47 24.11.2020
1584 Clear 12 1023 54 10000 4.1 240 17:31 24.11.2020
1585 Clear 13 1023 47 10000 4.1 230 16:56 24.11.2020
1586 Clouds 13 1023 47 10000 3.6 240 16:36 24.11.2020
1587 Clouds 14 1023 48 10000 3.1 220 15:55 24.11.2020
1588 Clouds 14 1023 51 10000 3.1 220 15:19 24.11.2020
1589 Clouds 14 1024 48 10000 4.6 210 14:43 24.11.2020
1590 Clouds 14 1025 62 10000 2.1 200 12:58 24.11.2020
1591 Clouds 14 1025 54 10000 1.5 0 12:31 24.11.2020
1592 Clouds 13 1026 58 10000 3.6 330 11:58 24.11.2020
1593 Clouds 12 1026 62 10000 5.1 330 10:52 24.11.2020
1594 Clouds 11 1026 66 10000 5.7 330 10:25 24.11.2020
1595 Clouds 10 1026 66 10000 6.7 330 09:37 24.11.2020
1596 Clouds 8 1026 70 10000 6.2 330 08:33 24.11.2020
1597 Clouds 8 1025 70 10000 5.1 330 04:50 24.11.2020
1598 Clouds 10 1026 71 10000 4.6 340 23:35 23.11.2020
1599 Clouds 9 1026 76 10000 4.1 330 21:47 23.11.2020
1600 Clouds 9 1026 76 10000 4.1 330 21:25 23.11.2020
1601 Clouds 9 1026 76 10000 3.6 330 20:29 23.11.2020
1602 Clouds 9 1026 76 10000 2.6 330 19:53 23.11.2020
1603 Clouds 9 1025 71 10000 0.5 310 17:53 23.11.2020
1604 Clouds 11 1025 62 10000 1 0 16:56 23.11.2020
1605 Clear 13 1025 58 10000 2.6 170 14:50 23.11.2020
1606 Clear 13 1026 58 10000 1.5 0 13:58 23.11.2020
1607 Clouds 13 1027 58 10000 1.5 0 12:41 23.11.2020
1608 Clouds 13 1027 58 10000 1.5 0 12:18 23.11.2020
1609 Clouds 12 1028 58 10000 4.6 320 11:41 23.11.2020
1610 Clouds 10 1028 61 10000 5.1 330 10:19 23.11.2020
1611 Clouds 8 1027 70 10000 4.1 330 08:59 23.11.2020
1612 Clouds 7 1027 75 10000 4.1 330 08:36 23.11.2020
1613 Clear 7 1027 70 10000 4.1 330 06:36 23.11.2020
1614 Clouds 8 1029 76 10000 4.1 330 23:59 22.11.2020
1615 Clouds 8 1029 76 10000 4.6 330 22:40 22.11.2020
1616 Clouds 9 1028 76 10000 3.6 330 21:26 22.11.2020
1617 Clouds 9 1028 76 10000 3.6 320 20:43 22.11.2020
1618 Clouds 9 1028 71 10000 3.1 320 19:51 22.11.2020
1619 Clouds 10 1028 62 10000 1.75 100 18:40 22.11.2020
1620 Clouds 12 1027 62 10000 2.6 180 16:39 22.11.2020
1621 Clear 13 1027 62 10000 4.1 200 15:29 22.11.2020
1622 Clear 14 1027 58 10000 4.1 190 14:28 22.11.2020
1623 Clear 14 1028 50 10000 1.5 310 12:49 22.11.2020
1624 Clear 12 1029 46 10000 4.1 330 11:56 22.11.2020
1625 Clear 12 1029 46 10000 4.6 330 11:20 22.11.2020
1626 Clear 10 1029 57 10000 5.1 330 10:38 22.11.2020
1627 Clear 8 1029 47 10000 5.7 330 08:36 22.11.2020
1628 Clear 8 1028 65 10000 5.7 320 01:47 22.11.2020
1629 Clear 8 1029 66 10000 4.1 340 22:56 21.11.2020
1630 Clear 9 1029 66 10000 4.1 330 21:39 21.11.2020
1631 Clear 9 1029 66 10000 4.1 330 20:55 21.11.2020
1632 Clear 9 1029 71 10000 3.6 330 20:33 21.11.2020
1633 Clear 10 1028 66 10000 3.6 330 19:52 21.11.2020
1634 Clear 10 1028 66 10000 3.6 330 19:26 21.11.2020
1635 Clear 11 1028 58 10000 2.1 310 17:57 21.11.2020
1636 Clear 12 1028 51 10000 0.5 0 16:48 21.11.2020
1637 Clear 13 1028 47 10000 2.1 230 15:51 21.11.2020
1638 Clear 14 1028 44 10000 3.6 210 15:21 21.11.2020
1639 Clear 14 1028 51 10000 3.1 200 14:43 21.11.2020
1640 Clear 15 1028 44 10000 2.1 250 13:48 21.11.2020
1641 Clear 14 1028 38 10000 3.6 320 12:26 21.11.2020
1642 Clear 13 1029 38 10000 3.6 320 11:56 21.11.2020
1643 Clear 11 1028 43 10000 5.1 330 10:39 21.11.2020
1644 Clear 9 1028 49 10000 4.6 340 09:32 21.11.2020
1645 Clear 8 1028 52 10000 6.7 330 08:51 21.11.2020
1646 Clear 8 1026 49 10000 5.1 330 05:47 21.11.2020
1647 Clear 8 1025 49 10000 7.2 320 04:27 21.11.2020
1648 Clear 10 1024 46 10000 6.7 330 00:38 21.11.2020
1649 Clear 10 1024 43 10000 6.7 330 23:25 20.11.2020
1650 Clear 10 1023 40 10000 4.6 340 21:56 20.11.2020
1651 Clear 10 1023 50 10000 6.2 330 21:38 20.11.2020
1652 Clear 10 1023 50 10000 6.2 330 21:38 20.11.2020
1653 Clear 10 1023 50 10000 6.2 330 21:18 20.11.2020
1654 Clear 11 1021 57 10000 3.6 320 19:44 20.11.2020
1655 Clear 12 1021 50 10000 2.6 310 18:36 20.11.2020
1656 Clear 13 1021 41 10000 2.6 310 17:47 20.11.2020
1657 Clear 13 1021 44 10000 3.6 290 17:23 20.11.2020
1658 Clear 15 1020 39 10000 4.1 270 16:38 20.11.2020
1659 Clear 16 1020 39 10000 4.1 270 15:56 20.11.2020
1660 Clouds 17 1020 34 10000 5.1 260 14:58 20.11.2020
1661 Clouds 17 1020 45 10000 3.1 250 13:44 20.11.2020
1662 Clouds 17 1020 45 10000 3.1 250 13:18 20.11.2020
1663 Clouds 17 1020 42 10000 3.6 260 12:34 20.11.2020
1664 Clouds 16 1020 32 10000 2.6 260 11:45 20.11.2020
1665 Clouds 16 1020 38 10000 1.5 0 10:53 20.11.2020
1666 Clouds 12 1019 62 10000 1 0 08:53 20.11.2020
1667 Clouds 10 1018 62 10000 2.1 310 08:25 20.11.2020
1668 Clouds 10 1017 50 10000 5.1 20 07:32 20.11.2020
1669 Clouds 12 1016 81 10000 4.6 320 03:44 20.11.2020
1670 Clouds 13 1017 76 10000 3.1 330 22:35 19.11.2020
1671 Clouds 13 1017 82 10000 3.1 320 21:55 19.11.2020
1672 Clouds 13 1017 82 10000 3.6 310 21:34 19.11.2020
1673 Clouds 13 1018 77 10000 1 300 20:31 19.11.2020
1674 Clouds 14 1018 82 10000 2.6 320 19:49 19.11.2020
1675 Clouds 14 1019 72 10000 3.1 90 19:23 19.11.2020
1676 Clouds 14 1019 77 10000 4.6 80 17:39 19.11.2020
1677 Clouds 15 1019 72 10000 3.6 100 16:54 19.11.2020
1678 Clouds 15 1020 72 10000 5.7 100 15:36 19.11.2020
1679 Clouds 16 1020 72 10000 5.7 100 15:18 19.11.2020
1680 Clouds 17 1021 68 10000 5.7 90 13:46 19.11.2020
1681 Clouds 16 1022 68 10000 5.7 90 13:18 19.11.2020
1682 Clouds 16 1022 77 10000 6.2 80 12:35 19.11.2020
1683 Clouds 16 1023 67 10000 5.7 80 11:44 19.11.2020
1684 Clouds 15 1023 58 10000 4.1 60 11:25 19.11.2020
1685 Clouds 14 1023 58 10000 4.6 320 10:52 19.11.2020
1686 Clouds 12 1024 62 10000 4.6 330 09:58 19.11.2020
1687 Clouds 11 1024 66 10000 4.6 330 09:37 19.11.2020
1688 Clouds 11 1024 66 10000 4.6 330 09:18 19.11.2020
1689 Clouds 10 1024 66 10000 5.1 330 08:19 19.11.2020
1690 Clear 11 1026 66 10000 4.6 330 02:20 19.11.2020
1691 Clear 12 1026 71 10000 5.7 320 01:30 19.11.2020
1692 Clear 12 1027 66 10000 4.1 330 23:47 18.11.2020
1693 Clear 12 1027 66 10000 5.1 320 23:24 18.11.2020
1694 Clear 12 1027 66 10000 4.6 320 22:30 18.11.2020
1695 Clear 12 1027 71 10000 5.1 320 21:47 18.11.2020
1696 Clear 12 1027 76 10000 6.2 320 21:27 18.11.2020
1697 Clear 12 1027 71 10000 4.6 330 20:41 18.11.2020
1698 Clear 13 1027 76 10000 4.1 320 19:46 18.11.2020
1699 Clear 13 1027 76 10000 4.1 320 19:25 18.11.2020
1700 Clear 13 1027 76 10000 3.1 320 18:49 18.11.2020
1701 Clear 13 1027 72 10000 1.5 250 17:55 18.11.2020
1702 Clear 14 1027 72 10000 1.5 230 17:35 18.11.2020
1703 Clear 16 1027 63 10000 1.5 190 16:22 18.11.2020
1704 Clear 18 1027 55 10000 2.1 190 14:49 18.11.2020
1705 Clear 18 1027 55 10000 2.1 150 14:29 18.11.2020
1706 Clear 18 1028 55 10000 1.5 160 13:42 18.11.2020
1707 Clear 18 1028 63 10000 0.5 0 12:47 18.11.2020
1708 Clear 18 1028 63 10000 1.48 213 12:18 18.11.2020
1709 Clear 17 1029 48 10000 3.1 330 11:27 18.11.2020
1710 Clear 16 1028 51 10000 4.6 330 10:31 18.11.2020
1711 Clear 14 1028 54 10000 4.6 330 09:41 18.11.2020
1712 Clear 12 1027 62 10000 5.7 340 07:40 18.11.2020
1713 Clear 12 1027 62 10000 5.7 340 06:30 18.11.2020
1714 Clear 12 1027 62 10000 4.6 340 00:23 18.11.2020
1715 Clear 13 1027 66 10000 4.6 330 23:34 17.11.2020
1716 Clear 13 1027 66 10000 6.2 320 22:46 17.11.2020
1717 Clear 13 1027 66 10000 6.2 320 22:28 17.11.2020
1718 Clear 13 1027 71 10000 6.2 330 21:50 17.11.2020
1719 Clear 13 1026 71 10000 6.2 330 21:30 17.11.2020
1720 Clear 13 1026 71 10000 5.7 330 20:44 17.11.2020
1721 Clear 13 1026 71 10000 5.7 320 20:24 17.11.2020
1722 Clear 13 1026 67 10000 5.1 320 19:54 17.11.2020
1723 Clear 13 1026 67 10000 5.1 320 19:54 17.11.2020
1724 Clear 14 1026 67 10000 1.5 320 18:24 17.11.2020
1725 Clear 14 1026 67 10000 1.5 320 18:24 17.11.2020
1726 Clear 15 1025 55 10000 1.5 200 17:33 17.11.2020
1727 Clear 16 1025 52 10000 2.1 200 16:49 17.11.2020
1728 Clear 17 1025 52 10000 2.1 190 16:18 17.11.2020
1729 Rain 18 1025 59 10000 2.1 190 15:39 17.11.2020
1730 Rain 18 1025 59 10000 2.1 190 15:21 17.11.2020
1731 Clear 18 1025 55 10000 2.1 200 14:53 17.11.2020
1732 Clear 19 1025 45 10000 1.5 250 13:59 17.11.2020
1733 Clear 19 1025 48 10000 1 0 13:34 17.11.2020
1734 Clear 18 1025 48 10000 1 0 12:46 17.11.2020
1735 Clear 17 1025 45 10000 3.6 320 11:59 17.11.2020
1736 Clear 17 1025 44 10000 4.1 330 11:40 17.11.2020
1737 Clear 16 1025 47 10000 5.1 330 10:45 17.11.2020
1738 Clear 15 1024 50 10000 3.6 330 10:23 17.11.2020
1739 Clear 15 1024 50 10000 4.1 330 09:48 17.11.2020
1740 Clear 12 1024 54 10000 5.1 330 09:20 17.11.2020
1741 Clear 13 1023 58 10000 4.1 340 08:21 17.11.2020
1742 Clear 12 1022 58 10000 4.1 340 07:35 17.11.2020
1743 Clear 12 1021 62 10000 6.7 330 05:18 17.11.2020
1744 Clear 13 1020 62 10000 6.2 330 03:29 17.11.2020
1745 Clear 13 1020 66 10000 5.1 330 02:31 17.11.2020
1746 Clear 13 1019 67 10000 5.1 320 00:57 17.11.2020
1747 Clear 13 1019 71 10000 3.1 340 00:20 17.11.2020
1748 Clear 13 1019 76 10000 5.1 310 23:41 16.11.2020
1749 Clear 13 1019 76 10000 5.1 310 23:19 16.11.2020
1750 Clear 13 1019 82 10000 4.1 310 22:37 16.11.2020
1751 Clear 13 1019 82 10000 4.1 310 22:18 16.11.2020
1752 Clear 13 1018 87 10000 1.5 300 21:43 16.11.2020
1753 Clear 13 1018 87 10000 1.5 300 21:23 16.11.2020
1754 Clear 13 1017 93 10000 1.5 300 20:27 16.11.2020
1755 Clear 13 1017 87 10000 2.1 310 19:56 16.11.2020
1756 Clouds 13 1017 87 10000 2.6 320 19:32 16.11.2020
1757 Clouds 14 1017 82 10000 1.57 335 18:56 16.11.2020
1758 Clouds 13 1016 82 10000 0.28 236 18:28 16.11.2020
1759 Clouds 14 1016 77 10000 1.5 120 17:42 16.11.2020
1760 Clouds 14 1016 77 10000 1.5 120 17:20 16.11.2020
1761 Clouds 14 1016 77 10000 2.6 110 16:52 16.11.2020
1762 Clouds 15 1015 77 10000 3.1 100 16:27 16.11.2020
1763 Clouds 15 1015 77 10000 4.6 90 15:50 16.11.2020
1764 Clouds 15 1015 77 10000 6.7 90 15:29 16.11.2020
1765 Clouds 16 1014 77 10000 6.7 90 14:53 16.11.2020
1766 Clouds 16 1014 77 10000 7.2 100 13:59 16.11.2020
1767 Clouds 16 1014 77 10000 7.7 90 13:30 16.11.2020
1768 Clouds 15 1014 82 10000 9.3 90 12:33 16.11.2020
1769 Clouds 16 1015 77 10000 7.2 90 11:43 16.11.2020
1770 Clouds 16 1015 77 10000 4.6 90 11:24 16.11.2020
1771 Clouds 16 1014 77 10000 2.1 70 10:46 16.11.2020
1772 Clouds 14 1015 82 10000 2.1 330 10:26 16.11.2020
1773 Clouds 14 1015 87 10000 2.6 330 09:53 16.11.2020
1774 Clouds 13 1014 87 10000 2.1 330 09:34 16.11.2020
1775 Clouds 13 1015 87 10000 2.6 320 08:48 16.11.2020
1776 Clouds 12 1015 87 10000 2.1 340 08:22 16.11.2020
1777 Clouds 13 1015 87 10000 2.6 320 07:34 16.11.2020
1778 Clouds 13 1015 87 10000 3.1 300 06:46 16.11.2020
1779 Rain 13 1016 93 10000 3.1 310 05:49 16.11.2020
1780 Clouds 13 1017 82 10000 3.1 330 03:58 16.11.2020
1781 Clouds 13 1017 87 10000 1 0 01:45 16.11.2020
1782 Clouds 13 1018 77 10000 2.6 300 00:42 16.11.2020
1783 Clouds 14 1018 77 10000 2.6 330 23:33 15.11.2020
1784 Clouds 14 1019 77 10000 2.6 330 22:58 15.11.2020
1785 Clouds 14 1019 77 10000 1.5 330 22:26 15.11.2020
1786 Clouds 14 1019 82 10000 2.1 360 21:59 15.11.2020
1787 Clouds 14 1019 82 10000 3.1 320 21:36 15.11.2020
1788 Clouds 14 1019 82 10000 3.1 320 21:18 15.11.2020
1789 Clouds 15 1019 72 10000 3.1 50 20:39 15.11.2020
1790 Clouds 15 1019 72 10000 4.6 70 19:57 15.11.2020
1791 Clouds 15 1020 72 10000 4.6 70 19:39 15.11.2020
1792 Clouds 15 1020 72 10000 4.6 70 19:39 15.11.2020
1793 Clouds 15 1020 72 10000 4.6 70 19:20 15.11.2020
1794 Clouds 15 1020 72 10000 4.6 100 18:45 15.11.2020
1795 Clouds 15 1020 72 10000 4.1 80 18:25 15.11.2020
1796 Clouds 15 1019 72 10000 4.6 80 17:59 15.11.2020
1797 Clouds 15 1019 72 10000 5.1 90 17:40 15.11.2020
1798 Clouds 15 1019 72 10000 5.1 90 17:22 15.11.2020
1799 Clouds 15 1020 72 10000 4.6 90 16:44 15.11.2020
1800 Clouds 15 1020 72 10000 4.6 80 16:19 15.11.2020
1801 Clouds 15 1020 67 10000 3.6 80 15:44 15.11.2020
1802 Clouds 16 1020 67 10000 3.6 80 15:25 15.11.2020
1803 Clouds 15 1020 72 10000 3.6 100 14:54 15.11.2020
1804 Clouds 16 1020 63 10000 4.1 110 14:27 15.11.2020
1805 Clouds 16 1021 63 10000 3.6 110 13:44 15.11.2020
1806 Clouds 16 1021 63 10000 3.6 100 13:25 15.11.2020
1807 Clouds 16 1021 63 10000 3.6 90 12:47 15.11.2020
1808 Clouds 15 1021 67 10000 4.1 90 12:20 15.11.2020
1809 Clouds 15 1022 63 10000 4.6 90 11:45 15.11.2020
1810 Clouds 16 1022 59 10000 1.5 0 11:19 15.11.2020
1811 Clouds 15 1022 63 10000 3.1 330 10:53 15.11.2020
1812 Clouds 15 1022 67 10000 3.6 340 10:31 15.11.2020
1813 Clouds 14 1022 67 10000 4.1 330 09:56 15.11.2020
1814 Clouds 13 1022 71 10000 4.1 340 09:33 15.11.2020
1815 Clouds 12 1022 76 10000 5.7 330 08:59 15.11.2020
1816 Clear 12 1022 76 10000 5.1 330 08:41 15.11.2020
1817 Clear 11 1022 81 10000 5.1 330 07:46 15.11.2020
1818 Clear 11 1021 76 10000 4.6 330 06:49 15.11.2020
1819 Clear 11 1021 81 10000 4.1 330 04:56 15.11.2020
1820 Clouds 12 1022 76 10000 3.6 330 02:27 15.11.2020
1821 Clouds 12 1023 81 10000 3.6 330 00:36 15.11.2020
1822 Clouds 12 1023 81 10000 3.6 330 00:18 15.11.2020
1823 Clouds 12 1023 87 10000 4.1 330 23:27 14.11.2020
1824 Clouds 12 1023 87 10000 4.1 330 22:45 14.11.2020
1825 Clouds 13 1023 82 10000 3.1 340 22:26 14.11.2020
1826 Clouds 13 1023 82 10000 2.6 340 21:39 14.11.2020
1827 Clouds 13 1023 82 10000 2.6 340 21:21 14.11.2020
1828 Clouds 13 1023 82 10000 2.6 340 21:21 14.11.2020
1829 Clouds 13 1023 76 10000 3.6 330 20:48 14.11.2020
1830 Clouds 13 1023 76 10000 4.1 320 20:25 14.11.2020
1831 Clouds 13 1023 82 10000 3.1 320 19:46 14.11.2020
1832 Clouds 14 1023 72 10000 2.6 70 19:27 14.11.2020
1833 Clouds 14 1022 77 10000 5.1 100 18:43 14.11.2020
1834 Clouds 15 1022 77 10000 5.1 100 18:23 14.11.2020
1835 Clouds 15 1022 77 10000 5.7 90 17:47 14.11.2020
1836 Clouds 15 1022 77 10000 5.7 90 17:47 14.11.2020
1837 Clouds 15 1022 77 10000 5.7 100 17:29 14.11.2020
1838 Clouds 15 1022 72 10000 5.1 90 16:56 14.11.2020
1839 Clouds 16 1023 63 10000 4.6 90 16:36 14.11.2020
1840 Clouds 16 1023 63 10000 4.6 90 16:18 14.11.2020
1841 Clouds 16 1023 59 10000 3.6 90 15:44 14.11.2020
1842 Clouds 16 1023 59 10000 3.1 100 15:18 14.11.2020
1843 Clouds 17 1023 59 10000 2.6 130 14:38 14.11.2020
1844 Clouds 17 1023 59 10000 2.6 130 14:20 14.11.2020
1845 Clouds 17 1023 59 10000 2.1 120 13:40 14.11.2020
1846 Clouds 18 1023 59 10000 2.1 120 13:22 14.11.2020
1847 Clouds 18 1023 59 10000 1.5 0 12:45 14.11.2020
1848 Clouds 17 1024 59 10000 1.5 90 12:27 14.11.2020
1849 Clouds 17 1024 59 10000 2.1 330 11:43 14.11.2020
1850 Clouds 17 1024 59 10000 3.6 330 11:24 14.11.2020
1851 Clouds 16 1024 63 10000 3.6 330 10:43 14.11.2020
1852 Clouds 15 1024 62 10000 4.1 330 10:25 14.11.2020
1853 Clouds 15 1024 62 10000 4.1 330 09:47 14.11.2020
1854 Clouds 14 1024 67 10000 4.1 330 09:28 14.11.2020
1855 Clouds 13 1024 76 10000 4.6 330 08:49 14.11.2020
1856 Clouds 13 1024 76 10000 4.1 330 08:27 14.11.2020
1857 Clouds 13 1024 76 10000 4.1 330 07:50 14.11.2020
1858 Clouds 13 1023 76 10000 5.1 330 07:26 14.11.2020
1859 Clouds 13 1023 82 10000 4.1 330 06:32 14.11.2020
1860 Clouds 13 1023 76 10000 3.1 330 05:31 14.11.2020
1861 Clouds 13 1023 82 10000 3.1 320 03:53 14.11.2020
1862 Clouds 14 1024 82 10000 1.5 0 00:56 14.11.2020
1863 Clouds 14 1024 82 10000 4.6 100 23:47 13.11.2020
1864 Clouds 14 1024 82 10000 4.6 100 23:25 13.11.2020
1865 Clouds 14 1024 82 10000 2.1 100 22:46 13.11.2020
1866 Clouds 14 1024 82 10000 4.1 70 22:26 13.11.2020
1867 Clouds 14 1024 87 10000 4.6 60 21:56 13.11.2020
1868 Clouds 14 1024 87 10000 4.1 70 21:37 13.11.2020
1869 Clouds 14 1024 87 10000 4.1 70 21:19 13.11.2020
1870 Clouds 14 1024 82 10000 2.1 30 20:42 13.11.2020
1871 Clouds 14 1024 87 10000 2.1 110 20:22 13.11.2020
1872 Clouds 14 1024 87 10000 2.6 120 19:46 13.11.2020
1873 Clouds 15 1023 82 10000 3.1 120 19:23 13.11.2020
1874 Clouds 14 1023 87 10000 3.1 110 18:56 13.11.2020
1875 Clouds 15 1023 82 10000 4.6 110 18:25 13.11.2020
1876 Clouds 15 1023 82 10000 4.6 120 17:43 13.11.2020
1877 Clouds 15 1023 82 10000 4.6 120 17:19 13.11.2020
1878 Clouds 15 1023 82 10000 4.1 120 16:49 13.11.2020
1879 Clouds 15 1023 82 10000 4.1 120 16:24 13.11.2020
1880 Clouds 15 1023 82 10000 4.6 130 15:52 13.11.2020
1881 Clouds 15 1023 77 10000 4.6 130 15:32 13.11.2020
1882 Clouds 16 1023 77 10000 4.1 140 14:50 13.11.2020
1883 Clouds 16 1023 77 10000 4.1 140 14:50 13.11.2020
1884 Clouds 16 1023 82 10000 3.6 110 14:25 13.11.2020
1885 Clouds 16 1023 82 10000 5.1 90 13:53 13.11.2020
1886 Clouds 16 1024 82 10000 4.6 90 13:27 13.11.2020
1887 Clouds 16 1024 82 10000 4.6 90 12:51 13.11.2020
1888 Clouds 17 1024 77 10000 3.6 90 12:25 13.11.2020
1889 Clouds 17 1024 72 10000 2.1 90 11:52 13.11.2020
1890 Clouds 17 1024 67 10000 1.5 0 11:33 13.11.2020
1891 Clouds 16 1024 63 10000 2.6 330 10:59 13.11.2020
1892 Clouds 14 1024 67 10000 3.6 330 10:40 13.11.2020
1893 Clouds 14 1024 67 10000 3.6 330 10:22 13.11.2020
1894 Clouds 13 1025 71 10000 4.6 330 09:44 13.11.2020
1895 Clouds 13 1024 71 10000 4.6 330 09:24 13.11.2020
1896 Clouds 12 1024 76 10000 5.1 330 08:52 13.11.2020
1897 Clouds 12 1024 71 10000 4.1 330 08:21 13.11.2020
1898 Clouds 11 1023 76 10000 3.6 330 07:47 13.11.2020
1899 Clouds 11 1023 76 10000 3.6 330 07:26 13.11.2020
1900 Clouds 11 1023 76 10000 4.1 330 06:50 13.11.2020
1901 Clouds 11 1023 76 10000 4.1 340 06:20 13.11.2020
1902 Clouds 11 1023 76 10000 4.1 330 05:39 13.11.2020
1903 Clouds 12 1024 82 10000 3.6 330 02:22 13.11.2020
1904 Clouds 12 1024 82 10000 4.1 330 01:36 13.11.2020
1905 Clouds 13 1024 82 10000 2.1 350 00:34 13.11.2020
1906 Clouds 13 1024 82 10000 4.6 320 23:47 12.11.2020
1907 Clouds 13 1024 82 10000 4.6 320 23:20 12.11.2020
1908 Clouds 13 1024 82 10000 4.1 330 22:54 12.11.2020
1909 Clouds 13 1023 87 10000 3.6 320 22:36 12.11.2020
1910 Clouds 13 1023 87 10000 4.6 320 21:57 12.11.2020
1911 Clouds 13 1023 93 10000 3.6 320 21:38 12.11.2020
1912 Clouds 13 1023 93 10000 3.6 320 21:19 12.11.2020
1913 Clouds 14 1023 87 10000 2.1 300 20:40 12.11.2020
1914 Clouds 14 1023 87 10000 2.1 300 20:22 12.11.2020
1915 Clouds 14 1023 82 10000 2.1 290 19:52 12.11.2020
1916 Clouds 15 1023 82 10000 4.1 230 19:34 12.11.2020
1917 Clouds 15 1022 82 10000 6.7 220 18:56 12.11.2020
1918 Clouds 15 1022 82 10000 6.7 220 18:37 12.11.2020
1919 Clouds 15 1022 82 10000 6.7 220 18:18 12.11.2020
1920 Clouds 16 1022 82 10000 7.2 220 17:39 12.11.2020
1921 Clouds 16 1022 82 10000 7.2 220 17:21 12.11.2020
1922 Clouds 16 1022 77 10000 6.7 200 16:44 12.11.2020
1923 Clouds 16 1022 77 10000 6.7 200 16:23 12.11.2020
1924 Clouds 17 1022 77 10000 6.7 200 15:47 12.11.2020
1925 Clouds 17 1022 72 10000 6.7 210 15:27 12.11.2020
1926 Clouds 17 1022 72 10000 5.1 210 14:47 12.11.2020
1927 Clouds 17 1022 72 10000 5.1 210 14:47 12.11.2020
1928 Clouds 17 1022 68 10000 4.1 210 14:27 12.11.2020
1929 Clouds 17 1022 68 10000 1.5 120 13:58 12.11.2020
1930 Clouds 18 1023 59 10000 0.5 0 13:40 12.11.2020
1931 Clouds 18 1023 59 10000 0.5 0 13:19 12.11.2020
1932 Clouds 17 1023 59 10000 2.1 180 12:44 12.11.2020
1933 Clouds 17 1023 59 10000 1 0 12:24 12.11.2020
1934 Clear 16 1024 63 10000 1.5 300 11:53 12.11.2020
1935 Clear 16 1024 67 10000 2.1 310 11:34 12.11.2020
1936 Clear 15 1024 67 10000 2.6 320 10:50 12.11.2020
1937 Rain 15 1023 72 10000 3.1 320 10:32 12.11.2020
1938 Clear 13 1024 71 10000 3.6 320 09:52 12.11.2020
1939 Clear 13 1023 76 10000 2.6 330 09:27 12.11.2020
1940 Clear 13 1023 76 10000 3.6 330 08:58 12.11.2020
1941 Clear 12 1023 81 10000 3.1 330 08:40 12.11.2020
1942 Clear 12 1023 81 10000 3.1 330 08:40 12.11.2020
1943 Clear 12 1023 81 10000 3.1 330 08:20 12.11.2020
1944 Clear 11 1023 81 10000 3.6 330 07:54 12.11.2020
1945 Clear 11 1023 81 10000 3.6 330 07:31 12.11.2020
1946 Clear 11 1023 81 10000 3.6 330 06:52 12.11.2020
1947 Clear 11 1023 81 10000 3.6 330 06:25 12.11.2020
1948 Clear 12 1023 76 10000 4.6 330 03:50 12.11.2020
1949 Rain 12 1023 76 10000 4.1 330 03:20 12.11.2020
1950 Clouds 12 1024 82 10000 4.1 330 00:36 12.11.2020
1951 Clouds 12 1024 82 10000 4.6 330 23:44 11.11.2020
1952 Clouds 12 1024 82 10000 3.6 330 23:25 11.11.2020
1953 Clouds 12 1024 87 10000 3.6 330 22:48 11.11.2020
1954 Clouds 12 1024 87 10000 4.1 330 22:24 11.11.2020
1955 Clouds 12 1024 87 10000 3.1 330 21:59 11.11.2020
1956 Clouds 12 1024 87 10000 3.1 330 21:40 11.11.2020
1957 Clouds 12 1024 87 10000 3.1 330 21:20 11.11.2020
1958 Clouds 12 1023 87 10000 2.1 350 20:55 11.11.2020
1959 Clouds 13 1023 87 10000 3.6 320 20:36 11.11.2020
1960 Clouds 13 1023 87 10000 3.6 320 20:18 11.11.2020
1961 Clouds 13 1023 87 10000 3.6 320 19:43 11.11.2020
1962 Clouds 14 1023 87 10000 2.1 320 19:24 11.11.2020
1963 Clouds 14 1023 87 10000 0.83 181 18:47 11.11.2020
1964 Clouds 14 1023 82 10000 1 130 18:27 11.11.2020
1965 Clouds 15 1023 77 10000 1.5 160 17:41 11.11.2020
1966 Clouds 15 1023 77 10000 1.5 160 17:22 11.11.2020
1967 Clouds 16 1023 82 10000 1.5 150 16:45 11.11.2020
1968 Clear 16 1023 77 10000 1.5 140 16:27 11.11.2020
1969 Clear 16 1023 77 10000 2.1 130 15:47 11.11.2020
1970 Clouds 16 1023 77 10000 1.5 130 15:26 11.11.2020
1971 Clouds 17 1023 77 10000 2.1 120 14:52 11.11.2020
1972 Clouds 17 1023 77 10000 2.1 130 14:33 11.11.2020
1973 Clouds 18 1023 77 10000 2.1 130 13:55 11.11.2020
1974 Clouds 18 1023 77 10000 2.6 100 13:33 11.11.2020
1975 Clear 18 1024 77 10000 2.1 110 12:42 11.11.2020
1976 Clear 18 1024 68 10000 1 0 12:20 11.11.2020
1977 Clear 17 1024 68 10000 1 60 11:49 11.11.2020
1978 Clear 17 1024 59 10000 2.6 320 11:29 11.11.2020
1979 Clear 16 1024 62 10000 4.1 330 10:41 11.11.2020
1980 Clear 15 1024 62 10000 4.1 330 10:22 11.11.2020
1981 Clear 15 1024 67 10000 4.6 330 09:46 11.11.2020
1982 Clear 14 1024 71 10000 5.1 330 09:28 11.11.2020
1983 Clear 13 1024 71 10000 4.6 330 08:46 11.11.2020
1984 Clear 12 1024 76 10000 4.6 340 08:27 11.11.2020
1985 Clear 12 1024 76 10000 4.1 340 07:51 11.11.2020
1986 Clear 11 1024 76 10000 3.1 330 07:32 11.11.2020
1987 Clear 12 1023 76 10000 5.1 330 06:28 11.11.2020
1988 Clear 12 1024 76 10000 4.6 330 04:32 11.11.2020
1989 Clear 12 1024 82 10000 3.6 340 01:32 11.11.2020
1990 Clear 13 1024 82 10000 5.1 320 00:36 11.11.2020
1991 Clear 13 1024 76 10000 4.1 330 23:56 10.11.2020
1992 Clear 13 1024 76 10000 5.1 330 23:24 10.11.2020
1993 Clear 13 1024 76 10000 4.6 330 22:57 10.11.2020
1994 Clear 13 1024 82 10000 4.1 330 22:36 10.11.2020
1995 Clear 13 1024 82 10000 4.1 330 22:18 10.11.2020
1996 Clear 13 1024 82 10000 3.6 330 21:39 10.11.2020
1997 Clear 13 1024 82 10000 3.6 330 21:19 10.11.2020
1998 Clear 13 1024 82 10000 3.6 330 20:43 10.11.2020
1999 Clouds 13 1024 82 10000 3.6 330 20:23 10.11.2020
2000 Clouds 14 1024 82 10000 3.1 320 19:56 10.11.2020
2001 Clouds 14 1024 82 10000 2.6 320 19:38 10.11.2020
2002 Clouds 14 1024 82 10000 2.6 320 19:20 10.11.2020
2003 Clouds 15 1023 82 10000 0.75 325 18:41 10.11.2020
2004 Clouds 15 1023 82 10000 0.13 172 18:21 10.11.2020
2005 Clouds 16 1023 77 10000 0.13 172 17:47 10.11.2020
2006 Clouds 16 1023 77 10000 1 230 17:28 10.11.2020
2007 Clouds 17 1023 77 10000 1.5 210 16:58 10.11.2020
2008 Clouds 17 1023 77 10000 2.1 190 16:39 10.11.2020
2009 Clouds 17 1023 77 10000 2.1 190 16:21 10.11.2020
2010 Clouds 18 1023 72 10000 2.6 180 15:47 10.11.2020
2011 Clouds 18 1023 68 10000 2.6 190 15:27 10.11.2020
2012 Clouds 18 1023 68 10000 2.6 190 14:43 10.11.2020
2013 Clouds 18 1023 72 10000 2.6 200 14:23 10.11.2020
2014 Clouds 18 1023 77 10000 2.1 190 13:58 10.11.2020
2015 Clouds 18 1024 72 10000 2.1 190 13:37 10.11.2020
2016 Clouds 18 1024 72 10000 2.1 190 13:19 10.11.2020
2017 Clouds 18 1024 63 10000 1.5 170 12:45 10.11.2020
2018 Clouds 18 1024 59 10000 2.1 320 12:24 10.11.2020
2019 Clear 17 1025 55 10000 3.6 320 11:43 10.11.2020
2020 Clear 17 1025 55 10000 3.6 320 11:21 10.11.2020
2021 Clear 17 1025 55 10000 3.6 320 11:21 10.11.2020
2022 Clouds 16 1024 63 10000 4.6 340 10:56 10.11.2020
2023 Clouds 16 1024 63 10000 4.6 340 10:37 10.11.2020
2024 Clouds 16 1024 63 10000 4.6 340 10:19 10.11.2020
2025 Clouds 14 1024 67 10000 5.1 330 09:43 10.11.2020
2026 Clouds 14 1024 71 10000 5.1 330 09:24 10.11.2020
2027 Clouds 14 1024 71 10000 5.1 330 08:53 10.11.2020
2028 Clouds 12 1024 76 10000 4.6 330 08:27 10.11.2020
2029 Clouds 12 1023 76 10000 5.1 330 07:44 10.11.2020
2030 Clouds 12 1023 76 10000 4.1 330 07:24 10.11.2020
2031 Clouds 12 1023 76 10000 3.1 340 06:40 10.11.2020
2032 Clouds 12 1023 82 10000 3.1 330 05:43 10.11.2020
2033 Clouds 12 1023 82 10000 4.6 330 04:59 10.11.2020
2034 Clouds 13 1023 82 10000 4.1 330 02:36 10.11.2020
2035 Clear 13 1023 87 10000 2.6 320 01:30 10.11.2020
2036 Clouds 13 1024 93 10000 3.1 320 23:55 09.11.2020
2037 Clouds 13 1024 93 10000 3.1 320 23:36 09.11.2020
2038 Clouds 14 1024 87 10000 2.6 320 22:49 09.11.2020
2039 Clouds 14 1024 87 10000 2.6 320 22:25 09.11.2020
2040 Clear 14 1023 87 10000 3.1 320 21:56 09.11.2020
2041 Clouds 14 1023 87 10000 2.1 320 21:37 09.11.2020
2042 Clouds 14 1023 87 10000 2.1 320 21:18 09.11.2020
2043 Clouds 15 1023 87 10000 2.6 320 20:37 09.11.2020
2044 Clouds 15 1023 87 10000 2.6 320 20:19 09.11.2020
2045 Clouds 15 1023 87 10000 1.5 0 19:41 09.11.2020
2046 Clouds 15 1023 88 10000 1 110 19:22 09.11.2020
2047 Clouds 16 1023 88 10000 1 110 18:42 09.11.2020
2048 Clouds 16 1023 88 10000 1.5 110 18:20 09.11.2020
2049 Clouds 16 1023 88 10000 1.5 110 17:56 09.11.2020
2050 Clouds 16 1022 82 10000 2.1 120 17:38 09.11.2020
2051 Clouds 16 1022 82 10000 2.1 120 17:20 09.11.2020
2052 Clouds 17 1022 77 10000 2.1 120 16:37 09.11.2020
2053 Clouds 17 1022 77 10000 2.1 120 16:18 09.11.2020
2054 Clouds 18 1023 72 10000 1.5 0 15:41 09.11.2020
2055 Clouds 18 1023 72 10000 1.5 0 15:20 09.11.2020
2056 Clouds 18 1023 72 10000 1.5 140 14:44 09.11.2020
2057 Clouds 18 1023 72 10000 1.5 140 14:25 09.11.2020
2058 Clouds 18 1023 72 10000 1.5 130 13:48 09.11.2020
2059 Clouds 18 1023 72 10000 1.5 130 13:20 09.11.2020
2060 Clouds 18 1023 72 10000 1 0 12:47 09.11.2020
2061 Clouds 18 1024 68 10000 1 0 12:26 09.11.2020
2062 Clouds 17 1024 59 10000 2.6 320 11:57 09.11.2020
2063 Clouds 17 1024 63 10000 4.6 330 11:38 09.11.2020
2064 Clouds 16 1024 63 10000 4.6 330 11:19 09.11.2020
2065 Clouds 15 1024 72 10000 5.1 330 10:42 09.11.2020
2066 Clouds 15 1024 72 10000 5.1 330 10:23 09.11.2020
2067 Clouds 14 1024 76 10000 5.1 330 09:45 09.11.2020
2068 Clouds 14 1024 71 10000 5.7 330 09:24 09.11.2020
2069 Clouds 13 1024 76 10000 5.1 330 08:41 09.11.2020
2070 Clouds 13 1024 76 10000 4.6 330 08:20 09.11.2020
2071 Clouds 12 1024 76 10000 3.6 330 07:41 09.11.2020
2072 Clouds 12 1023 76 10000 3.1 330 07:21 09.11.2020
2073 Clear 12 1023 82 10000 3.6 330 06:37 09.11.2020
2074 Clear 12 1024 82 10000 3.6 330 03:32 09.11.2020
2075 Clouds 13 1024 82 10000 2.6 330 01:55 09.11.2020
2076 Clouds 13 1024 82 10000 3.6 330 01:36 09.11.2020
2077 Clouds 13 1024 87 10000 4.1 330 23:54 08.11.2020
2078 Clouds 13 1024 87 10000 3.6 330 23:30 08.11.2020
2079 Clouds 13 1024 87 10000 3.6 330 22:58 08.11.2020
2080 Clouds 13 1024 87 10000 3.6 330 22:40 08.11.2020
2081 Clouds 13 1024 87 10000 3.6 330 22:19 08.11.2020
2082 Clouds 13 1024 87 10000 3.6 330 21:39 08.11.2020
2083 Clouds 13 1024 87 10000 3.6 330 21:19 08.11.2020
2084 Clouds 13 1024 82 10000 3.1 340 20:55 08.11.2020
2085 Clouds 14 1024 87 10000 2.1 340 20:36 08.11.2020
2086 Clouds 14 1024 87 10000 2.1 340 20:18 08.11.2020
2087 Clouds 14 1025 87 10000 3.6 320 19:42 08.11.2020
2088 Clouds 15 1025 87 10000 3.1 320 19:21 08.11.2020
2089 Clouds 15 1024 87 10000 2.6 320 18:48 08.11.2020
2090 Clouds 15 1024 87 10000 2.6 320 18:48 08.11.2020
2091 Clouds 15 1025 82 10000 1.5 70 18:22 08.11.2020
2092 Clouds 15 1024 82 10000 2.6 80 17:58 08.11.2020
2093 Clouds 15 1024 82 10000 2.6 80 17:58 08.11.2020
2094 Clouds 15 1024 82 10000 2.1 90 17:38 08.11.2020
2095 Clouds 16 1024 82 10000 2.1 90 17:19 08.11.2020
2096 Clouds 16 1024 82 10000 2.1 90 16:55 08.11.2020
2097 Clouds 16 1024 82 10000 2.1 90 16:36 08.11.2020
2098 Clouds 16 1024 82 10000 2.1 90 16:18 08.11.2020
2099 Clouds 16 1024 77 10000 2.6 40 15:43 08.11.2020
2100 Clouds 17 1024 77 10000 2.6 40 15:22 08.11.2020
2101 Clouds 16 1025 72 10000 2.6 40 14:42 08.11.2020
2102 Clouds 16 1025 82 10000 3.6 350 14:22 08.11.2020
2103 Clouds 16 1025 82 10000 3.6 350 14:22 08.11.2020
2104 Clouds 15 1025 82 10000 3.6 350 13:47 08.11.2020
2105 Clouds 15 1026 87 10000 3.1 310 13:24 08.11.2020
2106 Rain 15 1026 77 10000 4.6 320 12:46 08.11.2020
2107 Rain 15 1026 77 10000 4.6 320 12:46 08.11.2020
2108 Rain 16 1026 67 10000 3.6 350 12:28 08.11.2020
2109 Rain 17 1027 63 10000 3.1 360 11:58 08.11.2020
2110 Rain 18 1027 63 10000 1 0 11:40 08.11.2020
2111 Clouds 17 1027 63 10000 1 0 11:20 08.11.2020
2112 Clouds 17 1027 68 10000 2.6 40 10:50 08.11.2020
2113 Clouds 16 1027 72 10000 2.6 20 10:20 08.11.2020
2114 Clouds 15 1027 82 10000 3.6 340 09:57 08.11.2020
2115 Clouds 15 1027 77 10000 3.6 340 09:39 08.11.2020
2116 Clouds 15 1027 77 10000 3.6 340 09:18 08.11.2020
2117 Clouds 14 1027 82 10000 4.1 330 08:40 08.11.2020
2118 Clouds 14 1027 82 10000 4.1 330 08:20 08.11.2020
2119 Clouds 13 1026 82 10000 3.1 330 07:52 08.11.2020
2120 Clouds 13 1026 82 10000 3.1 330 07:29 08.11.2020
2121 Clouds 13 1026 82 10000 4.6 330 06:24 08.11.2020
2122 Clouds 13 1026 82 10000 4.1 330 05:53 08.11.2020
2123 Clouds 13 1026 82 10000 3.6 330 04:50 08.11.2020
2124 Drizzle 14 1027 82 10000 3.1 360 01:54 08.11.2020
2125 Drizzle 14 1027 82 10000 4.6 360 01:19 08.11.2020
2126 Clouds 15 1027 72 10000 3.6 330 00:30 08.11.2020
2127 Rain 15 1028 67 10000 3.6 330 23:50 07.11.2020
2128 Rain 15 1028 72 10000 2.6 320 23:30 07.11.2020
2129 Rain 15 1027 77 10000 2.1 320 22:47 07.11.2020
2130 Rain 15 1027 77 10000 2.6 330 22:28 07.11.2020
2131 Rain 15 1027 77 10000 2.1 350 21:58 07.11.2020
2132 Clear 15 1028 77 10000 3.6 320 21:39 07.11.2020
2133 Clear 15 1028 77 10000 3.6 320 21:19 07.11.2020
2134 Clear 14 1028 77 10000 2.6 330 20:45 07.11.2020
2135 Clear 14 1028 77 10000 3.1 320 20:27 07.11.2020
2136 Clouds 15 1028 77 10000 2.1 340 19:48 07.11.2020
2137 Clouds 15 1028 72 10000 2.1 80 19:27 07.11.2020
2138 Clouds 15 1028 72 10000 2.1 90 18:45 07.11.2020
2139 Clouds 15 1028 68 10000 2.6 130 18:26 07.11.2020
2140 Clouds 15 1027 68 10000 3.1 90 17:53 07.11.2020
2141 Clouds 16 1027 77 10000 4.6 90 17:34 07.11.2020
2142 Clouds 17 1027 68 10000 5.1 80 16:54 07.11.2020
2143 Clouds 17 1027 63 10000 5.7 60 16:36 07.11.2020
2144 Clouds 17 1027 63 10000 5.7 60 16:18 07.11.2020
2145 Clear 18 1027 68 10000 4.6 60 15:41 07.11.2020
2146 Clear 18 1027 72 10000 4.6 70 15:22 07.11.2020
2147 Clear 18 1027 72 10000 4.1 90 14:45 07.11.2020
2148 Clear 19 1027 60 10000 3.1 100 14:26 07.11.2020
2149 Clear 19 1028 64 10000 3.1 80 13:55 07.11.2020
2150 Clear 19 1028 63 10000 2.1 70 13:30 07.11.2020
2151 Clear 19 1028 56 10000 1 0 12:52 07.11.2020
2152 Clear 18 1028 59 10000 2.96 101 12:26 07.11.2020
2153 Clear 19 1028 55 10000 2.96 101 11:45 07.11.2020
2154 Clear 18 1028 55 10000 1.5 0 11:23 07.11.2020
2155 Clear 18 1028 55 10000 3.6 330 10:46 07.11.2020
2156 Clear 17 1028 59 10000 4.1 330 10:27 07.11.2020
2157 Clear 16 1028 63 10000 4.6 330 09:54 07.11.2020
2158 Clear 15 1028 62 10000 4.6 330 09:36 07.11.2020
2159 Clear 14 1028 67 10000 4.1 340 08:55 07.11.2020
2160 Clear 14 1028 67 10000 4.6 330 08:36 07.11.2020
2161 Clear 14 1028 67 10000 4.6 330 08:36 07.11.2020
2162 Clear 13 1028 71 10000 4.6 330 07:56 07.11.2020
2163 Clear 13 1027 71 10000 6.2 330 07:32 07.11.2020
2164 Clear 13 1027 67 10000 3.1 340 06:48 07.11.2020
2165 Clear 14 1028 67 10000 4.6 340 05:37 07.11.2020
2166 Clear 13 1028 71 10000 3.6 330 03:24 07.11.2020
2167 Clear 14 1028 72 10000 3.1 330 01:44 07.11.2020
2168 Clear 14 1028 72 10000 3.6 340 01:25 07.11.2020
2169 Clear 14 1028 72 10000 3.1 330 00:27 07.11.2020
2170 Clear 14 1028 72 10000 3.6 340 23:25 06.11.2020
2171 Clear 14 1028 77 10000 4.1 340 22:45 06.11.2020
2172 Clear 14 1028 77 10000 4.1 340 22:45 06.11.2020
2173 Clear 14 1028 77 10000 3.6 340 22:20 06.11.2020
2174 Clear 15 1028 77 10000 4.1 340 21:58 06.11.2020
2175 Clear 15 1028 77 10000 4.1 320 21:40 06.11.2020
2176 Clear 14 1028 77 10000 4.1 320 21:18 06.11.2020
2177 Clear 14 1028 77 10000 3.1 330 20:43 06.11.2020
2178 Clear 14 1028 82 10000 2.6 340 20:20 06.11.2020
2179 Clear 14 1028 82 10000 2.1 340 19:45 06.11.2020
2180 Clear 15 1028 77 10000 3.6 320 19:27 06.11.2020
2181 Clear 14 1028 82 10000 2.6 310 18:47 06.11.2020
2182 Clear 15 1028 77 10000 1 270 18:28 06.11.2020
2183 Clouds 15 1028 72 10000 1.5 250 17:52 06.11.2020
2184 Clouds 16 1028 68 10000 2.1 250 17:34 06.11.2020
2185 Clouds 17 1028 63 10000 2.1 270 16:59 06.11.2020
2186 Clouds 17 1028 59 10000 2.1 230 16:39 06.11.2020
2187 Clouds 18 1028 59 10000 2.1 230 16:20 06.11.2020
2188 Clouds 19 1029 56 10000 1 0 15:41 06.11.2020
2189 Clouds 19 1029 56 10000 0.5 0 15:22 06.11.2020
2190 Clouds 19 1029 56 10000 1 0 14:41 06.11.2020
2191 Clouds 19 1029 60 10000 0.5 0 14:18 06.11.2020
2192 Clouds 19 1029 60 10000 0.5 0 14:18 06.11.2020
2193 Clouds 19 1029 56 10000 1 0 13:42 06.11.2020
2194 Clouds 19 1029 56 10000 1 0 13:19 06.11.2020
2195 Clouds 19 1029 56 10000 1 0 12:42 06.11.2020
2196 Clouds 19 1030 56 10000 1 0 12:22 06.11.2020
2197 Clouds 18 1030 59 10000 3.6 320 11:38 06.11.2020
2198 Clouds 17 1030 63 10000 4.1 330 10:59 06.11.2020
2199 Clouds 17 1030 63 10000 5.1 330 10:36 06.11.2020
2200 Clouds 16 1030 63 10000 5.1 330 10:18 06.11.2020
2201 Clouds 16 1030 67 10000 5.1 330 09:41 06.11.2020
2202 Clouds 14 1030 76 10000 5.7 330 09:21 06.11.2020
2203 Clouds 14 1030 76 10000 5.7 330 08:47 06.11.2020
2204 Clouds 13 1030 76 10000 5.7 330 08:28 06.11.2020
2205 Clouds 13 1029 76 10000 4.6 330 07:44 06.11.2020
2206 Clouds 13 1029 76 10000 5.1 330 07:21 06.11.2020
2207 Clouds 13 1029 76 10000 5.7 330 06:48 06.11.2020
2208 Clouds 13 1029 76 10000 5.1 330 05:40 06.11.2020
2209 Clouds 13 1029 71 10000 4.6 330 02:53 06.11.2020
2210 Clear 13 1029 76 10000 4.1 330 00:43 06.11.2020
2211 Clear 14 1028 76 10000 4.1 340 23:57 05.11.2020
2212 Clear 14 1028 72 10000 4.1 340 23:26 05.11.2020
2213 Clouds 14 1029 72 10000 4.1 340 22:50 05.11.2020
2214 Clouds 14 1029 72 10000 4.1 340 22:50 05.11.2020
2215 Clouds 14 1029 72 10000 4.1 340 22:26 05.11.2020
2216 Clear 14 1029 77 10000 3.6 330 21:59 05.11.2020
2217 Clear 14 1029 77 10000 3.6 330 21:41 05.11.2020
2218 Clear 14 1028 77 10000 3.6 330 21:21 05.11.2020
2219 Clear 14 1028 77 10000 4.1 320 20:44 05.11.2020
2220 Clear 14 1028 77 10000 3.1 320 20:25 05.11.2020
2221 Clear 15 1028 77 10000 3.6 320 19:58 05.11.2020
2222 Clear 15 1028 82 10000 2.1 360 19:40 05.11.2020
2223 Clear 15 1028 82 10000 2.1 360 19:20 05.11.2020
2224 Clear 15 1028 82 10000 2.1 260 18:42 05.11.2020
2225 Clear 15 1028 82 10000 2.1 260 18:23 05.11.2020
2226 Clear 16 1027 72 10000 1 260 17:51 05.11.2020
2227 Clouds 17 1027 72 10000 1.09 134 17:27 05.11.2020
2228 Clouds 17 1027 72 10000 1.09 134 16:53 05.11.2020
2229 Clouds 18 1027 72 10000 1.5 110 16:29 05.11.2020
2230 Clouds 19 1027 72 10000 2.1 90 15:59 05.11.2020
2231 Clouds 19 1027 72 10000 2.1 90 15:40 05.11.2020
2232 Clouds 19 1027 72 10000 2.6 90 15:21 05.11.2020
2233 Clouds 20 1027 68 10000 2.6 100 14:44 05.11.2020
2234 Clouds 20 1027 64 10000 2.1 100 14:24 05.11.2020
2235 Clouds 20 1028 64 10000 2.1 130 13:42 05.11.2020
2236 Clouds 20 1028 64 10000 2.1 130 13:23 05.11.2020
2237 Clouds 20 1028 64 10000 1.5 140 12:48 05.11.2020
2238 Clouds 20 1028 64 10000 2.1 160 12:24 05.11.2020
2239 Clouds 20 1028 64 10000 2.1 150 11:49 05.11.2020
2240 Clouds 20 1028 52 10000 1.5 0 11:26 05.11.2020
2241 Clouds 19 1028 72 10000 1 0 10:53 05.11.2020
2242 Clear 19 1028 68 10000 2.1 50 10:32 05.11.2020
2243 Clear 17 1028 63 10000 3.6 350 09:59 05.11.2020
2244 Clear 17 1028 63 10000 3.6 350 09:41 05.11.2020
2245 Clear 16 1028 63 10000 3.6 350 09:21 05.11.2020
2246 Clear 15 1027 67 10000 5.7 330 08:43 05.11.2020
2247 Clear 15 1027 67 10000 5.7 330 08:25 05.11.2020
2248 Clear 14 1027 71 10000 4.1 340 07:29 05.11.2020
2249 Clear 14 1027 71 10000 3.1 340 06:52 05.11.2020
2250 Clear 14 1027 76 10000 3.6 340 06:34 05.11.2020
2251 Clear 14 1027 76 10000 3.6 340 06:34 05.11.2020
2252 Clear 14 1026 76 10000 5.7 320 05:22 05.11.2020
2253 Clear 14 1026 87 10000 2.6 320 01:24 05.11.2020
2254 Clear 14 1026 87 10000 2.1 340 00:32 05.11.2020
2255 Clear 14 1026 87 10000 3.1 330 23:44 04.11.2020
2256 Clear 14 1026 87 10000 3.6 330 23:26 04.11.2020
2257 Clouds 14 1026 87 10000 2.6 330 22:52 04.11.2020
2258 Clouds 14 1026 87 10000 1.5 330 22:24 04.11.2020
2259 Clouds 14 1026 87 10000 1.5 330 22:24 04.11.2020
2260 Clouds 14 1025 82 10000 2.1 330 21:57 04.11.2020
2261 Clouds 14 1025 82 10000 1.5 10 21:37 04.11.2020
2262 Clouds 15 1025 82 10000 1.5 10 21:18 04.11.2020
2263 Clouds 15 1025 77 10000 1.5 30 20:42 04.11.2020
2264 Clouds 15 1024 82 10000 1.5 40 20:24 04.11.2020
2265 Clouds 16 1024 77 10000 2.6 60 19:48 04.11.2020
2266 Clouds 16 1024 77 10000 4.1 90 19:29 04.11.2020
2267 Clouds 16 1023 77 10000 3.6 90 18:55 04.11.2020
2268 Clouds 16 1023 77 10000 3.6 90 18:37 04.11.2020
2269 Clouds 16 1023 77 10000 3.6 90 18:18 04.11.2020
2270 Clouds 16 1023 82 10000 3.6 90 17:40 04.11.2020
2271 Clouds 16 1023 82 10000 3.6 90 17:21 04.11.2020
2272 Clouds 16 1022 72 10000 4.6 100 16:38 04.11.2020
2273 Clouds 17 1022 72 10000 4.6 100 16:20 04.11.2020
2274 Clouds 17 1022 72 10000 5.7 100 15:48 04.11.2020
2275 Clouds 17 1021 72 10000 5.1 110 15:25 04.11.2020
2276 Clouds 17 1021 77 10000 5.1 90 14:59 04.11.2020
2277 Clouds 17 1021 72 10000 5.1 90 14:41 04.11.2020
2278 Clouds 18 1021 72 10000 5.1 90 14:21 04.11.2020
2279 Clouds 18 1021 77 10000 5.1 80 13:45 04.11.2020
2280 Clouds 17 1022 72 10000 4.6 80 13:20 04.11.2020
2281 Clouds 17 1022 82 10000 4.6 80 12:53 04.11.2020
2282 Clouds 17 1022 82 10000 5.1 80 12:27 04.11.2020
2283 Clouds 17 1022 82 10000 5.1 90 11:56 04.11.2020
2284 Clouds 17 1022 82 10000 5.1 90 11:38 04.11.2020
2285 Clouds 17 1022 82 10000 5.1 90 11:20 04.11.2020
2286 Clouds 16 1022 82 10000 4.6 100 10:46 04.11.2020
2287 Clouds 16 1022 82 10000 3.1 80 10:22 04.11.2020
2288 Clouds 16 1021 82 10000 2.6 70 09:53 04.11.2020
2289 Clouds 15 1021 82 10000 2.6 30 09:23 04.11.2020
2290 Clouds 15 1021 82 10000 2.1 20 08:46 04.11.2020
2291 Clouds 15 1021 82 10000 3.1 50 08:21 04.11.2020
2292 Clouds 15 1020 88 10000 4.1 60 07:55 04.11.2020
2293 Clouds 15 1020 88 10000 2.6 40 07:30 04.11.2020
2294 Clouds 15 1020 88 10000 3.1 70 06:55 04.11.2020
2295 Clouds 15 1020 88 10000 3.6 90 06:36 04.11.2020
2296 Clouds 15 1020 88 10000 3.1 100 04:18 04.11.2020
2297 Clouds 15 1021 82 10000 1.5 340 02:28 04.11.2020
2298 Clouds 15 1021 77 10000 2.1 330 00:57 04.11.2020
2299 Clouds 15 1021 77 10000 1.5 340 23:50 03.11.2020
2300 Clouds 15 1021 77 10000 2.1 330 23:24 03.11.2020
2301 Clouds 15 1022 77 10000 1.5 340 22:42 03.11.2020
2302 Clouds 15 1022 77 10000 1.5 340 22:22 03.11.2020
2303 Clouds 15 1022 77 10000 2.1 330 21:59 03.11.2020
2304 Clouds 15 1022 77 10000 2.1 330 21:41 03.11.2020
2305 Clouds 15 1022 77 10000 2.1 330 21:21 03.11.2020
2306 Clouds 15 1022 77 10000 1.5 360 20:46 03.11.2020
2307 Clouds 15 1022 77 10000 1.5 10 20:26 03.11.2020
2308 Clouds 15 1022 77 10000 2.1 320 19:45 03.11.2020
2309 Clouds 16 1022 77 10000 1.5 360 19:27 03.11.2020
2310 Clouds 16 1022 77 10000 1.5 360 18:57 03.11.2020
2311 Clouds 16 1022 77 10000 1 40 18:38 03.11.2020
2312 Clouds 16 1022 77 10000 1 40 18:18 03.11.2020
2313 Clouds 16 1022 77 10000 1.35 225 17:43 03.11.2020
2314 Clouds 16 1022 77 10000 1.41 209 17:25 03.11.2020
2315 Clouds 16 1022 77 10000 1.5 200 16:45 03.11.2020
2316 Clouds 16 1022 77 10000 1.5 200 16:25 03.11.2020
2317 Clouds 16 1022 77 10000 1.5 200 15:52 03.11.2020
2318 Clouds 16 1022 72 10000 2.1 200 15:29 03.11.2020
2319 Clouds 16 1022 77 10000 2.1 210 14:54 03.11.2020
2320 Clouds 17 1022 72 10000 1.5 240 14:33 03.11.2020
2321 Clouds 17 1023 72 10000 1.5 230 13:59 03.11.2020
2322 Clouds 17 1023 63 10000 1 0 13:40 03.11.2020
2323 Clouds 17 1023 63 10000 1 0 13:20 03.11.2020
2324 Clouds 17 1023 68 10000 1.5 310 12:44 03.11.2020
2325 Clouds 17 1023 68 10000 2.1 330 12:21 03.11.2020
2326 Clouds 16 1023 68 10000 2.1 320 11:46 03.11.2020
2327 Clouds 16 1024 68 10000 2.1 330 11:23 03.11.2020
2328 Clouds 16 1024 68 10000 2.1 330 10:55 03.11.2020
2329 Clouds 16 1024 72 10000 3.1 330 10:37 03.11.2020
2330 Clouds 16 1024 72 10000 3.1 330 10:18 03.11.2020
2331 Clouds 16 1024 72 10000 2.6 330 09:44 03.11.2020
2332 Clouds 15 1023 72 10000 2.6 320 09:22 03.11.2020
2333 Clouds 15 1023 72 10000 3.1 330 08:48 03.11.2020
2334 Clouds 15 1023 72 10000 2.6 310 08:29 03.11.2020
2335 Clouds 15 1023 77 10000 3.1 330 07:41 03.11.2020
2336 Clouds 15 1023 77 10000 3.1 330 07:19 03.11.2020
2337 Clouds 15 1022 77 10000 3.1 320 06:22 03.11.2020
2338 Clouds 15 1023 82 10000 2.1 300 04:34 03.11.2020
2339 Clouds 15 1023 77 10000 2.6 320 00:45 03.11.2020
2340 Clouds 15 1023 82 10000 1.5 330 00:24 03.11.2020
2341 Clouds 15 1024 82 10000 2.6 320 23:46 02.11.2020
2342 Clouds 15 1024 82 10000 2.1 330 23:28 02.11.2020
2343 Clouds 15 1024 82 10000 1.5 320 22:44 02.11.2020
2344 Clouds 15 1024 82 10000 2.1 330 22:25 02.11.2020
2345 Clouds 15 1024 82 10000 1.5 350 21:56 02.11.2020
2346 Clouds 15 1023 82 10000 2.1 320 21:36 02.11.2020
2347 Clouds 15 1023 82 10000 2.1 320 21:18 02.11.2020
2348 Clouds 15 1023 88 10000 1 330 20:38 02.11.2020
2349 Clouds 15 1023 88 10000 1 330 20:18 02.11.2020
2350 Clouds 15 1023 88 10000 1 330 20:18 02.11.2020
2351 Clouds 15 1023 88 10000 1.5 280 19:43 02.11.2020
2352 Clouds 15 1023 88 10000 1.5 260 19:25 02.11.2020
2353 Clouds 15 1023 88 10000 2.1 240 18:43 02.11.2020
2354 Clouds 15 1023 88 10000 2.1 240 18:43 02.11.2020
2355 Clouds 16 1022 77 10000 1 220 18:22 02.11.2020
2356 Clouds 16 1022 77 10000 1 220 17:59 02.11.2020
2357 Clouds 16 1022 77 10000 1 220 17:40 02.11.2020
2358 Clouds 16 1022 77 10000 2.1 220 17:21 02.11.2020
2359 Clouds 16 1022 77 10000 1.5 220 16:48 02.11.2020
2360 Clouds 16 1022 77 10000 1.5 210 16:24 02.11.2020
2361 Clouds 16 1023 77 10000 1.5 220 15:55 02.11.2020
2362 Clouds 16 1023 77 10000 2.1 210 15:36 02.11.2020
2363 Clouds 16 1023 77 10000 2.1 210 15:18 02.11.2020
2364 Clouds 16 1023 72 10000 2.1 200 14:41 02.11.2020
2365 Clouds 16 1023 77 10000 2.1 190 14:19 02.11.2020
2366 Clouds 16 1023 77 10000 1.5 190 13:46 02.11.2020
2367 Clouds 16 1023 77 10000 2.6 200 13:21 02.11.2020
2368 Clouds 17 1023 72 10000 2.6 190 12:50 02.11.2020
2369 Clouds 17 1023 68 10000 3.1 200 12:26 02.11.2020
2370 Clouds 18 1024 68 10000 3.1 210 11:45 02.11.2020
2371 Clouds 18 1024 63 10000 1.5 0 11:20 02.11.2020
2372 Clouds 17 1023 55 10000 2.1 320 10:48 02.11.2020
2373 Clouds 17 1023 63 10000 3.1 330 10:25 02.11.2020
2374 Clouds 16 1023 59 10000 3.6 330 09:55 02.11.2020
2375 Clouds 16 1023 67 10000 4.1 330 09:29 02.11.2020
2376 Clouds 15 1023 63 10000 4.1 330 08:57 02.11.2020
2377 Clouds 15 1023 72 10000 4.1 330 08:36 02.11.2020
2378 Clouds 15 1023 72 10000 4.1 330 08:18 02.11.2020
2379 Clouds 14 1023 87 10000 2.6 290 07:39 02.11.2020
2380 Clouds 14 1023 77 10000 2.6 300 06:45 02.11.2020
2381 Clouds 14 1022 72 10000 2.6 330 05:22 02.11.2020
2382 Clouds 14 1022 77 10000 3.1 330 01:34 02.11.2020
2383 Clouds 14 1022 77 10000 3.6 320 00:39 02.11.2020
2384 Clouds 14 1022 77 10000 3.6 320 00:20 02.11.2020
2385 Clouds 15 1022 77 10000 3.1 320 23:39 01.11.2020
2386 Clouds 15 1022 77 10000 3.1 320 23:21 01.11.2020
2387 Clouds 14 1022 77 10000 2.6 320 22:43 01.11.2020
2388 Clouds 14 1022 82 10000 3.1 320 22:22 01.11.2020
2389 Clouds 14 1022 82 10000 2.6 320 21:43 01.11.2020
2390 Clouds 14 1022 82 10000 2.6 320 21:25 01.11.2020
2391 Clouds 14 1022 82 10000 2.6 320 20:50 01.11.2020
2392 Clouds 14 1022 82 10000 2.6 330 20:28 01.11.2020
2393 Clouds 14 1022 82 10000 2.1 330 19:58 01.11.2020
2394 Clouds 15 1022 77 10000 1.5 10 19:39 01.11.2020
2395 Clouds 15 1022 77 10000 1.5 10 19:20 01.11.2020
2396 Clouds 15 1022 72 10000 0.34 232 18:40 01.11.2020
2397 Clouds 15 1022 72 10000 0.41 145 18:19 01.11.2020
2398 Clouds 15 1022 72 10000 0.41 145 17:56 01.11.2020
2399 Clouds 15 1022 72 10000 0.41 145 17:37 01.11.2020
2400 Clouds 16 1022 72 10000 0.78 166 17:18 01.11.2020
2401 Clouds 16 1022 68 10000 1 100 16:39 01.11.2020
2402 Clouds 16 1022 68 10000 1 100 16:19 01.11.2020
2403 Clouds 17 1022 68 10000 1.5 0 15:40 01.11.2020
2404 Clouds 17 1022 68 10000 1.5 0 15:21 01.11.2020
2405 Clouds 17 1022 68 10000 1.5 0 14:57 01.11.2020
2406 Clouds 17 1022 68 10000 1 0 14:39 01.11.2020
2407 Clouds 17 1022 68 10000 1 0 14:18 01.11.2020
2408 Clouds 17 1022 68 10000 1 0 13:46 01.11.2020
2409 Clouds 16 1023 72 10000 2.6 200 13:28 01.11.2020
2410 Clouds 16 1023 72 10000 2.1 200 12:43 01.11.2020
2411 Clouds 17 1023 72 10000 1.5 0 12:22 01.11.2020
2412 Clouds 17 1023 68 10000 1.5 0 11:51 01.11.2020
2413 Clouds 17 1023 68 10000 1.5 320 11:19 01.11.2020
2414 Clouds 16 1023 67 10000 2.6 320 10:43 01.11.2020
2415 Clouds 15 1023 63 10000 3.1 320 10:24 01.11.2020
2416 Clouds 15 1023 67 10000 4.1 330 09:57 01.11.2020
2417 Clouds 15 1023 67 10000 3.6 330 09:38 01.11.2020
2418 Clouds 14 1023 67 10000 3.6 330 08:47 01.11.2020
2419 Clouds 14 1022 72 10000 3.6 330 08:23 01.11.2020
2420 Clouds 14 1022 72 10000 2.1 340 07:40 01.11.2020
2421 Clouds 14 1022 82 10000 4.1 350 04:31 01.11.2020
2422 Clouds 14 1022 82 10000 1.5 300 01:51 01.11.2020
2423 Clouds 14 1023 82 10000 2.6 310 00:43 01.11.2020
2424 Clouds 14 1023 82 10000 2.6 310 00:43 01.11.2020
2425 Clouds 15 1023 87 10000 1 0 23:28 31.10.2020
2426 Clouds 15 1023 82 10000 1 310 22:58 31.10.2020
2427 Clouds 15 1023 82 10000 1 310 22:40 31.10.2020
2428 Clouds 15 1023 82 10000 1.5 0 22:21 31.10.2020
2429 Clouds 15 1023 82 10000 1.5 330 21:44 31.10.2020
2430 Clouds 15 1023 82 10000 1.5 330 21:20 31.10.2020
2431 Clouds 15 1023 82 10000 2.1 340 20:38 31.10.2020
2432 Clouds 15 1023 82 10000 2.1 340 20:18 31.10.2020
2433 Clouds 15 1023 82 10000 1.5 240 19:41 31.10.2020
2434 Clouds 15 1023 82 10000 1.5 240 19:23 31.10.2020
2435 Clouds 15 1023 82 10000 1.5 230 18:48 31.10.2020
2436 Clouds 15 1023 82 10000 2.1 220 18:30 31.10.2020
2437 Clouds 16 1023 77 10000 2.6 210 17:41 31.10.2020
2438 Clouds 16 1023 77 10000 2.6 210 17:23 31.10.2020
2439 Clouds 16 1023 72 10000 2.6 200 16:48 31.10.2020
2440 Clouds 16 1023 72 10000 3.1 200 16:29 31.10.2020
2441 Clouds 16 1023 72 10000 3.1 190 15:54 31.10.2020
2442 Clouds 17 1023 68 10000 2.1 210 15:25 31.10.2020
2443 Clouds 17 1023 68 10000 2.6 220 14:53 31.10.2020
2444 Clouds 17 1023 68 10000 3.1 240 14:31 31.10.2020
2445 Clouds 16 1024 72 10000 3.1 220 13:52 31.10.2020
2446 Clouds 16 1024 72 10000 2.1 210 13:28 31.10.2020
2447 Clouds 16 1024 72 10000 1.5 220 12:56 31.10.2020
2448 Clouds 16 1025 68 10000 1 0 12:22 31.10.2020
2449 Clouds 15 1025 72 10000 3.1 320 11:41 31.10.2020
2450 Clouds 15 1025 72 10000 3.1 320 11:23 31.10.2020
2451 Clouds 16 1025 72 10000 3.6 320 10:49 31.10.2020
2452 Clouds 15 1025 77 10000 4.1 330 10:30 31.10.2020
2453 Clouds 14 1025 76 10000 5.1 320 09:40 31.10.2020
2454 Clouds 14 1025 76 10000 5.1 320 09:20 31.10.2020
2455 Clouds 14 1025 82 10000 5.7 320 08:27 31.10.2020
2456 Clouds 13 1024 82 10000 5.7 320 07:47 31.10.2020
2457 Clouds 13 1024 82 10000 5.1 330 07:26 31.10.2020
2458 Clouds 14 1024 76 10000 4.6 330 06:37 31.10.2020
2459 Clouds 13 1024 82 10000 2.6 340 03:50 31.10.2020
2460 Clouds 14 1025 82 10000 3.1 330 02:48 31.10.2020
2461 Clouds 14 1025 87 10000 3.6 330 00:57 31.10.2020
2462 Clouds 14 1025 87 10000 3.6 330 00:21 31.10.2020
2463 Clouds 14 1025 87 10000 2.6 330 23:46 30.10.2020
2464 Clouds 14 1025 87 10000 3.1 330 23:23 30.10.2020
2465 Clouds 15 1025 82 10000 2.6 330 22:43 30.10.2020
2466 Clouds 15 1025 82 10000 2.6 330 22:22 30.10.2020
2467 Clouds 15 1024 87 10000 2.6 340 21:52 30.10.2020
2468 Clouds 15 1024 82 10000 2.1 340 21:29 30.10.2020
2469 Clouds 15 1024 82 10000 2.1 340 20:59 30.10.2020
2470 Clouds 15 1024 82 10000 2.6 330 20:37 30.10.2020
2471 Clouds 15 1024 82 10000 2.6 330 20:19 30.10.2020
2472 Clouds 15 1024 82 10000 0.5 20 19:44 30.10.2020
2473 Clouds 16 1024 82 10000 0.43 9 19:18 30.10.2020
2474 Clouds 16 1024 77 10000 0.43 9 18:49 30.10.2020
2475 Clouds 16 1024 82 10000 1 0 18:27 30.10.2020
2476 Clouds 16 1024 77 10000 1 170 17:49 30.10.2020
2477 Clouds 16 1023 77 10000 1.5 180 17:23 30.10.2020
2478 Clouds 17 1023 72 10000 1.5 160 16:57 30.10.2020
2479 Clouds 17 1023 72 10000 1.5 140 16:37 30.10.2020
2480 Clouds 17 1023 72 10000 1.5 140 16:18 30.10.2020
2481 Clouds 18 1023 72 10000 1.5 140 15:40 30.10.2020
2482 Clouds 18 1023 72 10000 1.5 140 15:19 30.10.2020
2483 Clouds 18 1023 72 10000 2.1 150 14:44 30.10.2020
2484 Clouds 18 1023 72 10000 1.5 150 14:25 30.10.2020
2485 Clouds 19 1023 72 10000 1.5 150 13:45 30.10.2020
2486 Clouds 19 1024 72 10000 2.1 180 13:21 30.10.2020
2487 Clouds 18 1024 72 10000 2.1 180 12:54 30.10.2020
2488 Clouds 18 1024 72 10000 1.5 190 12:22 30.10.2020
2489 Clouds 18 1024 68 10000 1 0 11:56 30.10.2020
2490 Clouds 18 1024 68 10000 1 0 11:23 30.10.2020
2491 Clouds 17 1024 63 10000 3.1 320 10:56 30.10.2020
2492 Clouds 16 1024 67 10000 4.1 320 10:37 30.10.2020
2493 Clouds 16 1024 67 10000 4.1 320 10:19 30.10.2020
2494 Clouds 15 1024 67 10000 4.6 330 09:42 30.10.2020
2495 Clouds 15 1024 67 10000 4.6 330 09:20 30.10.2020
2496 Clouds 14 1023 76 10000 4.1 330 08:36 30.10.2020
2497 Clouds 13 1023 76 10000 4.1 330 08:18 30.10.2020
2498 Clouds 13 1023 76 10000 4.1 330 08:18 30.10.2020
2499 Clouds 12 1023 81 10000 4.1 330 07:45 30.10.2020
2500 Clouds 12 1023 76 10000 3.6 340 07:26 30.10.2020
2501 Clouds 12 1022 76 10000 4.1 340 06:20 30.10.2020
2502 Clouds 12 1022 76 10000 3.6 330 04:26 30.10.2020
2503 Clear 13 1022 76 10000 2.6 330 01:39 30.10.2020
2504 Clear 13 1022 82 10000 4.1 330 00:31 30.10.2020
2505 Clear 13 1022 82 10000 4.1 320 23:47 29.10.2020
2506 Clear 13 1022 82 10000 3.1 320 23:29 29.10.2020
2507 Clear 13 1022 82 10000 2.6 320 22:49 29.10.2020
2508 Clear 13 1021 82 10000 2.1 340 22:27 29.10.2020
2509 Clear 13 1021 82 10000 2.1 330 21:51 29.10.2020
2510 Clear 14 1021 82 10000 2.6 330 21:26 29.10.2020
2511 Clear 14 1021 82 10000 2.6 340 20:59 29.10.2020
2512 Clear 14 1021 82 10000 2.6 340 20:40 29.10.2020
2513 Clear 14 1020 82 10000 0.5 0 20:40 29.10.2020
2514 Clear 14 1020 82 10000 0.5 0 20:18 29.10.2020
2515 Clear 14 1020 82 10000 2.6 340 19:40 29.10.2020
2516 Clear 14 1020 82 10000 2.6 340 19:21 29.10.2020
2517 Clear 15 1020 82 10000 2.6 320 18:47 29.10.2020
2518 Clear 15 1020 77 10000 2.1 320 18:27 29.10.2020
2519 Clear 15 1019 72 10000 0.84 54 17:55 29.10.2020
2520 Clear 16 1019 72 10000 0.84 54 17:37 29.10.2020
2521 Clear 16 1019 72 10000 0.84 108 17:18 29.10.2020
2522 Clear 16 1020 68 10000 1 230 16:43 29.10.2020
2523 Clear 16 1019 68 10000 0.5 230 16:18 29.10.2020
2524 Clear 17 1019 68 10000 1.5 210 15:41 29.10.2020
2525 Clear 17 1019 68 10000 1.5 210 15:22 29.10.2020
2526 Clear 17 1019 63 10000 1 0 14:59 29.10.2020
2527 Clear 17 1019 63 10000 1 0 14:59 29.10.2020
2528 Clear 17 1019 63 10000 1 0 14:41 29.10.2020
2529 Clear 17 1019 68 10000 2.54 197 14:21 29.10.2020
2530 Clouds 17 1019 68 10000 1 0 13:45 29.10.2020
2531 Clouds 17 1019 68 10000 1.5 80 13:27 29.10.2020
2532 Clouds 17 1019 63 10000 1 0 12:43 29.10.2020
2533 Clouds 17 1019 63 10000 1.5 0 12:20 29.10.2020
2534 Clouds 16 1019 67 10000 2.6 320 11:51 29.10.2020
2535 Clouds 16 1019 67 10000 3.6 330 11:27 29.10.2020
2536 Clouds 15 1018 71 10000 4.1 330 10:59 29.10.2020
2537 Clouds 14 1018 76 10000 3.6 330 10:37 29.10.2020
2538 Clouds 14 1018 76 10000 3.6 330 10:18 29.10.2020
2539 Clouds 13 1018 76 10000 3.6 340 09:46 29.10.2020
2540 Clouds 13 1018 76 10000 4.6 330 09:24 29.10.2020
2541 Clouds 12 1017 81 10000 4.6 330 08:40 29.10.2020
2542 Clouds 12 1017 81 10000 4.6 330 08:22 29.10.2020
2543 Clouds 12 1017 81 10000 5.1 330 07:49 29.10.2020
2544 Clouds 12 1017 81 10000 4.6 330 06:59 29.10.2020
2545 Clouds 12 1017 81 10000 5.1 330 06:28 29.10.2020
2546 Clouds 12 1017 81 10000 4.6 320 04:48 29.10.2020
2547 Clear 11 1017 81 10000 3.6 330 02:28 29.10.2020
2548 Clear 12 1018 87 10000 3.6 330 00:41 29.10.2020
2549 Clear 11 1018 87 10000 1.18 349 00:21 29.10.2020
2550 Clear 12 1018 82 10000 2.6 350 23:42 28.10.2020
2551 Clear 12 1018 82 10000 2.6 350 23:20 28.10.2020
2552 Clear 12 1018 82 10000 2.6 350 22:43 28.10.2020
2553 Clear 12 1018 82 10000 2.6 350 22:25 28.10.2020
2554 Clear 12 1018 87 10000 3.1 330 21:45 28.10.2020
2555 Clear 12 1018 87 10000 3.6 330 21:26 28.10.2020
2556 Clear 13 1018 82 10000 4.1 320 20:58 28.10.2020
2557 Clear 13 1018 82 10000 3.1 320 20:40 28.10.2020
2558 Clear 13 1018 82 10000 3.1 320 20:18 28.10.2020
2559 Clouds 13 1018 82 10000 3.1 20 19:42 28.10.2020
2560 Clouds 13 1018 82 10000 3.1 20 19:24 28.10.2020
2561 Clouds 14 1017 77 10000 3.1 60 18:43 28.10.2020
2562 Clouds 14 1017 72 10000 3.6 60 18:20 28.10.2020
2563 Clouds 14 1017 72 10000 2.6 70 17:44 28.10.2020
2564 Clouds 15 1017 72 10000 2.6 70 17:22 28.10.2020
2565 Clouds 16 1017 72 10000 3.1 120 16:49 28.10.2020
2566 Clouds 16 1017 72 10000 4.6 150 16:30 28.10.2020
2567 Clouds 17 1017 63 10000 4.1 160 15:46 28.10.2020
2568 Clouds 17 1017 68 10000 4.6 160 15:20 28.10.2020
2569 Clouds 17 1017 59 10000 5.7 200 14:58 28.10.2020
2570 Clouds 17 1017 59 10000 5.7 200 14:38 28.10.2020
2571 Clear 16 1018 83 10000 0.45 139 14:19 28.10.2020
2572 Clear 17 1019 77 10000 0.45 131 12:39 28.10.2020
2573 Clear 17 1019 78 10000 1.79 159 12:21 28.10.2020
2574 Clear 17 1019 74 10000 2.68 92 11:44 28.10.2020
2575 Clear 17 1019 70 10000 2.24 173 11:23 28.10.2020
2576 Clouds 16 1018 54 10000 5.7 330 10:59 28.10.2020
2577 Clouds 15 1018 54 10000 5.7 330 10:40 28.10.2020
2578 Clouds 15 1018 54 10000 5.7 330 10:22 28.10.2020
2579 Clouds 14 1018 58 10000 5.7 330 09:41 28.10.2020
2580 Clouds 13 1018 62 10000 6.2 330 09:22 28.10.2020
2581 Clouds 13 1018 62 10000 6.2 330 08:49 28.10.2020
2582 Clouds 12 1018 66 10000 6.7 330 08:27 28.10.2020
2583 Clear 10 1017 66 10000 4.1 340 07:49 28.10.2020
2584 Clear 10 1017 66 10000 3.6 350 07:30 28.10.2020
2585 Clear 10 1017 66 10000 6.2 330 06:42 28.10.2020
2586 Clear 10 1017 66 10000 6.2 330 05:53 28.10.2020
2587 Clear 10 1016 66 10000 4.6 330 05:21 28.10.2020
2588 Clear 10 1016 66 10000 5.7 330 04:26 28.10.2020
2589 Clear 11 1016 66 10000 4.1 340 02:26 28.10.2020
2590 Clear 11 1016 66 10000 4.6 330 01:52 28.10.2020
2591 Clear 11 1015 71 10000 4.1 330 00:29 28.10.2020
2592 Clear 11 1015 71 10000 4.1 340 23:45 27.10.2020
2593 Clear 11 1015 71 10000 3.6 330 23:21 27.10.2020
2594 Clear 11 1015 71 10000 4.6 330 22:44 27.10.2020
2595 Clear 11 1014 76 10000 4.6 330 22:19 27.10.2020
2596 Clear 11 1014 76 10000 4.1 330 21:56 27.10.2020
2597 Clear 11 1014 76 10000 4.6 330 21:37 27.10.2020
2598 Clear 12 1014 76 10000 4.6 330 21:19 27.10.2020
2599 Clear 12 1013 71 10000 4.1 330 20:46 27.10.2020
2600 Clear 12 1013 76 10000 3.6 330 20:24 27.10.2020
2601 Clouds 12 1013 76 10000 2.6 340 19:55 27.10.2020
2602 Clouds 12 1012 71 10000 2.6 330 19:37 27.10.2020
2603 Clouds 12 1012 71 10000 2.6 330 19:18 27.10.2020
2604 Clouds 13 1012 59 10000 2.6 70 18:44 27.10.2020
2605 Clouds 13 1012 59 10000 2.6 70 18:22 27.10.2020
2606 Clouds 14 1011 48 10000 1.5 80 17:57 27.10.2020
2607 Clouds 14 1011 45 10000 1.5 120 17:38 27.10.2020
2608 Clouds 15 1011 45 10000 1.5 120 17:18 27.10.2020
2609 Clouds 15 1010 42 10000 1.5 160 16:42 27.10.2020
2610 Clouds 16 1010 42 10000 1.5 160 16:23 27.10.2020
2611 Clouds 17 1010 52 10000 2.1 170 15:42 27.10.2020
2612 Clouds 17 1010 52 10000 2.1 170 15:23 27.10.2020
2613 Clouds 17 1010 52 10000 2.6 170 14:49 27.10.2020
2614 Clouds 17 1010 55 10000 2.1 170 14:29 27.10.2020
2615 Clouds 17 1010 55 10000 3.1 200 13:58 27.10.2020
2616 Clouds 17 1010 55 10000 2.6 160 13:29 27.10.2020
2617 Clouds 17 1010 59 10000 2.1 150 12:46 27.10.2020
2618 Clouds 17 1010 59 10000 2.1 120 12:27 27.10.2020
2619 Clouds 17 1010 55 10000 2.1 110 11:59 27.10.2020
2620 Clouds 17 1010 55 10000 2.1 110 11:41 27.10.2020
2621 Clouds 16 1010 59 10000 3.6 90 11:21 27.10.2020
2622 Clouds 15 1009 51 10000 4.6 330 10:43 27.10.2020
2623 Clouds 15 1009 51 10000 4.6 330 10:20 27.10.2020
2624 Clouds 13 1009 58 10000 3.6 350 09:38 27.10.2020
2625 Clouds 13 1009 58 10000 3.6 350 09:20 27.10.2020
2626 Clouds 11 1008 66 10000 3.1 320 08:33 27.10.2020
2627 Clouds 11 1008 66 10000 3.1 320 08:33 27.10.2020
2628 Clouds 10 1008 71 10000 4.1 350 07:58 27.10.2020
2629 Clouds 9 1007 71 10000 4.6 330 07:40 27.10.2020
2630 Clouds 9 1007 71 10000 4.6 330 07:21 27.10.2020
2631 Clouds 10 1007 66 10000 3.1 320 06:21 27.10.2020
2632 Clouds 10 1007 66 10000 4.1 280 05:47 27.10.2020
2633 Clouds 10 1006 76 10000 3.6 350 05:28 27.10.2020
2634 Clear 10 1005 66 10000 2.6 310 04:43 27.10.2020
2635 Clear 11 1004 71 10000 2.6 290 01:32 27.10.2020
2636 Clear 10 1004 71 10000 2.1 340 00:48 27.10.2020
2637 Clear 10 1004 81 10000 2.1 300 23:41 26.10.2020
2638 Clear 10 1004 81 10000 2.1 300 23:19 26.10.2020
2639 Clear 11 1004 87 10000 2.1 300 22:46 26.10.2020
2640 Clouds 11 1004 93 10000 1 0 22:21 26.10.2020
2641 Clouds 12 1004 87 10000 3.1 330 21:43 26.10.2020
2642 Clouds 12 1004 87 10000 3.1 330 21:20 26.10.2020
2643 Clouds 12 1004 87 10000 2.6 30 20:58 26.10.2020
2644 Clouds 12 1004 93 10000 3.1 330 20:39 26.10.2020
2645 Clouds 12 1004 93 10000 3.1 330 20:18 26.10.2020
2646 Clouds 12 1004 93 10000 2.1 330 19:47 26.10.2020
2647 Clouds 13 1004 82 10000 0.5 10 19:23 26.10.2020
2648 Clouds 13 1003 82 10000 2.1 240 18:44 26.10.2020
2649 Clouds 13 1003 82 10000 2.1 240 18:24 26.10.2020
2650 Clouds 14 1003 82 10000 1.5 190 17:59 26.10.2020
2651 Clouds 14 1003 77 10000 1 0 17:39 26.10.2020
2652 Clouds 14 1003 82 10000 2.1 210 17:21 26.10.2020
2653 Rain 14 1003 82 10000 2.1 210 16:40 26.10.2020
2654 Clouds 15 1003 77 10000 1.5 260 16:21 26.10.2020
2655 Clouds 15 1003 77 10000 3.6 240 15:43 26.10.2020
2656 Rain 14 1004 87 10000 4.1 220 15:24 26.10.2020
2657 Rain 14 1003 87 10000 2.6 220 14:53 26.10.2020
2658 Clouds 16 1004 87 10000 3.1 250 14:32 26.10.2020
2659 Clouds 15 1004 87 10000 2.6 240 13:45 26.10.2020
2660 Rain 15 1005 87 10000 4.6 220 13:25 26.10.2020
2661 Rain 14 1005 82 10000 1.5 260 12:55 26.10.2020
2662 Clouds 15 1005 82 10000 3.6 240 12:32 26.10.2020
2663 Rain 15 1005 82 10000 6.7 230 11:57 26.10.2020
2664 Rain 15 1005 88 10000 3.1 250 11:39 26.10.2020
2665 Rain 15 1005 88 10000 3.1 250 11:21 26.10.2020
2666 Clouds 15 1005 88 10000 2.6 240 10:48 26.10.2020
2667 Clouds 16 1004 88 10000 4.1 220 10:26 26.10.2020
2668 Clouds 15 1004 88 10000 4.1 250 09:55 26.10.2020
2669 Clouds 15 1004 88 6000 6.2 250 09:29 26.10.2020
2670 Rain 16 1005 88 1300 11.8 200 08:54 26.10.2020
2671 Rain 17 1004 88 7000 12.3 190 08:24 26.10.2020
2672 Rain 17 1005 88 9000 12.3 180 07:40 26.10.2020
2673 Rain 16 1005 88 9000 12.3 180 07:21 26.10.2020
2674 Clouds 15 1006 87 10000 1.5 0 05:46 26.10.2020
2675 Clouds 14 1008 93 10000 4.1 340 04:19 26.10.2020
2676 Clouds 14 1009 87 10000 4.1 320 03:21 26.10.2020
2677 Rain 14 1011 87 10000 2.6 340 01:34 26.10.2020
2678 Clouds 14 1012 87 10000 3.1 330 00:39 26.10.2020
2679 Clouds 14 1012 87 10000 3.1 330 00:20 26.10.2020
2680 Clouds 14 1012 87 10000 3.6 330 23:37 25.10.2020
2681 Clouds 14 1012 93 10000 3.1 330 22:48 25.10.2020
2682 Clouds 14 1012 93 10000 3.6 330 22:30 25.10.2020
2683 Clouds 14 1012 93 10000 3.6 330 22:30 25.10.2020
2684 Clouds 14 1012 93 10000 3.1 330 21:57 25.10.2020
2685 Clouds 15 1012 87 10000 3.1 330 21:39 25.10.2020
2686 Clouds 15 1012 87 10000 3.1 330 21:19 25.10.2020
2687 Clouds 15 1013 87 10000 3.1 320 20:43 25.10.2020
2688 Clouds 15 1013 87 10000 3.1 320 20:24 25.10.2020
2689 Clouds 15 1013 93 10000 4.1 320 19:56 25.10.2020
2690 Clouds 15 1013 93 10000 3.6 340 19:37 25.10.2020
2691 Clouds 15 1013 93 10000 3.6 340 19:19 25.10.2020
2692 Clouds 15 1013 93 10000 2.6 330 18:41 25.10.2020
2693 Clouds 15 1013 93 10000 2.6 330 18:22 25.10.2020
2694 Clouds 15 1013 93 10000 3.6 340 17:57 25.10.2020
2695 Clouds 16 1013 82 10000 2.1 360 17:38 25.10.2020
2696 Rain 16 1013 82 10000 2.1 360 17:19 25.10.2020
2697 Clouds 16 1013 82 10000 2.1 360 16:47 25.10.2020
2698 Clouds 16 1013 82 10000 1.5 60 16:28 25.10.2020
2699 Clouds 16 1014 82 10000 1 70 15:50 25.10.2020
2700 Clouds 17 1014 77 10000 1 0 15:29 25.10.2020
2701 Clouds 17 1014 77 10000 1 160 14:55 25.10.2020
2702 Clouds 17 1014 72 10000 1 0 14:32 25.10.2020
2703 Clouds 17 1015 72 10000 1.5 180 13:59 25.10.2020
2704 Clouds 18 1015 72 10000 2.6 180 13:40 25.10.2020
2705 Clouds 18 1015 72 10000 2.6 180 13:19 25.10.2020
2706 Clouds 18 1015 72 10000 2.6 180 13:19 25.10.2020
2707 Clouds 18 1016 72 10000 2.6 180 12:46 25.10.2020
2708 Clouds 18 1016 72 10000 2.1 190 12:25 25.10.2020
2709 Clouds 18 1017 72 10000 2.6 210 11:44 25.10.2020
2710 Clouds 18 1017 63 10000 2.6 320 11:21 25.10.2020
2711 Clouds 18 1017 63 10000 2.6 320 11:21 25.10.2020
2712 Clouds 17 1017 63 10000 3.6 320 10:57 25.10.2020
2713 Clouds 16 1017 63 10000 4.6 330 10:38 25.10.2020
2714 Clouds 16 1017 63 10000 4.6 330 10:20 25.10.2020
2715 Clouds 14 1016 71 10000 5.1 330 09:40 25.10.2020
2716 Clouds 14 1016 71 10000 5.1 330 09:19 25.10.2020
2717 Clouds 13 1017 76 10000 5.7 320 08:44 25.10.2020
2718 Clouds 13 1016 76 10000 5.7 330 08:25 25.10.2020
2719 Clouds 12 1016 81 10000 4.1 340 07:48 25.10.2020
2720 Clouds 12 1016 81 10000 4.1 340 07:25 25.10.2020
2721 Clouds 12 1016 81 10000 4.1 340 06:46 25.10.2020
2722 Clouds 12 1015 76 10000 5.1 330 05:43 25.10.2020
2723 Clouds 12 1015 82 10000 5.1 330 04:52 25.10.2020
2724 Clouds 13 1016 82 10000 3.6 320 02:58 25.10.2020
2725 Clear 13 1016 87 10000 2.1 320 01:20 25.10.2020
2726 Clear 13 1016 87 10000 3.6 320 00:47 25.10.2020
2727 Clear 13 1017 87 10000 2.6 320 00:18 25.10.2020
2728 Clear 13 1017 93 10000 2.1 300 23:43 24.10.2020
2729 Clear 13 1017 93 10000 2.1 300 23:24 24.10.2020
2730 Clear 14 1016 87 10000 3.1 330 22:42 24.10.2020
2731 Clear 14 1016 87 10000 2.6 330 22:24 24.10.2020
2732 Clear 14 1016 87 10000 2.6 330 21:57 24.10.2020
2733 Clear 14 1016 82 10000 3.1 320 21:38 24.10.2020
2734 Clear 15 1016 82 10000 3.1 320 21:20 24.10.2020
2735 Clear 15 1016 82 10000 3.1 310 20:46 24.10.2020
2736 Clear 15 1016 77 10000 1 340 20:22 24.10.2020
2737 Clear 15 1016 77 10000 1 340 19:45 24.10.2020
2738 Clear 15 1016 77 10000 0.76 345 19:27 24.10.2020
2739 Clear 16 1015 72 10000 1 100 18:56 24.10.2020
2740 Clouds 16 1015 77 10000 2.6 110 18:38 24.10.2020
2741 Clouds 16 1015 77 10000 2.6 110 18:19 24.10.2020
2742 Clouds 17 1015 72 10000 3.6 100 17:37 24.10.2020
2743 Clouds 18 1015 72 10000 3.6 100 17:19 24.10.2020
2744 Clouds 18 1015 77 10000 4.1 100 16:42 24.10.2020
2745 Clouds 19 1015 77 10000 4.1 100 16:19 24.10.2020
2746 Clouds 18 1015 72 10000 3.6 130 15:39 24.10.2020
2747 Clouds 18 1015 72 10000 3.6 130 15:19 24.10.2020
2748 Clouds 18 1015 72 10000 2.1 170 14:46 24.10.2020
2749 Clouds 18 1015 72 10000 2.1 170 14:27 24.10.2020
2750 Clouds 19 1015 72 10000 2.1 210 13:45 24.10.2020
2751 Clouds 19 1015 68 10000 1.5 0 13:24 24.10.2020
2752 Clouds 18 1016 63 10000 1.5 0 12:44 24.10.2020
2753 Clouds 18 1016 63 10000 1 0 12:21 24.10.2020
2754 Clouds 17 1016 63 10000 2.6 320 11:51 24.10.2020
2755 Clouds 17 1016 67 10000 2.6 320 11:32 24.10.2020
2756 Clouds 16 1016 67 10000 3.1 330 10:52 24.10.2020
2757 Clouds 15 1016 67 10000 4.1 320 10:33 24.10.2020
2758 Clouds 15 1016 72 10000 3.6 320 09:50 24.10.2020
2759 Clouds 15 1015 76 10000 4.6 320 09:32 24.10.2020
2760 Clouds 14 1015 76 10000 4.6 320 08:59 24.10.2020
2761 Clouds 14 1015 76 10000 2.1 350 08:20 24.10.2020
2762 Clear 14 1015 76 10000 3.1 340 07:54 24.10.2020
2763 Clear 14 1015 82 10000 3.6 310 07:25 24.10.2020
2764 Clear 14 1015 82 10000 4.1 330 06:53 24.10.2020
2765 Clouds 14 1015 82 10000 2.6 20 06:23 24.10.2020
2766 Clouds 14 1017 87 10000 4.6 320 03:36 24.10.2020
2767 Clouds 15 1017 87 10000 3.6 320 02:18 24.10.2020
2768 Clouds 15 1018 87 10000 4.1 320 00:42 24.10.2020
2769 Clouds 15 1018 87 10000 4.1 320 00:22 24.10.2020
2770 Clouds 15 1018 87 10000 4.6 320 23:49 23.10.2020
2771 Clouds 16 1017 87 10000 4.1 320 23:27 23.10.2020
2772 Clouds 16 1018 87 10000 4.6 320 22:59 23.10.2020
2773 Clouds 16 1017 87 10000 4.1 320 22:40 23.10.2020
2774 Clouds 16 1017 87 10000 4.1 320 22:20 23.10.2020
2775 Clouds 16 1017 87 10000 3.1 320 21:50 23.10.2020
2776 Clouds 17 1018 82 10000 4.1 330 21:25 23.10.2020
2777 Clouds 17 1018 82 10000 3.6 310 20:43 23.10.2020
2778 Clouds 17 1018 82 10000 3.6 320 20:25 23.10.2020
2779 Clouds 17 1017 82 10000 2.6 340 19:59 23.10.2020
2780 Clouds 17 1017 82 10000 3.6 320 19:34 23.10.2020
2781 Clouds 17 1017 82 10000 2.6 330 18:58 23.10.2020
2782 Clouds 17 1017 88 10000 2.6 330 18:39 23.10.2020
2783 Clouds 17 1017 88 10000 2.6 330 18:19 23.10.2020
2784 Clouds 17 1017 82 10000 2.6 360 17:43 23.10.2020
2785 Clouds 17 1017 82 10000 2.6 360 17:21 23.10.2020
2786 Clouds 16 1018 88 10000 2.1 20 16:46 23.10.2020
2787 Clouds 16 1018 88 10000 2.1 20 16:26 23.10.2020
2788 Clouds 16 1018 88 10000 2.1 350 15:47 23.10.2020
2789 Rain 16 1018 82 10000 3.6 340 15:25 23.10.2020
2790 Rain 16 1018 88 10000 3.6 350 14:58 23.10.2020
2791 Clouds 16 1019 87 10000 2.6 330 14:39 23.10.2020
2792 Clouds 16 1019 87 10000 2.6 330 14:21 23.10.2020
2793 Clouds 15 1019 87 10000 3.6 340 13:39 23.10.2020
2794 Clouds 16 1019 87 10000 3.6 340 13:21 23.10.2020
2795 Rain 16 1019 87 10000 5.1 330 12:48 23.10.2020
2796 Rain 16 1019 87 10000 5.1 340 12:28 23.10.2020
2797 Rain 16 1020 87 10000 3.1 340 11:48 23.10.2020
2798 Rain 16 1019 82 10000 3.1 360 11:23 23.10.2020
2799 Rain 16 1019 82 10000 3.1 360 10:48 23.10.2020
2800 Rain 16 1019 77 10000 2.6 360 10:26 23.10.2020
2801 Rain 17 1019 77 10000 4.1 350 09:50 23.10.2020
2802 Rain 16 1018 77 10000 5.1 350 09:27 23.10.2020
2803 Rain 16 1018 77 10000 5.1 350 09:27 23.10.2020
2804 Rain 17 1019 68 10000 3.6 360 08:56 23.10.2020
2805 Rain 17 1018 68 10000 3.1 360 08:37 23.10.2020
2806 Rain 17 1018 68 10000 5.1 20 07:48 23.10.2020
2807 Clouds 17 1018 68 10000 3.1 360 07:26 23.10.2020
2808 Rain 16 1019 77 10000 5.1 340 06:43 23.10.2020
2809 Clouds 16 1019 77 10000 5.1 340 06:19 23.10.2020
2810 Rain 17 1020 77 10000 1.5 0 03:29 23.10.2020
2811 Rain 17 1020 77 10000 3.1 330 02:26 23.10.2020
2812 Rain 17 1021 82 10000 3.1 320 00:49 23.10.2020
2813 Clear 17 1020 77 10000 3.1 60 23:59 22.10.2020
2814 Clear 18 1020 77 10000 5.7 60 23:37 22.10.2020
2815 Clear 18 1020 77 10000 5.7 60 23:18 22.10.2020
2816 Clear 18 1020 77 10000 7.7 70 22:42 22.10.2020
2817 Rain 18 1021 77 10000 8.7 70 22:21 22.10.2020
2818 Clear 18 1021 77 10000 9.3 80 21:47 22.10.2020
2819 Clear 18 1021 77 10000 8.7 70 21:28 22.10.2020
2820 Clear 18 1021 77 10000 9.3 80 20:58 22.10.2020
2821 Clear 18 1020 82 10000 8.7 80 20:40 22.10.2020
2822 Clear 18 1020 82 10000 8.7 80 20:20 22.10.2020
2823 Clear 19 1020 82 10000 8.7 80 19:41 22.10.2020
2824 Clear 19 1020 82 10000 8.7 80 19:20 22.10.2020
2825 Clear 19 1020 82 10000 8.7 80 18:43 22.10.2020
2826 Clouds 19 1020 82 10000 8.2 80 18:21 22.10.2020
2827 Clouds 19 1020 82 10000 8.2 80 17:47 22.10.2020
2828 Clouds 20 1020 82 10000 7.7 80 17:26 22.10.2020
2829 Clouds 20 1020 82 10000 8.2 80 16:59 22.10.2020
2830 Clouds 20 1020 77 10000 6.7 80 16:41 22.10.2020
2831 Clouds 20 1020 77 10000 6.7 80 16:23 22.10.2020
2832 Clouds 20 1020 77 10000 3.1 80 15:48 22.10.2020
2833 Clouds 20 1021 73 10000 2.6 110 15:25 22.10.2020
2834 Clouds 20 1021 68 10000 2.1 100 14:50 22.10.2020
2835 Clouds 20 1021 64 10000 1.5 100 14:26 22.10.2020
2836 Clouds 20 1021 64 10000 1.5 100 14:26 22.10.2020
2837 Clouds 20 1021 60 10000 1 0 13:49 22.10.2020
2838 Clouds 20 1022 60 10000 1.5 60 13:24 22.10.2020
2839 Clouds 19 1022 60 10000 1.5 30 12:57 22.10.2020
2840 Clouds 18 1022 63 10000 0.5 0 12:27 22.10.2020
2841 Clouds 19 1022 63 10000 2.1 330 11:50 22.10.2020
2842 Clouds 19 1022 63 10000 2.6 340 11:21 22.10.2020
2843 Clouds 18 1022 68 10000 3.1 330 10:52 22.10.2020
2844 Clouds 18 1022 68 10000 3.1 330 10:30 22.10.2020
2845 Rain 17 1022 67 10000 3.6 330 09:59 22.10.2020
2846 Clouds 17 1022 67 10000 3.1 340 09:41 22.10.2020
2847 Clouds 16 1021 72 10000 3.6 330 08:58 22.10.2020
2848 Clouds 16 1021 72 10000 4.1 330 08:39 22.10.2020
2849 Clouds 16 1021 72 10000 4.1 330 08:19 22.10.2020
2850 Clouds 16 1021 72 10000 2.6 330 07:43 22.10.2020
2851 Clouds 16 1021 72 10000 2.6 340 06:59 22.10.2020
2852 Clouds 16 1021 72 10000 2.6 340 06:37 22.10.2020
2853 Clouds 16 1021 77 10000 2.6 320 05:42 22.10.2020
2854 Clouds 16 1021 77 10000 2.6 320 05:22 22.10.2020
2855 Clouds 16 1022 77 10000 3.1 340 02:40 22.10.2020
2856 Clouds 16 1022 68 10000 8.7 70 00:50 22.10.2020
2857 Clouds 17 1022 68 10000 10.3 70 00:18 22.10.2020
2858 Clouds 17 1022 72 10000 8.7 70 23:38 21.10.2020
2859 Clouds 16 1022 72 10000 9.8 70 22:58 21.10.2020
2860 Clouds 17 1022 72 10000 8.2 50 22:37 21.10.2020
2861 Clouds 17 1022 72 10000 8.2 50 22:19 21.10.2020
2862 Clouds 17 1022 72 10000 10.3 60 21:45 21.10.2020
2863 Clouds 18 1021 72 10000 11.3 70 21:19 21.10.2020
2864 Clouds 17 1021 77 10000 10.8 70 20:55 21.10.2020
2865 Clouds 17 1021 77 10000 10.8 70 20:36 21.10.2020
2866 Clouds 18 1021 77 10000 10.8 70 20:18 21.10.2020
2867 Clouds 18 1021 77 10000 11.3 70 19:40 21.10.2020
2868 Clouds 18 1021 77 10000 11.3 70 19:22 21.10.2020
2869 Clouds 18 1021 77 10000 11.3 70 18:48 21.10.2020
2870 Clouds 18 1020 77 10000 12.3 80 18:26 21.10.2020
2871 Clouds 18 1020 77 10000 12.3 80 17:48 21.10.2020
2872 Clouds 18 1020 77 10000 12.3 80 17:21 21.10.2020
2873 Clouds 18 1020 82 10000 12.9 80 16:58 21.10.2020
2874 Clouds 18 1020 77 10000 12.9 80 16:37 21.10.2020
2875 Clouds 18 1020 77 10000 12.9 80 16:18 21.10.2020
2876 Clouds 18 1021 77 10000 11.8 90 15:44 21.10.2020
2877 Clouds 18 1021 77 10000 11.3 90 15:21 21.10.2020
2878 Clouds 18 1021 72 10000 11.8 80 14:49 21.10.2020
2879 Clouds 18 1021 72 10000 11.3 80 14:28 21.10.2020
2880 Clouds 18 1021 77 10000 10.8 80 13:56 21.10.2020
2881 Clouds 18 1022 77 10000 10.8 80 13:38 21.10.2020
2882 Clouds 18 1022 77 10000 10.8 80 13:19 21.10.2020
2883 Clouds 18 1022 72 10000 10.8 80 12:38 21.10.2020
2884 Clouds 18 1022 72 10000 10.8 80 12:19 21.10.2020
2885 Clouds 18 1022 72 10000 6.7 80 11:41 21.10.2020
2886 Clouds 18 1022 72 10000 6.7 80 11:20 21.10.2020
2887 Clouds 18 1022 72 10000 6.7 80 11:20 21.10.2020
2888 Clouds 16 1022 55 10000 4.1 330 10:47 21.10.2020
2889 Clouds 16 1022 62 10000 3.6 330 10:26 21.10.2020
2890 Clouds 15 1022 62 10000 4.1 340 09:57 21.10.2020
2891 Clouds 14 1022 66 10000 4.1 330 09:35 21.10.2020
2892 Clouds 13 1021 71 10000 4.1 330 08:57 21.10.2020
2893 Clouds 13 1021 71 10000 5.1 330 08:39 21.10.2020
2894 Clouds 13 1021 71 10000 5.1 330 08:21 21.10.2020
2895 Clouds 13 1021 76 10000 4.1 330 07:41 21.10.2020
2896 Clouds 13 1021 76 10000 4.1 330 06:58 21.10.2020
2897 Clouds 13 1021 76 10000 3.6 340 06:32 21.10.2020
2898 Clouds 13 1021 76 10000 4.1 330 04:48 21.10.2020
2899 Clouds 13 1022 76 10000 4.6 330 02:27 21.10.2020
2900 Clouds 13 1023 82 10000 4.6 330 00:24 21.10.2020
2901 Clouds 13 1023 82 10000 3.1 340 23:25 20.10.2020
2902 Clouds 13 1023 82 10000 3.6 330 22:38 20.10.2020
2903 Clouds 13 1023 82 10000 3.6 330 22:20 20.10.2020
2904 Clouds 13 1023 82 10000 3.1 330 21:47 20.10.2020
2905 Clouds 14 1023 82 10000 3.1 330 21:19 20.10.2020
2906 Clouds 14 1023 77 10000 2.1 340 20:43 20.10.2020
2907 Clouds 14 1023 72 10000 2.6 30 20:23 20.10.2020
2908 Clouds 15 1023 72 10000 4.1 70 19:45 20.10.2020
2909 Clouds 15 1023 72 10000 3.6 80 19:22 20.10.2020
2910 Clouds 16 1023 67 10000 3.1 90 18:59 20.10.2020
2911 Clouds 16 1023 68 10000 2.6 80 18:38 20.10.2020
2912 Clouds 17 1023 68 10000 2.1 90 17:57 20.10.2020
2913 Clouds 16 1024 68 10000 2.1 130 17:37 20.10.2020
2914 Clouds 17 1024 68 10000 2.1 130 17:18 20.10.2020
2915 Clouds 17 1024 63 10000 1.5 0 16:41 20.10.2020
2916 Clouds 17 1024 63 10000 1.5 0 16:23 20.10.2020
2917 Clouds 18 1024 59 10000 2.1 120 15:47 20.10.2020
2918 Clouds 17 1024 68 10000 3.1 110 15:28 20.10.2020
2919 Clouds 17 1024 68 10000 2.6 110 14:46 20.10.2020
2920 Clouds 17 1024 68 10000 2.6 110 14:25 20.10.2020
2921 Clouds 17 1025 68 10000 2.1 100 13:59 20.10.2020
2922 Clouds 17 1025 68 10000 2.1 100 13:40 20.10.2020
2923 Clouds 17 1024 68 10000 2.1 110 13:20 20.10.2020
2924 Clouds 17 1025 63 10000 1.5 0 12:50 20.10.2020
2925 Clouds 17 1025 55 10000 2.6 330 12:30 20.10.2020
2926 Clouds 17 1024 55 10000 3.6 330 11:47 20.10.2020
2927 Clouds 16 1024 59 10000 5.1 330 11:28 20.10.2020
2928 Clouds 15 1024 62 10000 5.1 330 10:49 20.10.2020
2929 Clouds 14 1024 66 10000 5.7 330 10:26 20.10.2020
2930 Clouds 13 1024 66 10000 5.7 330 09:46 20.10.2020
2931 Clouds 12 1024 71 10000 3.6 330 09:20 20.10.2020
2932 Clouds 12 1024 71 10000 4.6 340 08:50 20.10.2020
2933 Clouds 12 1024 71 10000 3.6 340 08:26 20.10.2020
2934 Clouds 12 1024 71 10000 3.6 340 07:48 20.10.2020
2935 Clouds 12 1024 71 10000 5.1 330 07:24 20.10.2020
2936 Clouds 12 1024 71 10000 3.6 340 06:24 20.10.2020
2937 Clouds 12 1024 76 10000 4.1 340 04:55 20.10.2020
2938 Clouds 13 1024 76 10000 4.1 330 02:31 20.10.2020
2939 Clouds 13 1024 76 10000 4.1 330 01:43 20.10.2020
2940 Clouds 13 1024 76 10000 4.1 330 00:56 20.10.2020
2941 Clouds 13 1024 76 10000 3.6 330 00:37 20.10.2020
2942 Clouds 13 1024 76 10000 3.6 330 00:18 20.10.2020
2943 Clouds 13 1024 76 10000 3.6 330 23:39 19.10.2020
2944 Clouds 13 1024 76 10000 3.6 330 23:18 19.10.2020
2945 Clouds 13 1024 76 10000 3.1 330 22:42 19.10.2020
2946 Clouds 13 1024 76 10000 3.1 320 22:20 19.10.2020
2947 Clouds 14 1024 77 10000 2.6 320 21:41 19.10.2020
2948 Clouds 14 1024 77 10000 2.6 320 21:19 19.10.2020
2949 Clouds 14 1024 72 10000 1.5 0 20:45 19.10.2020
2950 Clouds 14 1024 72 10000 1.5 0 20:26 19.10.2020
2951 Clouds 15 1023 63 10000 1.5 90 19:47 19.10.2020
2952 Clouds 15 1023 67 10000 1.5 120 19:22 19.10.2020
2953 Clouds 15 1023 67 10000 1.5 120 19:22 19.10.2020
2954 Clouds 15 1023 67 10000 1.5 120 18:51 19.10.2020
2955 Clouds 16 1023 67 10000 1.5 110 18:32 19.10.2020
2956 Clouds 16 1023 67 10000 1.5 0 17:57 19.10.2020
2957 Clouds 16 1023 59 10000 1.5 140 17:39 19.10.2020
2958 Clouds 16 1023 59 10000 1.5 140 17:20 19.10.2020
2959 Clouds 17 1023 63 10000 1.5 150 16:42 19.10.2020
2960 Clouds 17 1023 59 10000 2.1 150 16:21 19.10.2020
2961 Clear 17 1022 65 10000 2.33 132 15:40 19.10.2020
2962 Clear 17 1022 64 10000 2.38 134 15:22 19.10.2020
2963 Clear 17 1023 66 10000 2.38 134 14:51 19.10.2020
2964 Clouds 18 1023 68 10000 2.62 135 14:24 19.10.2020
2965 Clouds 17 1023 67 10000 2.62 135 13:52 19.10.2020
2966 Clouds 17 1023 67 10000 2.54 128 13:31 19.10.2020
2967 Clouds 17 1023 68 10000 2.3 128 12:50 19.10.2020
2968 Clouds 17 1023 67 10000 2.3 128 12:32 19.10.2020
2969 Clouds 17 1023 65 10000 1.9 115 11:51 19.10.2020
2970 Clouds 16 1024 62 10000 3.6 340 11:25 19.10.2020
2971 Clouds 16 1024 62 10000 3.6 340 10:56 19.10.2020
2972 Clouds 15 1024 62 10000 3.6 340 10:37 19.10.2020
2973 Clouds 15 1024 62 10000 3.6 340 10:19 19.10.2020
2974 Clouds 13 1023 71 10000 3.6 340 09:42 19.10.2020
2975 Clouds 13 1023 71 10000 3.6 340 09:19 19.10.2020
2976 Clouds 12 1023 71 10000 3.6 340 08:48 19.10.2020
2977 Clouds 11 1023 76 10000 4.1 340 08:23 19.10.2020
2978 Clouds 12 1023 71 10000 4.1 330 07:39 19.10.2020
2979 Clouds 12 1023 71 10000 4.1 330 07:18 19.10.2020
2980 Clouds 11 1022 71 10000 4.6 330 06:18 19.10.2020
2981 Clear 12 1022 76 10000 4.1 340 03:48 19.10.2020
2982 Clear 12 1022 76 10000 3.6 330 02:23 19.10.2020
2983 Clear 13 1022 76 10000 3.1 330 00:50 19.10.2020
2984 Clouds 13 1022 76 10000 2.6 350 00:24 19.10.2020
2985 Clouds 13 1022 76 10000 4.1 320 23:47 18.10.2020
2986 Clouds 13 1022 76 10000 4.1 320 23:24 18.10.2020
2987 Clouds 13 1022 76 10000 4.1 320 22:51 18.10.2020
2988 Clouds 13 1021 82 10000 3.1 330 22:22 18.10.2020
2989 Clouds 13 1021 76 10000 3.1 320 21:55 18.10.2020
2990 Clouds 13 1021 76 10000 3.6 320 21:36 18.10.2020
2991 Clouds 13 1021 72 10000 2.6 320 21:18 18.10.2020
2992 Clouds 14 1021 77 10000 2.1 320 20:40 18.10.2020
2993 Clouds 14 1021 77 10000 2.1 320 20:19 18.10.2020
2994 Clouds 15 1020 67 10000 1.5 100 19:43 18.10.2020
2995 Clouds 15 1020 67 10000 1.5 100 19:25 18.10.2020
2996 Clouds 15 1020 67 10000 2.6 80 18:48 18.10.2020
2997 Clouds 16 1020 72 10000 2.6 90 18:27 18.10.2020
2998 Clouds 16 1020 68 10000 3.1 120 17:44 18.10.2020
2999 Clouds 16 1020 68 10000 3.1 120 17:25 18.10.2020
3000 Clouds 17 1020 68 10000 3.1 110 16:55 18.10.2020
3001 Clouds 17 1020 63 10000 3.6 110 16:37 18.10.2020
3002 Clouds 17 1020 63 10000 3.6 110 16:18 18.10.2020
3003 Clouds 17 1019 63 10000 3.6 120 15:41 18.10.2020
3004 Clouds 17 1019 63 10000 3.6 120 15:19 18.10.2020
3005 Clouds 17 1020 63 10000 3.6 110 14:54 18.10.2020
3006 Clouds 17 1020 63 10000 3.1 130 14:29 18.10.2020
3007 Clouds 18 1020 68 10000 2.6 120 13:56 18.10.2020
3008 Clouds 17 1020 68 10000 3.1 110 13:38 18.10.2020
3009 Clouds 17 1020 68 10000 3.1 110 13:19 18.10.2020
3010 Clouds 17 1020 68 10000 3.1 110 12:42 18.10.2020
3011 Clouds 18 1020 63 10000 1 0 12:21 18.10.2020
3012 Clouds 17 1020 59 10000 1 0 11:42 18.10.2020
3013 Clouds 17 1020 63 10000 3.6 330 11:23 18.10.2020
3014 Clouds 15 1019 67 10000 3.6 340 10:43 18.10.2020
3015 Clouds 15 1019 67 10000 3.6 340 10:21 18.10.2020
3016 Clouds 14 1019 71 10000 3.6 340 09:56 18.10.2020
3017 Clouds 14 1019 71 10000 3.6 340 09:38 18.10.2020
3018 Clouds 13 1019 71 10000 3.6 340 09:19 18.10.2020
3019 Clouds 12 1018 76 10000 3.1 340 08:43 18.10.2020
3020 Clouds 12 1018 76 10000 3.1 340 08:22 18.10.2020
3021 Clouds 12 1018 76 10000 2.6 340 07:36 18.10.2020
3022 Clouds 12 1017 81 10000 4.1 330 05:33 18.10.2020
3023 Clouds 12 1018 81 10000 4.6 330 03:33 18.10.2020
3024 Clouds 12 1017 81 10000 3.6 330 02:19 18.10.2020
3025 Clouds 12 1017 87 10000 3.6 330 01:23 18.10.2020
3026 Clouds 13 1017 82 10000 3.1 330 00:35 18.10.2020
3027 Clouds 13 1017 82 10000 3.6 330 23:57 17.10.2020
3028 Clouds 13 1017 82 10000 3.1 330 23:39 17.10.2020
3029 Clouds 13 1017 82 10000 3.1 330 23:20 17.10.2020
3030 Clouds 12 1017 82 10000 3.1 330 22:54 17.10.2020
3031 Clouds 12 1016 82 10000 2.1 330 22:21 17.10.2020
3032 Clouds 13 1016 76 10000 2.6 330 21:59 17.10.2020
3033 Clouds 13 1016 76 10000 2.6 330 21:40 17.10.2020
3034 Clouds 13 1016 76 10000 2.6 320 21:20 17.10.2020
3035 Clouds 13 1016 72 10000 2.1 320 20:43 17.10.2020
3036 Clouds 13 1016 72 10000 1.5 0 20:19 17.10.2020
3037 Clouds 14 1016 67 10000 1.5 240 19:43 17.10.2020
3038 Clouds 14 1015 67 10000 2.14 201 19:21 17.10.2020
3039 Clouds 15 1015 67 10000 2.6 200 18:45 17.10.2020
3040 Clouds 15 1015 67 10000 2.1 200 18:26 17.10.2020
3041 Clouds 17 1015 63 10000 2.6 200 17:50 17.10.2020
3042 Clouds 17 1015 63 10000 2.6 180 17:24 17.10.2020
3043 Clouds 17 1015 68 10000 3.1 170 16:51 17.10.2020
3044 Clouds 17 1015 68 10000 3.6 180 16:25 17.10.2020
3045 Clouds 17 1015 68 10000 4.6 170 15:59 17.10.2020
3046 Clouds 17 1014 68 10000 4.6 170 15:41 17.10.2020
3047 Clouds 17 1014 68 10000 4.6 170 15:21 17.10.2020
3048 Clouds 17 1014 63 10000 3.6 170 14:56 17.10.2020
3049 Clouds 17 1014 63 10000 3.6 170 14:37 17.10.2020
3050 Clouds 18 1014 63 10000 3.6 170 14:19 17.10.2020
3051 Clouds 18 1015 59 10000 3.1 170 13:42 17.10.2020
3052 Clouds 18 1015 55 10000 2.6 190 13:22 17.10.2020
3053 Clouds 18 1015 52 10000 2.6 200 12:56 17.10.2020
3054 Clouds 18 1015 48 10000 1.5 0 12:36 17.10.2020
3055 Clouds 18 1015 48 10000 1.5 0 12:18 17.10.2020
3056 Clouds 16 1014 51 10000 3.1 330 11:31 17.10.2020
3057 Clouds 16 1014 51 10000 3.1 330 11:31 17.10.2020
3058 Clouds 16 1014 51 10000 3.1 330 11:31 17.10.2020
3059 Clouds 16 1014 51 10000 3.1 330 11:31 17.10.2020
3060 Clouds 16 1014 51 10000 3.1 330 11:31 17.10.2020
3061 Clouds 16 1014 51 10000 3.1 330 11:31 17.10.2020
3062 Clouds 16 1014 51 10000 3.1 330 11:31 17.10.2020
3063 Clouds 15 1014 58 10000 4.6 330 10:50 17.10.2020
3064 Clouds 14 1014 62 10000 4.6 330 10:30 17.10.2020
3065 Clouds 14 1014 62 10000 4.6 330 10:30 17.10.2020
3066 Clouds 13 1014 66 10000 5.1 330 09:50 17.10.2020
3067 Clouds 13 1014 66 10000 5.1 330 09:32 17.10.2020
3068 Clouds 11 1013 71 10000 5.7 330 08:54 17.10.2020
3069 Clouds 11 1013 71 10000 3.6 340 08:24 17.10.2020
3070 Clear 11 1013 71 10000 3.1 340 07:44 17.10.2020
3071 Clear 10 1013 93 10000 2.1 360 06:58 17.10.2020
3072 Clear 12 1013 71 10000 5.1 330 05:32 17.10.2020
3073 Clear 12 1014 81 10000 4.1 330 02:30 17.10.2020
3074 Clouds 12 1014 81 10000 3.6 330 01:56 17.10.2020
3075 Clouds 12 1014 81 10000 3.1 330 00:47 17.10.2020
3076 Clouds 12 1014 76 10000 3.6 320 23:57 16.10.2020
3077 Clouds 12 1014 76 10000 4.1 330 23:23 16.10.2020
3078 Clouds 13 1014 71 10000 3.1 330 22:44 16.10.2020
3079 Clouds 13 1014 71 10000 1.5 330 22:24 16.10.2020
3080 Clouds 13 1014 76 10000 2.1 280 21:56 16.10.2020
3081 Clouds 13 1014 72 10000 3.1 280 21:36 16.10.2020
3082 Clouds 14 1014 72 10000 3.1 280 21:18 16.10.2020
3083 Clouds 14 1014 72 10000 3.6 290 20:40 16.10.2020
3084 Clouds 14 1013 72 10000 4.6 280 20:22 16.10.2020
3085 Clouds 15 1013 67 10000 4.6 270 19:44 16.10.2020
3086 Clouds 15 1013 59 10000 4.6 230 19:25 16.10.2020
3087 Clouds 15 1012 63 10000 5.1 240 18:52 16.10.2020
3088 Clouds 15 1012 63 10000 4.6 220 18:32 16.10.2020
3089 Clouds 16 1012 63 10000 5.1 220 17:47 16.10.2020
3090 Clouds 16 1012 63 10000 5.1 210 17:29 16.10.2020
3091 Clouds 16 1012 59 10000 4.6 200 16:50 16.10.2020
3092 Clouds 16 1012 59 10000 5.7 200 16:31 16.10.2020
3093 Clouds 17 1012 59 10000 5.1 200 15:49 16.10.2020
3094 Clouds 17 1012 59 10000 5.1 200 15:24 16.10.2020
3095 Clouds 17 1012 59 10000 5.7 190 14:43 16.10.2020
3096 Clouds 17 1012 59 10000 4.6 190 14:20 16.10.2020
3097 Clouds 17 1012 59 10000 4.6 200 13:57 16.10.2020
3098 Clouds 17 1012 59 10000 3.6 200 13:38 16.10.2020
3099 Clouds 17 1012 59 10000 3.6 200 13:20 16.10.2020
3100 Clouds 17 1012 59 10000 2.6 230 12:47 16.10.2020
3101 Clouds 17 1012 59 10000 2.6 250 12:23 16.10.2020
3102 Clouds 17 1011 59 10000 1.5 0 11:49 16.10.2020
3103 Clouds 16 1011 67 10000 2.1 330 11:29 16.10.2020
3104 Clouds 15 1011 67 10000 3.6 330 10:58 16.10.2020
3105 Clouds 15 1011 67 10000 4.1 330 10:38 16.10.2020
3106 Clouds 14 1011 67 10000 4.1 330 10:20 16.10.2020
3107 Clouds 14 1010 71 10000 3.6 340 09:38 16.10.2020
3108 Clouds 13 1010 71 10000 3.6 340 09:20 16.10.2020
3109 Clouds 12 1009 76 10000 3.6 340 08:39 16.10.2020
3110 Clouds 12 1009 76 10000 3.6 340 08:21 16.10.2020
3111 Clouds 12 1009 76 10000 3.1 340 07:43 16.10.2020
3112 Clouds 12 1009 76 10000 3.1 320 06:56 16.10.2020
3113 Clouds 12 1009 76 10000 3.1 330 05:24 16.10.2020
3114 Clouds 12 1009 81 10000 2.6 340 03:51 16.10.2020
3115 Clouds 12 1008 82 10000 3.1 330 01:39 16.10.2020
3116 Clouds 12 1008 82 10000 3.6 330 00:33 16.10.2020
3117 Clouds 12 1008 82 10000 3.1 330 23:56 15.10.2020
3118 Clouds 12 1008 82 10000 1 0 23:37 15.10.2020
3119 Clouds 12 1008 82 10000 1 0 23:18 15.10.2020
3120 Clouds 13 1007 76 10000 3.1 10 22:43 15.10.2020
3121 Clouds 13 1007 76 10000 3.1 10 22:21 15.10.2020
3122 Clouds 14 1007 67 10000 7.2 90 21:42 15.10.2020
3123 Clouds 14 1007 67 10000 7.2 90 21:42 15.10.2020
3124 Clouds 14 1007 67 10000 7.2 90 21:20 15.10.2020
3125 Clouds 14 1006 67 10000 8.2 90 20:49 15.10.2020
3126 Clouds 14 1006 67 10000 8.7 110 20:23 15.10.2020
3127 Clouds 14 1006 72 10000 8.7 100 19:55 15.10.2020
3128 Clouds 15 1005 72 10000 9.3 100 19:37 15.10.2020
3129 Clouds 15 1005 72 10000 9.3 100 19:19 15.10.2020
3130 Clouds 15 1005 77 10000 9.3 100 18:42 15.10.2020
3131 Clouds 15 1005 77 10000 9.3 100 18:20 15.10.2020
3132 Clouds 15 1005 72 10000 9.3 100 17:45 15.10.2020
3133 Clouds 15 1005 63 10000 5.1 90 17:23 15.10.2020
3134 Clouds 16 1005 59 10000 5.1 110 16:47 15.10.2020
3135 Clouds 16 1005 63 10000 5.7 100 16:26 15.10.2020
3136 Clouds 15 1004 63 10000 6.2 100 15:57 15.10.2020
3137 Clouds 15 1004 63 10000 7.2 100 15:39 15.10.2020
3138 Clouds 15 1004 63 10000 7.2 100 15:20 15.10.2020
3139 Clouds 15 1004 63 10000 8.7 100 14:45 15.10.2020
3140 Clouds 15 1004 67 10000 7.2 90 14:23 15.10.2020
3141 Clouds 16 1004 67 10000 4.6 120 13:44 15.10.2020
3142 Clouds 16 1004 63 10000 6.2 100 13:24 15.10.2020
3143 Clouds 16 1004 63 10000 3.6 100 12:52 15.10.2020
3144 Clouds 16 1004 63 10000 3.1 100 12:29 15.10.2020
3145 Clouds 16 1004 59 10000 2.6 90 11:56 15.10.2020
3146 Clouds 16 1004 55 10000 1.5 0 11:38 15.10.2020
3147 Clouds 16 1004 55 10000 1.5 0 11:18 15.10.2020
3148 Clouds 15 1004 58 10000 2.6 350 10:42 15.10.2020
3149 Clouds 15 1004 62 10000 4.1 350 10:23 15.10.2020
3150 Clouds 14 1004 67 10000 3.6 330 09:40 15.10.2020
3151 Clouds 12 1004 76 10000 3.1 320 09:19 15.10.2020
3152 Clouds 11 1004 76 10000 3.1 320 08:48 15.10.2020
3153 Clouds 11 1004 76 10000 3.1 330 08:25 15.10.2020
3154 Clouds 11 1004 76 10000 5.1 320 06:59 15.10.2020
3155 Clouds 10 1004 81 10000 3.1 350 05:53 15.10.2020
3156 Clouds 10 1005 76 10000 4.6 320 03:56 15.10.2020
3157 Clouds 11 1006 76 10000 2.6 330 01:43 15.10.2020
3158 Clouds 11 1006 81 10000 3.6 330 00:51 15.10.2020
3159 Rain 11 1006 76 10000 3.1 350 00:19 15.10.2020
3160 Rain 11 1006 76 10000 3.1 350 00:19 15.10.2020
3161 Rain 11 1007 71 10000 4.1 350 23:42 14.10.2020
3162 Rain 11 1007 71 10000 4.1 350 23:21 14.10.2020
3163 Rain 11 1007 81 10000 3.1 340 22:58 14.10.2020
3164 Rain 11 1007 81 10000 3.1 350 22:39 14.10.2020
3165 Rain 11 1007 81 10000 3.1 350 22:19 14.10.2020
3166 Clouds 11 1007 76 10000 7.7 360 21:41 14.10.2020
3167 Rain 12 1007 76 10000 7.7 360 21:21 14.10.2020
3168 Rain 12 1007 81 10000 6.7 340 20:41 14.10.2020
3169 Rain 12 1007 87 10000 6.7 330 20:19 14.10.2020
3170 Rain 12 1007 87 10000 5.7 330 19:48 14.10.2020
3171 Rain 12 1007 87 10000 7.2 340 19:25 14.10.2020
3172 Rain 12 1007 87 10000 7.2 340 19:25 14.10.2020
3173 Rain 15 1007 82 10000 5.7 350 18:44 14.10.2020
3174 Rain 16 1006 71 8000 4.6 60 18:24 14.10.2020
3175 Rain 16 1006 68 10000 7.2 130 17:58 14.10.2020
3176 Rain 16 1006 68 10000 7.2 130 17:39 14.10.2020
3177 Rain 16 1006 68 10000 7.2 130 17:19 14.10.2020
3178 Clouds 16 1006 68 10000 7.2 110 16:41 14.10.2020
3179 Rain 16 1006 59 10000 5.7 110 16:22 14.10.2020
3180 Clouds 17 1006 55 10000 5.1 100 15:45 14.10.2020
3181 Clouds 17 1006 59 10000 5.1 110 15:26 14.10.2020
3182 Clouds 17 1007 55 10000 4.6 110 14:45 14.10.2020
3183 Clouds 17 1007 59 10000 3.1 110 14:21 14.10.2020
3184 Rain 17 1007 63 10000 3.6 100 13:50 14.10.2020
3185 Clouds 16 1008 67 10000 3.6 90 13:26 14.10.2020
3186 Clouds 16 1008 59 10000 1.5 0 12:55 14.10.2020
3187 Clouds 16 1008 55 10000 2.1 330 12:37 14.10.2020
3188 Clouds 16 1008 55 10000 2.1 330 12:18 14.10.2020
3189 Clouds 15 1008 55 10000 3.1 330 11:44 14.10.2020
3190 Clouds 15 1008 58 10000 4.1 330 11:26 14.10.2020
3191 Clouds 15 1007 58 10000 4.6 330 10:53 14.10.2020
3192 Clouds 15 1008 62 10000 4.1 330 10:28 14.10.2020
3193 Clouds 14 1007 62 10000 5.1 330 09:53 14.10.2020
3194 Clouds 14 1007 62 10000 4.1 340 09:34 14.10.2020
3195 Clouds 12 1007 66 10000 4.1 340 08:42 14.10.2020
3196 Clouds 12 1007 66 10000 4.1 340 08:24 14.10.2020
3197 Clouds 12 1007 71 10000 3.6 340 07:23 14.10.2020
3198 Clouds 12 1007 71 10000 5.1 330 06:59 14.10.2020
3199 Clouds 12 1007 71 10000 6.2 330 06:41 14.10.2020
3200 Clouds 12 1007 71 10000 6.2 330 06:23 14.10.2020
3201 Clouds 13 1007 67 10000 3.6 340 02:34 14.10.2020
3202 Clouds 14 1006 67 10000 3.6 330 01:58 14.10.2020
3203 Clear 14 1007 71 10000 3.1 340 00:57 14.10.2020
3204 Clouds 14 1007 71 10000 2.6 340 00:26 14.10.2020
3205 Clouds 14 1007 71 10000 3.1 350 23:42 13.10.2020
3206 Clear 14 1007 71 10000 3.6 330 23:23 13.10.2020
3207 Clear 14 1007 71 10000 3.1 330 22:42 13.10.2020
3208 Clear 14 1007 71 10000 3.1 330 22:42 13.10.2020
3209 Clear 14 1007 71 10000 2.6 330 22:23 13.10.2020
3210 Clear 14 1007 67 10000 3.1 320 21:47 13.10.2020
3211 Clear 14 1007 72 10000 3.6 330 21:22 13.10.2020
3212 Clear 15 1007 67 10000 3.1 330 20:58 13.10.2020
3213 Clouds 15 1007 67 10000 2.1 350 20:39 13.10.2020
3214 Clouds 15 1007 67 10000 2.1 350 20:20 13.10.2020
3215 Clouds 15 1007 55 10000 3.6 230 19:44 13.10.2020
3216 Clouds 16 1007 59 10000 4.1 210 19:25 13.10.2020
3217 Clouds 17 1007 59 10000 4.1 220 18:59 13.10.2020
3218 Clouds 17 1007 59 10000 4.6 210 18:41 13.10.2020
3219 Clouds 17 1007 59 10000 4.6 210 18:23 13.10.2020
3220 Clouds 18 1007 48 10000 3.6 190 17:58 13.10.2020
3221 Clouds 18 1007 48 10000 3.1 190 17:37 13.10.2020
3222 Clouds 18 1007 52 10000 3.6 190 16:48 13.10.2020
3223 Clouds 18 1007 55 10000 3.6 190 16:21 13.10.2020
3224 Clouds 18 1007 55 10000 3.6 170 15:51 13.10.2020
3225 Clouds 18 1008 55 10000 3.1 160 15:23 13.10.2020
3226 Clouds 18 1008 52 10000 2.6 140 14:56 13.10.2020
3227 Clouds 18 1008 52 10000 2.6 140 14:37 13.10.2020
3228 Clouds 18 1008 52 10000 2.6 140 14:18 13.10.2020
3229 Clouds 18 1008 52 10000 3.1 120 13:45 13.10.2020
3230 Clouds 18 1009 48 10000 1.5 0 13:20 13.10.2020
3231 Clouds 18 1009 42 10000 3.1 320 12:40 13.10.2020
3232 Clouds 18 1009 42 10000 3.1 320 12:20 13.10.2020
3233 Clouds 17 1009 45 10000 4.6 330 11:43 13.10.2020
3234 Clouds 16 1009 47 10000 4.6 330 11:22 13.10.2020
3235 Clouds 15 1010 50 10000 5.1 330 10:59 13.10.2020
3236 Clouds 15 1010 50 10000 5.1 330 10:41 13.10.2020
3237 Clouds 14 1010 54 10000 5.7 340 10:20 13.10.2020
3238 Clouds 12 1010 58 10000 4.6 340 09:44 13.10.2020
3239 Clouds 12 1009 58 10000 5.1 340 09:26 13.10.2020
3240 Clouds 12 1009 62 10000 4.1 350 08:56 13.10.2020
3241 Clouds 12 1009 57 10000 4.6 340 08:37 13.10.2020
3242 Clouds 11 1009 57 10000 4.6 340 08:18 13.10.2020
3243 Clouds 11 1009 62 10000 4.1 340 07:35 13.10.2020
3244 Clouds 11 1009 62 10000 4.6 330 06:55 13.10.2020
3245 Clouds 11 1009 62 10000 5.7 340 06:31 13.10.2020
3246 Clouds 12 1010 58 10000 4.1 340 04:29 13.10.2020
3247 Clouds 12 1010 62 10000 3.6 340 03:30 13.10.2020
3248 Clear 13 1011 58 10000 3.6 340 01:25 13.10.2020
3249 Clear 13 1012 62 10000 5.1 330 00:43 13.10.2020
3250 Clear 13 1012 62 10000 4.6 330 23:57 12.10.2020
3251 Clear 13 1012 62 10000 3.6 330 23:33 12.10.2020
3252 Clear 13 1012 62 10000 4.6 330 22:55 12.10.2020
3253 Clear 13 1012 62 10000 4.1 330 22:36 12.10.2020
3254 Clear 13 1012 62 10000 4.1 330 22:18 12.10.2020
3255 Clear 13 1012 66 10000 3.1 330 21:43 12.10.2020
3256 Clear 14 1012 62 10000 3.6 340 21:21 12.10.2020
3257 Clear 15 1012 48 10000 3.6 160 20:45 12.10.2020
3258 Clear 15 1012 48 10000 3.6 160 20:24 12.10.2020
3259 Clear 15 1011 55 10000 3.6 180 19:54 12.10.2020
3260 Clear 15 1011 45 10000 3.1 190 19:35 12.10.2020
3261 Clear 16 1011 45 10000 2.6 200 18:59 12.10.2020
3262 Clear 17 1011 45 10000 3.6 210 18:41 12.10.2020
3263 Clear 18 1011 45 10000 3.6 210 18:21 12.10.2020
3264 Clear 18 1010 45 10000 5.1 200 17:43 12.10.2020
3265 Clear 18 1010 45 10000 5.1 200 17:20 12.10.2020
3266 Clear 19 1010 40 10000 5.1 180 16:42 12.10.2020
3267 Clear 19 1010 40 10000 5.1 180 16:22 12.10.2020
3268 Clouds 18 1010 37 10000 5.1 190 15:48 12.10.2020
3269 Clouds 18 1010 37 10000 4.6 190 15:28 12.10.2020
3270 Clouds 19 1010 39 10000 4.6 180 14:57 12.10.2020
3271 Clouds 19 1011 34 10000 4.1 190 14:38 12.10.2020
3272 Clouds 19 1011 34 10000 4.1 190 14:18 12.10.2020
3273 Clouds 18 1011 55 10000 2.6 210 13:23 12.10.2020
3274 Clear 18 1011 48 10000 2.6 230 12:57 12.10.2020
3275 Clouds 18 1011 42 10000 4.1 320 12:38 12.10.2020
3276 Clouds 18 1011 42 10000 4.1 320 12:18 12.10.2020
3277 Clouds 16 1011 51 10000 5.1 320 11:38 12.10.2020
3278 Clouds 16 1011 51 10000 5.1 320 11:18 12.10.2020
3279 Clouds 15 1011 54 10000 5.1 330 10:44 12.10.2020
3280 Clouds 14 1011 58 10000 5.7 330 10:20 12.10.2020
3281 Clouds 13 1011 62 10000 4.6 340 09:45 12.10.2020
3282 Clouds 12 1011 62 10000 4.6 330 09:23 12.10.2020
3283 Clouds 12 1011 71 10000 6.2 330 08:35 12.10.2020
3284 Clouds 11 1010 71 10000 6.7 330 07:50 12.10.2020
3285 Clouds 11 1010 71 10000 5.7 320 07:31 12.10.2020
3286 Clouds 11 1010 71 10000 4.6 330 06:24 12.10.2020
3287 Clouds 13 1010 71 10000 5.7 330 03:22 12.10.2020
3288 Rain 14 1010 71 10000 4.6 340 00:36 12.10.2020
3289 Clouds 14 1010 71 10000 4.6 340 23:47 11.10.2020
3290 Rain 14 1010 76 10000 4.6 340 23:25 11.10.2020
3291 Clouds 14 1010 76 10000 4.6 340 22:51 11.10.2020
3292 Rain 14 1009 76 10000 3.6 340 22:30 11.10.2020
3293 Rain 14 1009 76 10000 3.6 340 22:30 11.10.2020
3294 Rain 13 1009 76 10000 3.6 350 21:39 11.10.2020
3295 Rain 13 1009 76 10000 3.6 350 21:20 11.10.2020
3296 Rain 13 1009 76 10000 6.7 350 20:49 11.10.2020
3297 Rain 14 1009 62 10000 6.2 350 20:22 11.10.2020
3298 Rain 14 1009 62 10000 8.7 320 19:58 11.10.2020
3299 Rain 13 1009 71 10000 8.7 330 19:40 11.10.2020
3300 Rain 13 1009 71 10000 8.7 330 19:20 11.10.2020
3301 Rain 13 1009 71 10000 7.2 340 18:39 11.10.2020
3302 Rain 13 1009 71 10000 7.2 340 18:20 11.10.2020
3303 Rain 16 1009 59 10000 2.1 270 17:44 11.10.2020
3304 Clouds 17 1009 59 10000 2.1 270 17:21 11.10.2020
3305 Clouds 17 1008 63 10000 5.1 220 16:47 11.10.2020
3306 Clouds 17 1008 72 10000 2.1 230 16:29 11.10.2020
3307 Clouds 18 1008 68 10000 3.1 220 15:55 11.10.2020
3308 Clouds 17 1008 68 10000 3.6 240 15:34 11.10.2020
3309 Clouds 16 1009 67 10000 2.1 300 14:55 11.10.2020
3310 Clouds 17 1009 67 10000 3.1 300 14:37 11.10.2020
3311 Clouds 17 1009 67 10000 3.1 300 14:18 11.10.2020
3312 Rain 16 1009 67 10000 4.1 330 13:43 11.10.2020
3313 Rain 15 1010 72 10000 4.6 310 13:22 11.10.2020
3314 Rain 15 1010 77 10000 5.1 300 12:46 11.10.2020
3315 Rain 14 1010 77 10000 4.6 290 12:22 11.10.2020
3316 Rain 14 1010 93 10000 4.1 310 11:47 11.10.2020
3317 Rain 13 1011 93 10000 5.1 310 11:25 11.10.2020
3318 Rain 13 1011 93 10000 4.6 290 10:52 11.10.2020
3319 Rain 14 1011 93 10000 3.1 290 10:29 11.10.2020
3320 Rain 14 1010 87 10000 3.1 270 09:58 11.10.2020
3321 Rain 14 1010 87 10000 3.1 270 09:39 11.10.2020
3322 Rain 14 1010 87 10000 3.1 270 09:21 11.10.2020
3323 Rain 14 1010 87 8000 4.6 360 08:48 11.10.2020
3324 Rain 14 1010 82 2800 1.5 0 07:59 11.10.2020
3325 Thunderstorm 15 1009 82 10000 4.6 330 07:36 11.10.2020
3326 Clouds 16 1010 82 10000 3.6 330 04:54 11.10.2020
3327 Clouds 16 1013 87 10000 2.6 330 02:40 11.10.2020
3328 Clouds 16 1013 87 10000 2.6 330 02:21 11.10.2020
3329 Clouds 16 1013 82 10000 3.1 320 00:46 11.10.2020
3330 Clouds 16 1014 82 10000 3.1 320 00:25 11.10.2020
3331 Clouds 17 1014 82 10000 1.5 300 23:34 10.10.2020
3332 Clouds 17 1014 82 10000 2.1 310 22:57 10.10.2020
3333 Clouds 17 1014 77 10000 0.77 14 22:38 10.10.2020
3334 Clouds 17 1014 77 10000 0.93 46 22:19 10.10.2020
3335 Clouds 17 1014 77 10000 5.1 90 21:41 10.10.2020
3336 Clouds 17 1014 77 10000 5.1 90 21:22 10.10.2020
3337 Clouds 17 1015 77 10000 4.6 90 20:51 10.10.2020
3338 Clouds 17 1014 77 10000 3.6 90 20:29 10.10.2020
3339 Clouds 18 1014 77 10000 3.6 80 19:55 10.10.2020
3340 Clouds 18 1014 77 10000 3.1 90 19:37 10.10.2020
3341 Clouds 18 1014 77 10000 3.1 90 19:18 10.10.2020
3342 Clouds 18 1014 77 10000 3.1 120 18:36 10.10.2020
3343 Clouds 18 1014 72 10000 3.1 120 17:57 10.10.2020
3344 Clouds 19 1015 72 10000 2.6 130 17:38 10.10.2020
3345 Clouds 19 1015 72 10000 2.6 130 17:19 10.10.2020
3346 Clouds 20 1015 68 10000 2.6 130 16:47 10.10.2020
3347 Clouds 19 1015 72 10000 2.6 120 16:24 10.10.2020
3348 Clouds 19 1016 72 10000 2.1 150 15:41 10.10.2020
3349 Clouds 20 1016 72 10000 2.6 140 15:21 10.10.2020
3350 Clouds 20 1016 72 10000 2.6 140 14:54 10.10.2020
3351 Clouds 20 1017 72 10000 2.1 150 14:33 10.10.2020
3352 Clouds 20 1017 72 10000 2.6 150 13:57 10.10.2020
3353 Clouds 20 1017 68 10000 2.6 140 13:39 10.10.2020
3354 Clouds 20 1018 72 10000 2.1 140 13:19 10.10.2020
3355 Clouds 20 1018 72 10000 2.1 140 12:50 10.10.2020
3356 Clouds 20 1018 68 10000 1 0 12:32 10.10.2020
3357 Clouds 20 1018 68 10000 1 0 11:49 10.10.2020
3358 Clouds 19 1018 63 10000 2.6 320 11:24 10.10.2020
3359 Clouds 18 1018 68 10000 3.6 330 10:48 10.10.2020
3360 Clouds 18 1018 68 10000 3.1 340 10:30 10.10.2020
3361 Clouds 17 1018 72 10000 2.6 330 09:55 10.10.2020
3362 Clouds 17 1018 67 10000 3.1 350 09:37 10.10.2020
3363 Clouds 16 1018 72 10000 3.6 340 08:59 10.10.2020
3364 Clouds 16 1018 77 10000 3.1 340 08:38 10.10.2020
3365 Clouds 16 1018 77 10000 3.1 340 08:19 10.10.2020
3366 Clouds 15 1019 82 10000 2.6 330 07:39 10.10.2020
3367 Clouds 16 1019 82 10000 3.6 330 05:35 10.10.2020
3368 Clouds 15 1020 82 10000 3.6 330 02:23 10.10.2020
3369 Clouds 15 1020 87 10000 2.6 320 00:38 10.10.2020
3370 Clouds 15 1020 87 10000 2.6 320 00:18 10.10.2020
3371 Clouds 15 1021 87 10000 1.5 330 23:42 09.10.2020
3372 Clouds 15 1021 87 10000 1.5 330 23:42 09.10.2020
3373 Clouds 16 1021 82 10000 1.5 340 23:20 09.10.2020
3374 Clouds 16 1021 82 10000 1 320 22:41 09.10.2020
3375 Clouds 16 1021 82 10000 1 320 22:41 09.10.2020
3376 Clouds 16 1021 82 10000 1 320 22:22 09.10.2020
3377 Clouds 16 1021 77 10000 1 300 21:43 09.10.2020
3378 Clouds 16 1021 77 10000 1 300 21:21 09.10.2020
3379 Clouds 17 1021 72 10000 1 260 20:50 09.10.2020
3380 Clouds 17 1021 72 10000 1 260 20:29 09.10.2020
3381 Clouds 17 1021 77 10000 1.5 240 19:55 09.10.2020
3382 Clouds 17 1021 72 10000 2.1 230 19:37 09.10.2020
3383 Clouds 18 1021 72 10000 2.1 230 19:18 09.10.2020
3384 Clouds 18 1021 72 10000 2.6 230 18:47 09.10.2020
3385 Clouds 18 1021 72 10000 2.1 210 18:21 09.10.2020
3386 Clouds 18 1021 72 10000 1.5 180 17:52 09.10.2020
3387 Clouds 18 1021 68 10000 2.1 170 17:18 09.10.2020
3388 Clouds 19 1021 72 10000 2.6 170 16:42 09.10.2020
3389 Clouds 19 1021 72 10000 2.6 170 16:24 09.10.2020
3390 Clouds 19 1022 72 10000 2.6 160 15:45 09.10.2020
3391 Clouds 20 1022 68 10000 2.1 160 15:25 09.10.2020
3392 Clouds 20 1022 68 10000 2.1 140 14:48 09.10.2020
3393 Clouds 19 1022 72 10000 2.6 140 14:29 09.10.2020
3394 Clouds 20 1023 68 10000 1.5 150 13:42 09.10.2020
3395 Clouds 20 1023 68 10000 1.5 150 13:22 09.10.2020
3396 Clouds 20 1023 68 10000 1.5 0 12:41 09.10.2020
3397 Clouds 19 1023 68 10000 1 0 12:20 09.10.2020
3398 Clouds 19 1023 60 10000 1.5 0 11:57 09.10.2020
3399 Clouds 19 1023 55 10000 3.6 320 11:38 09.10.2020
3400 Clouds 19 1023 55 10000 3.6 320 11:19 09.10.2020
3401 Clouds 18 1023 55 10000 4.6 330 10:43 09.10.2020
3402 Clouds 18 1023 59 10000 5.1 330 10:22 09.10.2020
3403 Clouds 16 1023 67 10000 4.6 330 09:40 09.10.2020
3404 Clouds 16 1023 67 10000 4.6 330 09:19 09.10.2020
3405 Clouds 14 1022 71 10000 5.1 330 08:37 09.10.2020
3406 Clouds 14 1022 71 10000 5.1 330 08:18 09.10.2020
3407 Clouds 14 1022 71 10000 4.6 330 07:22 09.10.2020
3408 Clouds 14 1022 71 10000 4.6 330 06:56 09.10.2020
3409 Clouds 14 1022 67 10000 3.6 330 06:25 09.10.2020
3410 Clouds 15 1022 72 10000 3.6 330 04:34 09.10.2020
3411 Clouds 15 1023 72 10000 3.6 330 02:43 09.10.2020
3412 Clouds 16 1023 72 10000 4.1 330 00:53 09.10.2020
3413 Clouds 16 1023 72 10000 3.6 330 00:34 09.10.2020
3414 Clouds 15 1023 77 10000 3.1 330 23:45 08.10.2020
3415 Clouds 15 1023 77 10000 3.1 330 23:26 08.10.2020
3416 Clouds 15 1023 77 10000 2.6 330 22:56 08.10.2020
3417 Clouds 16 1023 77 10000 2.6 330 22:37 08.10.2020
3418 Clouds 16 1023 77 10000 2.6 330 22:18 08.10.2020
3419 Clouds 16 1022 72 10000 1.5 0 21:44 08.10.2020
3420 Clouds 17 1022 72 10000 1.5 0 21:23 08.10.2020
3421 Clouds 17 1022 72 10000 0.83 333 20:43 08.10.2020
3422 Clouds 17 1022 72 10000 0.5 0 20:23 08.10.2020
3423 Clouds 18 1022 68 10000 1.5 170 19:58 08.10.2020
3424 Clouds 18 1022 68 10000 1.5 170 19:39 08.10.2020
3425 Clouds 18 1022 68 10000 1.5 170 19:20 08.10.2020
3426 Clouds 20 1022 64 10000 1.5 170 18:39 08.10.2020
3427 Clear 20 1022 64 10000 1.5 170 18:19 08.10.2020
3428 Clear 20 1022 64 10000 2.1 180 17:38 08.10.2020
3429 Clear 20 1022 64 10000 2.1 180 17:18 08.10.2020
3430 Clear 21 1022 60 10000 2.6 180 16:41 08.10.2020
3431 Clear 21 1022 60 10000 2.6 180 16:22 08.10.2020
3432 Clear 21 1022 60 10000 2.6 180 16:22 08.10.2020
3433 Clear 21 1022 56 10000 2.1 170 15:57 08.10.2020
3434 Clear 21 1022 53 10000 2.6 170 15:38 08.10.2020
3435 Clear 21 1022 53 10000 2.6 170 15:18 08.10.2020
3436 Clear 21 1022 56 10000 2.1 160 14:38 08.10.2020
3437 Clear 22 1022 56 10000 2.1 160 14:18 08.10.2020
3438 Clear 21 1022 49 10000 1 0 13:45 08.10.2020
3439 Clear 21 1022 46 10000 1.5 150 13:20 08.10.2020
3440 Clear 21 1023 43 10000 2.1 140 12:42 08.10.2020
3441 Clear 21 1022 37 10000 1.5 0 12:22 08.10.2020
3442 Clear 21 1022 40 10000 3.1 320 11:54 08.10.2020
3443 Clear 20 1022 40 10000 3.1 340 11:35 08.10.2020
3444 Clear 20 1022 42 10000 3.6 330 10:57 08.10.2020
3445 Clear 19 1022 45 10000 4.6 330 10:38 08.10.2020
3446 Clear 18 1022 45 10000 4.6 330 10:19 08.10.2020
3447 Clear 16 1021 51 10000 4.6 340 09:43 08.10.2020
3448 Clear 16 1021 51 10000 4.6 340 09:25 08.10.2020
3449 Clear 17 1021 54 10000 4.1 330 08:44 08.10.2020
3450 Clear 16 1021 54 10000 4.6 340 08:21 08.10.2020
3451 Clear 16 1020 54 10000 3.6 350 07:50 08.10.2020
3452 Clear 16 1020 54 10000 5.1 340 07:24 08.10.2020
3453 Clear 16 1020 54 10000 6.7 340 06:51 08.10.2020
3454 Clear 16 1019 51 10000 4.6 340 05:20 08.10.2020
3455 Clear 17 1019 55 10000 4.1 340 02:57 08.10.2020
3456 Clouds 17 1018 55 10000 4.6 350 02:25 08.10.2020
3457 Clouds 16 1018 59 10000 4.1 330 00:25 08.10.2020
3458 Clouds 17 1017 63 10000 3.6 340 23:37 07.10.2020
3459 Clouds 17 1017 59 10000 3.1 340 23:19 07.10.2020
3460 Clouds 17 1017 59 10000 3.1 340 22:43 07.10.2020
3461 Clouds 17 1016 59 10000 3.1 340 22:25 07.10.2020
3462 Clouds 17 1016 67 10000 4.1 330 21:48 07.10.2020
3463 Clouds 18 1016 68 10000 2.6 330 21:24 07.10.2020
3464 Clouds 17 1015 72 10000 2.1 10 20:47 07.10.2020
3465 Clouds 18 1015 72 10000 4.1 70 20:27 07.10.2020
3466 Clouds 18 1014 72 10000 3.1 90 19:56 07.10.2020
3467 Clouds 19 1014 72 10000 2.1 90 19:37 07.10.2020
3468 Clouds 19 1014 72 10000 2.1 90 19:18 07.10.2020
3469 Clouds 20 1013 73 10000 3.1 150 18:41 07.10.2020
3470 Clouds 20 1013 73 10000 3.1 150 18:20 07.10.2020
3471 Clouds 21 1013 73 10000 3.6 130 17:50 07.10.2020
3472 Clouds 21 1013 68 10000 2.6 120 17:32 07.10.2020
3473 Clouds 21 1012 68 10000 3.6 150 16:52 07.10.2020
3474 Clouds 21 1012 73 10000 3.1 120 16:24 07.10.2020
3475 Clouds 21 1013 68 10000 1.5 140 15:59 07.10.2020
3476 Clouds 22 1012 68 10000 1.5 160 15:39 07.10.2020
3477 Clouds 22 1012 68 10000 1.5 160 15:20 07.10.2020
3478 Clouds 21 1012 68 10000 2.1 170 14:43 07.10.2020
3479 Clouds 21 1012 68 10000 3.1 180 14:24 07.10.2020
3480 Clouds 21 1012 60 10000 2.6 80 13:51 07.10.2020
3481 Clouds 21 1012 60 10000 2.6 80 13:26 07.10.2020
3482 Clouds 21 1012 64 10000 5.1 80 12:51 07.10.2020
3483 Clouds 20 1012 64 10000 6.2 90 12:25 07.10.2020
3484 Clouds 19 1011 64 10000 5.7 110 11:56 07.10.2020
3485 Clouds 19 1010 42 10000 1.5 90 11:37 07.10.2020
3486 Clouds 19 1010 42 10000 1.5 90 11:19 07.10.2020
3487 Clouds 18 1010 42 10000 2.6 50 10:37 07.10.2020
3488 Clouds 18 1009 59 10000 9.3 270 09:53 07.10.2020
3489 Clouds 18 1009 59 10000 9.8 250 09:25 07.10.2020
3490 Clouds 17 1010 59 10000 8.2 240 08:49 07.10.2020
3491 Clouds 17 1010 59 10000 8.2 240 08:25 07.10.2020
3492 Clouds 17 1009 59 10000 7.2 270 07:37 07.10.2020
3493 Clouds 18 1010 59 10000 7.7 250 06:24 07.10.2020
3494 Clouds 18 1010 63 10000 8.2 230 05:38 07.10.2020
3495 Clouds 19 1010 49 10000 10.8 240 03:44 07.10.2020
3496 Clouds 15 1010 82 10000 1.5 20 01:39 07.10.2020
3497 Clouds 16 1011 77 10000 4.6 240 00:33 07.10.2020
3498 Clouds 16 1012 77 10000 5.7 230 23:52 06.10.2020
3499 Clouds 16 1012 77 10000 7.7 220 23:22 06.10.2020
3500 Clouds 17 1012 72 10000 7.7 230 22:43 06.10.2020
3501 Clouds 17 1013 77 10000 9.8 230 22:24 06.10.2020
3502 Clouds 18 1013 72 10000 7.2 230 21:46 06.10.2020
3503 Clouds 18 1013 72 10000 7.2 230 21:27 06.10.2020
3504 Clouds 18 1013 68 10000 6.2 250 20:48 06.10.2020
3505 Clouds 18 1012 68 10000 8.7 250 20:27 06.10.2020
3506 Rain 18 1012 63 10000 10.3 250 19:58 06.10.2020
3507 Clouds 18 1012 68 10000 8.7 260 19:38 06.10.2020
3508 Clouds 18 1012 68 10000 8.7 260 19:19 06.10.2020
3509 Clouds 18 1012 63 10000 9.8 240 18:44 06.10.2020
3510 Clouds 18 1012 59 10000 10.3 260 18:22 06.10.2020
3511 Clouds 19 1012 56 10000 9.3 250 17:48 06.10.2020
3512 Clouds 20 1012 60 10000 12.9 240 17:22 06.10.2020
3513 Clouds 20 1012 60 10000 12.9 240 16:45 06.10.2020
3514 Clouds 20 1012 56 10000 12.3 250 16:23 06.10.2020
3515 Clouds 20 1012 56 10000 12.9 250 15:51 06.10.2020
3516 Clouds 20 1013 56 10000 10.8 260 15:30 06.10.2020
3517 Clouds 20 1013 56 10000 10.8 260 14:58 06.10.2020
3518 Clouds 20 1013 52 10000 9.8 260 14:39 06.10.2020
3519 Clouds 20 1013 52 10000 9.8 260 14:18 06.10.2020
3520 Clouds 19 1013 52 10000 9.3 270 13:46 06.10.2020
3521 Clouds 19 1014 49 10000 1 0 13:27 06.10.2020
3522 Clouds 19 1014 48 10000 1.5 90 12:49 06.10.2020
3523 Clouds 19 1014 42 10000 1 0 12:29 06.10.2020
3524 Clouds 17 1014 48 10000 3.1 340 11:46 06.10.2020
3525 Clouds 17 1015 55 10000 1.5 0 11:27 06.10.2020
3526 Clouds 16 1015 59 10000 2.6 300 10:48 06.10.2020
3527 Clouds 16 1014 55 10000 3.1 310 10:30 06.10.2020
3528 Clouds 15 1014 67 10000 2.6 290 09:49 06.10.2020
3529 Clouds 15 1014 58 10000 2.1 320 09:22 06.10.2020
3530 Clouds 14 1014 66 10000 3.6 330 08:54 06.10.2020
3531 Clouds 14 1014 66 10000 3.1 330 08:35 06.10.2020
3532 Clouds 13 1014 66 10000 3.6 330 07:40 06.10.2020
3533 Clouds 13 1014 66 10000 3.6 330 07:22 06.10.2020
3534 Clear 12 1014 66 10000 2.6 340 06:39 06.10.2020
3535 Clear 14 1013 71 10000 2.6 330 03:27 06.10.2020
3536 Clear 13 1013 76 10000 3.1 320 01:35 06.10.2020
3537 Clear 14 1013 76 10000 2.6 310 00:39 06.10.2020
3538 Clear 14 1013 76 10000 2.6 310 00:21 06.10.2020
3539 Clear 14 1012 76 10000 1.5 0 23:39 05.10.2020
3540 Clear 14 1012 76 10000 1.5 0 23:20 05.10.2020
3541 Clear 15 1012 77 10000 1.5 310 22:36 05.10.2020
3542 Clear 15 1012 77 10000 1.5 310 22:18 05.10.2020
3543 Clear 15 1012 77 10000 2.6 290 21:41 05.10.2020
3544 Clear 16 1011 72 10000 2.6 70 21:19 05.10.2020
3545 Clear 16 1011 72 10000 3.1 80 20:43 05.10.2020
3546 Clouds 16 1011 63 10000 1.5 30 20:22 05.10.2020
3547 Clouds 17 1010 48 10000 2.1 270 19:45 05.10.2020
3548 Clouds 17 1010 45 10000 1.5 0 19:26 05.10.2020
3549 Clouds 17 1010 45 10000 1.5 0 19:26 05.10.2020
3550 Clouds 18 1009 55 10000 3.1 240 18:45 05.10.2020
3551 Clouds 19 1009 49 10000 7.2 240 18:25 05.10.2020
3552 Clouds 19 1009 49 10000 7.2 250 17:55 05.10.2020
3553 Clouds 20 1008 43 10000 9.8 240 17:37 05.10.2020
3554 Clouds 19 1008 43 10000 9.8 240 17:18 05.10.2020
3555 Clouds 20 1008 49 10000 6.7 270 16:41 05.10.2020
3556 Clouds 20 1008 49 10000 6.2 290 16:22 05.10.2020
3557 Clouds 19 1008 49 10000 7.7 280 15:41 05.10.2020
3558 Clouds 19 1008 49 10000 7.7 280 15:20 05.10.2020
3559 Clouds 19 1008 46 10000 6.2 270 14:43 05.10.2020
3560 Clouds 19 1008 52 10000 4.6 300 14:22 05.10.2020
3561 Clouds 19 1008 46 10000 1.5 0 13:47 05.10.2020
3562 Clear 19 1008 46 10000 3.6 100 13:28 05.10.2020
3563 Clear 18 1008 63 10000 1.5 150 12:51 05.10.2020
3564 Clear 18 1008 59 10000 1 0 12:30 05.10.2020
3565 Clear 17 1008 67 10000 4.1 190 11:58 05.10.2020
3566 Clear 17 1008 63 10000 2.1 290 11:37 05.10.2020
3567 Clear 17 1008 63 10000 2.1 290 11:19 05.10.2020
3568 Clear 16 1008 67 10000 3.6 280 10:42 05.10.2020
3569 Clear 15 1008 71 10000 3.6 270 10:23 05.10.2020
3570 Clear 15 1008 76 10000 4.1 270 09:53 05.10.2020
3571 Clear 14 1007 81 10000 3.1 270 09:28 05.10.2020
3572 Clear 14 1007 81 10000 3.1 270 09:28 05.10.2020
3573 Clear 12 1007 87 10000 3.6 290 08:42 05.10.2020
3574 Clear 12 1007 87 10000 4.1 290 08:22 05.10.2020
3575 Clear 11 1006 93 10000 3.1 260 07:39 05.10.2020
3576 Clouds 11 1006 93 10000 4.1 270 06:19 05.10.2020
3577 Clouds 12 1005 82 10000 2.6 330 02:38 05.10.2020
3578 Clouds 12 1006 87 10000 4.1 320 00:52 05.10.2020
3579 Clouds 13 1006 87 10000 1 0 23:55 04.10.2020
3580 Clouds 13 1006 87 10000 3.6 320 23:35 04.10.2020
3581 Clouds 13 1005 87 10000 3.6 330 22:48 04.10.2020
3582 Clouds 13 1005 87 10000 4.1 330 22:25 04.10.2020
3583 Clouds 13 1005 93 10000 2.1 330 21:58 04.10.2020
3584 Clouds 12 1005 93 10000 2.1 330 21:40 04.10.2020
3585 Clouds 13 1005 82 10000 3.1 10 21:18 04.10.2020
3586 Clouds 13 1005 93 10000 1.5 0 20:42 04.10.2020
3587 Clouds 13 1005 93 10000 1.5 0 20:22 04.10.2020
3588 Clouds 13 1004 93 10000 4.6 340 19:53 04.10.2020
3589 Clouds 14 1005 87 8000 3.1 260 19:35 04.10.2020
3590 Rain 14 1004 87 10000 0.5 210 18:54 04.10.2020
3591 Rain 14 1004 87 10000 1 0 18:36 04.10.2020
3592 Clouds 14 1004 87 10000 1 0 18:18 04.10.2020
3593 Clouds 14 1004 93 10000 3.6 20 17:39 04.10.2020
3594 Clouds 14 1004 93 10000 4.1 40 17:21 04.10.2020
3595 Clouds 14 1004 93 10000 4.1 40 16:43 04.10.2020
3596 Clouds 13 1005 93 10000 1.5 40 16:23 04.10.2020
3597 Clouds 13 1005 93 8000 1.5 0 15:57 04.10.2020
3598 Rain 14 1005 87 10000 1.5 130 15:39 04.10.2020
3599 Rain 14 1005 87 10000 1.5 130 15:18 04.10.2020
3600 Rain 14 1005 87 8000 4.1 160 14:46 04.10.2020
3601 Rain 14 1005 82 8000 2.6 140 14:25 04.10.2020
3602 Rain 17 1006 68 10000 3.1 120 13:46 04.10.2020
3603 Clouds 17 1006 63 10000 1.5 150 13:21 04.10.2020
3604 Clouds 18 1007 55 10000 1 170 12:45 04.10.2020
3605 Clouds 18 1007 55 10000 1.5 170 12:26 04.10.2020
3606 Clouds 18 1007 52 10000 1.5 0 11:59 04.10.2020
3607 Clouds 18 1007 63 10000 2.1 320 11:41 04.10.2020
3608 Clouds 17 1007 63 10000 2.1 320 11:22 04.10.2020
3609 Rain 16 1007 67 10000 2.6 330 10:48 04.10.2020
3610 Clouds 16 1007 63 10000 1.5 270 10:29 04.10.2020
3611 Clouds 15 1006 71 10000 1.5 290 09:45 04.10.2020
3612 Clouds 15 1006 71 10000 1.5 290 09:24 04.10.2020
3613 Clouds 13 1006 76 10000 2.1 320 08:53 04.10.2020
3614 Clear 13 1005 81 10000 3.6 330 08:27 04.10.2020
3615 Clear 13 1005 67 10000 4.1 310 07:52 04.10.2020
3616 Clear 14 1005 67 10000 5.7 250 07:32 04.10.2020
3617 Clear 14 1004 67 10000 7.7 260 06:49 04.10.2020
3618 Clear 13 1004 67 10000 8.2 250 06:29 04.10.2020
3619 Clear 13 1004 72 10000 10.3 230 05:52 04.10.2020
3620 Clouds 14 1004 72 10000 5.1 290 02:39 04.10.2020
3621 Clouds 14 1003 72 10000 4.1 260 00:55 04.10.2020
3622 Clouds 15 1003 77 10000 3.1 300 00:22 04.10.2020
3623 Clouds 14 1003 77 10000 4.1 320 23:39 03.10.2020
3624 Clouds 14 1003 77 10000 4.1 320 23:20 03.10.2020
3625 Clouds 15 1003 72 10000 4.1 280 22:40 03.10.2020
3626 Clouds 15 1003 72 10000 4.1 280 22:20 03.10.2020
3627 Clouds 14 1002 77 10000 3.1 240 21:46 03.10.2020
3628 Clouds 15 1002 72 10000 4.6 250 21:26 03.10.2020
3629 Clouds 15 1002 72 10000 4.1 280 20:48 03.10.2020
3630 Clouds 16 1002 72 10000 6.2 230 20:29 03.10.2020
3631 Clouds 16 1001 67 10000 5.1 220 19:59 03.10.2020
3632 Clouds 16 1001 67 10000 5.7 210 19:39 03.10.2020
3633 Clouds 16 1001 67 10000 5.7 210 19:19 03.10.2020
3634 Clouds 16 1000 68 10000 5.1 220 18:49 03.10.2020
3635 Clouds 17 1000 68 10000 6.7 210 18:25 03.10.2020
3636 Clouds 17 1000 68 10000 7.2 200 17:49 03.10.2020
3637 Clouds 17 1000 68 10000 6.7 210 17:29 03.10.2020
3638 Clouds 18 1000 68 10000 6.2 210 16:57 03.10.2020
3639 Clouds 18 1000 68 10000 7.7 210 16:39 03.10.2020
3640 Clouds 18 1000 68 10000 7.7 210 16:39 03.10.2020
3641 Clouds 17 1000 68 10000 8.7 210 16:20 03.10.2020
3642 Clouds 18 1000 63 10000 9.3 220 15:41 03.10.2020
3643 Clouds 18 1000 63 10000 9.3 220 15:20 03.10.2020
3644 Clouds 18 1000 63 10000 9.3 220 14:57 03.10.2020
3645 Clouds 17 1000 63 10000 9.3 220 14:38 03.10.2020
3646 Clouds 18 1000 63 10000 9.3 220 14:19 03.10.2020
3647 Clouds 18 1000 55 10000 8.2 220 13:42 03.10.2020
3648 Clouds 18 1000 55 10000 8.2 220 13:42 03.10.2020
3649 Clouds 18 1000 59 10000 8.7 230 13:23 03.10.2020
3650 Clouds 17 1000 59 10000 5.7 250 12:45 03.10.2020
3651 Clouds 17 1000 59 10000 5.7 250 12:21 03.10.2020
3652 Clouds 16 1000 67 10000 4.1 250 11:51 03.10.2020
3653 Clouds 15 1000 67 10000 6.2 250 11:23 03.10.2020
3654 Clouds 15 999 67 10000 4.6 280 10:59 03.10.2020
3655 Clouds 15 999 71 10000 2.6 260 10:39 03.10.2020
3656 Clouds 15 999 71 10000 2.6 260 10:20 03.10.2020
3657 Clouds 13 998 71 10000 5.1 290 09:43 03.10.2020
3658 Clouds 13 998 76 10000 5.7 270 09:20 03.10.2020
3659 Clouds 12 997 76 10000 5.7 270 08:45 03.10.2020
3660 Clouds 12 997 82 10000 5.1 260 08:27 03.10.2020
3661 Clouds 12 997 82 10000 5.1 240 07:44 03.10.2020
3662 Clouds 12 996 76 10000 5.1 240 07:22 03.10.2020
3663 Clouds 13 995 87 10000 4.1 230 06:24 03.10.2020
3664 Rain 13 996 82 10000 3.6 240 05:41 03.10.2020
3665 Rain 15 993 88 10000 5.1 230 03:48 03.10.2020
3666 Rain 15 993 88 10000 5.1 230 03:23 03.10.2020
3667 Clouds 18 991 88 10000 2.6 70 00:38 03.10.2020
3668 Clouds 18 991 88 10000 2.6 70 00:19 03.10.2020
3669 Clouds 18 991 93 10000 1.5 60 23:42 02.10.2020
3670 Clouds 18 991 93 8000 1.5 0 23:21 02.10.2020
3671 Clouds 18 991 93 4000 1.5 0 22:49 02.10.2020
3672 Rain 18 991 93 10000 1 320 22:26 02.10.2020
3673 Clouds 19 991 94 3000 11.8 170 21:51 02.10.2020
3674 Rain 19 991 94 3000 11.8 170 21:30 02.10.2020
3675 Clouds 20 991 94 3000 11.3 170 20:57 02.10.2020
3676 Rain 20 992 88 3000 12.3 180 20:34 02.10.2020
3677 Rain 21 991 88 4000 12.9 160 19:59 02.10.2020
3678 Rain 20 991 94 3400 13.4 150 19:40 02.10.2020
3679 Clouds 20 991 94 3400 13.4 150 19:19 02.10.2020
3680 Rain 20 992 94 4000 12.3 150 18:43 02.10.2020
3681 Rain 20 992 94 6000 11.8 160 18:24 02.10.2020
3682 Clouds 20 992 94 6000 12.3 160 17:55 02.10.2020
3683 Thunderstorm 20 992 88 6000 9.3 200 17:37 02.10.2020
3684 Thunderstorm 19 992 88 6000 9.3 200 17:18 02.10.2020
3685 Clouds 20 993 94 6000 13.9 160 16:31 02.10.2020
3686 Rain 20 993 94 6000 13.9 160 15:55 02.10.2020
3687 Rain 20 993 94 6000 13.9 160 15:36 02.10.2020
3688 Clouds 21 994 88 6000 13.9 160 14:57 02.10.2020
3689 Clouds 21 994 88 6000 13.9 160 14:38 02.10.2020
3690 Clouds 20 994 88 6000 13.9 160 14:18 02.10.2020
3691 Mist 20 995 88 5000 14.4 160 13:43 02.10.2020
3692 Clouds 20 995 88 6000 14.4 160 13:18 02.10.2020
3693 Mist 20 995 88 5000 14.4 160 12:41 02.10.2020
3694 Clouds 20 996 88 7000 14.4 160 12:21 02.10.2020
3695 Clouds 20 996 88 7000 12.9 170 11:46 02.10.2020
3696 Clouds 20 996 88 10000 12.3 170 11:23 02.10.2020
3697 Clouds 20 997 94 9000 8.7 190 10:48 02.10.2020
3698 Clouds 20 997 94 9000 8.7 190 10:27 02.10.2020
3699 Clouds 17 997 93 10000 4.1 0 09:50 02.10.2020
3700 Clouds 17 997 93 10000 2.6 0 09:29 02.10.2020
3701 Clouds 17 998 88 1000 1.5 310 08:55 02.10.2020
3702 Rain 17 997 93 4000 2.1 360 08:35 02.10.2020
3703 Rain 17 998 93 4000 3.1 350 07:56 02.10.2020
3704 Rain 17 1000 88 10000 2.6 330 07:21 02.10.2020
3705 Clouds 17 1000 88 10000 2.6 330 06:22 02.10.2020
3706 Clouds 17 1000 88 10000 2.6 330 06:22 02.10.2020
3707 Clouds 18 1003 82 10000 3.6 240 02:54 02.10.2020
3708 Clouds 18 1003 88 10000 4.6 220 02:21 02.10.2020
3709 Clouds 18 1004 93 10000 2.03 212 00:28 02.10.2020
3710 Clouds 19 1004 88 10000 2.1 180 23:58 01.10.2020
3711 Clouds 19 1005 88 10000 2.03 212 23:39 01.10.2020
3712 Clouds 19 1005 88 10000 1.48 237 23:21 01.10.2020
3713 Rain 19 1005 88 10000 1.5 230 22:41 01.10.2020
3714 Rain 19 1005 83 10000 3.1 200 22:23 01.10.2020
3715 Clouds 19 1005 83 10000 2.6 220 21:57 01.10.2020
3716 Clouds 19 1006 83 10000 4.1 230 21:37 01.10.2020
3717 Clouds 20 1006 83 10000 4.1 230 21:18 01.10.2020
3718 Clouds 20 1005 88 10000 7.7 230 20:39 01.10.2020
3719 Clouds 20 1005 88 10000 7.7 230 20:19 01.10.2020
3720 Clouds 20 1005 83 10000 7.7 220 19:43 01.10.2020
3721 Clouds 20 1005 83 10000 7.7 220 19:23 01.10.2020
3722 Clouds 20 1005 83 10000 8.7 220 18:46 01.10.2020
3723 Clouds 20 1006 88 10000 8.2 220 18:28 01.10.2020
3724 Clouds 20 1006 83 10000 9.3 220 17:45 01.10.2020
3725 Clouds 21 1006 78 10000 8.7 210 17:27 01.10.2020
3726 Clouds 21 1006 78 10000 8.2 210 16:47 01.10.2020
3727 Clouds 21 1006 78 10000 8.2 210 16:29 01.10.2020
3728 Clouds 21 1006 78 10000 9.3 210 15:59 01.10.2020
3729 Clouds 21 1007 83 10000 7.7 210 15:39 01.10.2020
3730 Clouds 21 1007 83 10000 7.7 210 15:18 01.10.2020
3731 Clouds 21 1007 73 10000 5.7 190 14:42 01.10.2020
3732 Clouds 21 1008 64 10000 7.2 190 14:22 01.10.2020
3733 Clouds 20 1009 68 10000 4.1 190 13:38 01.10.2020
3734 Clouds 20 1009 72 10000 4.6 200 12:44 01.10.2020
3735 Clouds 20 1009 72 10000 4.6 200 12:21 01.10.2020
3736 Clouds 19 1009 68 10000 3.1 220 11:43 01.10.2020
3737 Clouds 20 1009 64 10000 2.6 260 11:25 01.10.2020
3738 Clouds 19 1009 63 10000 2.1 320 10:48 01.10.2020
3739 Clouds 19 1009 63 10000 2.1 340 10:27 01.10.2020
3740 Clouds 18 1009 72 10000 2.6 330 09:58 01.10.2020
3741 Clouds 18 1009 72 10000 3.6 330 09:39 01.10.2020
3742 Clouds 17 1009 72 10000 3.6 330 09:21 01.10.2020
3743 Clouds 16 1009 77 10000 3.1 340 08:43 01.10.2020
3744 Clouds 14 1009 82 10000 3.1 340 07:58 01.10.2020
3745 Clouds 14 1009 82 10000 4.6 320 07:39 01.10.2020
3746 Clouds 14 1009 82 10000 4.6 320 07:20 01.10.2020
3747 Clear 14 1010 82 10000 3.6 330 05:46 01.10.2020
3748 Clouds 16 1012 82 10000 1.5 340 01:22 01.10.2020
3749 Clouds 16 1013 77 10000 2.1 310 23:48 30.09.2020
3750 Clouds 17 1013 77 10000 1.5 0 23:29 30.09.2020
3751 Clouds 17 1013 77 10000 1 0 22:44 30.09.2020
3752 Clouds 18 1013 72 10000 2.6 230 22:23 30.09.2020
3753 Clouds 18 1013 72 10000 2.6 220 21:45 30.09.2020
3754 Clouds 18 1013 72 10000 3.1 230 21:22 30.09.2020
3755 Clouds 19 1013 72 10000 3.1 230 20:45 30.09.2020
3756 Clouds 19 1013 72 10000 3.6 230 20:26 30.09.2020
3757 Clouds 19 1013 77 10000 2.6 220 19:44 30.09.2020
3758 Clouds 19 1013 72 10000 2.6 190 19:24 30.09.2020
3759 Clouds 19 1013 68 10000 2.1 170 18:58 30.09.2020
3760 Clouds 20 1013 68 10000 2.6 180 18:40 30.09.2020
3761 Clouds 20 1013 68 10000 2.6 170 18:20 30.09.2020
3762 Clouds 20 1013 68 10000 2.6 170 17:47 30.09.2020
3763 Clouds 20 1013 64 10000 2.6 160 17:47 30.09.2020
3764 Clouds 20 1013 64 10000 2.6 160 17:23 30.09.2020
3765 Clouds 20 1013 64 10000 2.6 170 16:49 30.09.2020
3766 Clouds 21 1013 64 10000 3.1 170 16:26 30.09.2020
3767 Clouds 21 1014 60 10000 3.1 170 15:47 30.09.2020
3768 Clouds 21 1014 64 10000 3.1 170 15:25 30.09.2020
3769 Clouds 21 1014 60 10000 3.1 170 14:45 30.09.2020
3770 Clouds 21 1015 64 10000 2.1 160 14:23 30.09.2020
3771 Clouds 21 1015 64 10000 2.6 170 13:58 30.09.2020
3772 Clouds 20 1015 64 10000 3.1 160 13:38 30.09.2020
3773 Clouds 20 1015 64 10000 2.6 150 12:57 30.09.2020
3774 Clouds 20 1015 64 10000 2.6 130 12:38 30.09.2020
3775 Clouds 20 1015 60 10000 1.5 130 12:18 30.09.2020
3776 Clouds 20 1015 60 10000 1 0 11:40 30.09.2020
3777 Clouds 20 1015 60 10000 1 0 11:21 30.09.2020
3778 Clouds 20 1015 60 10000 2.1 340 10:47 30.09.2020
3779 Clouds 19 1015 68 10000 3.1 330 10:21 30.09.2020
3780 Clouds 18 1016 72 10000 2.6 340 09:48 30.09.2020
3781 Clear 18 1016 72 10000 2.6 340 09:25 30.09.2020
3782 Clouds 17 1016 77 10000 3.6 330 08:44 30.09.2020
3783 Clouds 17 1015 77 10000 3.1 330 08:26 30.09.2020
3784 Clouds 15 1015 87 10000 2.1 310 07:39 30.09.2020
3785 Clouds 15 1015 87 10000 1.5 290 06:47 30.09.2020
3786 Clouds 15 1015 87 10000 1.5 350 06:25 30.09.2020
3787 Clouds 16 1015 82 10000 1.5 310 05:26 30.09.2020
3788 Clouds 16 1015 82 10000 1.5 310 05:26 30.09.2020
3789 Clouds 17 1016 77 10000 2.1 310 03:35 30.09.2020
3790 Clouds 17 1017 77 10000 1.5 300 01:28 30.09.2020
3791 Clouds 18 1017 72 10000 2.6 60 00:27 30.09.2020
3792 Clouds 18 1017 72 10000 3.6 90 23:51 29.09.2020
3793 Clouds 18 1017 68 10000 3.6 80 23:28 29.09.2020
3794 Clouds 18 1017 68 10000 3.6 80 22:52 29.09.2020
3795 Clouds 18 1017 68 10000 3.6 70 22:26 29.09.2020
3796 Clouds 18 1017 68 10000 3.1 80 21:57 29.09.2020
3797 Clouds 18 1017 72 10000 1.5 90 21:38 29.09.2020
3798 Clouds 18 1017 72 10000 1.5 90 21:19 29.09.2020
3799 Clouds 18 1016 72 10000 2.6 100 20:43 29.09.2020
3800 Clouds 18 1017 72 10000 3.1 110 20:24 29.09.2020
3801 Clouds 19 1016 72 10000 3.6 100 19:51 29.09.2020
3802 Clouds 19 1016 68 10000 3.6 100 19:33 29.09.2020
3803 Clouds 19 1016 72 10000 3.1 120 18:47 29.09.2020
3804 Clouds 19 1016 72 10000 3.1 120 18:22 29.09.2020
3805 Clouds 19 1016 72 10000 3.1 120 18:22 29.09.2020
3806 Clouds 18 1016 68 10000 3.1 120 17:59 29.09.2020
3807 Clouds 19 1016 64 10000 2.6 130 17:25 29.09.2020
3808 Clouds 20 1016 64 10000 2.6 120 16:45 29.09.2020
3809 Clouds 20 1016 64 10000 2.6 130 16:27 29.09.2020
3810 Clouds 19 1016 64 10000 2.6 120 15:54 29.09.2020
3811 Clouds 19 1016 64 10000 3.6 110 15:35 29.09.2020
3812 Clouds 20 1016 64 10000 3.1 120 14:59 29.09.2020
3813 Clouds 20 1017 64 10000 3.1 110 14:40 29.09.2020
3814 Clouds 20 1017 64 10000 3.1 110 14:19 29.09.2020
3815 Clouds 20 1017 64 10000 3.6 100 13:48 29.09.2020
3816 Clouds 20 1017 60 10000 3.6 100 13:24 29.09.2020
3817 Clouds 20 1017 64 10000 3.1 100 12:51 29.09.2020
3818 Clouds 20 1017 60 10000 3.6 100 12:33 29.09.2020
3819 Clouds 20 1017 60 10000 3.6 90 11:53 29.09.2020
3820 Clouds 19 1017 49 10000 2.1 360 11:27 29.09.2020
3821 Clouds 19 1017 48 10000 3.1 330 10:50 29.09.2020
3822 Clouds 18 1016 52 10000 3.6 330 10:26 29.09.2020
3823 Clouds 16 1016 59 10000 5.1 330 09:43 29.09.2020
3824 Clouds 16 1016 59 10000 5.1 330 09:43 29.09.2020
3825 Clouds 16 1016 62 10000 5.7 330 09:24 29.09.2020
3826 Clouds 15 1016 67 10000 6.2 330 08:52 29.09.2020
3827 Clouds 14 1015 67 10000 5.7 330 08:27 29.09.2020
3828 Clouds 13 1015 66 10000 4.6 330 07:52 29.09.2020
3829 Clouds 13 1014 71 10000 4.1 340 07:31 29.09.2020
3830 Clear 13 1014 67 10000 5.1 330 05:47 29.09.2020
3831 Clear 13 1014 67 10000 3.6 330 04:48 29.09.2020
3832 Clear 13 1014 67 10000 4.6 330 02:21 29.09.2020
3833 Clouds 13 1013 67 10000 3.6 330 00:59 29.09.2020
3834 Clouds 14 1013 72 10000 2.6 340 23:45 28.09.2020
3835 Clouds 14 1013 72 10000 2.6 340 23:45 28.09.2020
3836 Clear 14 1013 67 10000 3.6 330 23:23 28.09.2020
3837 Clear 14 1013 72 10000 3.1 320 22:41 28.09.2020
3838 Clear 14 1012 72 10000 1.5 0 22:41 28.09.2020
3839 Clear 15 1012 67 10000 1.5 0 22:21 28.09.2020
3840 Clear 15 1012 67 10000 1.5 0 21:55 28.09.2020
3841 Clear 15 1012 72 10000 2.1 320 21:36 28.09.2020
3842 Clear 15 1012 72 10000 2.1 320 21:18 28.09.2020
3843 Clear 16 1011 63 10000 0.7 48 20:41 28.09.2020
3844 Clouds 17 1011 63 10000 1.5 100 20:21 28.09.2020
3845 Clouds 17 1011 63 10000 1.5 100 19:59 28.09.2020
3846 Clouds 18 1010 59 10000 1.5 100 19:36 28.09.2020
3847 Clouds 18 1009 59 10000 2.6 100 19:18 28.09.2020
3848 Clouds 18 1009 59 10000 2.6 100 18:43 28.09.2020
3849 Clouds 18 1009 59 10000 2.6 100 18:25 28.09.2020
3850 Clouds 19 1009 56 10000 3.6 90 17:46 28.09.2020
3851 Clouds 19 1009 56 10000 3.6 100 17:27 28.09.2020
3852 Clouds 19 1008 56 10000 3.6 110 16:54 28.09.2020
3853 Clouds 19 1008 49 10000 3.6 120 16:36 28.09.2020
3854 Clouds 19 1008 49 10000 3.6 120 16:18 28.09.2020
3855 Clouds 19 1008 52 10000 2.1 150 15:36 28.09.2020
3856 Clouds 19 1008 52 10000 2.1 150 15:18 28.09.2020
3857 Clouds 19 1008 45 10000 3.1 140 14:41 28.09.2020
3858 Clouds 19 1008 45 10000 3.1 140 14:22 28.09.2020
3859 Clouds 19 1007 42 10000 2.6 150 13:50 28.09.2020
3860 Clouds 19 1007 45 10000 3.1 140 13:24 28.09.2020
3861 Clouds 19 1007 45 10000 3.6 140 12:44 28.09.2020
3862 Clouds 19 1006 40 10000 3.6 120 12:26 28.09.2020
3863 Clouds 19 1006 37 10000 2.1 70 11:46 28.09.2020
3864 Clouds 19 1006 42 10000 2.1 340 11:27 28.09.2020
3865 Clear 18 1006 45 10000 3.1 350 10:55 28.09.2020
3866 Clear 17 1006 48 10000 3.6 350 10:37 28.09.2020
3867 Clear 17 1006 48 10000 3.6 350 10:19 28.09.2020
3868 Clear 15 1005 58 10000 3.6 350 09:32 28.09.2020
3869 Clear 14 1005 58 10000 4.1 340 08:50 28.09.2020
3870 Clouds 13 1005 62 10000 4.1 340 08:32 28.09.2020
3871 Clouds 12 1005 62 10000 3.1 340 07:56 28.09.2020
3872 Clouds 12 1005 66 10000 3.1 340 07:36 28.09.2020
3873 Clouds 12 1005 66 10000 3.1 330 06:24 28.09.2020
3874 Clouds 13 1005 62 10000 5.1 330 03:31 28.09.2020
3875 Clouds 15 1006 51 10000 5.1 350 01:19 28.09.2020
3876 Clouds 15 1006 55 10000 5.7 10 00:35 28.09.2020
3877 Clouds 16 1006 59 10000 3.6 20 23:43 27.09.2020
3878 Clouds 16 1006 59 10000 3.6 20 23:25 27.09.2020
3879 Rain 16 1006 59 10000 2.6 10 22:48 27.09.2020
3880 Rain 16 1006 55 10000 4.1 10 22:29 27.09.2020
3881 Clouds 17 1006 55 10000 5.1 70 21:45 27.09.2020
3882 Clouds 16 1005 63 10000 6.7 70 21:25 27.09.2020
3883 Clouds 16 1005 59 10000 5.7 110 20:52 27.09.2020
3884 Clouds 17 1004 59 10000 4.1 130 20:28 27.09.2020
3885 Clouds 17 1004 59 10000 3.1 160 19:51 27.09.2020
3886 Clouds 17 1004 55 10000 3.1 190 19:21 27.09.2020
3887 Clouds 17 1004 59 10000 3.6 190 18:59 27.09.2020
3888 Clouds 18 1004 59 10000 3.6 190 18:41 27.09.2020
3889 Clouds 17 1003 59 10000 4.1 190 18:19 27.09.2020
3890 Clouds 18 1003 59 10000 3.6 170 17:41 27.09.2020
3891 Clouds 17 1003 59 10000 3.6 170 17:23 27.09.2020
3892 Clouds 18 1004 55 10000 3.1 190 16:55 27.09.2020
3893 Clouds 17 1004 59 10000 4.1 170 16:34 27.09.2020
3894 Clouds 18 1004 55 10000 4.6 160 15:47 27.09.2020
3895 Clouds 18 1004 55 10000 6.2 140 15:28 27.09.2020
3896 Clouds 18 1004 59 10000 6.7 130 14:58 27.09.2020
3897 Clouds 18 1004 45 10000 5.7 120 14:38 27.09.2020
3898 Clouds 19 1004 45 10000 5.7 120 14:20 27.09.2020
3899 Clouds 19 1004 49 10000 4.1 110 13:44 27.09.2020
3900 Clouds 19 1004 55 10000 6.7 100 13:19 27.09.2020
3901 Clouds 18 1004 55 10000 6.7 100 12:43 27.09.2020
3902 Clouds 18 1004 48 10000 5.1 80 12:24 27.09.2020
3903 Clouds 18 1004 52 10000 5.1 80 11:47 27.09.2020
3904 Clouds 17 1004 55 10000 6.7 90 11:23 27.09.2020
3905 Clouds 16 1004 55 10000 5.7 90 10:47 27.09.2020
3906 Clouds 16 1004 31 10000 5.1 330 10:29 27.09.2020
3907 Clouds 15 1003 35 10000 4.1 330 09:46 27.09.2020
3908 Clouds 15 1002 37 10000 5.7 330 09:28 27.09.2020
3909 Clouds 14 1002 35 10000 6.7 330 08:56 27.09.2020
3910 Clouds 13 1001 37 10000 7.7 330 08:37 27.09.2020
3911 Clouds 11 1001 37 10000 7.7 330 08:19 27.09.2020
3912 Clouds 11 1001 40 10000 7.2 330 07:18 27.09.2020
3913 Clouds 13 1000 37 10000 6.2 330 06:45 27.09.2020
3914 Clear 14 1001 35 10000 5.1 330 03:44 27.09.2020
3915 Clear 13 1001 35 10000 6.2 340 01:53 27.09.2020
3916 Clouds 13 1001 35 10000 3.1 360 01:25 27.09.2020
3917 Clouds 14 1002 33 10000 4.1 350 00:55 27.09.2020
3918 Clouds 14 1002 33 10000 1.5 0 00:19 27.09.2020
3919 Clouds 14 1002 38 10000 2.6 290 23:40 26.09.2020
3920 Clouds 15 1001 40 10000 1.5 310 23:18 26.09.2020
3921 Clouds 15 1001 40 10000 1.5 310 22:40 26.09.2020
3922 Clear 15 1001 39 10000 4.1 350 22:20 26.09.2020
3923 Clear 16 1001 29 10000 4.1 310 21:48 26.09.2020
3924 Clear 16 1000 42 10000 5.1 320 21:24 26.09.2020
3925 Clouds 17 1000 45 10000 3.1 50 20:56 26.09.2020
3926 Clouds 17 1000 45 10000 3.1 50 20:56 26.09.2020
3927 Clouds 17 1000 45 10000 3.1 50 20:36 26.09.2020
3928 Clouds 17 1000 45 10000 3.1 50 20:18 26.09.2020
3929 Clouds 18 1000 59 10000 4.1 80 19:44 26.09.2020
3930 Clouds 18 999 48 10000 5.7 80 19:21 26.09.2020
3931 Clouds 19 999 48 10000 5.7 80 18:47 26.09.2020
3932 Clouds 19 999 52 10000 5.7 80 18:26 26.09.2020
3933 Clouds 19 999 45 10000 4.1 60 17:45 26.09.2020
3934 Clouds 19 999 56 10000 4.6 60 17:26 26.09.2020
3935 Clouds 19 999 63 10000 4.6 80 16:44 26.09.2020
3936 Clouds 19 999 60 10000 4.1 100 16:22 26.09.2020
3937 Clouds 19 999 60 10000 5.1 120 15:55 26.09.2020
3938 Clouds 19 999 59 10000 4.1 140 15:27 26.09.2020
3939 Clouds 19 999 49 10000 5.1 150 14:52 26.09.2020
3940 Clouds 20 999 24 10000 1.5 0 14:20 26.09.2020
3941 Clouds 21 999 16 10000 4.1 360 13:54 26.09.2020
3942 Clouds 22 999 17 10000 5.1 340 13:34 26.09.2020
3943 Clouds 21 999 16 10000 6.7 10 12:59 26.09.2020
3944 Clear 21 999 18 10000 8.7 360 12:38 26.09.2020
3945 Clear 21 999 18 10000 7.7 360 12:19 26.09.2020
3946 Clear 20 999 18 10000 7.7 360 11:51 26.09.2020
3947 Clear 20 999 21 10000 9.8 360 11:22 26.09.2020
3948 Clear 19 999 20 10000 8.7 10 10:49 26.09.2020
3949 Clear 18 999 22 10000 7.7 10 10:24 26.09.2020
3950 Clear 17 999 32 10000 1.5 0 09:51 26.09.2020
3951 Clear 16 999 36 10000 1.5 0 09:23 26.09.2020
3952 Clear 16 999 36 10000 5.2 339 08:57 26.09.2020
3953 Clouds 15 999 38 10000 1.5 10 08:26 26.09.2020
3954 Clouds 14 999 31 10000 6.7 310 07:20 26.09.2020
3955 Clouds 16 998 38 10000 9.8 290 03:21 26.09.2020
3956 Clouds 15 998 41 10000 6.2 280 02:18 26.09.2020
3957 Clouds 16 998 41 10000 4.6 290 00:46 26.09.2020
3958 Clouds 15 999 41 10000 7.2 290 23:41 25.09.2020
3959 Clouds 16 999 39 10000 9.8 280 23:20 25.09.2020
3960 Clouds 16 999 36 10000 8.7 270 22:58 25.09.2020
3961 Clouds 16 999 42 10000 2.6 0 22:39 25.09.2020
3962 Clouds 16 999 42 10000 2.6 0 22:18 25.09.2020
3963 Clouds 17 999 36 10000 11.3 290 21:28 25.09.2020
3964 Clouds 17 998 36 10000 10.3 290 20:53 25.09.2020
3965 Clouds 17 998 36 10000 11.3 260 20:35 25.09.2020
3966 Clouds 18 997 34 10000 10.8 260 19:55 25.09.2020
3967 Clouds 18 997 34 10000 10.8 260 19:27 25.09.2020
3968 Clouds 19 997 30 10000 8.7 260 18:51 25.09.2020
3969 Clouds 20 997 34 10000 10.8 280 18:23 25.09.2020
3970 Clouds 20 997 32 10000 13.9 250 17:43 25.09.2020
3971 Clouds 20 997 32 10000 13.9 250 17:20 25.09.2020
3972 Clouds 20 997 35 10000 8.7 270 16:49 25.09.2020
3973 Clouds 21 997 28 10000 9.8 270 16:22 25.09.2020
3974 Clouds 21 996 30 10000 10.8 270 15:29 25.09.2020
3975 Clouds 21 996 32 10000 12.9 270 14:52 25.09.2020
3976 Clouds 21 997 32 10000 12.3 260 14:23 25.09.2020
3977 Clouds 19 997 34 10000 11.8 260 13:47 25.09.2020
3978 Clouds 19 997 34 10000 13.9 270 13:22 25.09.2020
3979 Clouds 19 997 42 10000 13.9 250 12:43 25.09.2020
3980 Clear 20 997 42 10000 13.9 250 12:23 25.09.2020
3981 Clear 20 997 40 10000 14.4 250 11:47 25.09.2020
3982 Clouds 19 998 45 10000 7.2 220 10:55 25.09.2020
3983 Clouds 19 998 42 10000 4.6 270 10:29 25.09.2020
3984 Clouds 18 999 42 10000 9.3 290 09:59 25.09.2020
3985 Clouds 19 999 49 10000 9.3 270 09:38 25.09.2020
3986 Clouds 18 999 59 10000 7.7 270 08:56 25.09.2020
3987 Clear 18 999 59 10000 8.7 250 08:29 25.09.2020
3988 Clear 18 1000 63 10000 6.7 250 07:50 25.09.2020
3989 Clear 17 999 63 10000 5.1 260 07:24 25.09.2020
3990 Clear 18 1001 77 10000 2.1 310 04:29 25.09.2020
3991 Clear 19 1002 82 10000 3.6 320 02:42 25.09.2020
3992 Clouds 18 1004 82 10000 3.1 320 23:51 24.09.2020
3993 Clouds 19 1005 82 10000 5.1 320 23:28 24.09.2020
3994 Clouds 19 1006 82 10000 5.1 330 22:55 24.09.2020
3995 Clouds 19 1006 82 10000 3.6 330 22:21 24.09.2020
3996 Clouds 20 1006 77 10000 3.1 330 21:48 24.09.2020
3997 Clouds 19 1006 82 10000 3.6 340 21:26 24.09.2020
3998 Clouds 19 1006 88 10000 2.1 350 20:46 24.09.2020
3999 Clouds 19 1007 88 10000 4.1 330 20:27 24.09.2020
4000 Clouds 19 1007 88 10000 1.5 0 19:58 24.09.2020
4001 Clouds 19 1007 88 10000 1.5 0 19:58 24.09.2020
4002 Clouds 20 1007 88 10000 5.16 223 19:30 24.09.2020
4003 Clouds 19 1008 88 10000 2.1 350 18:53 24.09.2020
4004 Clouds 19 1008 93 10000 1.5 0 18:23 24.09.2020
4005 Rain 20 1008 93 10000 1 0 17:48 24.09.2020
4006 Clouds 20 1008 93 10000 1 0 17:29 24.09.2020
4007 Clouds 19 1010 82 200 6.2 330 16:36 24.09.2020
4008 Rain 23 1009 78 10000 2.1 110 15:57 24.09.2020
4009 Rain 23 1009 78 10000 2.6 170 15:19 24.09.2020
4010 Clouds 24 1010 73 10000 4.1 190 14:51 24.09.2020
4011 Clouds 24 1010 57 10000 3.1 170 14:33 24.09.2020
4012 Clouds 24 1010 65 10000 3.1 120 13:42 24.09.2020
4013 Clouds 24 1010 64 10000 2.6 110 13:19 24.09.2020
4014 Clouds 24 1011 69 10000 2.1 100 12:47 24.09.2020
4015 Clouds 23 1011 69 10000 2.1 110 12:20 24.09.2020
4016 Clear 23 1011 64 10000 1 0 11:20 24.09.2020
4017 Clear 23 1011 64 10000 1 0 10:51 24.09.2020
4018 Clear 23 1010 56 10000 0.5 0 10:32 24.09.2020
4019 Clouds 22 1010 56 10000 2.1 320 09:59 24.09.2020
4020 Clouds 21 1010 60 10000 3.1 330 09:23 24.09.2020
4021 Clouds 20 1009 64 10000 3.1 340 08:51 24.09.2020
4022 Clouds 20 1009 64 10000 4.1 330 08:32 24.09.2020
4023 Clouds 19 1009 64 10000 4.1 330 07:19 24.09.2020
4024 Clouds 18 1009 68 10000 2.6 330 06:35 24.09.2020
4025 Clouds 19 1009 72 10000 2.6 300 02:32 24.09.2020
4026 Clear 20 1009 88 10000 3.6 310 00:22 24.09.2020
4027 Clear 19 1009 88 10000 3.6 320 23:46 23.09.2020
4028 Clear 19 1009 82 10000 3.1 310 23:22 23.09.2020
4029 Clear 20 1009 77 10000 2.6 320 22:50 23.09.2020
4030 Clear 20 1009 83 10000 2.1 340 22:24 23.09.2020
4031 Clear 20 1009 78 10000 1.5 330 21:53 23.09.2020
4032 Clouds 21 1008 73 10000 3.6 310 21:30 23.09.2020
4033 Clouds 21 1008 73 10000 3.6 310 20:53 23.09.2020
4034 Clouds 22 1008 73 10000 5.7 250 20:28 23.09.2020
4035 Clouds 22 1008 78 10000 7.7 220 19:45 23.09.2020
4036 Clouds 23 1008 73 10000 8.7 210 19:22 23.09.2020
4037 Clouds 23 1008 78 10000 9.3 210 18:30 23.09.2020
4038 Clouds 23 1008 78 10000 9.8 200 17:52 23.09.2020
4039 Clouds 23 1008 78 10000 9.3 200 17:33 23.09.2020
4040 Clouds 24 1008 69 10000 8.7 210 16:43 23.09.2020
4041 Clouds 23 1008 69 10000 8.7 210 16:24 23.09.2020
4042 Clouds 23 1008 73 10000 8.2 210 15:45 23.09.2020
4043 Clouds 23 1009 78 10000 7.7 200 15:22 23.09.2020
4044 Clouds 23 1010 73 10000 4.6 190 14:40 23.09.2020
4045 Clouds 22 1010 69 10000 3.6 220 13:45 23.09.2020
4046 Clouds 22 1010 73 10000 2.1 160 13:27 23.09.2020
4047 Clouds 22 1011 68 10000 2.6 170 12:56 23.09.2020
4048 Clouds 22 1011 64 10000 2.6 180 12:23 23.09.2020
4049 Clouds 22 1011 60 10000 2.1 130 11:48 23.09.2020
4050 Clouds 21 1011 64 10000 2.6 330 11:23 23.09.2020
4051 Clouds 20 1011 64 10000 4.1 330 10:44 23.09.2020
4052 Clouds 20 1011 64 10000 4.1 330 10:22 23.09.2020
4053 Clouds 19 1010 72 10000 4.1 320 09:43 23.09.2020
4054 Clouds 18 1010 72 10000 3.6 330 08:57 23.09.2020
4055 Clouds 17 1010 77 10000 3.6 320 08:19 23.09.2020
4056 Clouds 16 1010 77 10000 5.1 320 07:44 23.09.2020
4057 Clouds 16 1010 77 10000 2.6 330 05:51 23.09.2020
4058 Clouds 16 1010 82 10000 4.1 330 04:34 23.09.2020
4059 Rain 16 1012 88 10000 3.1 320 01:28 23.09.2020
4060 Clouds 16 1013 88 10000 4.1 320 00:18 23.09.2020
4061 Rain 17 1013 82 10000 3.6 330 23:33 22.09.2020
4062 Clouds 17 1013 82 10000 3.1 330 22:44 22.09.2020
4063 Rain 17 1013 88 10000 4.1 330 22:22 22.09.2020
4064 Clouds 18 1013 82 10000 3.6 320 21:42 22.09.2020
4065 Clouds 17 1013 82 10000 2.6 320 21:23 22.09.2020
4066 Clouds 18 1013 82 10000 3.1 320 20:48 22.09.2020
4067 Clouds 18 1012 77 10000 2.1 320 20:26 22.09.2020
4068 Clouds 19 1012 77 10000 2.1 320 19:52 22.09.2020
4069 Rain 19 1013 77 10000 2.1 320 19:34 22.09.2020
4070 Clouds 19 1013 77 10000 2.6 320 18:58 22.09.2020
4071 Clouds 20 1013 77 10000 2.6 330 18:34 22.09.2020
4072 Clouds 20 1013 77 10000 3.6 340 17:36 22.09.2020
4073 Clouds 19 1014 82 10000 3.1 320 16:53 22.09.2020
4074 Rain 18 1014 82 10000 3.1 360 16:28 22.09.2020
4075 Rain 18 1013 77 10000 3.1 20 15:46 22.09.2020
4076 Rain 18 1014 82 10000 1.5 0 15:24 22.09.2020
4077 Clouds 20 1014 77 10000 2.6 330 14:38 22.09.2020
4078 Clouds 20 1015 88 10000 4.1 310 13:57 22.09.2020
4079 Rain 19 1014 88 10000 4.1 340 13:26 22.09.2020
4080 Rain 19 1015 88 10000 3.6 310 12:53 22.09.2020
4081 Rain 19 1015 88 10000 4.6 260 12:33 22.09.2020
4082 Rain 20 1015 77 10000 2.6 250 11:52 22.09.2020
4083 Rain 21 1015 68 10000 1 0 11:21 22.09.2020
4084 Rain 20 1015 68 10000 2.1 350 10:46 22.09.2020
4085 Rain 20 1015 68 10000 2.6 320 10:21 22.09.2020
4086 Rain 19 1014 72 10000 3.6 330 09:40 22.09.2020
4087 Rain 19 1014 72 10000 5.1 330 08:55 22.09.2020
4088 Rain 20 1014 72 10000 4.6 340 08:24 22.09.2020
4089 Rain 19 1014 72 10000 3.6 340 07:53 22.09.2020
4090 Clouds 19 1014 72 10000 2.6 330 07:35 22.09.2020
4091 Clouds 19 1014 72 10000 3.6 340 06:56 22.09.2020
4092 Clouds 19 1014 77 10000 3.6 330 04:57 22.09.2020
4093 Clouds 19 1014 77 10000 3.1 330 04:34 22.09.2020
4094 Clouds 19 1015 82 10000 3.1 340 01:36 22.09.2020
4095 Clouds 19 1015 82 10000 3.1 330 00:55 22.09.2020
4096 Clouds 19 1015 88 10000 3.1 350 23:28 21.09.2020
4097 Clouds 19 1016 83 10000 3.1 330 22:46 21.09.2020
4098 Rain 19 1016 88 10000 2.1 330 22:24 21.09.2020
4099 Clouds 20 1015 78 10000 3.1 320 21:43 21.09.2020
4100 Clouds 20 1015 78 10000 3.1 320 21:23 21.09.2020
4101 Clouds 20 1015 78 10000 2.6 320 20:51 21.09.2020
4102 Clouds 21 1015 83 10000 1 0 20:32 21.09.2020
4103 Clouds 21 1015 73 10000 2.26 213 19:57 21.09.2020
4104 Clouds 22 1015 73 10000 1 80 19:38 21.09.2020
4105 Clouds 22 1015 73 10000 1 80 19:19 21.09.2020
4106 Clouds 22 1015 64 10000 2.27 212 18:40 21.09.2020
4107 Clouds 22 1015 64 10000 2.07 190 18:19 21.09.2020
4108 Clouds 22 1015 73 10000 2.1 70 17:30 21.09.2020
4109 Thunderstorm 22 1015 73 10000 2.1 110 16:32 21.09.2020
4110 Thunderstorm 22 1015 73 10000 2.1 110 16:32 21.09.2020
4111 Clouds 23 1015 73 10000 3.6 110 15:44 21.09.2020
4112 Clouds 23 1015 73 10000 3.6 110 15:22 21.09.2020
4113 Clouds 23 1015 73 10000 3.6 110 14:45 21.09.2020
4114 Clouds 23 1016 65 10000 3.6 100 14:22 21.09.2020
4115 Clouds 24 1015 69 10000 4.6 140 13:22 21.09.2020
4116 Clouds 24 1015 73 10000 3.1 140 12:49 21.09.2020
4117 Clouds 24 1015 69 10000 3.1 130 12:22 21.09.2020
4118 Clouds 24 1015 64 10000 3.1 110 11:50 21.09.2020
4119 Clouds 23 1015 73 10000 4.6 70 11:20 21.09.2020
4120 Clouds 22 1015 73 10000 1 0 10:28 21.09.2020
4121 Clouds 21 1015 77 10000 3.1 340 09:59 21.09.2020
4122 Clouds 20 1015 77 10000 3.1 340 09:38 21.09.2020
4123 Clouds 19 1015 77 10000 4.6 330 08:51 21.09.2020
4124 Clouds 19 1014 82 10000 3.1 330 07:50 21.09.2020
4125 Clouds 18 1014 82 10000 3.1 340 07:32 21.09.2020
4126 Clouds 19 1014 88 10000 4.1 330 06:41 21.09.2020
4127 Clouds 19 1015 88 10000 2.1 320 03:29 21.09.2020
4128 Rain 20 1015 83 10000 3.6 320 00:49 21.09.2020
4129 Clouds 20 1015 83 10000 3.1 330 23:28 20.09.2020
4130 Clouds 21 1015 83 10000 4.1 80 22:38 20.09.2020
4131 Clouds 21 1015 83 10000 4.1 80 22:19 20.09.2020
4132 Rain 22 1014 83 10000 3.6 80 21:35 20.09.2020
4133 Rain 21 1015 78 10000 3.6 100 20:52 20.09.2020
4134 Rain 22 1014 83 10000 4.6 80 20:23 20.09.2020
4135 Clouds 22 1014 83 10000 5.1 90 19:48 20.09.2020
4136 Clouds 22 1014 83 10000 5.7 90 19:25 20.09.2020
4137 Clouds 22 1014 78 10000 6.7 90 18:47 20.09.2020
4138 Clouds 22 1014 78 10000 5.1 100 18:25 20.09.2020
4139 Clouds 23 1013 73 10000 5.1 100 17:57 20.09.2020
4140 Clouds 23 1013 69 10000 5.1 100 17:34 20.09.2020
4141 Clouds 23 1014 78 10000 5.7 90 16:39 20.09.2020
4142 Clouds 23 1014 69 10000 2.1 50 15:56 20.09.2020
4143 Rain 22 1014 69 10000 0.5 0 15:23 20.09.2020
4144 Rain 22 1014 78 10000 2.1 330 14:42 20.09.2020
4145 Rain 22 1014 78 10000 2.1 330 14:18 20.09.2020
4146 Clouds 21 1015 78 10000 2.6 20 13:21 20.09.2020
4147 Rain 20 1015 82 5000 4.1 0 12:44 20.09.2020
4148 Rain 21 1015 72 10000 7.2 310 12:23 20.09.2020
4149 Rain 23 1014 64 10000 3.1 70 11:36 20.09.2020
4150 Rain 23 1014 64 10000 3.1 70 11:18 20.09.2020
4151 Clouds 23 1014 60 10000 2.1 50 10:49 20.09.2020
4152 Clouds 23 1014 73 10000 1.5 10 10:18 20.09.2020
4153 Clouds 21 1014 78 10000 2.1 340 09:48 20.09.2020
4154 Clouds 19 1014 88 10000 2.1 340 08:30 20.09.2020
4155 Clouds 19 1014 88 10000 2.6 330 07:29 20.09.2020
4156 Clouds 22 1015 73 10000 2.6 360 02:18 20.09.2020
4157 Clouds 22 1016 73 10000 2.6 20 00:34 20.09.2020
4158 Clouds 22 1016 73 10000 2.6 50 23:37 19.09.2020
4159 Clouds 22 1016 73 10000 2.6 20 22:58 19.09.2020
4160 Clouds 22 1016 78 10000 4.6 90 22:30 19.09.2020
4161 Clouds 22 1016 73 10000 4.6 90 21:49 19.09.2020
4162 Drizzle 23 1016 83 10000 4.6 80 21:27 19.09.2020
4163 Rain 24 1015 69 10000 4.1 70 20:48 19.09.2020
4164 Clouds 23 1015 78 10000 5.1 60 19:49 19.09.2020
4165 Clouds 23 1016 78 10000 5.1 50 19:20 19.09.2020
4166 Rain 24 1016 74 10000 5.1 80 18:26 19.09.2020
4167 Rain 24 1016 78 10000 5.7 100 17:45 19.09.2020
4168 Clouds 24 1016 78 10000 6.2 100 17:25 19.09.2020
4169 Clouds 24 1016 74 10000 7.2 100 16:45 19.09.2020
4170 Clouds 25 1016 65 10000 7.7 80 16:22 19.09.2020
4171 Clouds 25 1016 61 10000 5.7 90 15:41 19.09.2020
4172 Clouds 26 1017 69 10000 1.5 130 13:28 19.09.2020
4173 Clouds 27 1018 57 10000 1.5 70 12:25 19.09.2020
4174 Clouds 27 1018 45 10000 1 0 11:34 19.09.2020
4175 Clouds 26 1018 47 10000 2.6 20 10:37 19.09.2020
4176 Clouds 25 1018 47 10000 2.6 10 09:53 19.09.2020
4177 Clouds 25 1017 50 10000 3.6 360 09:30 19.09.2020
4178 Clouds 24 1017 53 10000 4.1 340 08:49 19.09.2020
4179 Clouds 22 1017 53 10000 4.6 330 07:53 19.09.2020
4180 Clouds 23 1017 56 10000 3.1 340 06:53 19.09.2020
4181 Rain 24 1018 47 10000 4.1 330 05:52 19.09.2020
4182 Clouds 24 1018 44 10000 3.6 330 04:21 19.09.2020
4183 Clouds 25 1018 47 10000 4.1 340 00:53 19.09.2020
4184 Clouds 24 1018 50 10000 3.6 340 00:19 19.09.2020
4185 Clouds 24 1018 50 10000 3.6 330 23:19 18.09.2020
4186 Clouds 24 1018 57 10000 3.6 310 22:39 18.09.2020
4187 Clouds 24 1018 61 10000 2.1 300 21:47 18.09.2020
4188 Clouds 24 1018 61 10000 2.1 300 21:28 18.09.2020
4189 Clouds 25 1018 65 10000 1 0 20:49 18.09.2020
4190 Clouds 25 1018 57 10000 1 100 19:48 18.09.2020
4191 Clouds 25 1018 61 10000 1.94 222 19:22 18.09.2020
4192 Clouds 26 1018 61 10000 1.5 250 18:47 18.09.2020
4193 Clouds 28 1018 58 10000 2.1 200 17:32 18.09.2020
4194 Clouds 28 1018 61 10000 2.6 200 16:49 18.09.2020
4195 Clouds 28 1018 58 10000 2.1 170 16:31 18.09.2020
4196 Clouds 28 1018 58 10000 2.6 150 15:53 18.09.2020
4197 Clouds 28 1018 58 10000 2.1 160 15:30 18.09.2020
4198 Clear 29 1019 54 10000 2.6 180 14:24 18.09.2020
4199 Clear 29 1019 61 10000 2.1 170 13:51 18.09.2020
4200 Clear 30 1019 42 10000 2.1 190 12:41 18.09.2020
4201 Clear 29 1019 37 10000 3.6 320 11:56 18.09.2020
4202 Clear 27 1019 44 10000 4.1 330 10:46 18.09.2020
4203 Clear 26 1019 44 10000 4.1 330 10:27 18.09.2020
4204 Clear 24 1018 50 10000 4.1 330 09:29 18.09.2020
4205 Clear 24 1017 53 10000 4.6 340 08:51 18.09.2020
4206 Clear 23 1017 56 10000 4.6 340 08:24 18.09.2020
4207 Clear 21 1017 56 10000 4.1 340 07:31 18.09.2020
4208 Clouds 24 1017 57 10000 5.1 340 02:29 18.09.2020
4209 Clouds 24 1017 57 10000 4.6 330 01:44 18.09.2020
4210 Clouds 24 1017 53 10000 3.1 340 00:31 18.09.2020
4211 Clouds 24 1017 53 10000 3.1 340 23:43 17.09.2020
4212 Clouds 25 1017 47 10000 4.6 350 22:46 17.09.2020
4213 Clouds 26 1016 47 10000 2.1 350 21:59 17.09.2020
4214 Clouds 26 1016 54 10000 1 0 21:36 17.09.2020
4215 Clouds 25 1016 61 10000 1.5 260 20:55 17.09.2020
4216 Rain 25 1016 65 10000 1.5 260 20:28 17.09.2020
4217 Rain 26 1016 69 10000 1.5 0 19:27 17.09.2020
4218 Rain 26 1016 65 10000 0.5 160 18:52 17.09.2020
4219 Clear 28 1015 51 10000 1 130 17:58 17.09.2020
4220 Clear 28 1016 61 10000 1 0 17:38 17.09.2020
4221 Clear 27 1016 61 10000 1 0 17:19 17.09.2020
4222 Clear 27 1016 61 10000 1.5 140 15:55 17.09.2020
4223 Clouds 27 1016 61 10000 1.5 130 15:24 17.09.2020
4224 Clear 27 1016 69 10000 1.5 130 14:37 17.09.2020
4225 Clear 27 1016 69 10000 1.5 130 14:18 17.09.2020
4226 Clear 27 1016 65 10000 1.5 0 13:27 17.09.2020
4227 Clear 27 1016 65 10000 2.1 110 12:35 17.09.2020
4228 Clear 26 1016 65 10000 2.6 90 11:58 17.09.2020
4229 Clear 26 1016 61 10000 3.6 90 11:22 17.09.2020
4230 Clear 26 1016 44 10000 3.1 330 10:38 17.09.2020
4231 Clear 26 1016 44 10000 3.1 330 10:19 17.09.2020
4232 Clear 25 1015 50 10000 4.1 330 09:30 17.09.2020
4233 Clear 24 1015 53 10000 3.6 340 08:59 17.09.2020
4234 Clear 24 1015 53 10000 4.1 350 08:38 17.09.2020
4235 Clear 23 1015 53 10000 4.1 350 08:19 17.09.2020
4236 Clear 21 1015 56 10000 3.6 340 07:18 17.09.2020
4237 Clear 23 1015 53 10000 3.6 10 05:33 17.09.2020
4238 Clear 24 1015 53 10000 3.1 350 03:30 17.09.2020
4239 Clouds 24 1016 53 10000 3.6 20 01:30 17.09.2020
4240 Clouds 24 1016 53 10000 3.6 20 01:30 17.09.2020
4241 Clouds 24 1016 53 10000 3.6 20 01:30 17.09.2020
4242 Clouds 24 1016 53 10000 2.6 10 00:57 17.09.2020
4243 Clouds 24 1016 64 10000 1.5 340 23:46 16.09.2020
4244 Clouds 24 1016 78 10000 1.5 300 22:48 16.09.2020
4245 Rain 24 1016 78 10000 1.5 270 22:28 16.09.2020
4246 Clouds 24 1016 78 10000 1 220 21:55 16.09.2020
4247 Rain 24 1016 78 10000 1 200 21:25 16.09.2020
4248 Clouds 24 1016 73 10000 0.5 190 20:36 16.09.2020
4249 Clouds 24 1015 73 10000 0.76 298 19:58 16.09.2020
4250 Clouds 25 1016 69 10000 2.1 120 17:59 16.09.2020
4251 Clouds 26 1016 65 10000 2.1 150 16:55 16.09.2020
4252 Clouds 26 1016 69 10000 2.6 180 16:27 16.09.2020
4253 Clouds 26 1017 65 10000 3.1 180 15:50 16.09.2020
4254 Clouds 26 1017 65 10000 2.1 150 14:52 16.09.2020
4255 Clouds 26 1017 65 10000 2.6 140 14:28 16.09.2020
4256 Clouds 27 1017 65 10000 3.6 180 13:39 16.09.2020
4257 Clouds 27 1018 57 10000 3.6 160 12:41 16.09.2020
4258 Clear 27 1018 51 10000 2.1 160 11:37 16.09.2020
4259 Clear 27 1018 44 10000 2.1 350 10:21 16.09.2020
4260 Clear 26 1018 50 10000 1.5 0 09:48 16.09.2020
4261 Clear 25 1018 53 10000 2.6 350 09:21 16.09.2020
4262 Clear 24 1018 56 10000 5.1 360 08:40 16.09.2020
4263 Clouds 21 1018 60 10000 3.6 340 07:25 16.09.2020
4264 Clouds 24 1019 53 10000 3.1 330 01:22 16.09.2020
4265 Clouds 24 1019 50 10000 3.6 330 23:51 15.09.2020
4266 Clouds 24 1019 50 10000 3.6 320 23:32 15.09.2020
4267 Clouds 24 1019 50 10000 2.1 320 22:50 15.09.2020
4268 Clouds 24 1019 57 10000 1.5 300 22:20 15.09.2020
4269 Clouds 24 1019 57 10000 2.1 260 21:40 15.09.2020
4270 Clouds 25 1019 61 10000 2.1 250 20:51 15.09.2020
4271 Clouds 25 1019 57 10000 2.1 240 20:23 15.09.2020
4272 Clouds 27 1019 51 10000 2.6 250 19:40 15.09.2020
4273 Clouds 28 1019 51 10000 2.1 210 18:39 15.09.2020
4274 Clouds 28 1019 58 10000 2.1 190 17:32 15.09.2020
4275 Clouds 28 1019 61 10000 1.5 160 16:52 15.09.2020
4276 Clouds 28 1019 61 10000 2.6 150 16:30 15.09.2020
4277 Clouds 28 1020 54 10000 4.1 120 15:22 15.09.2020
4278 Clouds 28 1020 58 10000 3.1 90 14:43 15.09.2020
4279 Clouds 28 1021 58 10000 2.6 160 12:48 15.09.2020
4280 Clouds 27 1022 47 10000 5.1 330 10:30 15.09.2020
4281 Clouds 25 1021 57 10000 4.6 330 09:22 15.09.2020
4282 Clouds 24 1022 56 10000 3.6 330 08:45 15.09.2020
4283 Clouds 22 1021 60 10000 3.6 340 07:44 15.09.2020
4284 Clouds 21 1021 60 10000 3.6 340 07:20 15.09.2020
4285 Clouds 24 1022 57 10000 3.6 330 23:57 14.09.2020
4286 Clouds 25 1023 57 10000 2.1 330 22:47 14.09.2020
4287 Clouds 25 1023 57 10000 1 0 22:24 14.09.2020
4288 Clouds 26 1022 51 10000 2.1 260 20:39 14.09.2020
4289 Clear 28 1022 45 10000 2.1 260 18:59 14.09.2020
4290 Clouds 29 1022 45 10000 2.6 220 17:23 14.09.2020
4291 Clouds 30 1023 43 10000 1 0 16:22 14.09.2020
4292 Clouds 31 1023 43 10000 1 0 15:52 14.09.2020
4293 Clouds 30 1024 54 10000 2.6 190 14:23 14.09.2020
4294 Clouds 30 1024 61 10000 3.1 190 13:27 14.09.2020
4295 Clear 28 1024 51 10000 2.1 130 11:29 14.09.2020
4296 Clouds 25 1024 57 10000 4.1 340 08:54 14.09.2020
4297 Clouds 24 1023 60 10000 4.1 330 08:35 14.09.2020
4298 Clear 25 1023 54 10000 3.1 330 22:54 13.09.2020
4299 Clear 25 1023 51 10000 2.6 320 21:53 13.09.2020
4300 Clear 27 1022 48 10000 2.1 260 19:44 13.09.2020
4301 Clouds 29 1022 54 10000 1.5 0 16:26 13.09.2020
4302 Clear 28 1023 65 10000 2.1 110 12:45 13.09.2020
4303 Clear 27 1022 54 10000 2.1 70 10:37 13.09.2020
4304 Clear 27 1022 54 10000 2.1 70 10:18 13.09.2020
4305 Clear 23 1020 60 10000 5.1 340 06:55 13.09.2020
4306 Clear 24 1019 57 10000 3.1 330 22:44 12.09.2020
4307 Clear 25 1018 78 10000 1 230 21:20 12.09.2020
4308 Clouds 26 1017 74 10000 2.1 210 19:44 12.09.2020
4309 Clouds 28 1017 61 10000 2.1 210 18:25 12.09.2020
4310 Clouds 28 1017 65 10000 2.1 190 17:48 12.09.2020
4311 Clouds 27 1016 61 10000 2.1 220 16:55 12.09.2020
4312 Clouds 27 1017 61 10000 1.5 170 15:30 12.09.2020
4313 Clouds 27 1017 65 10000 2.6 130 14:34 12.09.2020
4314 Clouds 27 1017 65 10000 3.6 100 12:34 12.09.2020
4315 Clouds 26 1016 47 10000 4.6 320 10:22 12.09.2020
4316 Clouds 22 1014 60 10000 3.1 320 05:24 12.09.2020
4317 Clouds 22 1014 60 10000 3.1 320 05:24 12.09.2020
4318 Clouds 22 1014 56 10000 1.5 0 04:58 12.09.2020
4319 Clouds 24 1014 60 10000 3.6 330 22:51 11.09.2020
4320 Clouds 24 1013 64 10000 2.6 330 21:44 11.09.2020
4321 Clouds 24 1012 65 10000 4.1 320 20:43 11.09.2020
4322 Clouds 25 1012 65 10000 2.6 330 19:21 11.09.2020
4323 Rain 23 1011 70 10000 0.45 158 17:44 11.09.2020
4324 Clouds 24 1013 57 10000 4.1 290 16:21 11.09.2020
4325 Clouds 26 1012 54 10000 3.1 340 13:38 11.09.2020
4326 Rain 24 1013 69 10000 1 0 10:51 11.09.2020
4327 Clouds 24 1011 57 10000 4.6 340 08:40 11.09.2020
4328 Clouds 22 1011 60 10000 5.1 320 07:31 11.09.2020
4329 Clouds 23 1014 69 10000 1 100 21:30 10.09.2020
4330 Clouds 23 1014 65 10000 1.1 265 19:32 10.09.2020
4331 Clouds 24 1014 61 10000 1.5 110 17:49 10.09.2020
4332 Clouds 24 1015 73 10000 3.6 160 15:54 10.09.2020
4333 Rain 23 1016 69 10000 1.34 23 13:51 10.09.2020
4334 Clouds 23 1017 57 10000 4.1 320 11:34 10.09.2020
4335 Clouds 22 1017 60 10000 3.1 330 08:55 10.09.2020
4336 Clouds 22 1016 60 10000 3.6 360 07:46 10.09.2020
4337 Clouds 23 1019 64 10000 2.6 340 00:44 10.09.2020
4338 Clouds 21 1019 76 10000 2.24 179 21:49 09.09.2020
4339 Clouds 25 1022 57 10000 1.5 120 17:57 09.09.2020
4340 Clouds 25 1022 57 10000 1.5 120 17:22 09.09.2020
4341 Clouds 27 1022 58 10000 3.6 110 14:39 09.09.2020
4342 Clouds 25 1023 47 10000 3.1 320 10:41 09.09.2020
4343 Clouds 25 1023 47 10000 4.1 320 09:53 09.09.2020
4344 Clouds 24 1022 47 10000 4.1 320 08:30 09.09.2020
4345 Clouds 24 1021 47 10000 3.1 340 06:31 09.09.2020
4346 Clouds 24 1021 47 10000 5.1 330 04:41 09.09.2020
4347 Clouds 24 1021 47 10000 5.1 340 04:41 09.09.2020
4348 Clouds 24 1021 47 10000 5.1 330 04:41 09.09.2020
4349 Clouds 24 1021 47 10000 5.1 330 04:41 09.09.2020
4350 Clear 24 1022 50 10000 3.6 330 23:39 08.09.2020
4351 Clear 24 1022 53 10000 3.1 350 22:44 08.09.2020
4352 Clear 25 1022 65 10000 2.1 80 21:37 08.09.2020
4353 Clear 25 1022 65 10000 2.1 80 21:19 08.09.2020
4354 Clouds 27 1022 58 10000 4.6 90 18:30 08.09.2020
4355 Clouds 28 1022 48 10000 1.5 0 14:55 08.09.2020
4356 Clouds 27 1022 57 10000 3.6 130 11:54 08.09.2020
4357 Clouds 27 1022 32 10000 3.1 340 10:54 08.09.2020
4358 Clouds 26 1022 39 10000 3.1 340 10:18 08.09.2020
4359 Clouds 25 1021 41 10000 5.1 340 09:40 08.09.2020
4360 Clouds 21 1020 46 10000 5.1 340 07:39 08.09.2020
4361 Clouds 22 1019 53 10000 2.6 340 00:19 08.09.2020
4362 Clouds 22 1019 60 10000 2.1 320 22:43 07.09.2020
4363 Clouds 23 1017 57 10000 4.1 110 20:38 07.09.2020
4364 Clouds 25 1016 57 10000 8.7 90 17:47 07.09.2020
4365 Clouds 25 1014 65 10000 12.3 100 13:32 07.09.2020
4366 Clouds 24 1014 69 10000 12.3 100 12:52 07.09.2020
4367 Clouds 24 1013 65 10000 10.3 100 11:59 07.09.2020
4368 Clouds 24 1013 69 10000 5.1 90 11:35 07.09.2020
4369 Clouds 23 1013 69 10000 4.1 80 10:47 07.09.2020
4370 Clouds 20 1011 73 10000 3.1 330 06:27 07.09.2020
4371 Clouds 21 1011 78 10000 2.6 100 22:27 06.09.2020
4372 Clouds 22 1011 73 10000 2.6 70 21:34 06.09.2020
4373 Clouds 23 1011 73 10000 3.1 80 20:36 06.09.2020
4374 Clouds 23 1011 73 10000 4.6 70 19:26 06.09.2020
4375 Clouds 24 1012 65 10000 4.6 110 16:18 06.09.2020
4376 Clouds 24 1013 65 10000 3.6 120 15:27 06.09.2020
4377 Clouds 24 1013 65 10000 3.6 100 13:56 06.09.2020
4378 Clouds 23 1013 69 10000 5.1 100 12:24 06.09.2020
4379 Clouds 21 1014 52 10000 5.1 330 08:59 06.09.2020
4380 Clouds 19 1014 59 10000 3.6 330 07:48 06.09.2020
4381 Clear 22 1015 78 10000 4.1 90 22:40 05.09.2020
4382 Clear 23 1016 73 10000 2.1 140 21:26 05.09.2020
4383 Clear 27 1017 51 10000 6.7 210 16:19 05.09.2020
4384 Clear 25 1018 69 10000 6.7 190 14:35 05.09.2020
4385 Clear 26 1019 61 10000 4.6 190 12:47 05.09.2020
4386 Clear 26 1019 57 10000 4.1 190 11:59 05.09.2020
4387 Clear 26 1020 50 10000 3.6 200 11:23 05.09.2020
4388 Clear 26 1020 47 10000 3.6 320 10:28 05.09.2020
4389 Clear 22 1020 60 10000 5.7 330 08:26 05.09.2020
4390 Clear 21 1021 56 10000 3.6 340 06:23 05.09.2020
4391 Clear 23 1023 64 10000 2.1 220 20:38 04.09.2020
4392 Clear 24 1023 65 10000 2.6 200 19:53 04.09.2020
4393 Clear 26 1024 54 10000 2.1 180 18:41 04.09.2020
4394 Clear 26 1025 61 10000 2.6 180 16:20 04.09.2020
4395 Clear 26 1025 57 10000 2.6 180 15:26 04.09.2020
4396 Clear 25 1026 57 10000 2.1 140 11:29 04.09.2020
4397 Clear 23 1025 53 10000 2.6 330 09:27 04.09.2020
4398 Clear 20 1024 64 10000 3.6 330 06:20 04.09.2020
4399 Clear 20 1023 73 10000 1.5 310 22:58 03.09.2020
4400 Clear 20 1023 73 10000 2.1 270 22:34 03.09.2020
4401 Clear 21 1023 69 10000 2.6 230 21:38 03.09.2020
4402 Clouds 22 1022 60 10000 1.5 210 20:30 03.09.2020
4403 Clouds 23 1021 64 10000 1.5 190 19:24 03.09.2020
4404 Clouds 24 1021 57 10000 2.6 180 17:53 03.09.2020
4405 Clouds 25 1021 53 10000 2.6 170 16:23 03.09.2020
4406 Clouds 24 1021 57 10000 2.6 150 12:32 03.09.2020
4407 Clouds 24 1020 53 10000 2.1 120 11:51 03.09.2020
4408 Clouds 24 1020 47 10000 1.5 0 10:45 03.09.2020
4409 Clouds 18 1018 68 10000 3.6 330 07:33 03.09.2020
4410 Clouds 20 1017 68 10000 1 270 22:52 02.09.2020
4411 Clouds 22 1015 64 10000 1 0 20:43 02.09.2020
4412 Clouds 22 1015 64 10000 1.5 120 19:33 02.09.2020
4413 Clouds 23 1015 60 10000 3.1 100 17:58 02.09.2020
4414 Clouds 24 1014 61 10000 4.6 100 14:43 02.09.2020
4415 Clouds 23 1013 60 10000 3.6 80 10:46 02.09.2020
4416 Clouds 20 1012 60 10000 4.1 330 08:43 02.09.2020
4417 Clouds 18 1012 68 10000 4.1 340 05:34 02.09.2020
4418 Clouds 19 1012 77 10000 2.6 330 00:20 02.09.2020
4419 Clouds 22 1011 64 10000 1 90 20:39 01.09.2020
4420 Clouds 22 1011 60 10000 0.5 0 19:38 01.09.2020
4421 Clouds 22 1011 60 10000 0.5 0 19:38 01.09.2020
4422 Clouds 22 1011 64 10000 2.1 140 18:23 01.09.2020
4423 Clouds 23 1011 64 10000 2.1 130 17:45 01.09.2020
4424 Clouds 24 1011 61 10000 2.6 120 15:59 01.09.2020
4425 Clouds 23 1011 64 10000 3.1 120 15:20 01.09.2020
4426 Clouds 23 1012 60 10000 2.1 140 13:38 01.09.2020
4427 Clouds 22 1012 49 10000 4.6 330 10:33 01.09.2020
4428 Clouds 19 1012 49 10000 4.6 330 09:42 01.09.2020
4429 Clear 16 1012 63 10000 6.2 330 07:32 01.09.2020
4430 Clear 17 1013 68 10000 4.6 330 23:20 31.08.2020
4431 Clear 20 1011 52 10000 1.5 340 20:30 31.08.2020
4432 Thunderstorm 20 1011 64 10000 7.2 320 17:33 31.08.2020
4433 Rain 22 1012 56 10000 1 0 16:29 31.08.2020
4434 Clouds 23 1011 53 10000 4.1 110 13:58 31.08.2020
4435 Clouds 23 1011 57 10000 7.2 80 12:19 31.08.2020
4436 Clouds 19 1010 55 10000 4.1 320 09:33 31.08.2020
4437 Clear 19 1010 68 10000 7.7 60 06:51 31.08.2020
4438 Clouds 19 1009 52 10000 4.1 300 01:53 31.08.2020
4439 Clouds 22 1009 49 10000 3.1 260 23:21 30.08.2020
4440 Clouds 23 1007 38 10000 7.2 240 21:22 30.08.2020
4441 Clear 26 1006 30 10000 10.8 240 19:22 30.08.2020
4442 Clouds 28 1005 32 10000 10.8 240 18:41 30.08.2020
4443 Clouds 28 1005 30 10000 10.8 230 17:32 30.08.2020
4444 Clouds 28 1004 33 10000 9.3 240 15:24 30.08.2020
4445 Clouds 28 1004 35 10000 8.2 230 14:52 30.08.2020
4446 Clouds 24 1004 57 10000 5.1 230 11:59 30.08.2020
4447 Clouds 24 1004 64 10000 5.1 250 11:40 30.08.2020
4448 Clouds 23 1003 68 10000 4.6 240 10:21 30.08.2020
4449 Clouds 21 1003 82 10000 3.6 270 08:48 30.08.2020
4450 Clouds 20 1002 82 10000 3.6 310 08:48 30.08.2020
4451 Clouds 20 1002 83 10000 3.6 320 23:34 29.08.2020
4452 Clouds 21 1002 83 10000 3.6 300 21:34 29.08.2020
4453 Rain 21 1002 78 10000 1 0 20:27 29.08.2020
4454 Rain 22 1001 73 10000 3.1 330 18:38 29.08.2020
4455 Rain 22 1001 83 10000 4.1 330 17:51 29.08.2020
4456 Rain 22 1001 88 4500 5.7 330 16:48 29.08.2020
4457 Thunderstorm 24 1002 65 10000 2.6 0 15:55 29.08.2020
4458 Clouds 26 1002 69 10000 5.1 100 11:58 29.08.2020
4459 Clouds 23 1002 69 10000 3.6 330 08:58 29.08.2020
4460 Clouds 23 1003 69 10000 2.6 330 08:18 29.08.2020
4461 Clouds 24 1005 83 10000 0.99 190 22:35 28.08.2020
4462 Clouds 24 1005 83 10000 1 0 21:31 28.08.2020
4463 Clouds 25 1005 78 10000 1 0 19:22 28.08.2020
4464 Clouds 25 1006 78 10000 2.1 160 18:33 28.08.2020
4465 Clouds 26 1006 74 10000 2.6 180 17:29 28.08.2020
4466 Clouds 26 1006 74 10000 3.6 150 16:24 28.08.2020
4467 Clouds 27 1007 69 10000 3.1 140 14:45 28.08.2020
4468 Clouds 26 1008 74 10000 2.6 130 14:25 28.08.2020
4469 Clouds 27 1008 69 10000 2.6 130 13:51 28.08.2020
4470 Clouds 25 1009 74 10000 1 0 11:32 28.08.2020
4471 Clouds 24 1010 64 10000 3.6 330 09:28 28.08.2020
4472 Clouds 23 1009 73 10000 3.1 330 08:22 28.08.2020
4473 Clear 22 1010 78 10000 4.1 330 05:40 28.08.2020
4474 Clear 23 1011 78 10000 2.1 330 00:49 28.08.2020
4475 Clear 23 1011 73 10000 0.79 191 23:39 27.08.2020
4476 Clear 24 1011 83 10000 0.29 237 21:24 27.08.2020
4477 Clouds 25 1011 78 10000 0.5 120 20:31 27.08.2020
4478 Clouds 26 1011 74 10000 0.5 0 19:46 27.08.2020
4479 Clouds 26 1012 74 10000 2.1 140 17:50 27.08.2020
4480 Clouds 27 1012 69 10000 2.1 140 17:23 27.08.2020
4481 Clouds 27 1012 69 10000 2.6 130 16:43 27.08.2020
4482 Clouds 27 1013 65 10000 3.6 100 13:55 27.08.2020
4483 Clouds 27 1013 69 10000 2.6 150 11:41 27.08.2020
4484 Clouds 25 1013 65 10000 1.5 0 10:45 27.08.2020
4485 Clouds 25 1014 61 10000 3.6 330 09:27 27.08.2020
4486 Clouds 22 1013 73 10000 3.1 330 06:47 27.08.2020
4487 Clouds 21 1014 83 10000 3.1 320 02:42 27.08.2020
4488 Clouds 23 1014 78 10000 2.1 330 22:46 26.08.2020
4489 Clouds 24 1014 78 10000 2.1 80 22:27 26.08.2020
4490 Clouds 25 1013 74 10000 4.6 100 20:24 26.08.2020
4491 Clouds 25 1013 78 10000 4.1 100 19:50 26.08.2020
4492 Clouds 26 1014 69 10000 5.7 100 17:23 26.08.2020
4493 Clouds 27 1014 65 10000 3.6 120 14:59 26.08.2020
4494 Clouds 27 1015 65 10000 4.1 120 13:45 26.08.2020
4495 Clouds 25 1015 61 10000 1.5 0 10:38 26.08.2020
4496 Clouds 20 1015 73 10000 3.6 330 07:33 26.08.2020
4497 Clouds 24 1015 83 10000 1 200 22:42 25.08.2020
4498 Clouds 25 1015 74 10000 2.6 200 21:38 25.08.2020
4499 Clouds 25 1015 74 10000 2.6 200 21:19 25.08.2020
4500 Clouds 25 1014 78 10000 3.6 200 20:24 25.08.2020
4501 Clouds 26 1014 74 10000 3.6 190 19:54 25.08.2020
4502 Clouds 27 1014 65 10000 3.6 200 18:44 25.08.2020
4503 Clouds 27 1014 65 10000 4.1 200 17:38 25.08.2020
4504 Clouds 27 1014 65 10000 4.1 190 16:56 25.08.2020
4505 Clouds 28 1015 61 10000 5.1 190 15:33 25.08.2020
4506 Clouds 28 1015 61 10000 4.1 180 14:40 25.08.2020
4507 Clouds 27 1015 61 10000 4.6 190 12:22 25.08.2020
4508 Clouds 27 1014 45 10000 2.1 220 11:19 25.08.2020
4509 Clouds 24 1013 60 10000 4.1 340 08:37 25.08.2020
4510 Clouds 22 1013 64 10000 3.1 340 07:28 25.08.2020
4511 Clouds 21 1013 60 10000 3.6 340 06:56 25.08.2020
4512 Clouds 21 1013 68 10000 4.1 340 06:25 25.08.2020
4513 Clouds 21 1013 68 10000 3.6 340 05:46 25.08.2020
4514 Clouds 21 1013 64 10000 3.6 350 05:24 25.08.2020
4515 Clouds 23 1012 64 10000 3.6 330 03:47 25.08.2020
4516 Clouds 23 1012 60 10000 3.6 340 03:29 25.08.2020
4517 Clouds 22 1012 64 10000 4.1 330 02:45 25.08.2020
4518 Clouds 24 1011 53 10000 3.1 310 22:44 24.08.2020
4519 Clouds 24 1011 73 10000 3.1 310 21:50 24.08.2020
4520 Clouds 25 1011 69 10000 3.1 250 20:43 24.08.2020
4521 Clouds 25 1011 74 10000 3.1 250 19:52 24.08.2020
4522 Clouds 26 1011 69 10000 2.1 180 18:31 24.08.2020
4523 Clouds 25 1011 61 10000 1.5 0 17:34 24.08.2020
4524 Rain 26 1012 65 10000 1.5 160 16:33 24.08.2020
4525 Rain 25 1012 69 10000 2.6 150 15:24 24.08.2020
4526 Rain 25 1012 69 10000 2.6 150 15:24 24.08.2020
4527 Clouds 26 1012 65 10000 4.6 160 14:31 24.08.2020
4528 Clouds 27 1012 65 10000 4.6 160 13:28 24.08.2020
4529 Clouds 27 1012 74 10000 3.6 190 12:20 24.08.2020
4530 Clouds 27 1012 69 10000 3.6 170 11:53 24.08.2020
4531 Clouds 27 1012 74 10000 3.1 140 11:33 24.08.2020
4532 Clouds 26 1012 69 10000 4.6 90 10:38 24.08.2020
4533 Clouds 26 1011 74 10000 4.1 80 09:44 24.08.2020
4534 Clouds 24 1011 65 10000 3.6 330 08:19 24.08.2020
4535 Clouds 23 1011 73 10000 3.1 320 04:36 24.08.2020
4536 Clear 24 1011 73 10000 1.5 330 00:28 24.08.2020
4537 Clear 24 1011 73 10000 1.5 0 23:52 23.08.2020
4538 Clear 24 1011 69 10000 1 170 23:34 23.08.2020
4539 Clouds 26 1011 69 10000 1.5 0 20:42 23.08.2020
4540 Clouds 27 1011 65 10000 2.1 170 18:48 23.08.2020
4541 Clouds 27 1011 65 10000 2.6 120 18:19 23.08.2020
4542 Clouds 27 1012 66 10000 4.1 100 17:23 23.08.2020
4543 Clouds 27 1012 69 10000 3.1 120 16:20 23.08.2020
4544 Clouds 27 1012 65 10000 1.5 140 14:51 23.08.2020
4545 Clouds 27 1012 61 10000 1.5 180 13:34 23.08.2020
4546 Clouds 27 1013 58 10000 2.1 190 12:29 23.08.2020
4547 Clouds 27 1013 45 10000 2.6 330 10:38 23.08.2020
4548 Clouds 25 1013 60 10000 3.1 330 09:24 23.08.2020
4549 Clouds 21 1012 83 10000 4.1 330 06:42 23.08.2020
4550 Clear 24 1013 83 10000 1.5 340 00:50 23.08.2020
4551 Clouds 24 1013 78 10000 3.6 40 00:31 23.08.2020
4552 Clouds 24 1013 78 10000 5.7 80 23:57 22.08.2020
4553 Clouds 24 1013 83 10000 5.7 70 23:20 22.08.2020
4554 Clouds 25 1013 83 10000 5.1 80 21:52 22.08.2020
4555 Clouds 26 1012 74 10000 3.6 90 19:44 22.08.2020
4556 Clouds 27 1013 74 10000 4.1 110 18:28 22.08.2020
4557 Clouds 27 1014 69 10000 4.6 100 17:42 22.08.2020
4558 Clouds 27 1014 74 10000 3.6 110 16:43 22.08.2020
4559 Clear 28 1016 58 10000 3.1 150 13:41 22.08.2020
4560 Clear 27 1016 61 10000 5.1 110 11:59 22.08.2020
4561 Clear 27 1016 65 10000 4.1 100 11:38 22.08.2020
4562 Clear 28 1016 58 10000 1.5 90 10:27 22.08.2020
4563 Clear 24 1016 53 10000 4.6 340 08:22 22.08.2020
4564 Clear 24 1017 64 10000 3.1 330 01:34 22.08.2020
4565 Clear 25 1016 65 10000 0.38 276 22:37 21.08.2020
4566 Clear 25 1016 69 10000 1 220 21:26 21.08.2020
4567 Clear 28 1016 61 10000 1.5 100 18:58 21.08.2020
4568 Clouds 29 1016 58 10000 2.1 120 16:45 21.08.2020
4569 Clouds 28 1017 66 10000 3.1 100 14:38 21.08.2020
4570 Clouds 28 1016 69 10000 3.6 110 12:35 21.08.2020
4571 Clear 28 1016 65 10000 2.1 100 11:22 21.08.2020
4572 Clouds 25 1015 57 10000 2.1 330 08:29 21.08.2020
4573 Clear 23 1015 60 10000 2.1 340 06:23 21.08.2020
4574 Clear 24 1015 73 10000 2.6 320 00:18 21.08.2020
4575 Clear 25 1014 78 10000 2.1 80 21:56 20.08.2020
4576 Clouds 26 1014 74 10000 1.5 130 19:30 20.08.2020
4577 Clouds 27 1014 69 10000 2.1 140 18:21 20.08.2020
4578 Clouds 27 1014 65 10000 2.6 140 16:43 20.08.2020
4579 Clouds 27 1014 65 10000 2.6 130 14:56 20.08.2020
4580 Clouds 27 1014 69 10000 2.6 150 12:48 20.08.2020
4581 Clouds 26 1014 74 10000 2.1 120 11:44 20.08.2020
4582 Clouds 25 1013 69 10000 1.5 110 10:50 20.08.2020
4583 Clouds 24 1013 73 10000 2.6 320 09:37 20.08.2020
4584 Clouds 23 1012 78 10000 3.6 320 08:40 20.08.2020
4585 Clouds 22 1012 78 10000 2.6 330 07:31 20.08.2020
4586 Clouds 22 1011 78 10000 2.1 330 04:50 20.08.2020
4587 Clouds 22 1011 78 10000 2.1 330 02:19 20.08.2020
4588 Clear 23 1011 73 10000 2.1 320 00:40 20.08.2020
4589 Clear 24 1010 74 10000 0.28 123 21:51 19.08.2020
4590 Clouds 25 1010 74 10000 2.1 200 20:24 19.08.2020
4591 Clouds 27 1010 74 10000 2.1 160 17:57 19.08.2020
4592 Clouds 27 1010 74 10000 2.1 160 17:36 19.08.2020
4593 Clouds 27 1011 65 10000 2.6 170 15:40 19.08.2020
4594 Clouds 27 1011 65 10000 2.6 160 14:42 19.08.2020
4595 Clouds 27 1011 65 10000 3.6 150 13:35 19.08.2020
4596 Clouds 27 1011 65 10000 3.6 190 11:25 19.08.2020
4597 Clouds 27 1011 54 10000 1.5 320 10:34 19.08.2020
4598 Clouds 25 1011 50 10000 4.1 320 09:47 19.08.2020
4599 Clouds 21 1010 68 10000 5.1 330 07:25 19.08.2020
4600 Clear 24 1009 74 10000 4.1 60 22:45 18.08.2020
4601 Clear 24 1009 69 10000 4.6 80 22:18 18.08.2020
4602 Clear 25 1009 69 10000 5.1 80 21:44 18.08.2020
4603 Clear 25 1008 69 10000 4.1 90 20:54 18.08.2020
4604 Clouds 26 1008 65 10000 4.1 80 20:24 18.08.2020
4605 Clouds 26 1009 61 10000 4.6 80 18:45 18.08.2020
4606 Clouds 25 1009 74 10000 7.2 90 17:46 18.08.2020
4607 Clouds 26 1009 69 10000 6.2 90 16:28 18.08.2020
4608 Clouds 26 1010 61 10000 7.2 100 14:39 18.08.2020
4609 Clouds 26 1010 61 10000 7.2 100 14:39 18.08.2020
4610 Clouds 26 1010 61 10000 7.2 100 14:39 18.08.2020
4611 Clouds 26 1010 61 10000 6.2 90 13:50 18.08.2020
4612 Clouds 26 1011 58 10000 4.1 100 13:18 18.08.2020
4613 Clouds 26 1010 74 10000 4.6 100 10:57 18.08.2020
4614 Clear 24 1010 61 10000 2.1 340 08:50 18.08.2020
4615 Clouds 23 1009 64 10000 3.6 330 07:56 18.08.2020
4616 Clouds 22 1009 60 10000 3.1 330 06:40 18.08.2020
4617 Clouds 23 1009 61 10000 2.6 320 23:48 17.08.2020
4618 Clouds 24 1010 65 10000 3.1 50 23:24 17.08.2020
4619 Clouds 26 1008 78 10000 6.7 90 21:49 17.08.2020
4620 Clouds 27 1008 45 10000 4.1 100 20:50 17.08.2020
4621 Clouds 27 1008 54 10000 6.2 100 20:21 17.08.2020
4622 Clouds 27 1008 74 10000 7.2 90 18:21 17.08.2020
4623 Clouds 28 1009 48 10000 3.1 20 16:22 17.08.2020
4624 Clouds 27 1009 70 10000 5.1 170 15:27 17.08.2020
4625 Clouds 27 1010 69 10000 7.7 190 14:55 17.08.2020
4626 Clouds 27 1010 74 10000 6.7 190 12:51 17.08.2020
4627 Clouds 27 1010 69 10000 2.6 140 11:42 17.08.2020
4628 Clouds 27 1010 65 10000 2.1 180 11:23 17.08.2020
4629 Clouds 27 1011 65 10000 2.1 270 10:21 17.08.2020
4630 Clouds 25 1010 57 10000 4.1 320 09:20 17.08.2020
4631 Clouds 21 1010 68 10000 4.6 320 06:47 17.08.2020
4632 Clouds 23 1011 73 10000 3.1 320 00:20 17.08.2020
4633 Clouds 24 1011 78 10000 1.5 220 22:19 16.08.2020
4634 Clouds 24 1011 78 10000 1.5 220 22:19 16.08.2020
4635 Clouds 24 1011 74 10000 1 0 21:37 16.08.2020
4636 Clouds 26 1010 72 10000 2.02 183 18:43 16.08.2020
4637 Clouds 27 1010 68 10000 2.09 173 18:24 16.08.2020
4638 Clouds 27 1010 72 10000 0.45 74 16:36 16.08.2020
4639 Clouds 27 1010 71 10000 1.79 336 15:46 16.08.2020
4640 Clouds 27 1011 72 10000 1.79 48 15:19 16.08.2020
4641 Clouds 27 1011 77 10000 2.68 330 13:43 16.08.2020
4642 Clear 27 1011 76 10000 2.24 312 12:29 16.08.2020
4643 Clear 27 1011 76 10000 0.89 111 11:45 16.08.2020
4644 Clear 27 1011 74 10000 2.24 356 11:19 16.08.2020
4645 Clear 27 1011 71 10000 2.36 110 10:33 16.08.2020
4646 Clouds 25 1011 69 10000 3.6 330 09:22 16.08.2020
4647 Clouds 23 1011 73 10000 3.1 330 07:41 16.08.2020
4648 Clouds 22 1011 73 10000 3.1 330 07:20 16.08.2020
4649 Clear 25 1011 78 10000 1.5 110 22:50 15.08.2020
4650 Clouds 26 1011 78 10000 1.5 0 21:28 15.08.2020
4651 Clouds 25 1011 74 10000 2.1 130 20:33 15.08.2020
4652 Clouds 26 1011 69 10000 2.1 170 19:20 15.08.2020
4653 Clouds 28 1011 70 10000 3.1 170 17:35 15.08.2020
4654 Clouds 28 1012 74 10000 3.1 160 16:46 15.08.2020
4655 Clouds 28 1012 74 10000 3.6 190 15:19 15.08.2020
4656 Clouds 28 1012 74 10000 3.6 190 15:19 15.08.2020
4657 Clouds 28 1013 69 10000 3.6 180 14:28 15.08.2020
4658 Clouds 28 1013 61 10000 2.6 150 12:36 15.08.2020
4659 Clouds 27 1012 69 10000 2.6 170 11:41 15.08.2020
4660 Clouds 27 1012 69 10000 2.6 170 11:20 15.08.2020
4661 Clouds 27 1012 48 10000 2.1 330 10:41 15.08.2020
4662 Clouds 26 1012 54 10000 1.5 340 09:48 15.08.2020
4663 Clear 26 1012 57 10000 2.6 330 09:30 15.08.2020
4664 Clouds 24 1012 64 10000 4.1 330 08:24 15.08.2020
4665 Clouds 23 1012 73 10000 3.6 330 03:32 15.08.2020
4666 Clouds 24 1012 78 10000 3.1 50 00:44 15.08.2020
4667 Clear 24 1011 78 10000 3.6 80 22:54 14.08.2020
4668 Clear 26 1011 74 10000 3.1 110 20:42 14.08.2020
4669 Clouds 26 1011 74 10000 4.1 100 19:47 14.08.2020
4670 Clouds 27 1012 69 10000 3.1 140 16:55 14.08.2020
4671 Clouds 27 1012 74 10000 3.6 130 14:57 14.08.2020
4672 Clouds 27 1012 69 10000 3.1 130 14:39 14.08.2020
4673 Clouds 27 1012 69 10000 3.1 150 13:55 14.08.2020
4674 Clear 27 1013 69 10000 2.6 170 11:37 14.08.2020
4675 Clouds 26 1013 54 10000 3.1 330 09:58 14.08.2020
4676 Clouds 24 1013 64 10000 4.1 330 08:31 14.08.2020
4677 Clouds 24 1014 73 10000 3.6 360 01:20 14.08.2020
4678 Clouds 24 1014 83 10000 1.5 340 00:44 14.08.2020
4679 Clouds 24 1014 83 10000 2.6 280 23:27 13.08.2020
4680 Clouds 25 1014 83 10000 1 190 22:18 13.08.2020
4681 Clouds 25 1014 83 10000 0.5 120 21:20 13.08.2020
4682 Clouds 25 1013 83 10000 1.5 100 20:53 13.08.2020
4683 Clouds 26 1013 78 10000 1.5 130 19:46 13.08.2020
4684 Clouds 28 1014 66 10000 3.1 120 17:31 13.08.2020
4685 Clouds 28 1015 70 10000 3.1 120 15:42 13.08.2020
4686 Clouds 27 1016 69 10000 2.6 110 13:58 13.08.2020
4687 Clouds 26 1016 65 10000 4.6 100 12:49 13.08.2020
4688 Clouds 27 1016 74 10000 4.6 90 12:26 13.08.2020
4689 Clouds 25 1016 57 10000 3.6 330 08:54 13.08.2020
4690 Clouds 24 1015 61 10000 3.1 330 07:44 13.08.2020
4691 Clouds 25 1016 74 10000 0.43 22 00:35 13.08.2020
4692 Clouds 26 1015 65 10000 2.6 120 22:48 12.08.2020
4693 Clouds 26 1015 69 10000 2.1 80 22:20 12.08.2020
4694 Clouds 26 1015 69 10000 2.1 100 21:56 12.08.2020
4695 Clouds 26 1015 69 10000 2.1 70 20:57 12.08.2020
4696 Clouds 26 1015 65 10000 1.5 140 20:39 12.08.2020
4697 Clouds 26 1015 65 10000 1.5 140 20:20 12.08.2020
4698 Clouds 26 1015 65 10000 1.5 170 19:33 12.08.2020
4699 Clouds 27 1015 61 10000 1.5 140 17:49 12.08.2020
4700 Clouds 28 1016 65 10000 3.1 160 15:55 12.08.2020
4701 Clouds 28 1016 65 10000 2.6 130 14:54 12.08.2020
4702 Clouds 28 1016 65 10000 2.6 160 13:44 12.08.2020
4703 Clouds 28 1016 74 10000 2.6 130 12:34 12.08.2020
4704 Clouds 28 1016 69 10000 2.6 150 11:53 12.08.2020
4705 Clear 27 1016 69 10000 1.5 140 10:31 12.08.2020
4706 Clear 24 1016 73 10000 1.5 30 02:56 12.08.2020
4707 Clear 25 1015 78 10000 1 250 00:51 12.08.2020
4708 Clear 25 1015 78 10000 1.5 210 22:23 11.08.2020
4709 Clear 26 1015 78 10000 2.6 220 21:51 11.08.2020
4710 Clear 26 1015 74 10000 3.1 210 21:21 11.08.2020
4711 Clear 27 1015 69 10000 3.1 200 20:21 11.08.2020
4712 Clear 28 1015 65 10000 3.6 190 19:26 11.08.2020
4713 Clear 28 1015 69 10000 3.6 190 18:28 11.08.2020
4714 Clouds 28 1016 66 10000 2.6 150 16:35 11.08.2020
4715 Clear 28 1016 74 10000 2.1 140 15:32 11.08.2020
4716 Clouds 28 1016 78 10000 2.6 130 14:51 11.08.2020
4717 Clouds 28 1016 74 10000 4.1 100 13:58 11.08.2020
4718 Clear 28 1016 74 10000 3.6 110 12:40 11.08.2020
4719 Clear 28 1016 74 10000 3.6 110 12:20 11.08.2020
4720 Clear 28 1015 69 10000 3.1 100 10:55 11.08.2020
4721 Clear 28 1015 42 10000 2.1 40 09:54 11.08.2020
4722 Clear 25 1015 57 10000 2.6 330 07:39 11.08.2020
4723 Clear 25 1014 57 10000 3.6 330 05:52 11.08.2020
4724 Clear 26 1014 51 10000 1.5 30 03:21 11.08.2020
4725 Clear 26 1014 54 10000 1.5 0 02:51 11.08.2020
4726 Clouds 26 1014 57 10000 2.6 20 02:23 11.08.2020
4727 Clouds 27 1014 54 10000 2.1 40 00:48 11.08.2020
4728 Clouds 27 1015 54 10000 1.5 340 23:43 10.08.2020
4729 Clouds 27 1014 74 10000 1.69 287 21:51 10.08.2020
4730 Clouds 27 1014 74 10000 2.6 200 20:56 10.08.2020
4731 Clouds 28 1014 69 10000 4.1 200 20:30 10.08.2020
4732 Clouds 28 1014 74 10000 4.6 200 19:36 10.08.2020
4733 Clouds 28 1014 74 10000 4.6 200 19:18 10.08.2020
4734 Clouds 29 1014 62 10000 2.1 160 16:51 10.08.2020
4735 Clouds 30 1014 62 10000 3.6 170 15:44 10.08.2020
4736 Clouds 30 1014 66 10000 3.1 170 13:33 10.08.2020
4737 Clouds 30 1014 66 10000 3.6 170 11:53 10.08.2020
4738 Clouds 30 1014 58 10000 2.6 180 10:50 10.08.2020
4739 Clear 29 1014 58 10000 1 110 09:51 10.08.2020
4740 Clouds 28 1014 51 10000 1 0 08:46 10.08.2020
4741 Clouds 27 1014 78 10000 1 180 23:21 09.08.2020
4742 Rain 27 1014 78 10000 0.5 0 21:49 09.08.2020
4743 Clouds 28 1014 65 10000 2.1 190 19:50 09.08.2020
4744 Clouds 28 1014 62 10000 2.1 190 19:30 09.08.2020
4745 Clouds 29 1015 66 10000 1.5 0 18:28 09.08.2020
4746 Clouds 29 1015 66 10000 1 0 17:45 09.08.2020
4747 Clouds 29 1015 66 10000 1.5 120 17:21 09.08.2020
4748 Clouds 30 1016 58 10000 2.6 160 15:26 09.08.2020
4749 Clear 30 1016 62 10000 2.6 140 14:37 09.08.2020
4750 Clear 30 1016 58 10000 2.6 150 13:47 09.08.2020
4751 Clear 31 1016 58 10000 2.1 170 12:56 09.08.2020
4752 Clear 32 1016 62 10000 2.1 170 12:24 09.08.2020
4753 Clear 32 1017 38 10000 2.13 150 10:54 09.08.2020
4754 Clear 29 1017 42 10000 3.1 330 09:37 09.08.2020
4755 Clear 28 1016 45 10000 3.6 340 08:46 09.08.2020
4756 Clear 26 1016 50 10000 4.6 340 07:20 09.08.2020
4757 Clouds 28 1016 45 10000 4.1 340 01:54 09.08.2020
4758 Clear 27 1017 74 10000 1.5 200 21:19 08.08.2020
4759 Clouds 30 1017 58 10000 2.1 170 18:28 08.08.2020
4760 Clouds 29 1017 62 10000 1.5 0 17:54 08.08.2020
4761 Clouds 29 1017 66 10000 1.5 110 16:57 08.08.2020
4762 Clouds 29 1018 62 10000 2.1 130 15:51 08.08.2020
4763 Clouds 29 1018 62 10000 2.1 140 14:49 08.08.2020
4764 Clear 29 1018 58 10000 2.6 140 14:26 08.08.2020
4765 Clear 29 1018 62 10000 2.1 160 12:52 08.08.2020
4766 Clear 29 1018 65 10000 2.6 190 11:49 08.08.2020
4767 Clear 29 1019 42 10000 2.1 50 09:18 08.08.2020
4768 Clear 25 1018 47 10000 3.6 350 07:35 08.08.2020
4769 Clear 26 1018 47 10000 4.1 330 02:38 08.08.2020
4770 Clear 26 1018 65 10000 1.5 0 22:38 07.08.2020
4771 Clear 27 1017 58 10000 2.6 230 21:37 07.08.2020
4772 Clear 28 1017 65 10000 3.1 210 20:53 07.08.2020
4773 Clouds 29 1017 65 10000 2.6 190 18:59 07.08.2020
4774 Clear 29 1017 58 10000 2.6 190 17:41 07.08.2020
4775 Clear 30 1018 54 10000 3.1 180 15:51 07.08.2020
4776 Clouds 30 1018 58 10000 3.6 180 13:40 07.08.2020
4777 Clouds 29 1018 58 10000 3.1 160 12:49 07.08.2020
4778 Clear 29 1018 35 10000 2.6 310 10:55 07.08.2020
4779 Clear 28 1018 39 10000 3.1 330 09:51 07.08.2020
4780 Clear 25 1018 50 10000 5.7 330 07:32 07.08.2020
4781 Clear 25 1017 50 10000 3.6 330 02:45 07.08.2020
4782 Clear 25 1017 50 10000 4.6 330 01:39 07.08.2020
4783 Clear 25 1017 50 10000 4.6 330 01:39 07.08.2020
4784 Clear 25 1017 53 10000 4.1 330 00:26 07.08.2020
4785 Clear 25 1017 54 10000 2.6 240 21:46 06.08.2020
4786 Clear 26 1016 61 10000 3.6 210 20:43 06.08.2020
4787 Clear 27 1016 65 10000 3.1 200 19:54 06.08.2020
4788 Clear 27 1016 61 10000 3.1 200 19:21 06.08.2020
4789 Clear 27 1016 61 10000 3.6 190 18:40 06.08.2020
4790 Clear 28 1016 61 10000 3.1 170 17:38 06.08.2020
4791 Clear 28 1016 58 10000 2.6 160 16:59 06.08.2020
4792 Clear 28 1016 51 10000 3.6 170 15:42 06.08.2020
4793 Clear 28 1016 48 10000 3.1 160 14:44 06.08.2020
4794 Clear 29 1016 45 10000 2.6 170 13:36 06.08.2020
4795 Clear 29 1016 42 10000 2.6 170 12:29 06.08.2020
4796 Clear 28 1016 37 10000 2.6 180 11:33 06.08.2020
4797 Clear 27 1016 37 10000 3.1 330 10:28 06.08.2020
4798 Clear 25 1015 47 10000 5.1 330 08:55 06.08.2020
4799 Clear 24 1015 49 10000 4.6 330 08:36 06.08.2020
4800 Clear 22 1014 49 10000 4.1 330 07:38 06.08.2020
4801 Clear 23 1014 49 10000 4.6 330 01:53 06.08.2020
4802 Clear 23 1014 57 10000 2.1 330 23:42 05.08.2020
4803 Clear 23 1014 64 10000 2.1 280 22:56 05.08.2020
4804 Clouds 24 1014 69 10000 2.1 220 22:23 05.08.2020
4805 Clouds 24 1013 57 10000 2.1 200 21:33 05.08.2020
4806 Clear 26 1013 51 10000 2.6 210 20:44 05.08.2020
4807 Clouds 27 1013 51 10000 2.1 180 19:36 05.08.2020
4808 Clouds 27 1012 51 10000 2.1 180 18:37 05.08.2020
4809 Clouds 27 1013 45 10000 2.6 160 17:32 05.08.2020
4810 Clouds 27 1012 45 10000 3.6 130 15:51 05.08.2020
4811 Clouds 26 1012 45 10000 4.6 120 15:33 05.08.2020
4812 Clouds 27 1012 45 10000 5.1 120 14:48 05.08.2020
4813 Clouds 27 1012 42 10000 5.1 120 14:26 05.08.2020
4814 Clouds 26 1013 51 10000 4.6 140 13:19 05.08.2020
4815 Clouds 27 1012 42 10000 3.6 170 12:21 05.08.2020
4816 Clear 27 1011 32 10000 1.5 0 10:57 05.08.2020
4817 Clear 27 1011 34 10000 4.1 320 10:38 05.08.2020
4818 Clear 27 1011 34 10000 4.1 320 10:19 05.08.2020
4819 Clear 23 1011 46 10000 4.1 320 08:20 05.08.2020
4820 Clear 22 1010 46 10000 3.6 350 07:38 05.08.2020
4821 Clear 23 1009 49 10000 3.6 340 01:28 05.08.2020
4822 Clouds 23 1009 50 10000 2.6 340 23:57 04.08.2020
4823 Clouds 23 1009 47 10000 2.6 20 23:38 04.08.2020
4824 Clouds 24 1009 47 10000 2.6 20 23:20 04.08.2020
4825 Clouds 24 1009 47 10000 2.1 30 22:30 04.08.2020
4826 Clouds 24 1009 44 10000 2.6 70 21:57 04.08.2020
4827 Clouds 25 1008 54 10000 3.6 80 20:35 04.08.2020
4828 Clouds 25 1007 44 10000 1.5 130 19:30 04.08.2020
4829 Clouds 26 1007 51 10000 3.6 180 18:22 04.08.2020
4830 Clouds 26 1007 54 10000 5.7 200 17:29 04.08.2020
4831 Clouds 27 1006 51 10000 7.2 190 16:24 04.08.2020
4832 Clouds 26 1006 54 10000 7.2 180 15:32 04.08.2020
4833 Clouds 26 1006 47 10000 6.7 170 14:40 04.08.2020
4834 Clouds 26 1006 50 10000 6.2 190 13:37 04.08.2020
4835 Clouds 25 1006 47 10000 3.6 250 11:34 04.08.2020
4836 Clouds 24 1006 53 10000 4.1 270 10:57 04.08.2020
4837 Clouds 23 1006 60 10000 2.6 280 10:35 04.08.2020
4838 Clouds 23 1006 64 10000 0.5 0 09:36 04.08.2020
4839 Rain 20 1004 56 10000 7.7 40 06:59 04.08.2020
4840 Clouds 20 1003 49 10000 2.6 350 04:48 04.08.2020
4841 Rain 25 1003 65 10000 5.7 90 22:59 03.08.2020
4842 Clouds 25 1002 61 10000 5.7 110 22:20 03.08.2020
4843 Clouds 25 1001 65 10000 8.2 100 21:27 03.08.2020
4844 Clouds 25 1001 69 10000 8.7 100 20:57 03.08.2020
4845 Clouds 26 1000 65 10000 11.3 90 19:47 03.08.2020
4846 Clouds 27 1000 61 10000 11.8 90 19:25 03.08.2020
4847 Clouds 28 1000 69 10000 13.9 80 18:34 03.08.2020
4848 Clouds 30 1000 65 10000 10.8 80 17:54 03.08.2020
4849 Clouds 27 1001 65 10000 7.7 60 16:39 03.08.2020
4850 Clouds 27 1002 65 10000 6.2 100 15:47 03.08.2020
4851 Clouds 26 1004 74 10000 4.1 150 14:29 03.08.2020
4852 Clouds 26 1004 69 10000 3.1 140 13:33 03.08.2020
4853 Clouds 27 1005 58 10000 2.1 150 12:39 03.08.2020
4854 Clouds 27 1005 65 10000 2.6 80 11:34 03.08.2020
4855 Clouds 25 1006 69 10000 5.1 80 10:20 03.08.2020
4856 Clouds 24 1006 78 10000 8.2 80 09:26 03.08.2020
4857 Clouds 24 1006 73 10000 3.1 320 03:42 03.08.2020
4858 Clouds 25 1007 83 10000 2.6 120 02:23 03.08.2020
4859 Clouds 25 1007 78 10000 2.1 120 00:56 03.08.2020
4860 Clouds 25 1007 74 10000 1.43 67 00:33 03.08.2020
4861 Clear 26 1007 78 10000 1.5 240 21:45 02.08.2020
4862 Clear 26 1007 78 10000 1 190 21:22 02.08.2020
4863 Clear 27 1007 74 10000 1.5 140 20:37 02.08.2020
4864 Clouds 27 1007 74 10000 1.5 150 19:59 02.08.2020
4865 Clouds 28 1008 74 10000 1.5 170 19:39 02.08.2020
4866 Clouds 28 1008 70 10000 3.1 200 18:50 02.08.2020
4867 Clouds 29 1008 74 10000 3.1 190 18:22 02.08.2020
4868 Clouds 28 1009 74 10000 2.6 150 16:39 02.08.2020
4869 Clouds 29 1010 74 10000 2.1 120 15:18 02.08.2020
4870 Clouds 29 1010 74 10000 2.1 120 14:43 02.08.2020
4871 Clouds 29 1010 79 10000 3.1 110 13:53 02.08.2020
4872 Clouds 28 1010 74 10000 2.6 130 13:22 02.08.2020
4873 Clouds 29 1010 74 10000 3.1 130 12:48 02.08.2020
4874 Clear 29 1010 74 10000 3.6 150 11:31 02.08.2020
4875 Clear 29 1010 70 10000 2.6 140 10:50 02.08.2020
4876 Clear 30 1010 66 10000 2.1 80 10:20 02.08.2020
4877 Clear 28 1010 54 10000 3.1 330 08:57 02.08.2020
4878 Clear 27 1010 57 10000 3.6 340 08:24 02.08.2020
4879 Clouds 25 1010 69 10000 3.6 330 06:49 02.08.2020
4880 Clouds 26 1011 78 10000 1 0 02:52 02.08.2020
4881 Clouds 26 1011 83 10000 3.6 80 01:32 02.08.2020
4882 Clear 27 1011 78 10000 3.1 110 00:19 02.08.2020
4883 Clear 26 1011 78 10000 1.5 210 22:46 01.08.2020
4884 Clear 27 1011 78 10000 2.1 190 20:46 01.08.2020
4885 Clouds 27 1011 78 10000 1.5 180 20:25 01.08.2020
4886 Clouds 29 1011 74 10000 1.5 170 19:26 01.08.2020
4887 Clouds 29 1011 70 10000 1.5 0 18:39 01.08.2020
4888 Clouds 29 1012 70 10000 2.1 160 17:41 01.08.2020
4889 Clouds 29 1012 74 10000 2.6 140 16:31 01.08.2020
4890 Clouds 29 1012 74 10000 2.1 160 15:44 01.08.2020
4891 Clouds 29 1013 70 10000 2.6 140 15:21 01.08.2020
4892 Clouds 29 1013 70 10000 2.6 140 14:29 01.08.2020
4893 Clear 28 1013 74 10000 2.6 130 12:58 01.08.2020
4894 Clear 28 1014 74 10000 2.6 140 11:45 01.08.2020
4895 Clear 28 1014 69 10000 1 0 10:38 01.08.2020
4896 Clear 24 1014 73 10000 3.1 320 07:27 01.08.2020
4897 Clear 24 1014 78 10000 2.6 320 03:19 01.08.2020
4898 Clear 25 1014 74 10000 1.5 30 01:52 01.08.2020
4899 Clear 24 1014 74 10000 1 0 01:31 01.08.2020
4900 Clear 25 1014 74 10000 1.73 352 23:34 31.07.2020
4901 Clouds 27 1014 78 10000 1 100 21:50 31.07.2020
4902 Clouds 27 1014 74 10000 2.1 110 20:44 31.07.2020
4903 Clear 27 1014 74 10000 1.5 120 20:24 31.07.2020
4904 Clear 27 1014 74 10000 2.1 130 19:49 31.07.2020
4905 Clear 28 1015 70 10000 2.6 120 17:55 31.07.2020
4906 Clouds 28 1015 74 10000 2.6 150 16:43 31.07.2020
4907 Clouds 28 1015 74 10000 2.6 150 16:22 31.07.2020
4908 Clouds 29 1016 74 10000 3.1 170 14:47 31.07.2020
4909 Clouds 28 1016 78 10000 3.6 130 13:41 31.07.2020
4910 Clouds 29 1016 78 10000 2.6 150 12:40 31.07.2020
4911 Clouds 29 1016 70 10000 2.1 170 11:59 31.07.2020
4912 Clear 29 1016 70 10000 1.5 150 11:30 31.07.2020
4913 Clear 29 1016 40 10000 2.6 50 10:41 31.07.2020
4914 Clear 29 1016 51 10000 3.1 330 09:40 31.07.2020
4915 Clear 28 1016 54 10000 4.1 320 08:55 31.07.2020
4916 Clear 26 1016 57 10000 4.1 320 08:18 31.07.2020
4917 Clouds 24 1016 78 10000 2.1 330 05:36 31.07.2020
4918 Clouds 25 1017 88 10000 1.74 321 02:37 31.07.2020
4919 Clouds 25 1018 88 10000 1 0 01:49 31.07.2020
4920 Clear 25 1017 88 10000 2.1 150 00:27 31.07.2020
4921 Clear 25 1016 88 10000 0.5 0 23:29 30.07.2020
4922 Clear 26 1016 88 10000 1 0 22:42 30.07.2020
4923 Clear 26 1016 83 10000 1.5 200 21:47 30.07.2020
4924 Clear 26 1016 83 10000 1.5 210 21:18 30.07.2020
4925 Clear 26 1016 83 10000 1.5 200 20:47 30.07.2020
4926 Clouds 27 1016 78 10000 3.1 190 19:28 30.07.2020
4927 Clouds 28 1016 74 10000 3.6 180 18:42 30.07.2020
4928 Clouds 29 1017 70 10000 2.6 170 17:38 30.07.2020
4929 Clouds 29 1017 66 10000 2.6 130 16:51 30.07.2020
4930 Clouds 29 1017 66 10000 2.6 130 16:32 30.07.2020
4931 Clouds 29 1017 66 10000 2.1 130 15:41 30.07.2020
4932 Clouds 29 1017 66 10000 3.1 160 15:19 30.07.2020
4933 Clouds 29 1018 66 10000 3.1 150 14:42 30.07.2020
4934 Clouds 29 1018 66 10000 3.1 150 14:24 30.07.2020
4935 Clouds 29 1018 70 10000 3.1 160 13:58 30.07.2020
4936 Clouds 28 1018 74 10000 3.1 150 13:20 30.07.2020
4937 Clouds 28 1018 74 10000 2.6 150 12:58 30.07.2020
4938 Clouds 28 1018 74 10000 2.6 150 12:18 30.07.2020
4939 Clouds 27 1018 78 10000 1.5 0 10:44 30.07.2020
4940 Clouds 27 1018 74 10000 1.5 0 10:23 30.07.2020
4941 Clouds 26 1018 74 10000 0.5 0 09:21 30.07.2020
4942 Clouds 25 1017 74 10000 2.6 330 08:53 30.07.2020
4943 Clouds 23 1017 83 10000 3.6 330 07:51 30.07.2020
4944 Clear 23 1016 83 10000 2.1 330 02:52 30.07.2020
4945 Clouds 24 1016 83 10000 1 0 01:38 30.07.2020
4946 Clouds 24 1016 78 10000 1.5 70 23:54 29.07.2020
4947 Clear 25 1016 83 10000 1 0 22:42 29.07.2020
4948 Clear 25 1016 78 10000 1 120 22:19 29.07.2020
4949 Clouds 25 1015 78 10000 1 100 21:37 29.07.2020
4950 Clouds 26 1015 74 10000 1 120 20:47 29.07.2020
4951 Clouds 26 1015 74 10000 1.5 130 20:25 29.07.2020
4952 Clouds 26 1015 74 10000 1.5 130 19:48 29.07.2020
4953 Clouds 27 1015 74 10000 2.1 130 19:25 29.07.2020
4954 Clouds 27 1015 69 10000 2.6 140 18:45 29.07.2020
4955 Clouds 27 1015 74 10000 2.6 130 18:25 29.07.2020
4956 Clouds 27 1015 69 10000 2.1 120 17:53 29.07.2020
4957 Clouds 27 1015 74 10000 3.1 150 16:50 29.07.2020
4958 Clouds 27 1016 69 10000 3.1 120 15:59 29.07.2020
4959 Clouds 27 1016 69 10000 3.1 120 15:40 29.07.2020
4960 Clouds 26 1016 69 10000 3.1 120 15:18 29.07.2020
4961 Clouds 27 1016 69 10000 3.1 120 14:21 29.07.2020
4962 Clouds 27 1016 69 10000 2.6 120 13:28 29.07.2020
4963 Clouds 27 1016 69 10000 2.6 120 12:52 29.07.2020
4964 Clouds 27 1016 69 10000 3.1 120 12:23 29.07.2020
4965 Clouds 27 1016 69 10000 3.6 110 11:46 29.07.2020
4966 Clouds 26 1016 74 10000 3.6 110 11:27 29.07.2020
4967 Clouds 26 1016 74 10000 3.1 90 10:35 29.07.2020
4968 Clouds 25 1015 78 10000 1 0 09:41 29.07.2020
4969 Clouds 25 1015 73 10000 2.6 330 08:25 29.07.2020
4970 Clouds 23 1015 83 10000 2.6 320 07:48 29.07.2020
4971 Clouds 22 1014 83 10000 2.1 340 06:26 29.07.2020
4972 Clouds 23 1014 83 10000 2.6 20 02:47 29.07.2020
4973 Clouds 24 1015 78 10000 3.6 100 00:37 29.07.2020
4974 Clear 25 1015 78 10000 4.6 90 22:55 28.07.2020
4975 Clear 25 1015 78 10000 3.1 100 22:20 28.07.2020
4976 Clear 25 1015 78 10000 3.1 100 22:20 28.07.2020
4977 Clear 25 1014 74 10000 1.5 120 21:48 28.07.2020
4978 Clear 25 1014 74 10000 2.1 130 21:23 28.07.2020
4979 Clear 25 1014 74 10000 1.5 130 20:44 28.07.2020
4980 Clouds 25 1014 74 10000 2.6 160 20:20 28.07.2020
4981 Clouds 26 1014 74 10000 3.6 170 19:47 28.07.2020
4982 Clouds 26 1014 78 10000 3.1 180 19:21 28.07.2020
4983 Clouds 27 1014 78 10000 3.1 190 18:46 28.07.2020
4984 Clouds 27 1015 78 10000 2.6 190 18:21 28.07.2020
4985 Clouds 26 1015 74 10000 2.1 150 17:22 28.07.2020
4986 Clouds 26 1015 74 10000 2.1 150 17:22 28.07.2020
4987 Clouds 26 1015 78 10000 3.1 150 16:45 28.07.2020
4988 Clouds 27 1016 69 10000 3.1 180 15:43 28.07.2020
4989 Clouds 28 1016 65 10000 3.1 180 14:58 28.07.2020
4990 Clouds 27 1016 69 10000 3.6 150 14:38 28.07.2020
4991 Clear 27 1016 69 10000 3.1 140 13:53 28.07.2020
4992 Clear 27 1017 69 10000 2.1 120 12:59 28.07.2020
4993 Clouds 27 1017 65 10000 1.5 140 12:26 28.07.2020
4994 Clouds 25 1017 74 10000 2.1 170 11:57 28.07.2020
4995 Clouds 25 1017 74 10000 2.1 140 11:25 28.07.2020
4996 Clouds 25 1016 69 10000 4.1 70 10:44 28.07.2020
4997 Clouds 25 1016 69 10000 4.1 70 10:23 28.07.2020
4998 Clear 25 1016 74 10000 3.1 60 09:42 28.07.2020
4999 Clear 26 1016 69 10000 2.6 80 09:24 28.07.2020
5000 Clear 26 1016 69 10000 2.1 10 08:48 28.07.2020
5001 Clear 25 1016 69 10000 2.6 330 08:25 28.07.2020
5002 Clear 24 1016 73 10000 3.6 330 07:49 28.07.2020
5003 Clear 23 1016 78 10000 2.6 330 02:51 28.07.2020
5004 Clear 23 1016 78 10000 2.6 330 02:20 28.07.2020
5005 Clear 23 1016 78 10000 2.6 330 02:20 28.07.2020
5006 Clear 23 1017 78 10000 2.6 320 01:48 28.07.2020
5007 Clear 24 1017 69 10000 2.6 320 00:25 28.07.2020
5008 Clear 24 1017 69 10000 2.1 270 23:27 27.07.2020
5009 Clear 25 1017 61 10000 0.5 0 22:56 27.07.2020
5010 Clear 25 1017 61 10000 1 210 22:22 27.07.2020
5011 Clear 25 1016 69 10000 1 200 21:50 27.07.2020
5012 Clear 25 1016 74 10000 1 200 21:30 27.07.2020
5013 Clear 26 1016 74 10000 1.5 170 20:43 27.07.2020
5014 Clear 26 1016 74 10000 1.5 170 20:21 27.07.2020
5015 Clouds 27 1016 74 10000 1.5 180 19:45 27.07.2020
5016 Clouds 27 1016 74 10000 1.5 0 19:26 27.07.2020
5017 Clouds 27 1017 69 10000 1.5 170 18:34 27.07.2020
5018 Clouds 27 1017 69 10000 2.1 160 17:47 27.07.2020
5019 Clouds 27 1017 74 10000 2.1 150 17:26 27.07.2020
5020 Clouds 27 1017 74 10000 2.1 130 16:27 27.07.2020
5021 Clouds 26 1017 74 10000 2.1 150 15:55 27.07.2020
5022 Clouds 26 1018 74 10000 2.1 130 15:36 27.07.2020
5023 Clouds 26 1018 74 10000 2.1 130 15:18 27.07.2020
5024 Clouds 26 1018 74 10000 2.6 140 14:43 27.07.2020
5025 Clouds 26 1018 74 10000 2.6 140 14:19 27.07.2020
5026 Clouds 26 1018 74 10000 2.6 140 13:29 27.07.2020
5027 Clouds 27 1018 69 10000 2.6 140 12:54 27.07.2020
5028 Clouds 27 1018 65 10000 3.1 140 12:35 27.07.2020
5029 Clouds 27 1018 65 10000 2.6 120 11:51 27.07.2020
5030 Clouds 27 1018 61 10000 2.1 140 11:21 27.07.2020
5031 Clouds 27 1017 58 10000 1.5 0 10:36 27.07.2020
5032 Clouds 26 1017 65 10000 2.6 330 09:43 27.07.2020
5033 Clouds 26 1017 65 10000 2.6 330 09:20 27.07.2020
5034 Clouds 25 1017 69 10000 3.1 330 08:59 27.07.2020
5035 Clouds 24 1017 73 10000 3.1 330 08:40 27.07.2020
5036 Clouds 23 1017 73 10000 3.1 330 07:49 27.07.2020
5037 Clear 22 1016 78 10000 3.6 330 06:46 27.07.2020
5038 Clouds 21 1016 83 10000 2.1 340 06:24 27.07.2020
5039 Clouds 22 1016 78 10000 1.5 30 02:19 27.07.2020
5040 Clouds 23 1015 78 10000 7.2 80 00:41 27.07.2020
5041 Clouds 24 1015 83 10000 6.7 80 23:34 26.07.2020
5042 Clouds 24 1014 83 10000 6.7 80 22:59 26.07.2020
5043 Clouds 24 1014 83 10000 5.7 70 22:38 26.07.2020
5044 Clouds 25 1014 78 10000 5.7 90 21:58 26.07.2020
5045 Clouds 25 1014 78 10000 4.6 90 21:40 26.07.2020
5046 Clouds 25 1014 78 10000 4.6 90 21:20 26.07.2020
5047 Clouds 25 1013 78 10000 4.1 100 20:49 26.07.2020
5048 Clouds 25 1013 78 10000 4.6 100 20:23 26.07.2020
5049 Clouds 25 1013 74 10000 5.1 90 19:44 26.07.2020
5050 Clouds 25 1013 74 10000 5.1 90 19:22 26.07.2020
5051 Clouds 26 1014 74 10000 5.7 90 18:46 26.07.2020
5052 Clouds 26 1014 74 10000 5.7 90 18:27 26.07.2020
5053 Clouds 26 1014 69 10000 4.6 100 17:49 26.07.2020
5054 Clouds 25 1014 74 10000 4.1 110 17:25 26.07.2020
5055 Clouds 25 1014 69 10000 3.6 110 16:53 26.07.2020
5056 Clouds 26 1014 69 10000 3.6 110 16:53 26.07.2020
5057 Clouds 26 1014 65 10000 3.6 120 16:27 26.07.2020
5058 Clouds 26 1014 65 10000 3.1 130 15:43 26.07.2020
5059 Clouds 26 1014 65 10000 3.1 150 15:25 26.07.2020
5060 Clouds 26 1014 61 10000 3.1 160 14:57 26.07.2020
5061 Clouds 26 1014 61 10000 3.1 160 14:34 26.07.2020
5062 Clouds 26 1014 61 10000 3.6 160 13:54 26.07.2020
5063 Clouds 26 1015 61 10000 3.6 170 13:19 26.07.2020
5064 Clouds 26 1014 69 10000 3.6 140 12:44 26.07.2020
5065 Clouds 26 1014 69 10000 3.6 140 12:44 26.07.2020
5066 Clouds 26 1014 69 10000 3.1 150 12:23 26.07.2020
5067 Clouds 26 1014 69 10000 2.6 160 11:50 26.07.2020
5068 Clouds 26 1014 69 10000 2.1 140 11:31 26.07.2020
5069 Clouds 25 1014 61 10000 1.5 100 10:47 26.07.2020
5070 Clouds 25 1014 61 10000 1.5 100 10:23 26.07.2020
5071 Clouds 24 1014 53 10000 2.1 330 09:41 26.07.2020
5072 Clouds 24 1014 57 10000 2.6 330 08:56 26.07.2020
5073 Clouds 23 1014 60 10000 3.6 330 08:19 26.07.2020
5074 Clouds 20 1014 60 10000 2.6 340 06:57 26.07.2020
5075 Clouds 21 1013 68 10000 3.6 330 03:53 26.07.2020
5076 Clouds 22 1013 73 10000 2.1 330 01:45 26.07.2020
5077 Clouds 22 1014 78 10000 2.1 300 00:30 26.07.2020
5078 Clouds 23 1013 78 10000 1.5 240 23:40 25.07.2020
5079 Clouds 23 1013 78 10000 1 210 22:57 25.07.2020
5080 Clouds 24 1013 78 10000 1 190 22:21 25.07.2020
5081 Clouds 24 1013 78 10000 1 0 21:28 25.07.2020
5082 Clouds 25 1013 78 10000 1.5 160 20:57 25.07.2020
5083 Clouds 25 1013 78 10000 2.1 170 20:36 25.07.2020
5084 Clouds 25 1013 74 10000 2.1 160 19:53 25.07.2020
5085 Clouds 26 1013 74 10000 1.5 170 19:24 25.07.2020
5086 Clouds 26 1013 74 10000 2.1 190 18:43 25.07.2020
5087 Clear 26 1013 65 10000 2.1 150 18:24 25.07.2020
5088 Clouds 26 1013 65 10000 2.1 160 17:57 25.07.2020
5089 Clouds 26 1013 61 10000 3.1 160 17:36 25.07.2020
5090 Clouds 27 1013 61 10000 3.1 160 17:18 25.07.2020
5091 Clouds 26 1013 61 10000 2.6 150 16:47 25.07.2020
5092 Clouds 26 1014 61 10000 3.1 160 16:24 25.07.2020
5093 Clouds 27 1013 61 10000 2.6 150 15:42 25.07.2020
5094 Clouds 27 1013 57 10000 2.6 140 15:21 25.07.2020
5095 Clouds 27 1014 57 10000 3.1 130 14:37 25.07.2020
5096 Clouds 27 1014 57 10000 3.1 130 14:18 25.07.2020
5097 Clouds 27 1014 57 10000 3.1 130 13:40 25.07.2020
5098 Clouds 26 1014 57 10000 3.1 130 13:21 25.07.2020
5099 Clouds 26 1014 57 10000 3.6 120 12:54 25.07.2020
5100 Clouds 26 1014 61 10000 3.1 150 12:19 25.07.2020
5101 Clear 26 1013 61 10000 3.1 140 11:42 25.07.2020
5102 Clear 26 1013 61 10000 3.1 140 11:20 25.07.2020
5103 Clear 26 1013 65 10000 1.5 100 10:40 25.07.2020
5104 Clear 26 1013 65 10000 1.5 100 10:21 25.07.2020
5105 Clear 26 1013 65 10000 1 0 09:47 25.07.2020
5106 Clouds 26 1013 57 10000 1.5 60 09:24 25.07.2020
5107 Clouds 25 1013 53 10000 2.6 50 08:57 25.07.2020
5108 Clear 24 1012 53 10000 3.6 340 08:24 25.07.2020
5109 Clear 24 1012 56 10000 3.1 350 07:52 25.07.2020
5110 Clear 23 1012 60 10000 3.6 340 07:31 25.07.2020
5111 Clear 22 1012 64 10000 3.1 340 05:37 25.07.2020
5112 Clear 21 1012 68 10000 3.6 330 03:22 25.07.2020
5113 Clear 22 1012 69 10000 3.1 330 02:32 25.07.2020
5114 Clear 21 1012 69 10000 2.6 330 01:36 25.07.2020
5115 Clear 22 1012 69 10000 2.6 330 01:18 25.07.2020
5116 Clear 22 1012 64 10000 2.1 320 00:44 25.07.2020
5117 Clear 22 1012 64 10000 2.1 320 00:21 25.07.2020
5118 Clear 23 1012 69 10000 2.6 300 23:49 24.07.2020
5119 Clear 23 1012 64 10000 1.5 270 23:29 24.07.2020
5120 Clear 23 1012 65 10000 2.6 260 22:57 24.07.2020
5121 Clouds 23 1011 61 10000 3.1 220 22:38 24.07.2020
5122 Clouds 23 1011 61 10000 3.1 220 22:20 24.07.2020
5123 Clouds 24 1011 65 10000 4.1 200 21:43 24.07.2020
5124 Clouds 24 1011 65 10000 4.1 200 21:24 24.07.2020
5125 Clouds 25 1011 65 10000 3.6 210 20:43 24.07.2020
5126 Clouds 25 1011 65 10000 3.6 210 20:23 24.07.2020
5127 Clouds 26 1011 61 10000 2.1 150 19:44 24.07.2020
5128 Clouds 26 1010 57 10000 5.1 100 19:24 24.07.2020
5129 Clouds 27 1010 61 10000 8.2 100 18:34 24.07.2020
5130 Clouds 26 1010 57 10000 9.8 100 17:54 24.07.2020
5131 Clouds 26 1009 54 10000 10.8 90 17:20 24.07.2020
5132 Clouds 27 1009 61 10000 14.4 100 16:53 24.07.2020
5133 Clouds 27 1009 61 10000 14.4 100 16:53 24.07.2020
5134 Clouds 27 1008 61 10000 14.9 90 16:30 24.07.2020
5135 Clouds 26 1008 61 10000 14.9 90 15:59 24.07.2020
5136 Clouds 25 1008 61 10000 14.9 90 15:41 24.07.2020
5137 Clouds 26 1008 69 10000 9.8 90 15:19 24.07.2020
5138 Clouds 29 1007 69 10000 5.7 80 14:42 24.07.2020
5139 Clouds 26 1008 74 10000 3.6 120 13:55 24.07.2020
5140 Clouds 27 1009 74 10000 3.6 130 13:37 24.07.2020
5141 Clouds 26 1009 74 10000 3.6 130 13:19 24.07.2020
5142 Clouds 26 1009 74 10000 3.6 140 12:38 24.07.2020
5143 Clouds 27 1009 74 10000 3.6 140 12:18 24.07.2020
5144 Clouds 27 1009 74 10000 3.1 170 11:23 24.07.2020
5145 Clouds 26 1009 74 10000 2.6 170 10:58 24.07.2020
5146 Clouds 26 1010 69 10000 1.5 150 10:40 24.07.2020
5147 Clouds 27 1010 69 10000 1.5 150 10:18 24.07.2020
5148 Clouds 25 1010 69 10000 1.5 110 09:41 24.07.2020
5149 Clouds 25 1010 74 10000 1 0 09:23 24.07.2020
5150 Clouds 25 1010 73 10000 2.1 310 08:54 24.07.2020
5151 Clouds 24 1010 69 10000 2.6 320 08:36 24.07.2020
5152 Clouds 23 1009 73 10000 2.6 330 07:57 24.07.2020
5153 Clouds 23 1009 78 10000 2.1 320 07:37 24.07.2020
5154 Clouds 23 1009 78 10000 2.1 320 07:18 24.07.2020
5155 Clouds 22 1010 78 10000 3.1 330 05:56 24.07.2020
5156 Clouds 22 1010 78 10000 2.6 320 05:32 24.07.2020
5157 Clouds 22 1010 78 10000 1.5 310 04:38 24.07.2020
5158 Clouds 22 1010 73 10000 2.6 320 01:59 24.07.2020
5159 Clouds 23 1011 78 10000 2.6 320 00:49 24.07.2020
5160 Clouds 23 1011 83 10000 0.5 0 00:26 24.07.2020
5161 Clouds 23 1011 83 10000 1.37 18 23:43 23.07.2020
5162 Clouds 24 1011 83 10000 0.5 180 23:22 23.07.2020
5163 Clouds 24 1011 83 10000 1.5 190 22:43 23.07.2020
5164 Clear 24 1011 83 10000 2.1 190 22:23 23.07.2020
5165 Clear 24 1011 88 10000 2.1 200 21:56 23.07.2020
5166 Clear 24 1011 83 10000 2.1 210 21:37 23.07.2020
5167 Clear 25 1011 83 10000 2.1 210 21:18 23.07.2020
5168 Clear 25 1011 78 10000 2.1 200 20:42 23.07.2020
5169 Clouds 25 1011 78 10000 1.5 190 20:20 23.07.2020
5170 Clouds 25 1011 78 10000 1.5 190 19:59 23.07.2020
5171 Clouds 25 1011 78 10000 1.5 0 19:39 23.07.2020
5172 Clouds 26 1011 78 10000 1.5 0 19:20 23.07.2020
5173 Clouds 26 1012 74 10000 1.5 0 18:43 23.07.2020
5174 Clouds 26 1012 74 10000 1.5 0 18:24 23.07.2020
5175 Clouds 26 1012 74 10000 2.1 170 17:58 23.07.2020
5176 Clouds 27 1012 74 10000 2.6 170 17:39 23.07.2020
5177 Clouds 27 1012 74 10000 2.6 170 17:18 23.07.2020
5178 Clouds 27 1012 69 10000 2.6 170 16:41 23.07.2020
5179 Clouds 27 1012 69 10000 2.6 170 16:22 23.07.2020
5180 Clouds 27 1012 69 10000 2.6 170 16:22 23.07.2020
5181 Clouds 27 1013 69 10000 2.6 160 15:44 23.07.2020
5182 Clouds 27 1013 69 10000 3.1 150 15:23 23.07.2020
5183 Clouds 27 1013 74 10000 2.6 140 14:41 23.07.2020
5184 Clouds 27 1013 74 10000 2.6 130 14:20 23.07.2020
5185 Clouds 27 1013 74 10000 2.6 150 13:59 23.07.2020
5186 Clouds 27 1014 74 10000 2.6 140 13:41 23.07.2020
5187 Clouds 27 1014 74 10000 2.6 140 13:22 23.07.2020
5188 Clouds 26 1014 69 10000 2.6 140 12:46 23.07.2020
5189 Clouds 26 1014 69 10000 3.1 160 12:23 23.07.2020
5190 Clouds 27 1014 69 10000 2.6 160 11:52 23.07.2020
5191 Clouds 27 1014 69 10000 2.6 160 11:52 23.07.2020
5192 Clouds 27 1014 65 10000 2.6 140 11:27 23.07.2020
5193 Clouds 27 1014 65 10000 2.6 140 11:27 23.07.2020
5194 Clouds 27 1014 65 10000 2.1 140 10:59 23.07.2020
5195 Clouds 26 1014 65 10000 2.1 140 10:40 23.07.2020
5196 Clouds 26 1014 65 10000 2.1 140 10:20 23.07.2020
5197 Clouds 26 1014 69 10000 1.5 120 09:49 23.07.2020
5198 Clouds 25 1014 65 10000 1.5 0 09:29 23.07.2020
5199 Clouds 25 1014 69 10000 3.1 330 08:58 23.07.2020
5200 Clouds 24 1014 73 10000 4.1 320 08:40 23.07.2020
5201 Clouds 23 1014 78 10000 3.1 340 07:58 23.07.2020
5202 Clouds 23 1014 83 10000 3.6 330 07:37 23.07.2020
5203 Clouds 23 1014 83 10000 3.6 330 07:37 23.07.2020
5204 Clouds 22 1014 88 10000 3.6 320 06:52 23.07.2020
5205 Clouds 22 1014 83 10000 2.6 320 06:33 23.07.2020
5206 Clouds 23 1014 83 10000 4.1 70 05:46 23.07.2020
5207 Clouds 22 1014 83 10000 2.1 70 04:57 23.07.2020
5208 Clouds 22 1014 83 10000 1.5 10 04:26 23.07.2020
5209 Clear 22 1014 83 10000 3.6 320 02:44 23.07.2020
5210 Clouds 23 1015 78 10000 3.6 90 00:36 23.07.2020
5211 Clouds 24 1016 83 10000 4.6 70 23:59 22.07.2020
5212 Clouds 24 1016 83 10000 5.1 80 23:39 22.07.2020
5213 Clouds 24 1016 83 10000 5.1 80 23:21 22.07.2020
5214 Clouds 24 1016 78 10000 3.6 70 22:41 22.07.2020
5215 Clouds 24 1016 78 10000 3.6 70 22:23 22.07.2020
5216 Clouds 24 1015 78 10000 1.5 80 21:56 22.07.2020
5217 Clouds 24 1015 78 10000 1.5 80 21:56 22.07.2020
5218 Clouds 24 1015 78 10000 1.5 80 21:56 22.07.2020
5219 Clouds 24 1015 78 10000 2.6 120 21:38 22.07.2020
5220 Clouds 24 1015 78 10000 2.6 120 21:18 22.07.2020
5221 Clouds 24 1016 78 10000 2.6 100 20:56 22.07.2020
5222 Clouds 24 1015 74 10000 1.5 130 20:37 22.07.2020
5223 Clouds 25 1015 74 10000 1.5 130 20:19 22.07.2020
5224 Clouds 26 1016 69 10000 1.5 0 19:46 22.07.2020
5225 Clouds 26 1016 69 10000 1.5 0 19:27 22.07.2020
5226 Clouds 25 1016 74 10000 1.5 130 18:59 22.07.2020
5227 Clouds 25 1016 74 10000 2.1 170 18:34 22.07.2020
5228 Clouds 26 1016 74 10000 2.6 180 17:57 22.07.2020
5229 Clouds 26 1017 74 10000 2.6 180 17:39 22.07.2020
5230 Clouds 26 1017 74 10000 2.6 180 17:20 22.07.2020
5231 Clouds 26 1017 74 10000 3.1 170 16:55 22.07.2020
5232 Clouds 27 1017 69 10000 3.1 170 16:37 22.07.2020
5233 Clouds 27 1017 69 10000 3.1 170 16:19 22.07.2020
5234 Clouds 27 1017 61 10000 3.1 140 15:42 22.07.2020
5235 Clouds 27 1017 61 10000 3.1 140 15:24 22.07.2020
5236 Clouds 26 1018 65 10000 3.1 130 14:56 22.07.2020
5237 Clouds 27 1017 65 10000 3.1 110 14:37 22.07.2020
5238 Clouds 27 1018 69 10000 3.6 110 14:18 22.07.2020
5239 Clouds 27 1018 65 10000 3.6 110 13:40 22.07.2020
5240 Clouds 26 1018 65 10000 3.6 110 13:22 22.07.2020
5241 Clouds 26 1018 69 10000 4.1 110 12:46 22.07.2020
5242 Clouds 26 1018 74 10000 4.1 110 12:28 22.07.2020
5243 Clouds 26 1018 69 10000 2.6 130 11:56 22.07.2020
5244 Clouds 26 1018 69 10000 3.1 130 11:38 22.07.2020
5245 Clouds 26 1018 69 10000 2.1 150 11:19 22.07.2020
5246 Clouds 26 1018 69 10000 2.1 150 10:42 22.07.2020
5247 Clouds 26 1018 69 10000 2.1 150 10:24 22.07.2020
5248 Clouds 26 1018 69 10000 1 0 09:59 22.07.2020
5249 Clouds 26 1018 69 10000 2.1 340 09:40 22.07.2020
5250 Clear 26 1018 69 10000 2.1 340 09:20 22.07.2020
5251 Clouds 25 1018 78 10000 2.6 330 08:40 22.07.2020
5252 Clouds 24 1018 78 10000 2.6 330 08:21 22.07.2020
5253 Clouds 22 1018 83 10000 3.6 320 07:37 22.07.2020
5254 Clouds 22 1018 83 10000 3.6 320 07:18 22.07.2020
5255 Clouds 21 1018 88 10000 3.6 320 06:18 22.07.2020
5256 Clouds 21 1018 83 10000 2.6 330 05:51 22.07.2020
5257 Clouds 21 1018 83 10000 3.1 320 05:26 22.07.2020
5258 Clouds 22 1018 83 10000 2.1 350 04:24 22.07.2020
5259 Clouds 22 1018 83 10000 2.1 320 02:53 22.07.2020
5260 Clear 22 1019 83 10000 1.5 340 01:44 22.07.2020
5261 Clear 23 1019 73 10000 1 70 00:33 22.07.2020
5262 Clear 23 1019 78 10000 1.1 65 23:56 21.07.2020
5263 Clear 23 1019 73 10000 1 210 23:37 21.07.2020
5264 Clear 23 1019 78 10000 2.1 210 23:18 21.07.2020
5265 Clear 23 1019 78 10000 2.1 210 22:55 21.07.2020
5266 Clear 23 1018 78 10000 2.6 210 22:37 21.07.2020
5267 Clear 24 1018 78 10000 2.6 210 22:18 21.07.2020
5268 Clear 24 1018 78 10000 2.6 210 21:55 21.07.2020
5269 Clouds 24 1018 74 10000 3.6 210 21:36 21.07.2020
5270 Clouds 24 1018 74 10000 3.6 210 21:36 21.07.2020
5271 Clouds 25 1018 74 10000 3.6 210 21:18 21.07.2020
5272 Clouds 25 1018 74 10000 3.6 190 20:43 21.07.2020
5273 Clouds 25 1018 74 10000 3.6 190 20:23 21.07.2020
5274 Clouds 26 1019 74 10000 2.1 180 19:46 21.07.2020
5275 Clouds 26 1019 65 10000 2.1 180 19:22 21.07.2020
5276 Clouds 26 1019 65 10000 2.1 190 18:56 21.07.2020
5277 Clouds 26 1019 69 10000 2.6 180 18:37 21.07.2020
5278 Clouds 26 1019 69 10000 2.6 180 18:18 21.07.2020
5279 Clouds 25 1019 78 10000 3.6 190 17:39 21.07.2020
5280 Clouds 25 1019 78 10000 3.6 190 17:21 21.07.2020
5281 Clouds 26 1019 69 10000 4.1 200 16:42 21.07.2020
5282 Clouds 26 1020 74 10000 2.1 180 16:22 21.07.2020
5283 Clouds 26 1020 74 10000 2.6 180 15:48 21.07.2020
5284 Clouds 26 1020 74 10000 3.1 140 15:28 21.07.2020
5285 Clouds 26 1020 74 10000 3.6 140 14:59 21.07.2020
5286 Clouds 26 1020 69 10000 3.1 140 14:40 21.07.2020
5287 Clouds 26 1020 69 10000 3.1 140 14:19 21.07.2020
5288 Clouds 26 1020 69 10000 3.6 100 13:43 21.07.2020
5289 Clouds 26 1020 69 10000 3.6 100 13:25 21.07.2020
5290 Clouds 26 1020 69 10000 3.1 100 12:59 21.07.2020
5291 Clouds 26 1020 69 10000 3.1 100 12:41 21.07.2020
5292 Clouds 26 1020 69 10000 3.1 100 12:20 21.07.2020
5293 Clouds 26 1020 69 10000 3.1 90 11:55 21.07.2020
5294 Clouds 26 1020 69 10000 2.6 80 11:37 21.07.2020
5295 Clouds 25 1020 65 10000 3.1 80 11:18 21.07.2020
5296 Clouds 25 1020 69 10000 2.6 60 10:42 21.07.2020
5297 Clouds 24 1020 69 10000 2.6 60 10:21 21.07.2020
5298 Clouds 24 1020 69 10000 2.1 10 09:46 21.07.2020
5299 Clouds 24 1020 69 10000 2.6 330 09:25 21.07.2020
5300 Clouds 23 1020 73 10000 3.1 330 08:47 21.07.2020
5301 Clouds 23 1019 78 10000 4.1 330 08:26 21.07.2020
5302 Clouds 22 1019 78 10000 3.6 330 07:58 21.07.2020
5303 Clouds 22 1019 83 10000 3.6 330 07:40 21.07.2020
5304 Clouds 22 1019 83 10000 3.6 330 07:21 21.07.2020
5305 Clouds 21 1019 83 10000 3.1 330 06:40 21.07.2020
5306 Clear 21 1018 83 10000 3.6 330 04:31 21.07.2020
5307 Clear 22 1019 83 10000 3.1 330 03:32 21.07.2020
5308 Clear 22 1018 83 10000 2.1 330 02:23 21.07.2020
5309 Clear 22 1018 83 10000 2.1 30 00:59 21.07.2020
5310 Clear 22 1018 83 10000 1.5 40 00:38 21.07.2020
5311 Clear 22 1018 83 10000 1.5 40 00:19 21.07.2020
5312 Clouds 22 1018 83 10000 2.1 40 23:46 20.07.2020
5313 Clouds 23 1018 83 10000 1 60 23:27 20.07.2020
5314 Clouds 23 1018 83 10000 1 60 23:27 20.07.2020
5315 Clouds 23 1018 83 10000 0.12 280 22:59 20.07.2020
5316 Clouds 23 1018 83 10000 0.12 280 22:39 20.07.2020
5317 Clouds 23 1018 83 10000 1 189 22:18 20.07.2020
5318 Clouds 24 1018 83 10000 1 170 21:45 20.07.2020
5319 Clouds 23 1018 78 10000 2.1 180 21:27 20.07.2020
5320 Clouds 24 1018 78 10000 3.1 180 20:59 20.07.2020
5321 Clouds 24 1018 78 10000 3.1 180 20:40 20.07.2020
5322 Clouds 24 1018 78 10000 3.1 180 20:19 20.07.2020
5323 Clouds 25 1017 74 10000 4.1 190 19:39 20.07.2020
5324 Clouds 25 1017 74 10000 4.1 190 19:19 20.07.2020
5325 Clouds 25 1017 78 10000 4.6 190 18:58 20.07.2020
5326 Clouds 25 1017 74 10000 4.6 190 18:40 20.07.2020
5327 Clouds 25 1017 74 10000 4.6 190 18:19 20.07.2020
5328 Clouds 26 1017 74 10000 4.6 190 17:44 20.07.2020
5329 Clouds 26 1017 69 10000 3.6 190 17:24 20.07.2020
5330 Clouds 27 1017 65 10000 3.1 180 16:49 20.07.2020
5331 Clouds 26 1018 65 10000 3.1 170 16:21 20.07.2020
5332 Clouds 26 1018 65 10000 2.6 150 15:46 20.07.2020
5333 Clouds 26 1018 65 10000 2.6 150 15:20 20.07.2020
5334 Clouds 26 1018 69 10000 2.6 150 14:56 20.07.2020
5335 Clouds 26 1018 69 10000 2.6 130 14:38 20.07.2020
5336 Clouds 26 1018 69 10000 2.6 130 14:18 20.07.2020
5337 Clouds 26 1018 69 10000 2.1 150 13:56 20.07.2020
5338 Clouds 25 1018 69 10000 2.6 150 13:38 20.07.2020
5339 Clouds 25 1018 69 10000 2.6 150 13:19 20.07.2020
5340 Clouds 25 1018 69 10000 3.1 140 12:54 20.07.2020
5341 Clouds 25 1018 74 10000 3.1 140 12:36 20.07.2020
5342 Clouds 25 1018 74 10000 3.1 140 12:18 20.07.2020
5343 Clouds 25 1017 74 10000 2.1 160 11:42 20.07.2020
5344 Clouds 25 1017 74 10000 2.1 160 11:23 20.07.2020
5345 Clouds 25 1017 74 10000 2.1 160 11:23 20.07.2020
5346 Clouds 25 1017 73 10000 2.1 190 10:58 20.07.2020
5347 Clouds 25 1017 73 10000 2.1 180 10:40 20.07.2020
5348 Clouds 24 1017 73 10000 2.1 180 10:20 20.07.2020
5349 Clouds 24 1016 73 10000 1 0 09:41 20.07.2020
5350 Clouds 24 1016 73 10000 1 0 09:22 20.07.2020
5351 Clouds 24 1016 73 10000 1 0 08:49 20.07.2020
5352 Clouds 24 1016 73 10000 1 0 08:49 20.07.2020
5353 Clouds 23 1016 78 10000 1.5 0 08:26 20.07.2020
5354 Clouds 22 1016 83 10000 2.1 320 07:56 20.07.2020
5355 Clouds 22 1016 83 10000 2.1 320 07:37 20.07.2020
5356 Clouds 21 1016 83 10000 3.1 320 07:18 20.07.2020
5357 Clouds 21 1016 83 10000 2.1 320 06:38 20.07.2020
5358 Clouds 22 1016 83 10000 1.5 320 03:53 20.07.2020
5359 Clouds 21 1016 83 10000 0.53 216 01:33 20.07.2020
5360 Clouds 22 1016 78 10000 0.53 216 00:47 20.07.2020
5361 Clouds 22 1015 78 10000 1.5 210 23:54 19.07.2020
5362 Clouds 22 1015 78 10000 1.5 230 23:36 19.07.2020
5363 Clouds 22 1015 78 10000 1.5 230 23:18 19.07.2020
5364 Clouds 23 1015 78 10000 2.6 200 22:42 19.07.2020
5365 Clouds 23 1015 78 10000 2.6 200 22:20 19.07.2020
5366 Clouds 23 1015 78 10000 2.6 210 21:55 19.07.2020
5367 Clouds 23 1015 73 10000 3.1 210 21:37 19.07.2020
5368 Clouds 23 1015 73 10000 3.1 210 21:19 19.07.2020
5369 Clouds 24 1015 73 10000 4.1 200 20:44 19.07.2020
5370 Clouds 24 1015 73 10000 4.1 200 20:25 19.07.2020
5371 Clouds 24 1015 73 10000 4.1 200 19:59 19.07.2020
5372 Clouds 24 1015 78 10000 4.1 200 19:39 19.07.2020
5373 Clouds 24 1015 78 10000 4.1 200 19:20 19.07.2020
5374 Clouds 25 1015 69 10000 4.6 200 18:58 19.07.2020
5375 Clouds 25 1015 74 10000 3.6 190 18:39 19.07.2020
5376 Clouds 25 1015 74 10000 3.6 190 18:21 19.07.2020
5377 Clouds 25 1015 69 10000 3.1 170 17:42 19.07.2020
5378 Clouds 25 1015 69 10000 3.1 160 17:24 19.07.2020
5379 Clouds 26 1015 69 10000 3.1 170 16:54 19.07.2020
5380 Clouds 26 1015 65 10000 3.1 180 16:36 19.07.2020
5381 Clouds 26 1015 65 10000 3.1 180 16:18 19.07.2020
5382 Clouds 26 1015 65 10000 3.1 170 15:43 19.07.2020
5383 Clouds 26 1015 69 10000 3.6 160 15:23 19.07.2020
5384 Clouds 26 1016 69 10000 3.6 170 14:47 19.07.2020
5385 Clouds 26 1016 69 10000 3.1 180 14:26 19.07.2020
5386 Clouds 26 1016 69 10000 3.1 170 13:56 19.07.2020
5387 Clouds 25 1016 74 10000 3.1 160 13:38 19.07.2020
5388 Clouds 25 1016 74 10000 3.1 160 13:19 19.07.2020
5389 Clouds 25 1016 74 10000 3.1 130 12:42 19.07.2020
5390 Clouds 25 1016 74 10000 3.1 130 12:24 19.07.2020
5391 Clouds 25 1015 74 10000 2.6 120 11:43 19.07.2020
5392 Clouds 25 1015 69 10000 2.6 110 11:25 19.07.2020
5393 Clouds 24 1015 73 10000 2.6 90 10:56 19.07.2020
5394 Clouds 24 1015 73 10000 1 0 10:38 19.07.2020
5395 Clouds 24 1015 73 10000 1 0 10:20 19.07.2020
5396 Clouds 24 1015 69 10000 1 0 09:44 19.07.2020
5397 Clouds 24 1015 69 10000 1.5 0 09:21 19.07.2020
5398 Clouds 24 1015 69 10000 2.1 340 08:47 19.07.2020
5399 Clouds 24 1015 69 10000 2.1 340 08:47 19.07.2020
5400 Clouds 23 1015 73 10000 2.1 30 08:25 19.07.2020
5401 Clouds 23 1015 73 10000 2.1 330 07:45 19.07.2020
5402 Clouds 23 1014 73 10000 1.5 10 07:25 19.07.2020
5403 Clouds 22 1014 73 10000 2.6 330 06:48 19.07.2020
5404 Clouds 22 1014 73 10000 2.6 330 06:21 19.07.2020
5405 Clouds 22 1014 73 10000 2.6 330 05:51 19.07.2020
5406 Clouds 23 1014 73 10000 3.6 330 04:44 19.07.2020
5407 Clouds 21 1015 78 10000 3.1 330 02:46 19.07.2020
5408 Clouds 22 1015 78 10000 3.6 330 02:23 19.07.2020
5409 Clouds 22 1015 78 10000 4.1 330 01:44 19.07.2020
5410 Clouds 22 1015 83 10000 3.1 330 00:53 19.07.2020
5411 Clouds 22 1015 83 10000 4.1 330 00:23 19.07.2020
5412 Clouds 22 1015 83 10000 4.6 320 23:55 18.07.2020
5413 Clouds 22 1015 83 10000 3.1 320 23:36 18.07.2020
5414 Clouds 22 1015 83 10000 3.1 320 23:18 18.07.2020
5415 Clouds 22 1014 83 10000 2.6 340 22:40 18.07.2020
5416 Clouds 22 1014 83 10000 2.6 340 22:19 18.07.2020
5417 Clouds 23 1014 83 10000 1 0 21:47 18.07.2020
5418 Clouds 22 1014 83 10000 1 0 21:28 18.07.2020
5419 Rain 22 1014 78 10000 0.5 70 20:58 18.07.2020
5420 Rain 23 1013 78 10000 1 0 20:40 18.07.2020
5421 Rain 23 1013 78 10000 1 0 20:20 18.07.2020
5422 Clouds 23 1013 73 10000 2.1 90 19:41 18.07.2020
5423 Clouds 23 1013 73 10000 1.5 0 19:21 18.07.2020
5424 Clouds 23 1013 69 10000 2.6 110 18:46 18.07.2020
5425 Clouds 23 1014 69 10000 1.5 110 18:22 18.07.2020
5426 Clouds 24 1014 69 10000 2.1 120 17:54 18.07.2020
5427 Clouds 24 1014 65 10000 1.5 100 17:36 18.07.2020
5428 Clouds 24 1014 65 10000 1.5 100 17:18 18.07.2020
5429 Clouds 24 1014 69 10000 2.1 130 16:41 18.07.2020
5430 Clouds 24 1014 69 10000 2.1 130 16:21 18.07.2020
5431 Clouds 24 1014 65 10000 3.1 110 15:47 18.07.2020
5432 Clouds 24 1014 69 10000 2.6 130 15:29 18.07.2020
5433 Clouds 24 1014 69 10000 3.6 120 14:58 18.07.2020
5434 Clouds 24 1014 69 10000 3.6 120 14:39 18.07.2020
5435 Clouds 24 1014 69 10000 3.6 120 14:21 18.07.2020
5436 Clouds 25 1014 69 10000 3.6 120 13:45 18.07.2020
5437 Clouds 25 1014 69 10000 2.6 130 13:27 18.07.2020
5438 Clouds 25 1014 69 10000 2.6 130 12:58 18.07.2020
5439 Clouds 25 1014 69 10000 2.1 160 12:40 18.07.2020
5440 Clouds 25 1014 69 10000 2.1 160 12:19 18.07.2020
5441 Clouds 25 1014 69 10000 2.1 170 11:58 18.07.2020
5442 Clouds 25 1014 69 10000 1.5 110 11:39 18.07.2020
5443 Clouds 25 1014 69 10000 1.5 110 11:19 18.07.2020
5444 Clouds 25 1014 69 10000 1.5 0 10:47 18.07.2020
5445 Clouds 24 1014 69 10000 2.1 90 10:27 18.07.2020
5446 Clouds 23 1014 73 10000 3.1 90 09:56 18.07.2020
5447 Clouds 23 1014 69 10000 2.1 340 09:37 18.07.2020
5448 Clouds 23 1014 69 10000 2.1 340 09:19 18.07.2020
5449 Clouds 22 1013 69 10000 2.1 320 08:44 18.07.2020
5450 Clouds 22 1013 73 10000 2.1 340 08:24 18.07.2020
5451 Clouds 21 1013 69 10000 1.5 0 07:44 18.07.2020
5452 Clouds 21 1013 69 10000 1.5 0 07:23 18.07.2020
5453 Clouds 21 1013 69 10000 2.1 340 06:52 18.07.2020
5454 Clouds 21 1013 69 10000 2.1 340 06:52 18.07.2020
5455 Clouds 21 1012 73 10000 2.6 320 05:26 18.07.2020
5456 Clouds 21 1013 73 10000 1.5 340 04:29 18.07.2020
5457 Clouds 22 1013 73 10000 1.5 50 02:39 18.07.2020
5458 Clouds 22 1013 73 10000 1.5 50 02:39 18.07.2020
5459 Clouds 22 1013 69 10000 0.46 333 01:27 18.07.2020
5460 Clouds 23 1013 73 10000 1.5 260 00:41 18.07.2020
5461 Clouds 23 1013 73 10000 1.5 260 00:22 18.07.2020
5462 Clouds 24 1013 69 10000 2.6 210 23:40 17.07.2020
5463 Clouds 24 1013 69 10000 2.6 210 23:20 17.07.2020
5464 Clouds 24 1013 69 10000 2.6 210 22:59 17.07.2020
5465 Clouds 24 1012 69 10000 2.6 200 22:39 17.07.2020
5466 Clouds 24 1012 69 10000 2.6 200 22:18 17.07.2020
5467 Clouds 24 1012 65 10000 2.1 230 21:42 17.07.2020
5468 Clouds 24 1012 65 10000 2.1 230 21:23 17.07.2020
5469 Clouds 24 1012 65 10000 2.1 210 20:59 17.07.2020
5470 Clouds 24 1012 69 10000 2.1 190 20:39 17.07.2020
5471 Clouds 24 1012 69 10000 2.1 190 20:21 17.07.2020
5472 Rain 24 1012 69 10000 1.5 0 19:45 17.07.2020
5473 Clouds 24 1012 69 10000 1 140 19:26 17.07.2020
5474 Clouds 24 1012 69 10000 1 0 18:57 17.07.2020
5475 Clouds 24 1012 69 10000 1 0 18:38 17.07.2020
5476 Clouds 24 1012 69 10000 1 0 18:20 17.07.2020
5477 Clouds 25 1012 69 10000 1.5 0 17:42 17.07.2020
5478 Clouds 24 1012 69 10000 2.1 130 17:24 17.07.2020
5479 Clouds 24 1012 73 10000 2.1 130 16:44 17.07.2020
5480 Clouds 25 1012 73 10000 2.1 140 16:23 17.07.2020
5481 Clouds 25 1012 65 10000 2.1 140 15:56 17.07.2020
5482 Clouds 25 1012 65 10000 3.6 120 15:37 17.07.2020
5483 Clouds 25 1012 65 10000 3.6 120 15:18 17.07.2020
5484 Clouds 25 1012 65 10000 3.6 120 14:39 17.07.2020
5485 Clouds 25 1012 65 10000 3.6 120 14:21 17.07.2020
5486 Clouds 24 1012 65 10000 4.6 120 13:55 17.07.2020
5487 Clouds 24 1012 65 10000 5.1 120 13:36 17.07.2020
5488 Clouds 25 1012 65 10000 5.1 120 13:18 17.07.2020
5489 Clouds 24 1012 69 10000 5.1 110 12:38 17.07.2020
5490 Clouds 24 1012 69 10000 5.1 110 12:20 17.07.2020
5491 Clouds 25 1012 69 10000 4.6 110 11:54 17.07.2020
5492 Clouds 25 1012 65 10000 4.6 100 11:36 17.07.2020
5493 Clouds 25 1012 65 10000 4.6 100 11:18 17.07.2020
5494 Clouds 24 1012 69 10000 3.1 100 10:41 17.07.2020
5495 Clouds 24 1012 69 10000 2.6 100 10:23 17.07.2020
5496 Clouds 24 1012 69 10000 2.1 70 09:58 17.07.2020
5497 Clouds 24 1012 69 10000 2.1 70 09:40 17.07.2020
5498 Clouds 24 1012 69 10000 2.1 70 09:20 17.07.2020
5499 Clouds 23 1012 69 10000 2.1 320 08:48 17.07.2020
5500 Clouds 23 1012 69 10000 3.1 330 08:29 17.07.2020
5501 Clouds 22 1012 73 10000 3.1 330 07:56 17.07.2020
5502 Clouds 21 1011 77 10000 2.1 330 07:36 17.07.2020
5503 Clouds 20 1011 77 10000 2.1 330 07:18 17.07.2020
5504 Clouds 20 1012 77 10000 2.6 320 06:38 17.07.2020
5505 Clouds 20 1012 78 10000 2.1 10 05:47 17.07.2020
5506 Clear 21 1012 78 10000 2.6 20 03:41 17.07.2020
5507 Clouds 21 1012 78 10000 2.6 330 02:22 17.07.2020
5508 Clouds 22 1013 73 10000 2.6 320 00:57 17.07.2020
5509 Clouds 22 1013 73 10000 2.6 320 00:38 17.07.2020
5510 Clouds 22 1013 73 10000 2.6 320 00:20 17.07.2020
5511 Clouds 22 1013 69 10000 2.1 320 23:42 16.07.2020
5512 Clouds 23 1013 69 10000 2.1 320 23:19 16.07.2020
5513 Clouds 23 1013 69 10000 1.5 280 22:46 16.07.2020
5514 Clouds 23 1013 69 10000 1.5 250 22:25 16.07.2020
5515 Clouds 23 1013 65 10000 2.6 230 21:57 16.07.2020
5516 Clouds 23 1013 65 10000 2.6 220 21:39 16.07.2020
5517 Clouds 23 1013 65 10000 2.6 220 21:21 16.07.2020
5518 Clouds 24 1013 65 10000 3.6 220 20:59 16.07.2020
5519 Clouds 24 1013 65 10000 3.6 220 20:41 16.07.2020
5520 Clouds 24 1013 65 10000 3.6 220 20:21 16.07.2020
5521 Clouds 25 1013 65 10000 3.6 220 19:57 16.07.2020
5522 Clouds 25 1013 69 10000 3.6 210 19:39 16.07.2020
5523 Clouds 25 1013 69 10000 3.6 210 19:21 16.07.2020
5524 Clouds 25 1013 69 10000 2.6 190 18:42 16.07.2020
5525 Clouds 25 1013 69 10000 2.6 190 18:23 16.07.2020
5526 Clouds 25 1013 69 10000 2.6 170 17:55 16.07.2020
5527 Clouds 25 1013 69 10000 3.1 150 17:36 16.07.2020
5528 Clouds 25 1013 69 10000 3.1 150 17:18 16.07.2020
5529 Clouds 26 1014 69 10000 2.6 140 16:42 16.07.2020
5530 Clouds 25 1014 69 10000 3.6 110 16:22 16.07.2020
5531 Clouds 25 1014 69 10000 3.1 140 15:59 16.07.2020
5532 Clouds 25 1014 69 10000 3.1 130 15:40 16.07.2020
5533 Clouds 25 1014 69 10000 3.1 130 15:22 16.07.2020
5534 Clouds 25 1014 69 10000 3.6 130 14:55 16.07.2020
5535 Clouds 25 1014 69 10000 3.1 160 14:36 16.07.2020
5536 Clouds 25 1014 69 10000 3.1 160 14:18 16.07.2020
5537 Clouds 25 1015 61 10000 3.6 150 13:39 16.07.2020
5538 Clouds 25 1015 61 10000 3.6 150 13:20 16.07.2020
5539 Clouds 25 1015 61 10000 3.6 150 12:55 16.07.2020
5540 Clouds 25 1014 57 10000 3.1 140 12:37 16.07.2020
5541 Clouds 25 1014 57 10000 3.1 140 12:18 16.07.2020
5542 Clouds 25 1014 57 10000 3.1 140 12:18 16.07.2020
5543 Clouds 25 1014 57 10000 2.6 190 11:38 16.07.2020
5544 Clouds 25 1014 57 10000 2.6 190 11:19 16.07.2020
5545 Clouds 26 1014 57 10000 2.6 200 10:57 16.07.2020
5546 Clouds 26 1014 54 10000 1.5 320 10:38 16.07.2020
5547 Clouds 25 1014 54 10000 1.5 320 10:18 16.07.2020
5548 Clouds 25 1014 53 10000 3.6 330 09:48 16.07.2020
5549 Clouds 24 1014 60 10000 3.6 340 09:28 16.07.2020
5550 Clouds 23 1014 60 10000 4.1 330 08:45 16.07.2020
5551 Clouds 22 1014 64 10000 3.6 330 08:27 16.07.2020
5552 Clouds 21 1014 68 10000 4.1 340 07:59 16.07.2020
5553 Clouds 20 1014 68 10000 4.1 340 07:41 16.07.2020
5554 Clouds 19 1014 72 10000 3.6 340 07:21 16.07.2020
5555 Clouds 19 1014 72 10000 3.6 340 06:46 16.07.2020
5556 Clouds 19 1014 72 10000 3.6 340 06:20 16.07.2020
5557 Clouds 19 1014 72 10000 3.6 330 05:44 16.07.2020
5558 Clouds 19 1013 72 10000 3.6 330 05:18 16.07.2020
5559 Clouds 20 1013 73 10000 2.6 340 03:54 16.07.2020
5560 Clouds 20 1013 73 10000 3.6 330 03:35 16.07.2020
5561 Clouds 20 1014 73 10000 3.1 330 02:35 16.07.2020
5562 Clouds 20 1014 73 10000 3.6 330 01:54 16.07.2020
5563 Clouds 20 1014 73 10000 3.1 330 01:28 16.07.2020
5564 Clouds 21 1013 73 10000 3.1 320 00:45 16.07.2020
5565 Clouds 21 1013 73 10000 2.6 330 00:25 16.07.2020
5566 Clouds 21 1013 73 10000 3.1 330 23:57 15.07.2020
5567 Clouds 21 1013 64 10000 2.6 330 23:37 15.07.2020
5568 Clouds 21 1013 64 10000 2.6 330 23:19 15.07.2020
5569 Clouds 22 1013 64 10000 2.6 50 22:40 15.07.2020
5570 Clouds 22 1013 69 10000 4.1 90 22:20 15.07.2020
5571 Clouds 23 1012 73 10000 4.6 90 21:59 15.07.2020
5572 Clouds 23 1012 73 10000 5.1 80 21:41 15.07.2020
5573 Clouds 23 1012 73 10000 5.1 80 21:23 15.07.2020
5574 Clouds 23 1012 65 10000 5.1 80 20:59 15.07.2020
5575 Clouds 23 1012 64 10000 5.1 90 20:39 15.07.2020
5576 Clouds 23 1012 64 10000 5.1 90 20:20 15.07.2020
5577 Clouds 23 1012 65 10000 4.6 100 19:58 15.07.2020
5578 Clouds 24 1012 61 10000 4.1 100 19:39 15.07.2020
5579 Clouds 24 1012 61 10000 4.1 100 19:20 15.07.2020
5580 Clouds 24 1012 57 10000 4.6 110 18:58 15.07.2020
5581 Clouds 24 1012 54 10000 2.1 90 18:39 15.07.2020
5582 Clouds 24 1012 54 10000 2.1 90 18:20 15.07.2020
5583 Clouds 24 1012 57 10000 2.1 100 17:55 15.07.2020
5584 Clouds 24 1012 65 10000 3.1 80 17:36 15.07.2020
5585 Clouds 24 1012 65 10000 3.1 80 17:18 15.07.2020
5586 Clouds 24 1012 65 10000 2.6 90 16:41 15.07.2020
5587 Clouds 24 1013 69 10000 2.6 160 16:23 15.07.2020
5588 Clouds 24 1013 73 10000 3.6 190 15:58 15.07.2020
5589 Rain 24 1013 73 10000 3.6 200 15:39 15.07.2020
5590 Rain 24 1013 73 10000 3.6 200 15:21 15.07.2020
5591 Rain 24 1013 73 10000 3.6 200 14:54 15.07.2020
5592 Thunderstorm 24 1013 69 10000 4.6 180 14:36 15.07.2020
5593 Thunderstorm 24 1013 69 10000 4.6 180 14:18 15.07.2020
5594 Clouds 25 1013 61 10000 4.1 180 13:42 15.07.2020
5595 Clouds 25 1013 61 10000 4.1 180 13:21 15.07.2020
5596 Clouds 25 1013 57 10000 3.6 160 12:42 15.07.2020
5597 Clouds 25 1013 54 10000 3.1 160 12:22 15.07.2020
5598 Clouds 25 1013 50 10000 3.1 160 11:59 15.07.2020
5599 Clouds 25 1013 47 10000 2.6 180 11:40 15.07.2020
5600 Clouds 24 1013 47 10000 2.6 180 11:20 15.07.2020
5601 Clouds 25 1013 47 10000 1 0 10:56 15.07.2020
5602 Clouds 24 1013 50 10000 3.1 320 10:38 15.07.2020
5603 Clouds 25 1013 50 10000 3.1 320 10:20 15.07.2020
5604 Clear 24 1013 53 10000 4.6 320 09:43 15.07.2020
5605 Clear 23 1013 56 10000 4.6 330 09:25 15.07.2020
5606 Clear 22 1013 60 10000 4.1 330 08:49 15.07.2020
5607 Clouds 21 1013 60 10000 4.6 330 08:28 15.07.2020
5608 Clouds 21 1013 68 10000 5.7 330 07:55 15.07.2020
5609 Clouds 21 1013 68 10000 4.1 340 07:33 15.07.2020
5610 Clouds 20 1013 68 10000 4.1 330 06:55 15.07.2020
5611 Clouds 20 1013 68 10000 3.6 330 06:34 15.07.2020
5612 Clouds 20 1013 68 10000 4.6 330 05:52 15.07.2020
5613 Clouds 19 1012 72 10000 3.1 330 04:52 15.07.2020
5614 Clouds 20 1012 72 10000 2.6 330 04:24 15.07.2020
5615 Clouds 20 1013 72 10000 4.6 330 02:31 15.07.2020
5616 Clouds 20 1013 68 10000 4.1 330 01:52 15.07.2020
5617 Clouds 20 1013 68 10000 4.1 330 01:23 15.07.2020
5618 Clouds 20 1014 68 10000 4.6 330 00:42 15.07.2020
5619 Clouds 20 1014 68 10000 4.6 320 00:22 15.07.2020
5620 Clouds 20 1013 68 10000 5.1 330 23:42 14.07.2020
5621 Clouds 20 1013 73 10000 4.6 330 23:23 14.07.2020
5622 Clouds 21 1013 68 10000 4.6 330 22:40 14.07.2020
5623 Clouds 21 1013 68 10000 4.6 330 22:19 14.07.2020
5624 Clouds 21 1013 68 10000 4.1 330 21:56 14.07.2020
5625 Clouds 21 1013 68 10000 4.1 330 21:56 14.07.2020
5626 Clouds 21 1013 68 10000 3.6 350 21:38 14.07.2020
5627 Clouds 21 1013 68 10000 3.6 350 21:19 14.07.2020
5628 Clouds 21 1013 73 10000 4.1 350 20:57 14.07.2020
5629 Clouds 21 1013 73 10000 4.1 340 20:38 14.07.2020
5630 Clouds 21 1013 73 10000 4.1 340 20:19 14.07.2020
5631 Rain 22 1013 64 10000 7.7 340 19:40 14.07.2020
5632 Rain 21 1013 64 10000 7.7 340 19:22 14.07.2020
5633 Rain 23 1013 50 10000 1.5 220 18:55 14.07.2020
5634 Clouds 25 1014 50 10000 2.6 160 18:37 14.07.2020
5635 Clouds 25 1014 50 10000 2.6 160 18:19 14.07.2020
5636 Clouds 25 1014 50 10000 2.1 130 17:41 14.07.2020
5637 Clouds 25 1014 50 10000 2.1 130 17:23 14.07.2020
5638 Clouds 25 1014 47 10000 1.5 120 16:57 14.07.2020
5639 Clouds 25 1014 47 10000 2.1 120 16:39 14.07.2020
5640 Clouds 25 1014 47 10000 2.1 120 16:21 14.07.2020
5641 Clouds 25 1014 47 10000 2.1 130 15:56 14.07.2020
5642 Clouds 25 1014 47 10000 2.6 130 15:38 14.07.2020
5643 Clouds 25 1014 47 10000 2.6 130 15:19 14.07.2020
5644 Clouds 25 1014 50 10000 2.6 150 14:44 14.07.2020
5645 Clouds 25 1015 50 10000 2.6 130 14:25 14.07.2020
5646 Clouds 25 1015 44 10000 3.1 120 13:54 14.07.2020
5647 Clouds 25 1015 51 10000 3.6 120 13:36 14.07.2020
5648 Clouds 25 1015 51 10000 3.6 120 13:18 14.07.2020
5649 Clouds 25 1015 54 10000 3.1 120 12:39 14.07.2020
5650 Clouds 25 1015 54 10000 3.1 120 12:20 14.07.2020
5651 Clouds 25 1015 54 10000 3.6 100 11:49 14.07.2020
5652 Clouds 25 1015 54 10000 3.1 110 11:25 14.07.2020
5653 Clouds 25 1015 54 10000 3.6 100 10:59 14.07.2020
5654 Clouds 24 1015 61 10000 3.6 100 10:40 14.07.2020
5655 Clouds 24 1015 61 10000 3.6 100 10:21 14.07.2020
5656 Clouds 24 1015 65 10000 4.6 90 09:41 14.07.2020
5657 Clouds 23 1015 65 10000 4.6 90 09:22 14.07.2020
5658 Clouds 23 1015 69 10000 4.6 90 08:58 14.07.2020
5659 Clouds 23 1015 64 10000 2.6 330 08:39 14.07.2020
5660 Clouds 23 1015 64 10000 2.6 330 08:20 14.07.2020
5661 Clouds 22 1015 73 10000 2.6 340 07:45 14.07.2020
5662 Clouds 21 1015 73 10000 2.6 340 07:19 14.07.2020
5663 Clouds 21 1014 73 10000 3.1 340 06:58 14.07.2020
5664 Clouds 21 1014 73 10000 3.1 340 06:27 14.07.2020
5665 Clouds 22 1014 73 10000 2.6 330 05:50 14.07.2020
5666 Clouds 22 1015 78 10000 3.6 340 04:54 14.07.2020
5667 Clouds 22 1015 78 10000 4.1 340 04:33 14.07.2020
5668 Clouds 21 1015 78 10000 3.6 340 03:31 14.07.2020
5669 Clouds 22 1015 78 10000 3.1 340 02:30 14.07.2020
5670 Clouds 22 1015 83 10000 5.1 330 01:45 14.07.2020
5671 Clouds 22 1015 83 10000 4.6 320 01:23 14.07.2020
5672 Clouds 22 1016 83 10000 3.6 330 00:43 14.07.2020
5673 Clouds 22 1016 83 10000 3.1 330 00:25 14.07.2020
5674 Clouds 22 1016 83 10000 3.6 330 23:39 13.07.2020
5675 Clouds 22 1016 83 10000 3.6 330 23:20 13.07.2020
5676 Rain 22 1016 83 10000 2.6 320 22:58 13.07.2020
5677 Rain 22 1016 73 10000 4.6 330 22:39 13.07.2020
5678 Rain 22 1016 73 10000 4.6 330 22:20 13.07.2020
5679 Clouds 24 1015 69 10000 4.1 320 21:55 13.07.2020
5680 Clouds 23 1015 65 10000 3.6 320 21:37 13.07.2020
5681 Clouds 23 1015 65 10000 3.6 320 21:19 13.07.2020
5682 Clouds 24 1015 69 10000 4.6 320 20:56 13.07.2020
5683 Clouds 24 1015 65 10000 3.6 330 20:37 13.07.2020
5684 Clouds 24 1015 65 10000 3.6 330 20:19 13.07.2020
5685 Clouds 24 1016 61 10000 2.6 230 19:43 13.07.2020
5686 Clouds 24 1016 61 10000 2.6 230 19:25 13.07.2020
5687 Clouds 25 1016 57 10000 2.6 60 18:57 13.07.2020
5688 Clouds 25 1016 57 10000 2.6 60 18:39 13.07.2020
5689 Clouds 25 1016 57 10000 2.6 60 18:20 13.07.2020
5690 Clouds 25 1016 61 10000 3.6 60 17:56 13.07.2020
5691 Clouds 24 1017 61 10000 3.1 30 17:37 13.07.2020
5692 Clouds 24 1017 61 10000 3.1 30 17:19 13.07.2020
5693 Rain 25 1017 61 10000 2.6 360 16:55 13.07.2020
5694 Rain 24 1018 69 10000 3.1 320 16:36 13.07.2020
5695 Rain 24 1018 69 10000 3.1 320 16:18 13.07.2020
5696 Clouds 23 1018 60 10000 2.1 310 15:55 13.07.2020
5697 Clouds 23 1018 61 10000 2.1 320 15:37 13.07.2020
5698 Clouds 24 1018 61 10000 2.1 320 15:18 13.07.2020
5699 Rain 25 1018 60 10000 1.5 100 14:55 13.07.2020
5700 Rain 24 1018 57 10000 3.1 70 14:36 13.07.2020
5701 Rain 24 1018 57 10000 3.1 70 14:18 13.07.2020
5702 Clouds 24 1019 61 10000 2.6 80 13:41 13.07.2020
5703 Rain 23 1019 61 10000 4.6 70 13:21 13.07.2020
5704 Rain 24 1018 57 10000 5.1 100 12:54 13.07.2020
5705 Clouds 24 1018 61 10000 7.2 110 12:36 13.07.2020
5706 Clouds 24 1018 61 10000 7.2 110 12:18 13.07.2020
5707 Clouds 25 1018 54 10000 6.7 110 11:40 13.07.2020
5708 Clouds 25 1018 54 10000 6.7 110 11:22 13.07.2020
5709 Clouds 25 1018 54 10000 6.7 110 11:22 13.07.2020
5710 Clouds 25 1018 61 10000 3.1 110 10:43 13.07.2020
5711 Clouds 26 1018 61 10000 3.1 110 10:21 13.07.2020
5712 Clouds 25 1018 65 10000 2.1 140 09:57 13.07.2020
5713 Clouds 24 1018 61 10000 1 0 09:38 13.07.2020
5714 Clouds 26 1018 61 10000 1 0 09:20 13.07.2020
5715 Clouds 25 1018 57 10000 2.6 330 08:47 13.07.2020
5716 Rain 25 1018 61 10000 2.6 330 08:28 13.07.2020
5717 Clouds 24 1018 60 10000 4.1 320 07:25 13.07.2020
5718 Clouds 24 1017 60 10000 4.1 320 06:53 13.07.2020
5719 Clouds 23 1017 60 10000 4.6 320 06:35 13.07.2020
5720 Clouds 23 1017 60 10000 4.6 320 05:35 13.07.2020
5721 Clouds 24 1017 57 10000 1.5 310 04:25 13.07.2020
5722 Clouds 25 1018 54 10000 2.6 340 01:46 13.07.2020
5723 Clouds 25 1018 54 10000 4.1 350 01:24 13.07.2020
5724 Clouds 25 1018 50 10000 4.6 10 00:46 13.07.2020
5725 Clouds 25 1017 50 10000 3.6 340 00:24 13.07.2020
5726 Clouds 26 1017 47 10000 2.6 340 23:46 12.07.2020
5727 Clouds 26 1017 51 10000 3.1 340 23:23 12.07.2020
5728 Clouds 26 1017 51 10000 4.1 330 22:59 12.07.2020
5729 Clouds 26 1017 48 10000 3.6 320 22:37 12.07.2020
5730 Clouds 26 1017 48 10000 3.6 320 22:19 12.07.2020
5731 Clouds 27 1017 48 10000 2.6 330 21:57 12.07.2020
5732 Clouds 26 1017 48 10000 2.6 330 21:57 12.07.2020
5733 Clouds 26 1017 54 10000 2.6 250 21:39 12.07.2020
5734 Clouds 26 1017 54 10000 2.6 250 21:20 12.07.2020
5735 Clouds 26 1017 54 10000 1.5 0 20:58 12.07.2020
5736 Clouds 26 1017 57 10000 1.5 200 20:39 12.07.2020
5737 Clouds 26 1017 57 10000 1.5 200 20:19 12.07.2020
5738 Clouds 27 1017 51 10000 2.1 210 19:54 12.07.2020
5739 Clouds 27 1017 54 10000 1.5 180 19:36 12.07.2020
5740 Clouds 28 1017 54 10000 1.5 180 19:18 12.07.2020
5741 Clouds 27 1017 48 10000 1 0 18:40 12.07.2020
5742 Clouds 28 1017 45 10000 1.5 0 18:19 12.07.2020
5743 Clouds 28 1018 54 10000 1 0 17:57 12.07.2020
5744 Clouds 27 1018 61 10000 2.6 220 17:36 12.07.2020
5745 Clouds 27 1018 61 10000 2.6 220 17:18 12.07.2020
5746 Clouds 28 1018 58 10000 3.1 200 16:42 12.07.2020
5747 Clouds 28 1018 58 10000 3.6 200 16:20 12.07.2020
5748 Clouds 28 1018 58 10000 3.6 190 15:43 12.07.2020
5749 Clouds 28 1017 58 10000 2.1 180 15:24 12.07.2020
5750 Clouds 28 1017 61 10000 3.1 150 14:45 12.07.2020
5751 Clouds 28 1018 61 10000 3.1 170 14:27 12.07.2020
5752 Clouds 27 1017 65 10000 3.6 180 13:57 12.07.2020
5753 Clouds 27 1017 69 10000 4.1 200 13:39 12.07.2020
5754 Clouds 27 1017 69 10000 4.1 200 13:20 12.07.2020
5755 Clouds 27 1017 74 10000 5.1 200 12:54 12.07.2020
5756 Clouds 26 1017 74 10000 5.7 190 12:36 12.07.2020
5757 Clouds 26 1017 74 10000 5.7 190 12:18 12.07.2020
5758 Clouds 27 1017 78 10000 5.1 190 11:42 12.07.2020
5759 Clouds 27 1017 69 10000 4.1 200 11:19 12.07.2020
5760 Clouds 26 1017 69 10000 1.5 0 10:42 12.07.2020
5761 Clouds 26 1017 69 10000 1.5 0 10:42 12.07.2020
5762 Clouds 26 1017 69 10000 1.5 0 10:22 12.07.2020
5763 Clouds 26 1017 69 10000 1 0 09:55 12.07.2020
5764 Clouds 25 1017 69 10000 1 0 09:37 12.07.2020
5765 Clouds 25 1017 69 10000 1 0 09:18 12.07.2020
5766 Clouds 25 1016 69 10000 1.5 40 08:42 12.07.2020
5767 Clouds 24 1016 73 10000 1 0 08:23 12.07.2020
5768 Clouds 23 1016 78 10000 2.1 330 07:57 12.07.2020
5769 Clouds 23 1016 78 10000 1.5 310 07:37 12.07.2020
5770 Clouds 22 1016 78 10000 1.5 310 07:18 12.07.2020
5771 Clouds 22 1015 83 10000 1 0 06:49 12.07.2020
5772 Clouds 22 1015 83 10000 1.5 340 06:20 12.07.2020
5773 Clouds 22 1015 83 10000 1.5 340 06:20 12.07.2020
5774 Clouds 23 1015 78 10000 3.1 80 05:23 12.07.2020
5775 Clouds 23 1015 78 10000 3.6 90 04:44 12.07.2020
5776 Clouds 23 1015 83 10000 5.1 90 04:24 12.07.2020
5777 Clouds 24 1015 78 10000 6.2 90 03:34 12.07.2020
5778 Clouds 24 1015 83 10000 6.7 90 02:47 12.07.2020
5779 Clouds 23 1015 83 10000 6.7 90 01:44 12.07.2020
5780 Clouds 23 1015 83 10000 5.7 90 00:49 12.07.2020
5781 Clouds 23 1015 83 10000 6.7 90 00:23 12.07.2020
5782 Clouds 23 1015 83 10000 6.7 90 23:57 11.07.2020
5783 Clouds 23 1015 83 10000 6.7 90 23:57 11.07.2020
5784 Clouds 23 1014 83 10000 7.2 90 23:38 11.07.2020
5785 Clouds 23 1014 83 10000 7.2 90 23:19 11.07.2020
5786 Clouds 24 1014 78 10000 7.7 90 22:46 11.07.2020
5787 Clouds 24 1014 78 10000 7.2 100 22:26 11.07.2020
5788 Clouds 24 1013 78 10000 8.2 90 21:59 11.07.2020
5789 Clouds 24 1013 78 10000 7.7 90 21:40 11.07.2020
5790 Clouds 24 1013 78 10000 7.7 90 21:22 11.07.2020
5791 Clouds 24 1013 83 10000 8.2 90 20:56 11.07.2020
5792 Clouds 24 1013 78 10000 9.3 90 20:38 11.07.2020
5793 Clouds 24 1013 78 10000 9.3 90 20:20 11.07.2020
5794 Clouds 24 1012 78 10000 7.2 90 19:57 11.07.2020
5795 Clouds 24 1012 78 10000 7.2 90 19:39 11.07.2020
5796 Clouds 24 1012 78 10000 7.2 90 19:20 11.07.2020
5797 Clouds 25 1012 69 10000 6.7 90 18:55 11.07.2020
5798 Clouds 25 1013 69 10000 6.2 100 18:37 11.07.2020
5799 Clouds 25 1013 69 10000 6.2 100 18:18 11.07.2020
5800 Clouds 25 1013 69 10000 5.7 100 17:42 11.07.2020
5801 Clouds 25 1013 69 10000 5.7 100 17:42 11.07.2020
5802 Clouds 25 1013 69 10000 5.7 100 17:21 11.07.2020
5803 Clouds 25 1013 65 10000 4.6 100 16:59 11.07.2020
5804 Clouds 25 1013 69 10000 4.1 110 16:38 11.07.2020
5805 Clouds 25 1013 69 10000 4.1 110 16:19 11.07.2020
5806 Clouds 25 1013 69 10000 4.1 120 15:57 11.07.2020
5807 Clouds 25 1013 69 10000 3.6 120 15:37 11.07.2020
5808 Clouds 25 1013 69 10000 3.6 120 15:18 11.07.2020
5809 Clouds 26 1013 69 10000 3.6 110 14:44 11.07.2020
5810 Clouds 25 1014 69 10000 3.1 130 14:23 11.07.2020
5811 Clouds 25 1014 69 10000 3.1 130 14:23 11.07.2020
5812 Clouds 25 1014 74 10000 3.1 120 13:57 11.07.2020
5813 Clouds 25 1014 74 10000 3.1 130 13:38 11.07.2020
5814 Clouds 25 1014 74 10000 3.1 130 13:20 11.07.2020
5815 Clouds 25 1014 74 10000 3.1 130 12:44 11.07.2020
5816 Clouds 25 1014 74 10000 3.1 130 12:23 11.07.2020
5817 Clouds 25 1014 74 10000 2.6 130 11:59 11.07.2020
5818 Clouds 24 1014 69 10000 2.6 120 11:41 11.07.2020
5819 Clouds 24 1014 69 10000 2.6 120 11:19 11.07.2020
5820 Clouds 24 1014 74 10000 2.6 120 10:46 11.07.2020
5821 Clouds 24 1014 69 10000 2.1 120 10:28 11.07.2020
5822 Clouds 25 1014 69 10000 2.1 120 09:59 11.07.2020
5823 Clouds 24 1014 69 10000 1 0 09:37 11.07.2020
5824 Clouds 25 1014 69 10000 1 0 09:19 11.07.2020
5825 Clouds 24 1013 69 10000 1.5 0 08:43 11.07.2020
5826 Clouds 24 1014 73 10000 1.5 0 08:25 11.07.2020
5827 Clouds 23 1014 73 10000 2.1 330 07:55 11.07.2020
5828 Clouds 22 1014 78 10000 3.1 330 07:36 11.07.2020
5829 Clouds 22 1014 78 10000 3.1 330 07:18 11.07.2020
5830 Clouds 21 1013 78 10000 2.6 330 06:25 11.07.2020
5831 Clouds 21 1013 78 10000 1.5 330 05:54 11.07.2020
5832 Clouds 21 1013 83 10000 2.6 330 05:19 11.07.2020
5833 Clouds 22 1013 78 10000 2.1 330 04:44 11.07.2020
5834 Clouds 22 1014 83 10000 1.5 40 04:19 11.07.2020
5835 Clear 22 1014 78 10000 1.5 120 02:54 11.07.2020
5836 Clouds 22 1014 78 10000 2.6 110 02:25 11.07.2020
5837 Clouds 23 1014 78 10000 3.6 90 01:24 11.07.2020
5838 Clouds 23 1014 78 10000 3.6 70 00:57 11.07.2020
5839 Clouds 22 1014 73 10000 2.1 80 00:37 11.07.2020
5840 Clouds 22 1014 73 10000 2.1 80 00:18 11.07.2020
5841 Clouds 23 1014 73 10000 1.5 100 23:45 10.07.2020
5842 Clouds 23 1014 73 10000 1.5 120 23:26 10.07.2020
5843 Clouds 23 1014 73 10000 0.5 0 22:57 10.07.2020
5844 Clouds 23 1014 73 10000 0.5 0 22:38 10.07.2020
5845 Clouds 23 1014 73 10000 0.5 0 22:19 10.07.2020
5846 Clouds 23 1014 69 10000 2.1 190 21:40 10.07.2020
5847 Clouds 23 1014 69 10000 2.1 190 21:21 10.07.2020
5848 Clouds 24 1014 69 10000 3.6 180 20:58 10.07.2020
5849 Clouds 24 1014 65 10000 1.5 160 20:40 10.07.2020
5850 Clouds 25 1014 65 10000 1.5 160 20:20 10.07.2020
5851 Clouds 24 1014 65 10000 1.5 150 19:57 10.07.2020
5852 Clouds 25 1014 69 10000 2.1 170 19:39 10.07.2020
5853 Clouds 25 1014 69 10000 2.1 170 19:19 10.07.2020
5854 Clouds 26 1014 69 10000 1.5 180 18:41 10.07.2020
5855 Clouds 25 1014 69 10000 2.1 170 18:20 10.07.2020
5856 Clouds 25 1015 74 10000 2.1 160 17:57 10.07.2020
5857 Clouds 25 1015 74 10000 2.1 160 17:57 10.07.2020
5858 Clouds 25 1015 74 10000 3.1 160 17:38 10.07.2020
5859 Clouds 25 1015 74 10000 3.1 160 17:20 10.07.2020
5860 Clouds 26 1014 69 10000 3.6 130 16:42 10.07.2020
5861 Clouds 26 1014 69 10000 3.6 130 16:20 10.07.2020
5862 Clouds 25 1014 74 10000 3.6 130 15:48 10.07.2020
5863 Clouds 26 1014 69 10000 3.1 110 15:26 10.07.2020
5864 Clouds 25 1015 69 10000 2.6 130 14:59 10.07.2020
5865 Clouds 25 1015 74 10000 2.6 150 14:40 10.07.2020
5866 Clouds 25 1015 74 10000 2.6 150 14:20 10.07.2020
5867 Clouds 25 1015 69 10000 2.6 150 13:57 10.07.2020
5868 Clouds 26 1015 74 10000 2.6 150 13:38 10.07.2020
5869 Clouds 25 1015 74 10000 2.6 150 13:20 10.07.2020
5870 Clouds 25 1016 69 10000 2.6 140 12:56 10.07.2020
5871 Clouds 25 1016 69 10000 2.6 140 12:37 10.07.2020
5872 Clouds 25 1016 69 10000 2.6 140 12:19 10.07.2020
5873 Clear 26 1016 74 10000 2.1 150 11:42 10.07.2020
5874 Clear 25 1016 74 10000 2.1 150 11:21 10.07.2020
5875 Clear 25 1016 74 10000 2.1 140 10:58 10.07.2020
5876 Clouds 25 1016 69 10000 1.5 100 10:39 10.07.2020
5877 Clouds 25 1016 69 10000 1.5 100 10:20 10.07.2020
5878 Clouds 25 1016 69 10000 1 0 09:41 10.07.2020
5879 Clouds 24 1016 69 10000 1 0 09:23 10.07.2020
5880 Clouds 23 1016 61 10000 1 0 08:59 10.07.2020
5881 Clouds 25 1016 61 10000 1 0 08:41 10.07.2020
5882 Clouds 24 1016 64 10000 2.6 340 08:22 10.07.2020
5883 Clouds 23 1016 64 10000 2.6 330 07:47 10.07.2020
5884 Clouds 22 1015 68 10000 1.5 0 07:24 10.07.2020
5885 Clouds 21 1015 68 10000 2.6 330 06:57 10.07.2020
5886 Clear 21 1015 68 10000 3.1 330 06:39 10.07.2020
5887 Clear 21 1015 68 10000 3.1 330 05:28 10.07.2020
5888 Clear 20 1015 68 10000 2.6 330 03:55 10.07.2020
5889 Clear 21 1016 69 10000 2.6 330 02:55 10.07.2020
5890 Clear 22 1016 69 10000 2.6 320 02:21 10.07.2020
5891 Clear 22 1016 64 10000 2.1 320 00:56 10.07.2020
5892 Clear 22 1016 69 10000 2.1 310 00:38 10.07.2020
5893 Clear 22 1016 69 10000 2.1 310 00:18 10.07.2020
5894 Clear 23 1016 69 10000 1.5 200 23:38 09.07.2020
5895 Clear 23 1016 69 10000 1.5 200 23:19 09.07.2020
5896 Clear 23 1016 73 10000 1.5 200 22:56 09.07.2020
5897 Clear 23 1016 69 10000 1.5 200 22:38 09.07.2020
5898 Clear 24 1016 69 10000 1.5 200 22:20 09.07.2020
5899 Clear 24 1016 69 10000 1.5 180 21:55 09.07.2020
5900 Clear 24 1016 65 10000 1.5 180 21:36 09.07.2020
5901 Clear 24 1016 65 10000 1.5 180 21:18 09.07.2020
5902 Clear 24 1016 69 10000 2.1 180 20:41 09.07.2020
5903 Clear 25 1016 61 10000 1.5 180 20:23 09.07.2020
5904 Clear 25 1016 61 10000 2.6 180 19:56 09.07.2020
5905 Clear 26 1016 61 10000 3.1 180 19:38 09.07.2020
5906 Clear 26 1016 61 10000 3.1 180 19:19 09.07.2020
5907 Clear 27 1016 61 10000 3.1 170 18:41 09.07.2020
5908 Clear 27 1016 57 10000 2.6 170 18:20 09.07.2020
5909 Clear 27 1016 61 10000 3.1 170 17:55 09.07.2020
5910 Clear 26 1017 61 10000 3.1 170 17:37 09.07.2020
5911 Clear 27 1017 61 10000 3.1 170 17:18 09.07.2020
5912 Clear 27 1017 61 10000 3.1 170 16:54 09.07.2020
5913 Clear 27 1017 61 10000 3.1 160 16:36 09.07.2020
5914 Clear 26 1017 61 10000 3.1 160 16:18 09.07.2020
5915 Clear 26 1017 61 10000 2.6 170 15:45 09.07.2020
5916 Clear 26 1017 61 10000 2.6 160 15:27 09.07.2020
5917 Clear 26 1017 61 10000 3.1 170 14:59 09.07.2020
5918 Clear 27 1017 57 10000 2.6 160 14:40 09.07.2020
5919 Clear 27 1017 57 10000 2.6 160 14:22 09.07.2020
5920 Clear 27 1017 57 10000 2.6 160 13:58 09.07.2020
5921 Clear 27 1017 54 10000 2.1 140 13:39 09.07.2020
5922 Clear 27 1017 54 10000 2.1 140 13:20 09.07.2020
5923 Clear 27 1018 57 10000 1.5 130 12:43 09.07.2020
5924 Clear 26 1018 65 10000 2.1 160 12:24 09.07.2020
5925 Clear 26 1018 69 10000 1.5 150 11:59 09.07.2020
5926 Clear 26 1018 69 10000 1.5 0 11:41 09.07.2020
5927 Clear 26 1018 69 10000 1.5 0 11:23 09.07.2020
5928 Clear 26 1017 65 10000 2.1 100 10:58 09.07.2020
5929 Clear 26 1017 69 10000 2.6 110 10:40 09.07.2020
5930 Clear 26 1017 69 10000 2.6 110 10:40 09.07.2020
5931 Clear 25 1017 69 10000 2.6 110 10:22 09.07.2020
5932 Clear 25 1017 65 10000 2.6 100 09:58 09.07.2020
5933 Clear 25 1016 65 10000 2.6 80 09:39 09.07.2020
5934 Clear 25 1016 65 10000 2.6 80 09:21 09.07.2020
5935 Clear 25 1016 61 10000 2.1 60 08:43 09.07.2020
5936 Clear 24 1016 61 10000 1.5 10 08:24 09.07.2020
5937 Clear 23 1016 64 10000 2.1 340 07:47 09.07.2020
5938 Clear 23 1016 64 10000 2.6 340 07:22 09.07.2020
5939 Clear 22 1016 68 10000 3.1 330 06:53 09.07.2020
5940 Clear 22 1016 68 10000 3.6 320 06:19 09.07.2020
5941 Clear 22 1016 64 10000 3.6 330 04:29 09.07.2020
5942 Clear 22 1016 64 10000 3.6 330 03:48 09.07.2020
5943 Clear 22 1016 60 10000 2.6 330 02:21 09.07.2020
5944 Clear 22 1017 60 10000 3.6 320 01:37 09.07.2020
5945 Clear 22 1017 60 10000 3.6 320 00:53 09.07.2020
5946 Clear 22 1017 64 10000 2.6 310 00:25 09.07.2020
5947 Clear 23 1017 60 10000 2.6 310 23:47 08.07.2020
5948 Clear 23 1016 60 10000 1.5 290 23:28 08.07.2020
5949 Clear 23 1016 60 10000 1.08 227 22:58 08.07.2020
5950 Clear 23 1016 60 10000 1.08 227 22:40 08.07.2020
5951 Clear 23 1016 60 10000 0.98 213 22:22 08.07.2020
5952 Clear 23 1016 57 10000 1 200 21:58 08.07.2020
5953 Clouds 24 1016 57 10000 1.5 200 21:39 08.07.2020
5954 Clouds 24 1016 57 10000 1.5 200 21:21 08.07.2020
5955 Clouds 24 1016 61 10000 2.1 190 20:56 08.07.2020
5956 Clouds 25 1016 61 10000 2.1 180 20:38 08.07.2020
5957 Clouds 25 1016 61 10000 2.1 180 20:20 08.07.2020
5958 Clouds 24 1016 61 10000 1.5 180 19:43 08.07.2020
5959 Clouds 26 1016 61 10000 1.5 180 19:24 08.07.2020
5960 Clouds 25 1016 61 10000 2.1 180 18:58 08.07.2020
5961 Clouds 25 1016 61 10000 2.1 180 18:40 08.07.2020
5962 Clouds 26 1016 61 10000 2.1 180 18:20 08.07.2020
5963 Clouds 26 1016 61 10000 2.1 170 17:56 08.07.2020
5964 Clouds 26 1016 61 10000 2.1 150 17:37 08.07.2020
5965 Clouds 26 1016 61 10000 2.1 150 17:19 08.07.2020
5966 Clouds 26 1017 65 10000 2.6 150 16:54 08.07.2020
5967 Clouds 26 1017 65 10000 3.1 150 16:36 08.07.2020
5968 Clouds 25 1017 65 10000 3.1 150 16:18 08.07.2020
5969 Clouds 26 1017 69 10000 3.1 150 15:56 08.07.2020
5970 Clouds 26 1017 69 10000 3.1 150 15:37 08.07.2020
5971 Clouds 26 1017 69 10000 3.1 150 15:18 08.07.2020
5972 Clouds 26 1017 61 10000 4.1 160 14:42 08.07.2020
5973 Clouds 26 1017 61 10000 4.1 160 14:20 08.07.2020
5974 Clouds 27 1017 61 10000 4.1 160 13:45 08.07.2020
5975 Clouds 26 1017 65 10000 4.1 160 13:27 08.07.2020
5976 Clouds 26 1017 65 10000 3.6 160 12:58 08.07.2020
5977 Clouds 26 1016 69 10000 3.1 130 12:40 08.07.2020
5978 Clouds 26 1016 69 10000 3.1 130 12:19 08.07.2020
5979 Clouds 25 1016 74 10000 3.1 140 11:39 08.07.2020
5980 Clouds 25 1016 74 10000 3.1 140 11:21 08.07.2020
5981 Clouds 24 1016 78 10000 2.1 130 10:59 08.07.2020
5982 Clouds 24 1016 78 10000 2.1 130 10:41 08.07.2020
5983 Clouds 24 1016 73 10000 3.1 70 10:22 08.07.2020
5984 Clouds 24 1016 65 10000 1.5 0 09:44 08.07.2020
5985 Clouds 24 1016 65 10000 1.5 0 09:24 08.07.2020
5986 Clouds 24 1016 57 10000 1 0 08:44 08.07.2020
5987 Clouds 23 1015 57 10000 2.1 340 08:25 08.07.2020
5988 Clouds 23 1015 60 10000 3.6 330 07:50 08.07.2020
5989 Clouds 23 1015 60 10000 3.1 330 07:25 08.07.2020
5990 Clouds 22 1015 64 10000 3.6 330 06:59 08.07.2020
5991 Clear 22 1015 64 10000 3.6 330 06:39 08.07.2020
5992 Clear 22 1015 64 10000 3.6 330 06:20 08.07.2020
5993 Clear 22 1015 64 10000 3.1 340 05:44 08.07.2020
5994 Clear 22 1015 64 10000 3.6 330 04:39 08.07.2020
5995 Clear 23 1015 64 10000 3.6 330 03:30 08.07.2020
5996 Clear 23 1015 60 10000 1.5 310 01:59 08.07.2020
5997 Clear 23 1015 60 10000 2.1 300 01:37 08.07.2020
5998 Clear 23 1015 64 10000 3.1 280 00:50 08.07.2020
5999 Clear 24 1014 65 10000 3.1 260 00:19 08.07.2020
6000 Clear 24 1014 69 10000 4.1 230 23:43 07.07.2020
6001 Clear 24 1014 69 10000 4.1 230 23:21 07.07.2020
6002 Clear 24 1014 65 10000 5.1 220 22:55 07.07.2020
6003 Clear 25 1014 65 10000 5.1 220 22:55 07.07.2020
6004 Clear 24 1014 65 10000 6.2 230 22:37 07.07.2020
6005 Clear 24 1014 65 10000 6.2 230 22:18 07.07.2020
6006 Clouds 25 1013 69 10000 4.6 220 21:41 07.07.2020
6007 Clouds 25 1013 69 10000 4.6 220 21:22 07.07.2020
6008 Clouds 26 1013 65 10000 4.6 220 20:59 07.07.2020
6009 Clouds 26 1013 61 10000 5.1 230 20:41 07.07.2020
6010 Clouds 26 1013 61 10000 5.1 230 20:23 07.07.2020
6011 Clouds 26 1013 65 10000 4.6 210 19:55 07.07.2020
6012 Clouds 26 1013 65 10000 6.2 210 19:37 07.07.2020
6013 Clouds 27 1013 65 10000 6.2 210 19:19 07.07.2020
6014 Clouds 27 1012 69 10000 5.7 210 18:55 07.07.2020
6015 Clouds 27 1012 65 10000 5.1 200 18:37 07.07.2020
6016 Clouds 27 1012 65 10000 5.1 200 18:18 07.07.2020
6017 Clouds 27 1013 69 10000 5.1 200 17:44 07.07.2020
6018 Clouds 28 1013 58 10000 4.1 200 17:23 07.07.2020
6019 Clouds 27 1013 61 10000 5.1 190 16:59 07.07.2020
6020 Clouds 28 1012 61 10000 6.7 190 16:40 07.07.2020
6021 Clouds 28 1012 61 10000 6.7 190 16:22 07.07.2020
6022 Clouds 28 1012 54 10000 5.7 190 15:55 07.07.2020
6023 Clouds 28 1012 54 10000 6.2 160 15:37 07.07.2020
6024 Clouds 28 1012 58 10000 5.7 190 15:18 07.07.2020
6025 Clouds 28 1012 58 10000 5.7 190 14:42 07.07.2020
6026 Clouds 28 1012 58 10000 5.7 190 14:24 07.07.2020
6027 Clouds 28 1012 58 10000 4.6 200 13:43 07.07.2020
6028 Clouds 28 1012 54 10000 5.1 200 13:21 07.07.2020
6029 Clouds 27 1011 61 10000 4.1 190 12:57 07.07.2020
6030 Clouds 27 1011 61 10000 5.1 190 12:38 07.07.2020
6031 Clouds 27 1011 61 10000 5.1 190 12:20 07.07.2020
6032 Clear 27 1010 65 10000 5.7 190 11:44 07.07.2020
6033 Clear 27 1010 65 10000 5.7 190 11:22 07.07.2020
6034 Clear 27 1010 65 10000 5.7 200 10:58 07.07.2020
6035 Clear 27 1009 69 10000 5.1 210 10:40 07.07.2020
6036 Clear 27 1009 69 10000 5.1 210 10:21 07.07.2020
6037 Clear 26 1009 69 10000 3.1 230 09:54 07.07.2020
6038 Clear 26 1009 61 10000 4.6 280 09:36 07.07.2020
6039 Clear 25 1009 61 10000 4.6 280 09:18 07.07.2020
6040 Clear 25 1008 60 10000 5.1 320 08:39 07.07.2020
6041 Clear 25 1008 60 10000 5.1 320 08:19 07.07.2020
6042 Clear 24 1008 69 10000 2.6 320 07:38 07.07.2020
6043 Clear 23 1008 69 10000 2.6 320 07:20 07.07.2020
6044 Clear 22 1008 73 10000 2.6 320 06:48 07.07.2020
6045 Clear 22 1008 78 10000 3.1 320 06:27 07.07.2020
6046 Clear 22 1007 78 10000 3.1 320 05:47 07.07.2020
6047 Clouds 22 1007 78 10000 2.6 320 04:58 07.07.2020
6048 Clouds 22 1007 78 10000 2.6 320 04:25 07.07.2020
6049 Clouds 22 1007 83 10000 1.5 50 03:34 07.07.2020
6050 Clouds 22 1007 88 10000 3.6 90 01:58 07.07.2020
6051 Clouds 22 1007 88 10000 4.1 80 01:21 07.07.2020
6052 Clouds 23 1007 88 10000 3.6 80 00:42 07.07.2020
6053 Clouds 23 1007 88 10000 3.6 80 00:22 07.07.2020
6054 Clouds 23 1007 88 10000 4.1 90 23:44 06.07.2020
6055 Clouds 23 1007 88 10000 3.6 80 23:26 06.07.2020
6056 Clouds 23 1006 83 10000 2.6 110 22:59 06.07.2020
6057 Clouds 23 1006 83 10000 2.6 110 22:40 06.07.2020
6058 Clouds 24 1006 83 10000 2.6 110 22:19 06.07.2020
6059 Clouds 24 1006 78 10000 3.6 120 21:57 06.07.2020
6060 Clouds 24 1006 78 10000 4.1 130 21:37 06.07.2020
6061 Clouds 24 1006 78 10000 4.1 130 21:19 06.07.2020
6062 Clouds 24 1006 78 10000 4.1 130 21:19 06.07.2020
6063 Clouds 25 1006 69 10000 3.1 130 20:55 06.07.2020
6064 Clear 25 1006 69 10000 2.6 120 20:36 06.07.2020
6065 Clear 26 1006 69 10000 2.6 120 20:18 06.07.2020
6066 Clear 25 1007 74 10000 2.1 90 19:42 06.07.2020
6067 Clear 26 1007 74 10000 2.1 90 19:23 06.07.2020
6068 Clear 26 1007 74 10000 1.5 120 18:59 06.07.2020
6069 Clear 25 1007 74 10000 1.5 120 18:41 06.07.2020
6070 Clouds 25 1008 74 10000 2.1 170 18:23 06.07.2020
6071 Clouds 26 1008 74 10000 2.6 170 17:58 06.07.2020
6072 Clouds 26 1008 74 10000 3.1 190 17:39 06.07.2020
6073 Clouds 26 1008 74 10000 3.1 190 17:20 06.07.2020
6074 Clouds 27 1009 65 10000 3.1 190 16:43 06.07.2020
6075 Clouds 27 1009 61 10000 2.6 160 16:24 06.07.2020
6076 Clouds 27 1009 65 10000 3.1 170 15:57 06.07.2020
6077 Clouds 27 1009 65 10000 2.6 150 15:39 06.07.2020
6078 Clouds 27 1009 65 10000 2.6 150 15:21 06.07.2020
6079 Clouds 27 1010 65 10000 2.6 170 14:55 06.07.2020
6080 Clouds 27 1010 69 10000 2.6 150 14:37 06.07.2020
6081 Clouds 27 1010 69 10000 2.6 150 14:37 06.07.2020
6082 Clear 27 1010 69 10000 2.6 150 14:18 06.07.2020
6083 Clear 27 1010 69 10000 2.1 150 13:44 06.07.2020
6084 Clear 27 1010 69 10000 2.1 150 13:24 06.07.2020
6085 Clear 27 1010 69 10000 2.1 150 12:56 06.07.2020
6086 Clear 27 1011 69 10000 2.1 140 12:38 06.07.2020
6087 Clear 27 1011 69 10000 2.1 140 12:18 06.07.2020
6088 Clear 27 1011 74 10000 2.1 150 11:42 06.07.2020
6089 Clear 26 1011 74 10000 2.1 150 11:24 06.07.2020
6090 Clear 26 1011 74 10000 2.1 130 10:59 06.07.2020
6091 Clear 26 1011 69 10000 2.1 140 10:41 06.07.2020
6092 Clear 26 1011 69 10000 2.1 140 10:21 06.07.2020
6093 Clear 26 1011 69 10000 1.5 110 09:55 06.07.2020
6094 Clear 25 1011 73 10000 1.5 90 09:37 06.07.2020
6095 Clear 25 1011 73 10000 1.5 90 09:19 06.07.2020
6096 Clear 25 1011 73 10000 1.5 90 09:19 06.07.2020
6097 Clear 25 1011 69 10000 1 0 08:41 06.07.2020
6098 Clear 25 1011 69 10000 1 0 08:22 06.07.2020
6099 Clear 24 1011 57 10000 1.5 340 07:54 06.07.2020
6100 Clear 23 1011 57 10000 2.1 330 07:35 06.07.2020
6101 Clear 23 1011 69 10000 2.1 360 06:57 06.07.2020
6102 Clear 23 1011 69 10000 2.6 40 06:38 06.07.2020
6103 Clear 22 1011 64 10000 2.6 40 05:56 06.07.2020
6104 Clear 21 1011 73 10000 2.6 50 05:29 06.07.2020
6105 Clear 22 1012 60 10000 1.5 10 04:36 06.07.2020
6106 Clear 22 1013 68 10000 2.1 320 02:50 06.07.2020
6107 Clear 23 1013 73 10000 2.1 320 02:19 06.07.2020
6108 Clear 23 1014 60 10000 2.6 320 00:59 06.07.2020
6109 Clear 23 1014 60 10000 2.1 310 00:32 06.07.2020
6110 Clear 23 1014 64 10000 1.5 280 23:59 05.07.2020
6111 Clear 23 1014 78 10000 2.1 220 23:40 05.07.2020
6112 Clear 24 1014 78 10000 2.1 220 23:22 05.07.2020
6113 Clear 24 1014 78 10000 2.1 210 22:58 05.07.2020
6114 Clear 24 1014 73 10000 2.6 220 22:39 05.07.2020
6115 Clear 24 1014 69 10000 2.1 220 22:19 05.07.2020
6116 Clear 25 1014 69 10000 2.1 220 21:57 05.07.2020
6117 Clear 24 1014 73 10000 2.6 200 21:37 05.07.2020
6118 Clear 25 1014 73 10000 2.6 200 21:18 05.07.2020
6119 Clear 25 1014 69 10000 2.6 200 20:56 05.07.2020
6120 Clear 26 1014 65 10000 2.6 180 20:38 05.07.2020
6121 Clear 26 1014 65 10000 2.6 180 20:19 05.07.2020
6122 Clear 27 1014 61 10000 2.6 180 19:42 05.07.2020
6123 Clear 27 1014 61 10000 2.6 180 19:21 05.07.2020
6124 Clear 27 1014 61 10000 2.1 170 18:56 05.07.2020
6125 Clear 27 1015 61 10000 2.6 170 18:37 05.07.2020
6126 Clear 27 1015 61 10000 2.6 170 18:19 05.07.2020
6127 Clear 27 1015 65 10000 2.1 170 17:43 05.07.2020
6128 Clear 27 1015 65 10000 2.1 170 17:20 05.07.2020
6129 Clear 27 1016 65 10000 2.1 160 16:59 05.07.2020
6130 Clear 27 1016 69 10000 2.1 150 16:40 05.07.2020
6131 Clear 27 1016 69 10000 2.1 150 16:21 05.07.2020
6132 Clear 26 1016 74 10000 3.1 140 15:41 05.07.2020
6133 Clear 26 1016 74 10000 3.1 140 15:20 05.07.2020
6134 Clear 27 1016 74 10000 3.1 140 14:59 05.07.2020
6135 Clear 27 1017 74 10000 2.6 140 14:40 05.07.2020
6136 Clear 27 1017 74 10000 2.6 140 14:20 05.07.2020
6137 Clear 26 1017 74 10000 3.1 110 13:41 05.07.2020
6138 Clear 26 1017 74 10000 3.1 110 13:23 05.07.2020
6139 Clear 26 1017 74 10000 3.6 130 12:46 05.07.2020
6140 Clear 26 1017 74 10000 3.6 100 12:25 05.07.2020
6141 Clear 25 1017 69 10000 5.1 110 11:58 05.07.2020
6142 Clear 26 1017 69 10000 5.1 90 11:39 05.07.2020
6143 Clear 25 1017 69 10000 5.1 90 11:21 05.07.2020
6144 Clear 25 1017 65 10000 5.1 80 10:58 05.07.2020
6145 Clear 26 1017 65 10000 4.1 80 10:39 05.07.2020
6146 Clear 26 1017 65 10000 4.1 80 10:19 05.07.2020
6147 Clear 25 1016 61 10000 4.1 90 09:55 05.07.2020
6148 Clear 25 1016 73 10000 4.1 80 09:37 05.07.2020
6149 Clear 25 1016 73 10000 4.1 80 09:18 05.07.2020
6150 Clear 25 1016 65 10000 1.5 50 08:43 05.07.2020
6151 Clouds 25 1016 65 10000 1.5 50 08:25 05.07.2020
6152 Clouds 24 1016 50 10000 1.5 20 07:46 05.07.2020
6153 Clouds 24 1016 53 10000 2.1 10 07:27 05.07.2020
6154 Clouds 23 1016 56 10000 1.5 350 06:50 05.07.2020
6155 Clouds 23 1015 56 10000 2.6 30 05:29 05.07.2020
6156 Clouds 22 1016 53 10000 3.6 340 03:24 05.07.2020
6157 Clouds 23 1016 50 10000 2.1 340 02:41 05.07.2020
6158 Clouds 23 1016 50 10000 2.1 340 02:18 05.07.2020
6159 Clouds 23 1016 50 10000 2.1 350 01:33 05.07.2020
6160 Clear 23 1016 50 10000 3.1 20 00:58 05.07.2020
6161 Clear 23 1016 53 10000 2.6 20 00:38 05.07.2020
6162 Clear 23 1016 53 10000 2.6 20 00:20 05.07.2020
6163 Clear 24 1016 53 10000 2.6 30 23:46 04.07.2020
6164 Clear 24 1016 47 10000 2.1 40 23:28 04.07.2020
6165 Clear 24 1016 50 10000 1.5 60 22:57 04.07.2020
6166 Clear 24 1016 73 10000 3.6 90 22:37 04.07.2020
6167 Clear 24 1016 73 10000 3.6 90 22:19 04.07.2020
6168 Clear 24 1016 69 10000 4.1 90 21:42 04.07.2020
6169 Clear 25 1016 69 10000 4.1 80 21:23 04.07.2020
6170 Clouds 25 1016 65 10000 2.6 90 20:58 04.07.2020
6171 Clouds 25 1016 65 10000 3.1 100 20:40 04.07.2020
6172 Clear 25 1016 65 10000 3.1 100 20:20 04.07.2020
6173 Clear 25 1016 61 10000 2.6 170 19:45 04.07.2020
6174 Clear 26 1016 61 10000 2.6 170 19:22 04.07.2020
6175 Clear 27 1015 65 10000 3.1 170 18:59 04.07.2020
6176 Clear 27 1016 65 10000 3.1 180 18:41 04.07.2020
6177 Clear 27 1016 65 10000 3.1 180 18:21 04.07.2020
6178 Clear 27 1016 65 10000 3.6 190 17:44 04.07.2020
6179 Clear 27 1016 65 10000 4.1 190 17:26 04.07.2020
6180 Clear 27 1016 61 10000 3.6 200 16:58 04.07.2020
6181 Clear 27 1016 65 10000 4.1 190 16:39 04.07.2020
6182 Clear 26 1016 65 10000 4.1 190 16:20 04.07.2020
6183 Clear 27 1017 65 10000 4.6 190 15:56 04.07.2020
6184 Clear 26 1017 69 10000 4.1 190 15:37 04.07.2020
6185 Clear 26 1017 69 10000 4.1 190 15:19 04.07.2020
6186 Clear 27 1017 61 10000 4.1 180 14:55 04.07.2020
6187 Clear 26 1017 61 10000 3.6 160 14:36 04.07.2020
6188 Clear 26 1017 61 10000 3.6 160 14:18 04.07.2020
6189 Clear 27 1017 61 10000 3.1 150 13:41 04.07.2020
6190 Clear 26 1017 61 10000 3.1 150 13:18 04.07.2020
6191 Clear 25 1017 61 10000 3.6 130 12:43 04.07.2020
6192 Clear 25 1017 61 10000 3.1 150 12:23 04.07.2020
6193 Clear 25 1017 65 10000 3.1 180 11:59 04.07.2020
6194 Clear 26 1016 61 10000 4.1 190 11:40 04.07.2020
6195 Clear 26 1016 61 10000 4.1 190 11:21 04.07.2020
6196 Clear 25 1016 53 10000 3.6 200 10:54 04.07.2020
6197 Clear 26 1016 53 10000 2.1 320 10:36 04.07.2020
6198 Clear 26 1016 53 10000 2.1 320 10:18 04.07.2020
6199 Clear 25 1016 44 10000 4.6 320 09:40 04.07.2020
6200 Clear 24 1016 46 10000 5.1 320 09:20 04.07.2020
6201 Clear 23 1016 46 10000 5.1 320 08:50 04.07.2020
6202 Clear 23 1016 46 10000 5.1 320 08:32 04.07.2020
6203 Clear 22 1016 52 10000 5.7 320 07:56 04.07.2020
6204 Clear 21 1016 56 10000 5.1 320 07:38 04.07.2020
6205 Clear 20 1015 56 10000 4.1 320 06:57 04.07.2020
6206 Clear 20 1015 56 10000 4.6 320 06:23 04.07.2020
6207 Clear 20 1015 56 10000 4.1 330 05:41 04.07.2020
6208 Clear 20 1015 56 10000 4.1 330 05:19 04.07.2020
6209 Clear 21 1014 56 10000 5.1 320 03:49 04.07.2020
6210 Clear 21 1014 60 10000 5.1 320 02:40 04.07.2020
6211 Clouds 20 1014 64 10000 4.1 320 01:39 04.07.2020
6212 Clouds 21 1014 60 10000 2.1 290 00:48 04.07.2020
6213 Thunderstorm 22 1014 73 10000 2.6 110 00:30 04.07.2020
6214 Rain 22 1014 73 10000 6.2 90 23:57 03.07.2020
6215 Clouds 22 1014 73 10000 6.2 80 23:38 03.07.2020
6216 Clouds 23 1014 73 10000 6.2 80 23:18 03.07.2020
6217 Clouds 23 1012 65 10000 6.7 60 22:41 03.07.2020
6218 Clouds 23 1012 65 10000 6.7 60 22:23 03.07.2020
6219 Rain 23 1011 64 10000 6.7 90 21:58 03.07.2020
6220 Rain 23 1010 61 10000 8.7 90 21:37 03.07.2020
6221 Clear 24 1010 61 10000 8.7 90 21:19 03.07.2020
6222 Rain 24 1010 61 10000 8.7 90 21:19 03.07.2020
6223 Rain 24 1009 78 10000 9.3 80 20:42 03.07.2020
6224 Rain 23 1009 78 10000 9.3 80 20:24 03.07.2020
6225 Rain 24 1010 74 10000 6.7 70 19:55 03.07.2020
6226 Rain 25 1010 65 10000 4.1 90 19:37 03.07.2020
6227 Rain 25 1010 65 10000 4.1 90 19:18 03.07.2020
6228 Rain 26 1010 61 10000 2.6 70 18:42 03.07.2020
6229 Rain 26 1010 61 10000 2.6 70 18:23 03.07.2020
6230 Rain 26 1010 69 10000 1.5 0 17:56 03.07.2020
6231 Rain 25 1010 69 10000 2.1 130 17:37 03.07.2020
6232 Rain 25 1010 69 10000 2.1 130 17:19 03.07.2020
6233 Rain 25 1011 69 10000 1 0 16:40 03.07.2020
6234 Clear 25 1011 69 10000 1 0 16:20 03.07.2020
6235 Clear 25 1011 74 10000 2.1 130 15:44 03.07.2020
6236 Clear 25 1011 74 10000 2.1 130 15:23 03.07.2020
6237 Clear 25 1011 74 10000 3.1 130 14:56 03.07.2020
6238 Clear 25 1012 74 10000 3.1 120 14:38 03.07.2020
6239 Clear 25 1012 74 10000 3.1 120 14:19 03.07.2020
6240 Clouds 25 1012 74 10000 3.6 120 13:43 03.07.2020
6241 Clouds 24 1012 74 10000 3.6 120 13:25 03.07.2020
6242 Clouds 24 1012 74 10000 3.6 120 12:45 03.07.2020
6243 Clear 24 1012 74 10000 3.6 130 12:24 03.07.2020
6244 Clouds 24 1012 74 10000 3.6 130 11:58 03.07.2020
6245 Clouds 24 1011 74 10000 3.6 120 11:40 03.07.2020
6246 Clouds 24 1011 74 10000 3.6 120 11:21 03.07.2020
6247 Clouds 24 1011 73 10000 1.5 0 10:55 03.07.2020
6248 Clouds 24 1011 69 10000 1 0 10:37 03.07.2020
6249 Clouds 23 1011 69 10000 1 0 10:18 03.07.2020
6250 Clouds 24 1011 57 10000 1.5 0 09:54 03.07.2020
6251 Clear 23 1011 50 10000 3.1 340 09:36 03.07.2020
6252 Clear 23 1011 50 10000 3.1 340 09:18 03.07.2020
6253 Clouds 22 1011 56 10000 3.6 330 08:39 03.07.2020
6254 Clouds 22 1011 56 10000 3.6 330 08:18 03.07.2020
6255 Clouds 21 1011 64 10000 3.1 350 07:48 03.07.2020
6256 Clouds 21 1011 64 10000 3.1 350 07:26 03.07.2020
6257 Clouds 19 1011 68 10000 4.1 330 06:49 03.07.2020
6258 Clouds 19 1011 64 10000 3.6 330 06:18 03.07.2020
6259 Clouds 20 1010 68 10000 3.6 320 04:53 03.07.2020
6260 Clouds 20 1010 73 10000 2.1 320 03:28 03.07.2020
6261 Clouds 20 1010 78 10000 1.5 340 02:47 03.07.2020
6262 Clouds 21 1010 78 10000 1.5 330 02:25 03.07.2020
6263 Clear 21 1010 83 10000 2.6 330 01:28 03.07.2020
6264 Clear 22 1010 83 10000 2.1 340 00:49 03.07.2020
6265 Clear 21 1010 83 10000 1.5 320 00:28 03.07.2020
6266 Clear 23 1010 83 10000 2.6 320 23:47 02.07.2020
6267 Clear 23 1010 83 10000 2.6 300 23:20 02.07.2020
6268 Clear 23 1010 83 10000 2.1 340 22:58 02.07.2020
6269 Clear 23 1010 83 10000 1 0 22:40 02.07.2020
6270 Clear 23 1010 83 10000 1 0 22:20 02.07.2020
6271 Clear 23 1010 83 10000 1.5 0 21:57 02.07.2020
6272 Clear 23 1010 83 10000 2.1 230 21:39 02.07.2020
6273 Clear 23 1010 83 10000 2.1 230 21:19 02.07.2020
6274 Clear 23 1010 78 10000 2.6 210 20:57 02.07.2020
6275 Clouds 24 1010 78 10000 2.1 200 20:39 02.07.2020
6276 Clouds 24 1010 78 10000 2.1 200 20:18 02.07.2020
6277 Clouds 24 1010 78 10000 3.6 200 19:42 02.07.2020
6278 Clouds 24 1010 78 10000 2.6 160 19:23 02.07.2020
6279 Clouds 24 1010 78 10000 2.6 160 19:23 02.07.2020
6280 Clouds 24 1011 78 10000 2.1 170 18:58 02.07.2020
6281 Clouds 24 1011 78 10000 2.1 170 18:40 02.07.2020
6282 Clouds 24 1011 78 10000 2.1 170 18:21 02.07.2020
6283 Clouds 23 1011 78 10000 3.1 170 17:55 02.07.2020
6284 Clouds 23 1011 78 10000 3.6 170 17:36 02.07.2020
6285 Clouds 23 1011 78 10000 3.6 170 17:18 02.07.2020
6286 Clouds 24 1012 78 10000 5.1 190 16:41 02.07.2020
6287 Clouds 24 1012 78 10000 5.1 190 16:20 02.07.2020
6288 Clouds 24 1012 78 10000 3.6 190 15:57 02.07.2020
6289 Clouds 24 1011 78 10000 3.1 170 15:38 02.07.2020
6290 Clouds 25 1011 78 10000 3.1 170 15:19 02.07.2020
6291 Clouds 25 1012 74 10000 2.6 140 14:45 02.07.2020
6292 Clouds 25 1012 74 10000 2.6 140 14:23 02.07.2020
6293 Clouds 25 1012 74 10000 3.1 130 13:57 02.07.2020
6294 Clouds 25 1012 74 10000 3.1 140 13:38 02.07.2020
6295 Clear 25 1012 74 10000 3.1 140 13:18 02.07.2020
6296 Clear 25 1012 74 10000 3.6 140 12:42 02.07.2020
6297 Clear 25 1012 74 10000 3.6 130 12:22 02.07.2020
6298 Clear 25 1012 74 10000 2.6 130 11:59 02.07.2020
6299 Clear 25 1012 74 10000 2.6 160 11:40 02.07.2020
6300 Clear 25 1012 74 10000 2.6 160 11:22 02.07.2020
6301 Clear 24 1012 78 10000 3.6 190 10:44 02.07.2020
6302 Clear 24 1012 78 10000 3.6 190 10:26 02.07.2020
6303 Clear 24 1011 78 10000 2.6 200 09:56 02.07.2020
6304 Clear 24 1011 73 10000 1.5 0 09:37 02.07.2020
6305 Clear 23 1011 73 10000 1.5 0 09:19 02.07.2020
6306 Clear 24 1011 73 10000 2.1 310 08:42 02.07.2020
6307 Clear 23 1011 73 10000 2.1 310 08:22 02.07.2020
6308 Clear 23 1011 73 10000 2.1 320 07:45 02.07.2020
6309 Clear 23 1011 83 10000 2.6 320 07:27 02.07.2020
6310 Clouds 22 1011 83 10000 2.1 320 06:58 02.07.2020
6311 Clouds 22 1011 83 10000 1 0 06:39 02.07.2020
6312 Clouds 22 1011 83 10000 1 0 06:19 02.07.2020
6313 Clouds 22 1011 83 10000 1.5 270 05:42 02.07.2020
6314 Clouds 23 1011 78 10000 2.6 110 03:35 02.07.2020
6315 Clouds 22 1012 78 10000 3.1 100 02:59 02.07.2020
6316 Clouds 23 1012 78 10000 3.1 100 00:47 02.07.2020
6317 Clouds 22 1012 83 10000 1.5 110 00:23 02.07.2020
6318 Clouds 22 1012 83 10000 0.5 170 23:46 01.07.2020
6319 Clouds 23 1012 78 10000 1.5 160 23:27 01.07.2020
6320 Clouds 23 1012 78 10000 1.5 120 22:57 01.07.2020
6321 Clouds 23 1011 78 10000 0.33 170 22:38 01.07.2020
6322 Clouds 23 1011 78 10000 0.81 188 22:19 01.07.2020
6323 Clouds 23 1011 78 10000 1.5 160 21:58 01.07.2020
6324 Clouds 23 1011 78 10000 0.5 120 21:40 01.07.2020
6325 Clouds 23 1011 78 10000 0.5 120 21:21 01.07.2020
6326 Clouds 23 1011 78 10000 1.5 120 20:56 01.07.2020
6327 Clouds 23 1011 78 10000 1.5 140 20:38 01.07.2020
6328 Clouds 23 1011 78 10000 1.5 140 20:38 01.07.2020
6329 Clouds 23 1011 78 10000 1.5 140 20:19 01.07.2020
6330 Clouds 23 1011 78 10000 1.5 0 19:43 01.07.2020
6331 Clouds 23 1011 78 10000 1.5 0 19:24 01.07.2020
6332 Clouds 24 1011 73 10000 1 0 18:59 01.07.2020
6333 Clouds 24 1011 73 10000 1 0 18:40 01.07.2020
6334 Clouds 24 1012 73 10000 1 0 18:21 01.07.2020
6335 Clouds 24 1012 73 10000 1.5 120 17:57 01.07.2020
6336 Clouds 24 1012 73 10000 2.1 110 17:38 01.07.2020
6337 Clouds 24 1012 73 10000 2.1 110 17:19 01.07.2020
6338 Clouds 24 1013 73 10000 2.1 100 16:46 01.07.2020
6339 Clouds 23 1013 73 10000 2.6 110 16:26 01.07.2020
6340 Clouds 23 1013 73 10000 2.6 110 15:55 01.07.2020
6341 Clouds 23 1013 73 10000 2.6 130 15:37 01.07.2020
6342 Clouds 23 1013 73 10000 2.6 130 15:18 01.07.2020
6343 Clouds 24 1013 73 10000 3.1 130 14:42 01.07.2020
6344 Clouds 24 1013 73 10000 3.1 130 14:21 01.07.2020
6345 Clouds 24 1013 73 10000 2.6 130 13:57 01.07.2020
6346 Clouds 24 1013 69 10000 3.1 120 13:38 01.07.2020
6347 Clouds 24 1013 69 10000 3.1 120 13:20 01.07.2020
6348 Clouds 24 1013 78 10000 3.1 120 12:57 01.07.2020
6349 Clouds 24 1013 74 10000 3.6 110 12:38 01.07.2020
6350 Clouds 24 1013 74 10000 3.6 110 12:20 01.07.2020
6351 Clouds 24 1013 74 10000 4.1 110 11:42 01.07.2020
6352 Clouds 24 1013 74 10000 4.1 110 11:23 01.07.2020
6353 Clouds 23 1013 73 10000 4.6 110 10:58 01.07.2020
6354 Clouds 23 1013 78 10000 3.6 110 10:40 01.07.2020
6355 Clouds 23 1013 78 10000 3.6 110 10:21 01.07.2020
6356 Clouds 23 1013 78 10000 1.5 110 09:54 01.07.2020
6357 Clouds 23 1013 78 10000 1.5 0 09:36 01.07.2020
6358 Clouds 23 1013 78 10000 1.5 0 09:18 01.07.2020
6359 Clouds 22 1012 78 10000 1.5 0 08:41 01.07.2020
6360 Clouds 22 1012 78 10000 1.5 0 08:21 01.07.2020
6361 Clouds 23 1012 78 10000 1.5 0 08:21 01.07.2020
6362 Clouds 22 1013 83 10000 1.01 102 07:54 01.07.2020
6363 Clouds 22 1013 83 10000 1 270 07:36 01.07.2020
6364 Clouds 22 1013 83 10000 1 270 07:18 01.07.2020
6365 Clouds 22 1013 83 10000 1 270 06:48 01.07.2020
6366 Clouds 22 1013 83 10000 1.5 230 06:25 01.07.2020
6367 Clouds 22 1012 88 10000 2.6 130 04:31 01.07.2020
6368 Clouds 22 1012 83 10000 4.1 110 03:46 01.07.2020
6369 Clouds 22 1012 83 10000 3.6 110 03:26 01.07.2020
6370 Clouds 22 1013 88 10000 3.1 110 02:36 01.07.2020
6371 Clouds 22 1013 88 10000 3.6 100 01:47 01.07.2020
6372 Clouds 23 1013 88 10000 3.6 90 00:42 01.07.2020
6373 Clear 23 1013 83 10000 2.6 100 00:23 01.07.2020
6374 Clear 23 1013 83 10000 2.1 90 23:41 30.06.2020
6375 Clear 23 1013 83 10000 2.1 90 23:22 30.06.2020
6376 Clear 23 1013 83 10000 2.1 90 23:22 30.06.2020
6377 Clear 23 1013 78 10000 2.1 70 22:57 30.06.2020
6378 Clear 23 1013 78 10000 2.1 70 22:39 30.06.2020
6379 Clouds 23 1012 78 10000 1.5 80 22:18 30.06.2020
6380 Clouds 23 1012 78 10000 1.5 80 21:41 30.06.2020
6381 Clouds 24 1012 78 10000 1.5 80 21:19 30.06.2020
6382 Clouds 24 1012 78 10000 1.47 109 20:44 30.06.2020
6383 Clouds 24 1012 78 10000 1.24 125 20:21 30.06.2020
6384 Clouds 24 1012 78 10000 1 0 20:00 30.06.2020
6385 Clouds 24 1012 74 10000 1.5 0 19:41 30.06.2020
6386 Clouds 24 1012 74 10000 1.5 0 19:19 30.06.2020
6387 Clouds 25 1012 74 10000 2.1 170 18:43 30.06.2020
6388 Clouds 24 1012 74 10000 2.1 170 18:21 30.06.2020
6389 Clouds 25 1012 74 10000 3.1 160 17:58 30.06.2020
6390 Clouds 25 1012 74 10000 2.6 150 17:37 30.06.2020
6391 Clouds 25 1012 74 10000 2.6 150 17:18 30.06.2020
6392 Clouds 25 1012 74 10000 2.6 150 17:18 30.06.2020
6393 Clouds 25 1012 74 10000 2.6 140 16:43 30.06.2020
6394 Clouds 26 1012 74 10000 2.6 140 16:23 30.06.2020
6395 Clouds 25 1012 74 10000 2.6 140 15:57 30.06.2020
6396 Clouds 26 1013 74 10000 2.6 140 15:39 30.06.2020
6397 Clouds 26 1013 74 10000 2.6 140 15:21 30.06.2020
6398 Clouds 26 1013 69 10000 2.6 140 14:47 30.06.2020
6399 Clear 25 1013 74 10000 2.6 140 14:23 30.06.2020
6400 Clear 26 1013 74 10000 2.6 130 13:59 30.06.2020
6401 Clear 26 1013 69 10000 2.6 150 13:39 30.06.2020
6402 Clear 25 1013 69 10000 2.6 150 13:20 30.06.2020
6403 Clear 25 1013 74 10000 2.6 150 12:57 30.06.2020
6404 Clear 25 1013 74 10000 3.1 140 12:39 30.06.2020
6405 Clear 25 1013 74 10000 3.1 140 12:20 30.06.2020
6406 Clear 25 1012 78 10000 3.1 150 11:57 30.06.2020
6407 Clouds 25 1012 78 10000 2.1 160 11:38 30.06.2020
6408 Clouds 25 1012 78 10000 2.1 160 11:19 30.06.2020
6409 Clouds 25 1012 78 10000 1 0 10:56 30.06.2020
6410 Clear 26 1016 61 10000 3.1 180 16:38 28.06.2020
6411 Clear 26 1016 61 10000 3.1 180 16:20 28.06.2020
6412 Clear 25 1016 69 10000 3.1 170 15:56 28.06.2020
6413 Clear 26 1016 69 10000 3.6 150 15:37 28.06.2020
6414 Clear 25 1016 69 10000 3.6 150 15:18 28.06.2020
6415 Clear 25 1016 65 10000 3.1 130 14:44 28.06.2020
6416 Clear 25 1016 65 10000 3.1 130 14:25 28.06.2020
6417 Clear 25 1017 69 10000 3.1 130 13:55 28.06.2020
6418 Clear 25 1017 65 10000 3.1 140 13:37 28.06.2020
6419 Clear 25 1017 65 10000 3.1 140 13:18 28.06.2020
6420 Clear 25 1017 69 10000 3.1 140 12:55 28.06.2020
6421 Clear 25 1017 69 10000 2.1 150 12:36 28.06.2020
6422 Clear 26 1017 69 10000 2.1 150 12:18 28.06.2020
6423 Clear 26 1017 69 10000 2.1 130 11:55 28.06.2020
6424 Clear 26 1017 69 10000 2.6 130 11:37 28.06.2020
6425 Clear 26 1017 69 10000 2.6 130 11:37 28.06.2020
6426 Clear 25 1017 69 10000 2.6 130 11:19 28.06.2020
6427 Clear 25 1016 73 10000 2.6 110 10:41 28.06.2020
6428 Clear 25 1016 73 10000 2.6 110 10:23 28.06.2020
6429 Clear 25 1017 65 10000 2.1 110 09:57 28.06.2020
6430 Clear 25 1016 65 10000 2.1 90 09:39 28.06.2020
6431 Clear 24 1016 65 10000 2.1 90 09:20 28.06.2020
6432 Clear 24 1016 57 10000 2.1 20 08:42 28.06.2020
6433 Clear 24 1016 60 10000 3.1 350 08:22 28.06.2020
6434 Clear 23 1016 64 10000 3.6 340 07:40 28.06.2020
6435 Clear 22 1016 64 10000 3.6 340 07:20 28.06.2020
6436 Clear 21 1016 73 10000 2.6 360 06:34 28.06.2020
6437 Clear 21 1016 73 10000 3.6 340 05:54 28.06.2020
6438 Clear 21 1016 68 10000 2.1 350 05:24 28.06.2020
6439 Clear 22 1016 64 10000 1.5 330 03:23 28.06.2020
6440 Clear 22 1016 64 10000 3.1 350 02:28 28.06.2020
6441 Clear 22 1016 69 10000 1.5 340 01:46 28.06.2020
6442 Clear 22 1016 73 10000 2.1 330 01:25 28.06.2020
6443 Clear 22 1016 78 10000 2.1 310 00:43 28.06.2020
6444 Clear 22 1016 78 10000 1.5 300 00:22 28.06.2020
6445 Clear 22 1016 73 10000 1.5 310 23:40 27.06.2020
6446 Clear 22 1016 73 10000 2.1 260 23:22 27.06.2020
6447 Clear 22 1016 73 10000 1.5 0 22:58 27.06.2020
6448 Clear 23 1016 60 10000 1.23 95 22:39 27.06.2020
6449 Clear 23 1016 64 10000 1.5 0 22:19 27.06.2020
6450 Clear 23 1016 64 10000 1.5 0 21:42 27.06.2020
6451 Clouds 23 1016 69 10000 2.1 100 21:20 27.06.2020
6452 Clouds 24 1016 61 10000 3.6 100 20:57 27.06.2020
6453 Clouds 24 1016 61 10000 2.6 80 20:37 27.06.2020
6454 Clouds 24 1016 61 10000 2.6 80 20:18 27.06.2020
6455 Clouds 25 1016 61 10000 2.6 70 19:54 27.06.2020
6456 Clouds 25 1016 69 10000 2.6 90 19:36 27.06.2020
6457 Rain 24 1016 69 10000 2.6 90 19:18 27.06.2020
6458 Rain 24 1016 73 10000 1.5 0 18:42 27.06.2020
6459 Rain 24 1016 73 10000 1.5 0 18:21 27.06.2020
6460 Rain 24 1016 69 10000 2.6 100 17:54 27.06.2020
6461 Rain 25 1016 69 10000 2.1 90 17:36 27.06.2020
6462 Clear 25 1016 69 10000 2.1 90 17:18 27.06.2020
6463 Clear 25 1016 65 10000 2.1 110 16:41 27.06.2020
6464 Clear 25 1016 73 10000 2.1 120 16:23 27.06.2020
6465 Clear 25 1016 65 10000 2.6 120 15:46 27.06.2020
6466 Clear 25 1016 69 10000 3.1 130 15:25 27.06.2020
6467 Clear 25 1016 69 10000 2.6 110 14:59 27.06.2020
6468 Clear 24 1016 73 10000 5.1 100 14:41 27.06.2020
6469 Rain 24 1016 73 10000 5.1 100 14:22 27.06.2020
6470 Clear 24 1016 69 10000 4.6 110 13:57 27.06.2020
6471 Clear 25 1016 65 10000 3.6 100 13:37 27.06.2020
6472 Clear 25 1016 65 10000 3.6 100 13:19 27.06.2020
6473 Clear 25 1016 57 10000 3.6 120 12:43 27.06.2020
6474 Clear 25 1016 57 10000 3.6 120 12:22 27.06.2020
6475 Clear 25 1016 54 10000 3.6 100 11:59 27.06.2020
6476 Clear 25 1016 54 10000 3.6 100 11:40 27.06.2020
6477 Clear 25 1016 54 10000 2.1 120 11:22 27.06.2020
6478 Clear 26 1016 57 10000 1.5 150 10:55 27.06.2020
6479 Clear 26 1016 57 10000 1 0 10:37 27.06.2020
6480 Clear 25 1016 57 10000 1 0 10:18 27.06.2020
6481 Clear 25 1016 61 10000 1.5 0 09:40 27.06.2020
6482 Clear 24 1016 61 10000 1.5 0 09:21 27.06.2020
6483 Clear 24 1016 61 10000 2.6 40 08:46 27.06.2020
6484 Clear 23 1016 64 10000 2.6 320 08:23 27.06.2020
6485 Clear 22 1016 68 10000 3.1 340 07:55 27.06.2020
6486 Clear 22 1016 68 10000 2.6 330 07:37 27.06.2020
6487 Clear 21 1016 68 10000 2.6 330 07:18 27.06.2020
6488 Clear 20 1016 77 10000 3.1 320 06:35 27.06.2020
6489 Clear 20 1016 73 10000 1.5 0 05:46 27.06.2020
6490 Rain 20 1016 73 10000 2.1 330 04:21 27.06.2020
6491 Rain 20 1016 73 10000 3.1 320 03:51 27.06.2020
6492 Clear 20 1016 77 10000 3.1 330 02:48 27.06.2020
6493 Clear 20 1016 73 10000 3.6 310 02:27 27.06.2020
6494 Clouds 20 1016 83 10000 1 0 01:41 27.06.2020
6495 Clear 21 1016 83 10000 2.1 50 00:54 27.06.2020
6496 Clear 21 1016 83 10000 3.1 80 00:18 27.06.2020
6497 Clear 21 1016 83 10000 4.1 80 23:41 26.06.2020
6498 Clear 22 1016 83 10000 4.1 80 23:21 26.06.2020
6499 Clear 22 1016 83 10000 3.1 90 22:56 26.06.2020
6500 Clear 22 1016 83 10000 2.6 90 22:37 26.06.2020
6501 Clear 22 1016 83 10000 2.6 90 22:18 26.06.2020
6502 Clear 22 1015 83 10000 1.5 80 21:56 26.06.2020
6503 Clear 22 1015 78 10000 1.5 100 21:37 26.06.2020
6504 Clear 22 1015 78 10000 1.5 100 21:18 26.06.2020
6505 Clear 23 1015 78 10000 1 100 20:42 26.06.2020
6506 Clear 23 1015 73 10000 1 110 20:19 26.06.2020
6507 Clear 23 1016 78 10000 1.5 100 19:43 26.06.2020
6508 Clear 23 1016 78 10000 1.5 100 19:23 26.06.2020
6509 Clear 24 1016 73 10000 2.1 100 18:55 26.06.2020
6510 Clear 24 1016 73 10000 2.6 130 18:37 26.06.2020
6511 Clear 24 1016 73 10000 2.6 130 18:18 26.06.2020
6512 Clear 24 1016 73 10000 3.6 110 17:43 26.06.2020
6513 Clear 24 1016 73 10000 3.6 110 17:24 26.06.2020
6514 Clear 24 1017 73 10000 3.6 110 16:48 26.06.2020
6515 Clouds 24 1017 73 10000 4.1 110 16:26 26.06.2020
6516 Clear 24 1017 73 10000 4.1 110 15:55 26.06.2020
6517 Clear 24 1017 69 10000 4.6 120 15:37 26.06.2020
6518 Clear 24 1017 69 10000 4.6 120 15:18 26.06.2020
6519 Clear 24 1017 69 10000 4.6 120 14:56 26.06.2020
6520 Clear 24 1017 69 10000 4.1 110 14:37 26.06.2020
6521 Clear 24 1017 69 10000 4.1 110 14:19 26.06.2020
6522 Clear 24 1017 73 10000 4.6 100 13:43 26.06.2020
6523 Clear 25 1017 69 10000 3.6 120 13:19 26.06.2020
6524 Clear 24 1017 69 10000 3.1 120 12:42 26.06.2020
6525 Clear 24 1017 69 10000 3.1 120 12:24 26.06.2020
6526 Clear 24 1017 69 10000 2.6 130 11:59 26.06.2020
6527 Clear 25 1017 69 10000 1.5 130 11:41 26.06.2020
6528 Clear 25 1017 69 10000 1.5 130 11:22 26.06.2020
6529 Clear 25 1017 69 10000 1.5 0 10:59 26.06.2020
6530 Clear 25 1017 69 10000 1.5 0 10:40 26.06.2020
6531 Clear 25 1017 69 10000 1 0 10:19 26.06.2020
6532 Clouds 25 1017 65 10000 1 0 09:56 26.06.2020
6533 Clear 24 1017 64 10000 1.5 0 09:38 26.06.2020
6534 Clear 22 1017 64 10000 1.5 0 09:18 26.06.2020
6535 Clear 23 1017 64 10000 2.6 330 08:44 26.06.2020
6536 Clear 23 1017 68 10000 3.1 330 08:25 26.06.2020
6537 Clear 22 1017 68 10000 3.1 320 07:47 26.06.2020
6538 Clear 21 1017 73 10000 3.6 320 07:23 26.06.2020
6539 Clear 20 1017 77 10000 3.1 320 06:49 26.06.2020
6540 Clear 19 1017 77 10000 3.1 330 06:30 26.06.2020
6541 Clear 19 1017 73 10000 2.1 340 05:52 26.06.2020
6542 Clear 19 1017 73 10000 2.6 340 04:55 26.06.2020
6543 Clear 20 1017 77 10000 2.1 320 02:32 26.06.2020
6544 Clouds 21 1017 83 10000 1.5 30 01:34 26.06.2020
6545 Clouds 21 1017 83 10000 1.5 40 00:50 26.06.2020
6546 Clouds 21 1017 83 10000 2.1 60 00:30 26.06.2020
6547 Clear 21 1017 83 10000 2.6 90 23:47 25.06.2020
6548 Clear 21 1017 83 10000 2.1 100 23:22 25.06.2020
6549 Clear 21 1017 83 10000 2.1 100 23:22 25.06.2020
6550 Clear 22 1017 78 10000 1.5 80 22:58 25.06.2020
6551 Clear 22 1017 78 10000 1.5 90 22:39 25.06.2020
6552 Clear 22 1017 78 10000 1.5 90 22:20 25.06.2020
6553 Clear 22 1017 78 10000 1.5 110 21:57 25.06.2020
6554 Clear 22 1016 73 10000 2.1 110 21:39 25.06.2020
6555 Clear 23 1016 73 10000 2.1 110 21:20 25.06.2020
6556 Clear 23 1016 73 10000 1.5 100 20:57 25.06.2020
6557 Clear 23 1016 73 10000 1.5 100 20:37 25.06.2020
6558 Clear 23 1016 73 10000 1.5 100 20:19 25.06.2020
6559 Clear 24 1016 69 10000 1.5 120 19:41 25.06.2020
6560 Clear 24 1016 73 10000 2.1 120 19:20 25.06.2020
6561 Clear 24 1016 73 10000 2.6 120 18:59 25.06.2020
6562 Clear 24 1016 78 10000 2.6 110 18:39 25.06.2020
6563 Clear 24 1016 78 10000 2.6 110 18:20 25.06.2020
6564 Clear 24 1017 73 10000 3.6 100 17:45 25.06.2020
6565 Clear 24 1017 78 10000 3.1 110 17:20 25.06.2020
6566 Clear 24 1017 73 10000 3.1 110 16:59 25.06.2020
6567 Clear 25 1017 69 10000 3.1 110 16:40 25.06.2020
6568 Clear 25 1017 69 10000 3.1 110 16:19 25.06.2020
6569 Clear 25 1017 73 10000 3.6 100 15:44 25.06.2020
6570 Clear 25 1017 78 10000 4.1 110 15:26 25.06.2020
6571 Clear 24 1017 78 10000 5.1 100 14:56 25.06.2020
6572 Clear 24 1017 73 10000 5.7 110 14:37 25.06.2020
6573 Clear 24 1017 73 10000 5.7 110 14:19 25.06.2020
6574 Clouds 24 1017 78 10000 5.7 100 13:55 25.06.2020
6575 Clear 24 1017 78 10000 5.1 100 13:36 25.06.2020
6576 Clear 24 1017 78 10000 5.1 100 13:18 25.06.2020
6577 Clear 24 1017 73 10000 5.1 110 12:42 25.06.2020
6578 Clear 24 1017 73 10000 4.6 110 12:20 25.06.2020
6579 Clear 24 1017 73 10000 3.6 110 11:43 25.06.2020
6580 Clear 24 1017 73 10000 3.6 110 11:25 25.06.2020
6581 Clear 24 1017 73 10000 4.1 100 10:57 25.06.2020
6582 Clear 24 1017 78 10000 3.6 90 10:38 25.06.2020
6583 Clear 24 1017 78 10000 3.6 90 10:20 25.06.2020
6584 Clear 24 1017 73 10000 2.1 90 09:41 25.06.2020
6585 Clear 24 1017 64 10000 1.5 70 09:22 25.06.2020
6586 Clear 23 1017 64 10000 1.5 0 08:47 25.06.2020
6587 Clear 23 1017 60 10000 2.1 330 08:20 25.06.2020
6588 Clear 22 1017 60 10000 2.6 330 07:46 25.06.2020
6589 Clear 21 1017 60 10000 2.1 330 07:27 25.06.2020
6590 Clear 20 1017 60 10000 2.1 340 06:53 25.06.2020
6591 Clear 20 1017 64 10000 1.5 340 06:27 25.06.2020
6592 Clear 21 1017 64 10000 2.1 330 05:51 25.06.2020
6593 Clear 22 1017 60 10000 3.6 340 04:29 25.06.2020
6594 Clear 22 1017 60 10000 3.6 340 03:35 25.06.2020
6595 Clear 22 1017 64 10000 3.6 320 02:43 25.06.2020
6596 Clouds 23 1017 64 10000 2.6 330 02:18 25.06.2020
6597 Clouds 23 1017 60 10000 2.6 340 01:29 25.06.2020
6598 Clouds 22 1017 68 10000 2.1 330 00:47 25.06.2020
6599 Clouds 22 1017 64 10000 2.6 310 00:22 25.06.2020
6600 Clouds 23 1017 64 10000 2.1 20 23:45 24.06.2020
6601 Clouds 23 1017 78 10000 2.1 40 23:26 24.06.2020
6602 Clouds 23 1018 78 10000 0.5 0 22:59 24.06.2020
6603 Clouds 23 1018 78 10000 0.5 0 22:59 24.06.2020
6604 Clouds 23 1017 78 10000 1.5 230 22:41 24.06.2020
6605 Clouds 23 1017 78 10000 1.5 230 22:20 24.06.2020
6606 Clouds 23 1017 78 10000 0.5 0 21:56 24.06.2020
6607 Clouds 23 1017 78 10000 1 0 21:37 24.06.2020
6608 Clouds 24 1017 78 10000 1 0 21:19 24.06.2020
6609 Clouds 24 1017 69 10000 1.5 190 20:58 24.06.2020
6610 Clouds 25 1017 73 10000 3.1 190 20:39 24.06.2020
6611 Clouds 25 1017 73 10000 3.1 190 20:20 24.06.2020
6612 Clouds 25 1017 65 10000 3.1 190 19:57 24.06.2020
6613 Clouds 25 1017 65 10000 2.1 180 19:38 24.06.2020
6614 Clouds 26 1017 65 10000 2.1 180 19:19 24.06.2020
6615 Clouds 26 1017 69 10000 2.6 180 18:58 24.06.2020
6616 Clouds 26 1017 69 10000 2.1 170 18:39 24.06.2020
6617 Clear 26 1017 69 10000 2.1 170 18:20 24.06.2020
6618 Clear 26 1017 69 10000 2.1 170 18:20 24.06.2020
6619 Clear 26 1018 78 10000 2.1 150 17:55 24.06.2020
6620 Clear 26 1018 83 10000 2.1 140 17:36 24.06.2020
6621 Clear 26 1018 83 10000 2.1 140 17:18 24.06.2020
6622 Clear 25 1018 78 10000 2.1 120 16:55 24.06.2020
6623 Clear 25 1018 78 10000 2.1 120 16:37 24.06.2020
6624 Clear 25 1018 78 10000 2.1 120 16:19 24.06.2020
6625 Clear 25 1018 78 10000 2.6 130 15:54 24.06.2020
6626 Clear 26 1018 78 10000 2.6 130 15:36 24.06.2020
6627 Clear 26 1018 78 10000 2.6 130 15:18 24.06.2020
6628 Clear 26 1018 78 10000 2.1 120 14:40 24.06.2020
6629 Clear 26 1018 78 10000 2.6 120 14:22 24.06.2020
6630 Clear 26 1018 78 10000 3.1 120 13:42 24.06.2020
6631 Clear 25 1018 78 10000 3.1 120 13:21 24.06.2020
6632 Clear 26 1018 73 10000 3.1 130 12:45 24.06.2020
6633 Clear 25 1018 73 10000 3.1 120 12:22 24.06.2020
6634 Clear 25 1018 73 10000 3.1 110 11:59 24.06.2020
6635 Clear 25 1018 73 10000 2.6 100 11:41 24.06.2020
6636 Clear 25 1018 73 10000 2.6 100 11:23 24.06.2020
6637 Clear 25 1018 73 10000 2.6 110 10:54 24.06.2020
6638 Clear 25 1018 73 10000 3.1 100 10:36 24.06.2020
6639 Clear 25 1018 73 10000 3.1 100 10:18 24.06.2020
6640 Clear 25 1018 69 10000 1.5 0 09:42 24.06.2020
6641 Clear 25 1018 69 10000 1.5 0 09:20 24.06.2020
6642 Clear 25 1018 64 10000 2.1 60 08:41 24.06.2020
6643 Clear 23 1018 60 10000 2.6 40 08:20 24.06.2020
6644 Clear 23 1018 50 10000 3.1 360 07:50 24.06.2020
6645 Clear 22 1018 53 10000 3.1 340 07:26 24.06.2020
6646 Clear 23 1018 56 10000 4.1 330 06:49 24.06.2020
6647 Clear 22 1018 56 10000 1 0 06:25 24.06.2020
6648 Clear 21 1018 64 10000 1.5 20 05:48 24.06.2020
6649 Clear 22 1018 56 10000 1 0 04:41 24.06.2020
6650 Clear 23 1018 53 10000 1.5 350 03:51 24.06.2020
6651 Clear 23 1017 53 10000 1.5 0 03:33 24.06.2020
6652 Clear 23 1018 53 10000 2.6 340 02:41 24.06.2020
6653 Clear 23 1018 56 10000 3.6 330 01:29 24.06.2020
6654 Clear 23 1018 56 10000 4.1 330 00:47 24.06.2020
6655 Clear 23 1018 60 10000 3.1 330 00:27 24.06.2020
6656 Clear 23 1018 60 10000 2.6 330 23:44 23.06.2020
6657 Clear 23 1018 78 10000 2.1 300 23:19 23.06.2020
6658 Clear 23 1017 83 10000 0.5 150 22:42 23.06.2020
6659 Clear 23 1017 83 10000 0.5 150 22:19 23.06.2020
6660 Clear 24 1017 73 10000 1.01 257 21:59 23.06.2020
6661 Clear 24 1017 78 10000 1.01 257 21:39 23.06.2020
6662 Clouds 24 1017 78 10000 1.7 211 21:19 23.06.2020
6663 Clouds 25 1017 78 10000 1 130 20:55 23.06.2020
6664 Clouds 25 1017 69 10000 1.5 160 20:37 23.06.2020
6665 Clouds 26 1017 69 10000 1.5 160 20:18 23.06.2020
6666 Clouds 27 1017 73 10000 1.5 0 19:44 23.06.2020
6667 Clear 27 1017 69 10000 1.5 160 19:26 23.06.2020
6668 Clear 27 1017 74 10000 2.1 180 18:42 23.06.2020
6669 Clear 27